<?xml version="1.0" encoding="UTF-8" standalone="no" ?>
<gpx xmlns="http://www.topografix.com/GPX/1/1" xmlns:xsi="http://www.w3.org/2001/XMLSchema-instance" xsi:schemaLocation="http://www.topografix.com/GPX/1/1 http://www.topografix.com/GPX/1/1/gpx.xsd" version="1.1" creator="VisuGPX - https://www.visugpx.com">
  <metadata>
    <name>Eymards, Coaster, Coco</name>
    <desc><![CDATA[Bel enchainement !]]></desc>
  </metadata>
  <trk>
    <name><![CDATA[Eymards, Coaster, Coco]]></name>
    <trkseg>
      <trkpt lat="45.12984" lon="5.58332">
        <ele>1007.2</ele>
        <time>2020-06-06T06:41:30Z</time>
      </trkpt>
      <trkpt lat="45.12992" lon="5.58309">
        <ele>1006.9</ele>
        <time>2020-06-06T06:41:33Z</time>
      </trkpt>
      <trkpt lat="45.13001" lon="5.58275">
        <ele>1006.3</ele>
        <time>2020-06-06T06:41:37Z</time>
      </trkpt>
      <trkpt lat="45.13014" lon="5.58246">
        <ele>1005.8</ele>
        <time>2020-06-06T06:41:41Z</time>
      </trkpt>
      <trkpt lat="45.13064" lon="5.58219">
        <ele>1004.7</ele>
        <time>2020-06-06T06:41:50Z</time>
      </trkpt>
      <trkpt lat="45.13075" lon="5.58213">
        <ele>1004.3</ele>
        <time>2020-06-06T06:41:52Z</time>
      </trkpt>
      <trkpt lat="45.1309" lon="5.58199">
        <ele>1003.7</ele>
        <time>2020-06-06T06:41:56Z</time>
      </trkpt>
      <trkpt lat="45.13109" lon="5.58179">
        <ele>1003.2</ele>
        <time>2020-06-06T06:42:02Z</time>
      </trkpt>
      <trkpt lat="45.131" lon="5.58144">
        <ele>1004.3</ele>
        <time>2020-06-06T06:42:08Z</time>
      </trkpt>
      <trkpt lat="45.1309" lon="5.58143">
        <ele>1004.1</ele>
        <time>2020-06-06T06:42:10Z</time>
      </trkpt>
      <trkpt lat="45.13055" lon="5.58137">
        <ele>1004.7</ele>
        <time>2020-06-06T06:42:18Z</time>
      </trkpt>
      <trkpt lat="45.13052" lon="5.58108">
        <ele>1005.4</ele>
        <time>2020-06-06T06:42:22Z</time>
      </trkpt>
      <trkpt lat="45.13046" lon="5.58097">
        <ele>1005.7</ele>
        <time>2020-06-06T06:42:24Z</time>
      </trkpt>
      <trkpt lat="45.13005" lon="5.58069">
        <ele>1006.3</ele>
        <time>2020-06-06T06:42:32Z</time>
      </trkpt>
      <trkpt lat="45.1299" lon="5.58057">
        <ele>1006.3</ele>
        <time>2020-06-06T06:42:35Z</time>
      </trkpt>
      <trkpt lat="45.12977" lon="5.58047">
        <ele>1006.4</ele>
        <time>2020-06-06T06:42:38Z</time>
      </trkpt>
      <trkpt lat="45.12973" lon="5.58043">
        <ele>1006.5</ele>
        <time>2020-06-06T06:42:39Z</time>
      </trkpt>
      <trkpt lat="45.1296" lon="5.58032">
        <ele>1006.6</ele>
        <time>2020-06-06T06:42:42Z</time>
      </trkpt>
      <trkpt lat="45.12864" lon="5.57956">
        <ele>1005.1</ele>
        <time>2020-06-06T06:43:04Z</time>
      </trkpt>
      <trkpt lat="45.12834" lon="5.57934">
        <ele>1003.1</ele>
        <time>2020-06-06T06:43:11Z</time>
      </trkpt>
      <trkpt lat="45.12826" lon="5.57927">
        <ele>1002.9</ele>
        <time>2020-06-06T06:43:13Z</time>
      </trkpt>
      <trkpt lat="45.12775" lon="5.57886">
        <ele>1004</ele>
        <time>2020-06-06T06:43:25Z</time>
      </trkpt>
      <trkpt lat="45.12767" lon="5.57879">
        <ele>1004.2</ele>
        <time>2020-06-06T06:43:27Z</time>
      </trkpt>
      <trkpt lat="45.12762" lon="5.57869">
        <ele>1004.6</ele>
        <time>2020-06-06T06:43:29Z</time>
      </trkpt>
      <trkpt lat="45.12761" lon="5.57863">
        <ele>1004.9</ele>
        <time>2020-06-06T06:43:30Z</time>
      </trkpt>
      <trkpt lat="45.12772" lon="5.57793">
        <ele>1012.9</ele>
        <time>2020-06-06T06:44:05Z</time>
      </trkpt>
      <trkpt lat="45.12772" lon="5.57788">
        <ele>1013.6</ele>
        <time>2020-06-06T06:44:08Z</time>
      </trkpt>
      <trkpt lat="45.12774" lon="5.57763">
        <ele>1017.7</ele>
        <time>2020-06-06T06:44:24Z</time>
      </trkpt>
      <trkpt lat="45.12773" lon="5.57761">
        <ele>1017.9</ele>
        <time>2020-06-06T06:44:27Z</time>
      </trkpt>
      <trkpt lat="45.12767" lon="5.57734">
        <ele>1020.9</ele>
        <time>2020-06-06T06:44:52Z</time>
      </trkpt>
      <trkpt lat="45.12766" lon="5.57728">
        <ele>1021.4</ele>
        <time>2020-06-06T06:44:55Z</time>
      </trkpt>
      <trkpt lat="45.12759" lon="5.57707">
        <ele>1022.3</ele>
        <time>2020-06-06T06:45:05Z</time>
      </trkpt>
      <trkpt lat="45.12754" lon="5.57686">
        <ele>1023</ele>
        <time>2020-06-06T06:45:13Z</time>
      </trkpt>
      <trkpt lat="45.12719" lon="5.57634">
        <ele>1031.3</ele>
        <time>2020-06-06T06:45:42Z</time>
      </trkpt>
      <trkpt lat="45.12713" lon="5.57627">
        <ele>1033.1</ele>
        <time>2020-06-06T06:45:47Z</time>
      </trkpt>
      <trkpt lat="45.1271" lon="5.57624">
        <ele>1033.7</ele>
        <time>2020-06-06T06:45:49Z</time>
      </trkpt>
      <trkpt lat="45.12704" lon="5.57618">
        <ele>1034.8</ele>
        <time>2020-06-06T06:45:54Z</time>
      </trkpt>
      <trkpt lat="45.12673" lon="5.57593">
        <ele>1037.2</ele>
        <time>2020-06-06T06:46:17Z</time>
      </trkpt>
      <trkpt lat="45.12667" lon="5.57585">
        <ele>1038.6</ele>
        <time>2020-06-06T06:46:22Z</time>
      </trkpt>
      <trkpt lat="45.12661" lon="5.57575">
        <ele>1039.8</ele>
        <time>2020-06-06T06:46:28Z</time>
      </trkpt>
      <trkpt lat="45.12653" lon="5.5756">
        <ele>1041.5</ele>
        <time>2020-06-06T06:46:36Z</time>
      </trkpt>
      <trkpt lat="45.12646" lon="5.57545">
        <ele>1043.4</ele>
        <time>2020-06-06T06:46:44Z</time>
      </trkpt>
      <trkpt lat="45.12622" lon="5.57507">
        <ele>1045.8</ele>
        <time>2020-06-06T06:47:08Z</time>
      </trkpt>
      <trkpt lat="45.12618" lon="5.57502">
        <ele>1045.7</ele>
        <time>2020-06-06T06:47:11Z</time>
      </trkpt>
      <trkpt lat="45.12617" lon="5.575">
        <ele>1045.7</ele>
        <time>2020-06-06T06:47:12Z</time>
      </trkpt>
      <trkpt lat="45.12582" lon="5.57456">
        <ele>1048.5</ele>
        <time>2020-06-06T06:47:40Z</time>
      </trkpt>
      <trkpt lat="45.1258" lon="5.57451">
        <ele>1049.7</ele>
        <time>2020-06-06T06:47:43Z</time>
      </trkpt>
      <trkpt lat="45.12578" lon="5.57447">
        <ele>1050.4</ele>
        <time>2020-06-06T06:47:45Z</time>
      </trkpt>
      <trkpt lat="45.12577" lon="5.57437">
        <ele>1053</ele>
        <time>2020-06-06T06:47:49Z</time>
      </trkpt>
      <trkpt lat="45.12569" lon="5.57423">
        <ele>1055.6</ele>
        <time>2020-06-06T06:47:56Z</time>
      </trkpt>
      <trkpt lat="45.12568" lon="5.57421">
        <ele>1055.8</ele>
        <time>2020-06-06T06:47:57Z</time>
      </trkpt>
      <trkpt lat="45.12533" lon="5.57382">
        <ele>1060.2</ele>
        <time>2020-06-06T06:48:25Z</time>
      </trkpt>
      <trkpt lat="45.12531" lon="5.5738">
        <ele>1060.4</ele>
        <time>2020-06-06T06:48:26Z</time>
      </trkpt>
      <trkpt lat="45.12526" lon="5.57375">
        <ele>1061</ele>
        <time>2020-06-06T06:48:30Z</time>
      </trkpt>
      <trkpt lat="45.12523" lon="5.5737">
        <ele>1061.5</ele>
        <time>2020-06-06T06:48:33Z</time>
      </trkpt>
      <trkpt lat="45.12517" lon="5.57365">
        <ele>1061.9</ele>
        <time>2020-06-06T06:48:37Z</time>
      </trkpt>
      <trkpt lat="45.12476" lon="5.57316">
        <ele>1070.1</ele>
        <time>2020-06-06T06:49:12Z</time>
      </trkpt>
      <trkpt lat="45.12469" lon="5.57307">
        <ele>1072.5</ele>
        <time>2020-06-06T06:49:18Z</time>
      </trkpt>
      <trkpt lat="45.1246" lon="5.57293">
        <ele>1076</ele>
        <time>2020-06-06T06:49:27Z</time>
      </trkpt>
      <trkpt lat="45.12457" lon="5.57288">
        <ele>1077.3</ele>
        <time>2020-06-06T06:49:30Z</time>
      </trkpt>
      <trkpt lat="45.12445" lon="5.57267">
        <ele>1082.8</ele>
        <time>2020-06-06T06:49:44Z</time>
      </trkpt>
      <trkpt lat="45.12443" lon="5.57262">
        <ele>1084.5</ele>
        <time>2020-06-06T06:49:47Z</time>
      </trkpt>
      <trkpt lat="45.1238" lon="5.5721">
        <ele>1089.5</ele>
        <time>2020-06-06T06:50:30Z</time>
      </trkpt>
      <trkpt lat="45.12373" lon="5.57204">
        <ele>1089.8</ele>
        <time>2020-06-06T06:50:34Z</time>
      </trkpt>
      <trkpt lat="45.12365" lon="5.57197">
        <ele>1090.3</ele>
        <time>2020-06-06T06:50:39Z</time>
      </trkpt>
      <trkpt lat="45.12364" lon="5.57195">
        <ele>1090.4</ele>
        <time>2020-06-06T06:50:40Z</time>
      </trkpt>
      <trkpt lat="45.12357" lon="5.57187">
        <ele>1091.2</ele>
        <time>2020-06-06T06:50:45Z</time>
      </trkpt>
      <trkpt lat="45.12355" lon="5.57184">
        <ele>1091.6</ele>
        <time>2020-06-06T06:50:47Z</time>
      </trkpt>
      <trkpt lat="45.12339" lon="5.57171">
        <ele>1091.4</ele>
        <time>2020-06-06T06:51:00Z</time>
      </trkpt>
      <trkpt lat="45.12367" lon="5.57164">
        <ele>1102.8</ele>
        <time>2020-06-06T06:51:22Z</time>
      </trkpt>
      <trkpt lat="45.12373" lon="5.57164">
        <ele>1104.6</ele>
        <time>2020-06-06T06:51:27Z</time>
      </trkpt>
      <trkpt lat="45.1238" lon="5.57163">
        <ele>1107.3</ele>
        <time>2020-06-06T06:51:33Z</time>
      </trkpt>
      <trkpt lat="45.12382" lon="5.57164">
        <ele>1107.4</ele>
        <time>2020-06-06T06:51:35Z</time>
      </trkpt>
      <trkpt lat="45.12397" lon="5.57166">
        <ele>1110.8</ele>
        <time>2020-06-06T06:51:49Z</time>
      </trkpt>
      <trkpt lat="45.12402" lon="5.57169">
        <ele>1111.4</ele>
        <time>2020-06-06T06:51:53Z</time>
      </trkpt>
      <trkpt lat="45.12413" lon="5.57175">
        <ele>1112.3</ele>
        <time>2020-06-06T06:51:59Z</time>
      </trkpt>
      <trkpt lat="45.12438" lon="5.57181">
        <ele>1115.9</ele>
        <time>2020-06-06T06:52:10Z</time>
      </trkpt>
      <trkpt lat="45.12444" lon="5.57191">
        <ele>1113</ele>
        <time>2020-06-06T06:52:15Z</time>
      </trkpt>
      <trkpt lat="45.12447" lon="5.57189">
        <ele>1114.4</ele>
        <time>2020-06-06T06:52:17Z</time>
      </trkpt>
      <trkpt lat="45.1243" lon="5.57181">
        <ele>1113.8</ele>
        <time>2020-06-06T06:52:33Z</time>
      </trkpt>
      <trkpt lat="45.12393" lon="5.57156">
        <ele>1114.7</ele>
        <time>2020-06-06T06:52:57Z</time>
      </trkpt>
      <trkpt lat="45.12372" lon="5.57142">
        <ele>1116</ele>
        <time>2020-06-06T06:53:06Z</time>
      </trkpt>
      <trkpt lat="45.12363" lon="5.57136">
        <ele>1116.7</ele>
        <time>2020-06-06T06:53:09Z</time>
      </trkpt>
      <trkpt lat="45.12351" lon="5.57126">
        <ele>1119.1</ele>
        <time>2020-06-06T06:53:16Z</time>
      </trkpt>
      <trkpt lat="45.12349" lon="5.57124">
        <ele>1119.9</ele>
        <time>2020-06-06T06:53:18Z</time>
      </trkpt>
      <trkpt lat="45.12347" lon="5.57122">
        <ele>1120.7</ele>
        <time>2020-06-06T06:53:20Z</time>
      </trkpt>
      <trkpt lat="45.12335" lon="5.57113">
        <ele>1123.2</ele>
        <time>2020-06-06T06:53:31Z</time>
      </trkpt>
      <trkpt lat="45.1233" lon="5.57106">
        <ele>1125.7</ele>
        <time>2020-06-06T06:53:35Z</time>
      </trkpt>
      <trkpt lat="45.12315" lon="5.57095">
        <ele>1127.9</ele>
        <time>2020-06-06T06:53:48Z</time>
      </trkpt>
      <trkpt lat="45.12314" lon="5.57093">
        <ele>1128.4</ele>
        <time>2020-06-06T06:53:49Z</time>
      </trkpt>
      <trkpt lat="45.12305" lon="5.57081">
        <ele>1131.8</ele>
        <time>2020-06-06T06:54:01Z</time>
      </trkpt>
      <trkpt lat="45.12287" lon="5.57072">
        <ele>1130.3</ele>
        <time>2020-06-06T06:54:14Z</time>
      </trkpt>
      <trkpt lat="45.12285" lon="5.57072">
        <ele>1130</ele>
        <time>2020-06-06T06:54:15Z</time>
      </trkpt>
      <trkpt lat="45.12279" lon="5.57061">
        <ele>1133.3</ele>
        <time>2020-06-06T06:54:26Z</time>
      </trkpt>
      <trkpt lat="45.12273" lon="5.57054">
        <ele>1134.5</ele>
        <time>2020-06-06T06:54:31Z</time>
      </trkpt>
      <trkpt lat="45.12267" lon="5.5705">
        <ele>1134.7</ele>
        <time>2020-06-06T06:54:35Z</time>
      </trkpt>
      <trkpt lat="45.12264" lon="5.57047">
        <ele>1135.3</ele>
        <time>2020-06-06T06:54:38Z</time>
      </trkpt>
      <trkpt lat="45.12261" lon="5.57045">
        <ele>1135.4</ele>
        <time>2020-06-06T06:54:41Z</time>
      </trkpt>
      <trkpt lat="45.12257" lon="5.57043">
        <ele>1135.3</ele>
        <time>2020-06-06T06:54:44Z</time>
      </trkpt>
      <trkpt lat="45.12251" lon="5.57039">
        <ele>1135.5</ele>
        <time>2020-06-06T06:54:50Z</time>
      </trkpt>
      <trkpt lat="45.12248" lon="5.57037">
        <ele>1136.3</ele>
        <time>2020-06-06T06:54:53Z</time>
      </trkpt>
      <trkpt lat="45.12243" lon="5.57034">
        <ele>1137</ele>
        <time>2020-06-06T06:54:56Z</time>
      </trkpt>
      <trkpt lat="45.12224" lon="5.57015">
        <ele>1143.4</ele>
        <time>2020-06-06T06:55:14Z</time>
      </trkpt>
      <trkpt lat="45.12222" lon="5.57012">
        <ele>1144.8</ele>
        <time>2020-06-06T06:55:16Z</time>
      </trkpt>
      <trkpt lat="45.1222" lon="5.5701">
        <ele>1145.3</ele>
        <time>2020-06-06T06:55:19Z</time>
      </trkpt>
      <trkpt lat="45.12217" lon="5.57009">
        <ele>1145.5</ele>
        <time>2020-06-06T06:55:21Z</time>
      </trkpt>
      <trkpt lat="45.12211" lon="5.57006">
        <ele>1145.9</ele>
        <time>2020-06-06T06:55:28Z</time>
      </trkpt>
      <trkpt lat="45.12203" lon="5.57003">
        <ele>1146.3</ele>
        <time>2020-06-06T06:55:33Z</time>
      </trkpt>
      <trkpt lat="45.12202" lon="5.57002">
        <ele>1146.4</ele>
        <time>2020-06-06T06:55:34Z</time>
      </trkpt>
      <trkpt lat="45.12198" lon="5.56999">
        <ele>1147.3</ele>
        <time>2020-06-06T06:55:38Z</time>
      </trkpt>
      <trkpt lat="45.12193" lon="5.56998">
        <ele>1147.2</ele>
        <time>2020-06-06T06:55:41Z</time>
      </trkpt>
      <trkpt lat="45.12187" lon="5.56996">
        <ele>1147.3</ele>
        <time>2020-06-06T06:55:47Z</time>
      </trkpt>
      <trkpt lat="45.12176" lon="5.56994">
        <ele>1146.4</ele>
        <time>2020-06-06T06:55:55Z</time>
      </trkpt>
      <trkpt lat="45.12174" lon="5.56992">
        <ele>1147.1</ele>
        <time>2020-06-06T06:55:57Z</time>
      </trkpt>
      <trkpt lat="45.12172" lon="5.5699">
        <ele>1147.8</ele>
        <time>2020-06-06T06:55:59Z</time>
      </trkpt>
      <trkpt lat="45.12169" lon="5.56986">
        <ele>1149</ele>
        <time>2020-06-06T06:56:02Z</time>
      </trkpt>
      <trkpt lat="45.12164" lon="5.56982">
        <ele>1150.1</ele>
        <time>2020-06-06T06:56:06Z</time>
      </trkpt>
      <trkpt lat="45.1215" lon="5.56968">
        <ele>1153.6</ele>
        <time>2020-06-06T06:56:23Z</time>
      </trkpt>
      <trkpt lat="45.12148" lon="5.56966">
        <ele>1154.4</ele>
        <time>2020-06-06T06:56:25Z</time>
      </trkpt>
      <trkpt lat="45.12133" lon="5.56953">
        <ele>1157</ele>
        <time>2020-06-06T06:56:39Z</time>
      </trkpt>
      <trkpt lat="45.12127" lon="5.56946">
        <ele>1158.8</ele>
        <time>2020-06-06T06:56:46Z</time>
      </trkpt>
      <trkpt lat="45.12125" lon="5.56944">
        <ele>1159.7</ele>
        <time>2020-06-06T06:56:48Z</time>
      </trkpt>
      <trkpt lat="45.1212" lon="5.56936">
        <ele>1162.4</ele>
        <time>2020-06-06T06:56:54Z</time>
      </trkpt>
      <trkpt lat="45.12116" lon="5.56932">
        <ele>1163.3</ele>
        <time>2020-06-06T06:56:57Z</time>
      </trkpt>
      <trkpt lat="45.12114" lon="5.56927">
        <ele>1165.1</ele>
        <time>2020-06-06T06:57:01Z</time>
      </trkpt>
      <trkpt lat="45.12113" lon="5.56924">
        <ele>1166.2</ele>
        <time>2020-06-06T06:57:03Z</time>
      </trkpt>
      <trkpt lat="45.12089" lon="5.56892">
        <ele>1170.4</ele>
        <time>2020-06-06T06:57:31Z</time>
      </trkpt>
      <trkpt lat="45.12088" lon="5.56891">
        <ele>1170.4</ele>
        <time>2020-06-06T06:57:32Z</time>
      </trkpt>
      <trkpt lat="45.12072" lon="5.56882">
        <ele>1169.3</ele>
        <time>2020-06-06T06:57:39Z</time>
      </trkpt>
      <trkpt lat="45.12065" lon="5.56876">
        <ele>1169.6</ele>
        <time>2020-06-06T06:57:46Z</time>
      </trkpt>
      <trkpt lat="45.1206" lon="5.5687">
        <ele>1169.8</ele>
        <time>2020-06-06T06:57:52Z</time>
      </trkpt>
      <trkpt lat="45.12042" lon="5.56849">
        <ele>1171.1</ele>
        <time>2020-06-06T06:58:10Z</time>
      </trkpt>
      <trkpt lat="45.1204" lon="5.56848">
        <ele>1171.1</ele>
        <time>2020-06-06T06:58:11Z</time>
      </trkpt>
      <trkpt lat="45.12039" lon="5.56846">
        <ele>1171.3</ele>
        <time>2020-06-06T06:58:12Z</time>
      </trkpt>
      <trkpt lat="45.12042" lon="5.56827">
        <ele>1174.9</ele>
        <time>2020-06-06T06:58:23Z</time>
      </trkpt>
      <trkpt lat="45.12058" lon="5.56777">
        <ele>1176.9</ele>
        <time>2020-06-06T06:58:49Z</time>
      </trkpt>
      <trkpt lat="45.12077" lon="5.5674">
        <ele>1179.2</ele>
        <time>2020-06-06T06:59:09Z</time>
      </trkpt>
      <trkpt lat="45.12082" lon="5.5673">
        <ele>1179.6</ele>
        <time>2020-06-06T06:59:14Z</time>
      </trkpt>
      <trkpt lat="45.12089" lon="5.56718">
        <ele>1180.3</ele>
        <time>2020-06-06T06:59:20Z</time>
      </trkpt>
      <trkpt lat="45.12095" lon="5.56707">
        <ele>1181</ele>
        <time>2020-06-06T06:59:26Z</time>
      </trkpt>
      <trkpt lat="45.121" lon="5.56699">
        <ele>1181.4</ele>
        <time>2020-06-06T06:59:30Z</time>
      </trkpt>
      <trkpt lat="45.12108" lon="5.56686">
        <ele>1182.2</ele>
        <time>2020-06-06T06:59:37Z</time>
      </trkpt>
      <trkpt lat="45.12112" lon="5.5668">
        <ele>1182.6</ele>
        <time>2020-06-06T06:59:40Z</time>
      </trkpt>
      <trkpt lat="45.12134" lon="5.56652">
        <ele>1184.4</ele>
        <time>2020-06-06T06:59:57Z</time>
      </trkpt>
      <trkpt lat="45.12144" lon="5.56647">
        <ele>1185.8</ele>
        <time>2020-06-06T07:00:02Z</time>
      </trkpt>
      <trkpt lat="45.12149" lon="5.56644">
        <ele>1186.5</ele>
        <time>2020-06-06T07:00:06Z</time>
      </trkpt>
      <trkpt lat="45.12158" lon="5.56639">
        <ele>1187.5</ele>
        <time>2020-06-06T07:00:12Z</time>
      </trkpt>
      <trkpt lat="45.1216" lon="5.56638">
        <ele>1187.6</ele>
        <time>2020-06-06T07:00:13Z</time>
      </trkpt>
      <trkpt lat="45.12181" lon="5.56621">
        <ele>1189.9</ele>
        <time>2020-06-06T07:00:27Z</time>
      </trkpt>
      <trkpt lat="45.12195" lon="5.56607">
        <ele>1191.1</ele>
        <time>2020-06-06T07:00:35Z</time>
      </trkpt>
      <trkpt lat="45.12204" lon="5.56581">
        <ele>1190.2</ele>
        <time>2020-06-06T07:00:44Z</time>
      </trkpt>
      <trkpt lat="45.12206" lon="5.56575">
        <ele>1190.4</ele>
        <time>2020-06-06T07:00:46Z</time>
      </trkpt>
      <trkpt lat="45.12211" lon="5.56558">
        <ele>1190.8</ele>
        <time>2020-06-06T07:00:53Z</time>
      </trkpt>
      <trkpt lat="45.12216" lon="5.56532">
        <ele>1190.7</ele>
        <time>2020-06-06T07:01:03Z</time>
      </trkpt>
      <trkpt lat="45.12217" lon="5.56527">
        <ele>1190.7</ele>
        <time>2020-06-06T07:01:05Z</time>
      </trkpt>
      <trkpt lat="45.12233" lon="5.56455">
        <ele>1192.7</ele>
        <time>2020-06-06T07:01:33Z</time>
      </trkpt>
      <trkpt lat="45.12235" lon="5.56447">
        <ele>1193.2</ele>
        <time>2020-06-06T07:01:36Z</time>
      </trkpt>
      <trkpt lat="45.12245" lon="5.56417">
        <ele>1195.5</ele>
        <time>2020-06-06T07:01:49Z</time>
      </trkpt>
      <trkpt lat="45.12267" lon="5.56426">
        <ele>1197.8</ele>
        <time>2020-06-06T07:02:05Z</time>
      </trkpt>
      <trkpt lat="45.12274" lon="5.56431">
        <ele>1198.5</ele>
        <time>2020-06-06T07:02:11Z</time>
      </trkpt>
      <trkpt lat="45.12282" lon="5.56437">
        <ele>1199.5</ele>
        <time>2020-06-06T07:02:17Z</time>
      </trkpt>
      <trkpt lat="45.12293" lon="5.56444">
        <ele>1201</ele>
        <time>2020-06-06T07:02:25Z</time>
      </trkpt>
      <trkpt lat="45.12295" lon="5.56445">
        <ele>1201.4</ele>
        <time>2020-06-06T07:02:27Z</time>
      </trkpt>
      <trkpt lat="45.12314" lon="5.56459">
        <ele>1204.4</ele>
        <time>2020-06-06T07:02:40Z</time>
      </trkpt>
      <trkpt lat="45.12324" lon="5.56463">
        <ele>1206</ele>
        <time>2020-06-06T07:02:45Z</time>
      </trkpt>
      <trkpt lat="45.1237" lon="5.56484">
        <ele>1210.8</ele>
        <time>2020-06-06T07:03:16Z</time>
      </trkpt>
      <trkpt lat="45.12376" lon="5.56485">
        <ele>1211.2</ele>
        <time>2020-06-06T07:03:20Z</time>
      </trkpt>
      <trkpt lat="45.12421" lon="5.56491">
        <ele>1214.9</ele>
        <time>2020-06-06T07:03:37Z</time>
      </trkpt>
      <trkpt lat="45.12446" lon="5.56454">
        <ele>1216.2</ele>
        <time>2020-06-06T07:03:47Z</time>
      </trkpt>
      <trkpt lat="45.12447" lon="5.56449">
        <ele>1215.9</ele>
        <time>2020-06-06T07:03:49Z</time>
      </trkpt>
      <trkpt lat="45.12448" lon="5.56441">
        <ele>1215.5</ele>
        <time>2020-06-06T07:03:52Z</time>
      </trkpt>
      <trkpt lat="45.12452" lon="5.56423">
        <ele>1214.9</ele>
        <time>2020-06-06T07:03:58Z</time>
      </trkpt>
      <trkpt lat="45.12461" lon="5.56404">
        <ele>1215.3</ele>
        <time>2020-06-06T07:04:04Z</time>
      </trkpt>
      <trkpt lat="45.12469" lon="5.56396">
        <ele>1216.1</ele>
        <time>2020-06-06T07:04:08Z</time>
      </trkpt>
      <trkpt lat="45.1247" lon="5.56394">
        <ele>1216.2</ele>
        <time>2020-06-06T07:04:09Z</time>
      </trkpt>
      <trkpt lat="45.12471" lon="5.56392">
        <ele>1216.3</ele>
        <time>2020-06-06T07:04:10Z</time>
      </trkpt>
      <trkpt lat="45.12473" lon="5.5639">
        <ele>1216.3</ele>
        <time>2020-06-06T07:04:11Z</time>
      </trkpt>
      <trkpt lat="45.12475" lon="5.56386">
        <ele>1216.5</ele>
        <time>2020-06-06T07:04:13Z</time>
      </trkpt>
      <trkpt lat="45.12488" lon="5.56373">
        <ele>1217.6</ele>
        <time>2020-06-06T07:04:21Z</time>
      </trkpt>
      <trkpt lat="45.12495" lon="5.56368">
        <ele>1218.4</ele>
        <time>2020-06-06T07:04:26Z</time>
      </trkpt>
      <trkpt lat="45.12504" lon="5.5636">
        <ele>1219.1</ele>
        <time>2020-06-06T07:04:33Z</time>
      </trkpt>
      <trkpt lat="45.12508" lon="5.56354">
        <ele>1219.2</ele>
        <time>2020-06-06T07:04:36Z</time>
      </trkpt>
      <trkpt lat="45.12511" lon="5.56353">
        <ele>1219.6</ele>
        <time>2020-06-06T07:04:38Z</time>
      </trkpt>
      <trkpt lat="45.12513" lon="5.56349">
        <ele>1219.5</ele>
        <time>2020-06-06T07:04:40Z</time>
      </trkpt>
      <trkpt lat="45.12513" lon="5.56349">
        <ele>1219.6</ele>
        <time>2020-06-06T07:04:41Z</time>
      </trkpt>
      <trkpt lat="45.12546" lon="5.56315">
        <ele>1220.2</ele>
        <time>2020-06-06T07:05:04Z</time>
      </trkpt>
      <trkpt lat="45.12554" lon="5.56308">
        <ele>1220.1</ele>
        <time>2020-06-06T07:05:07Z</time>
      </trkpt>
      <trkpt lat="45.12565" lon="5.56297">
        <ele>1219.9</ele>
        <time>2020-06-06T07:05:11Z</time>
      </trkpt>
      <trkpt lat="45.12568" lon="5.56294">
        <ele>1219.8</ele>
        <time>2020-06-06T07:05:12Z</time>
      </trkpt>
      <trkpt lat="45.12575" lon="5.56287">
        <ele>1219.5</ele>
        <time>2020-06-06T07:05:14Z</time>
      </trkpt>
      <trkpt lat="45.12578" lon="5.56283">
        <ele>1219.2</ele>
        <time>2020-06-06T07:05:15Z</time>
      </trkpt>
      <trkpt lat="45.12582" lon="5.56281">
        <ele>1219.3</ele>
        <time>2020-06-06T07:05:16Z</time>
      </trkpt>
      <trkpt lat="45.12585" lon="5.5628">
        <ele>1219.5</ele>
        <time>2020-06-06T07:05:17Z</time>
      </trkpt>
      <trkpt lat="45.12597" lon="5.56279">
        <ele>1220.8</ele>
        <time>2020-06-06T07:05:20Z</time>
      </trkpt>
      <trkpt lat="45.126" lon="5.56281">
        <ele>1221.4</ele>
        <time>2020-06-06T07:05:21Z</time>
      </trkpt>
      <trkpt lat="45.1262" lon="5.56283">
        <ele>1223.9</ele>
        <time>2020-06-06T07:05:27Z</time>
      </trkpt>
      <trkpt lat="45.12629" lon="5.56278">
        <ele>1224.3</ele>
        <time>2020-06-06T07:05:31Z</time>
      </trkpt>
      <trkpt lat="45.12658" lon="5.56262">
        <ele>1226.6</ele>
        <time>2020-06-06T07:05:47Z</time>
      </trkpt>
      <trkpt lat="45.12661" lon="5.56261">
        <ele>1226.9</ele>
        <time>2020-06-06T07:05:49Z</time>
      </trkpt>
      <trkpt lat="45.12667" lon="5.56261">
        <ele>1227.6</ele>
        <time>2020-06-06T07:05:53Z</time>
      </trkpt>
      <trkpt lat="45.12671" lon="5.56258">
        <ele>1228.5</ele>
        <time>2020-06-06T07:05:58Z</time>
      </trkpt>
      <trkpt lat="45.1268" lon="5.56243">
        <ele>1230</ele>
        <time>2020-06-06T07:06:11Z</time>
      </trkpt>
      <trkpt lat="45.12683" lon="5.56239">
        <ele>1230.6</ele>
        <time>2020-06-06T07:06:15Z</time>
      </trkpt>
      <trkpt lat="45.12686" lon="5.56237">
        <ele>1231.3</ele>
        <time>2020-06-06T07:06:17Z</time>
      </trkpt>
      <trkpt lat="45.12687" lon="5.56236">
        <ele>1231.5</ele>
        <time>2020-06-06T07:06:19Z</time>
      </trkpt>
      <trkpt lat="45.12692" lon="5.56232">
        <ele>1232.6</ele>
        <time>2020-06-06T07:06:23Z</time>
      </trkpt>
      <trkpt lat="45.12697" lon="5.56229">
        <ele>1233.6</ele>
        <time>2020-06-06T07:06:26Z</time>
      </trkpt>
      <trkpt lat="45.12703" lon="5.56229">
        <ele>1234.8</ele>
        <time>2020-06-06T07:06:34Z</time>
      </trkpt>
      <trkpt lat="45.12706" lon="5.56225">
        <ele>1235.3</ele>
        <time>2020-06-06T07:06:37Z</time>
      </trkpt>
      <trkpt lat="45.12714" lon="5.56225">
        <ele>1237</ele>
        <time>2020-06-06T07:06:42Z</time>
      </trkpt>
      <trkpt lat="45.12717" lon="5.56222">
        <ele>1237.5</ele>
        <time>2020-06-06T07:06:46Z</time>
      </trkpt>
      <trkpt lat="45.12732" lon="5.56211">
        <ele>1240.3</ele>
        <time>2020-06-06T07:06:58Z</time>
      </trkpt>
      <trkpt lat="45.12739" lon="5.56204">
        <ele>1241.3</ele>
        <time>2020-06-06T07:07:05Z</time>
      </trkpt>
      <trkpt lat="45.1274" lon="5.56202">
        <ele>1241.5</ele>
        <time>2020-06-06T07:07:07Z</time>
      </trkpt>
      <trkpt lat="45.12747" lon="5.56194">
        <ele>1242.5</ele>
        <time>2020-06-06T07:07:12Z</time>
      </trkpt>
      <trkpt lat="45.12754" lon="5.56181">
        <ele>1242.7</ele>
        <time>2020-06-06T07:07:19Z</time>
      </trkpt>
      <trkpt lat="45.12757" lon="5.56179">
        <ele>1242.7</ele>
        <time>2020-06-06T07:07:21Z</time>
      </trkpt>
      <trkpt lat="45.12779" lon="5.56151">
        <ele>1240.5</ele>
        <time>2020-06-06T07:07:37Z</time>
      </trkpt>
      <trkpt lat="45.12783" lon="5.56145">
        <ele>1239.7</ele>
        <time>2020-06-06T07:07:39Z</time>
      </trkpt>
      <trkpt lat="45.128" lon="5.5613">
        <ele>1237.8</ele>
        <time>2020-06-06T07:07:44Z</time>
      </trkpt>
      <trkpt lat="45.12812" lon="5.56121">
        <ele>1236.6</ele>
        <time>2020-06-06T07:07:47Z</time>
      </trkpt>
      <trkpt lat="45.12815" lon="5.56117">
        <ele>1236.1</ele>
        <time>2020-06-06T07:07:48Z</time>
      </trkpt>
      <trkpt lat="45.1282" lon="5.56113">
        <ele>1235.6</ele>
        <time>2020-06-06T07:07:49Z</time>
      </trkpt>
      <trkpt lat="45.12826" lon="5.56109">
        <ele>1235</ele>
        <time>2020-06-06T07:07:50Z</time>
      </trkpt>
      <trkpt lat="45.12875" lon="5.56104">
        <ele>1235.5</ele>
        <time>2020-06-06T07:07:56Z</time>
      </trkpt>
      <trkpt lat="45.1288" lon="5.56099">
        <ele>1234.8</ele>
        <time>2020-06-06T07:07:57Z</time>
      </trkpt>
      <trkpt lat="45.12911" lon="5.56079">
        <ele>1233.3</ele>
        <time>2020-06-06T07:08:02Z</time>
      </trkpt>
      <trkpt lat="45.12916" lon="5.56078">
        <ele>1233.4</ele>
        <time>2020-06-06T07:08:03Z</time>
      </trkpt>
      <trkpt lat="45.12946" lon="5.56062">
        <ele>1232.3</ele>
        <time>2020-06-06T07:08:14Z</time>
      </trkpt>
      <trkpt lat="45.12959" lon="5.56058">
        <ele>1232.1</ele>
        <time>2020-06-06T07:08:17Z</time>
      </trkpt>
      <trkpt lat="45.13004" lon="5.56058">
        <ele>1232.9</ele>
        <time>2020-06-06T07:08:31Z</time>
      </trkpt>
      <trkpt lat="45.13017" lon="5.56053">
        <ele>1232.3</ele>
        <time>2020-06-06T07:08:37Z</time>
      </trkpt>
      <trkpt lat="45.13022" lon="5.5604">
        <ele>1230.8</ele>
        <time>2020-06-06T07:08:41Z</time>
      </trkpt>
      <trkpt lat="45.13024" lon="5.56037">
        <ele>1230.5</ele>
        <time>2020-06-06T07:08:42Z</time>
      </trkpt>
      <trkpt lat="45.13031" lon="5.56033">
        <ele>1230.1</ele>
        <time>2020-06-06T07:08:46Z</time>
      </trkpt>
      <trkpt lat="45.13048" lon="5.56025">
        <ele>1229.5</ele>
        <time>2020-06-06T07:08:54Z</time>
      </trkpt>
      <trkpt lat="45.13055" lon="5.56043">
        <ele>1231.1</ele>
        <time>2020-06-06T07:09:02Z</time>
      </trkpt>
      <trkpt lat="45.13062" lon="5.56062">
        <ele>1232.7</ele>
        <time>2020-06-06T07:09:07Z</time>
      </trkpt>
      <trkpt lat="45.13066" lon="5.56079">
        <ele>1234</ele>
        <time>2020-06-06T07:09:12Z</time>
      </trkpt>
      <trkpt lat="45.13071" lon="5.56106">
        <ele>1236</ele>
        <time>2020-06-06T07:09:18Z</time>
      </trkpt>
      <trkpt lat="45.13072" lon="5.5611">
        <ele>1236.3</ele>
        <time>2020-06-06T07:09:19Z</time>
      </trkpt>
      <trkpt lat="45.13075" lon="5.56128">
        <ele>1237.3</ele>
        <time>2020-06-06T07:09:23Z</time>
      </trkpt>
      <trkpt lat="45.13081" lon="5.56152">
        <ele>1238.3</ele>
        <time>2020-06-06T07:09:28Z</time>
      </trkpt>
      <trkpt lat="45.13086" lon="5.56181">
        <ele>1240.7</ele>
        <time>2020-06-06T07:09:33Z</time>
      </trkpt>
      <trkpt lat="45.13099" lon="5.56213">
        <ele>1245.1</ele>
        <time>2020-06-06T07:09:41Z</time>
      </trkpt>
      <trkpt lat="45.13104" lon="5.56215">
        <ele>1245.5</ele>
        <time>2020-06-06T07:09:42Z</time>
      </trkpt>
      <trkpt lat="45.13133" lon="5.56208">
        <ele>1245.5</ele>
        <time>2020-06-06T07:09:50Z</time>
      </trkpt>
      <trkpt lat="45.13139" lon="5.56198">
        <ele>1244.2</ele>
        <time>2020-06-06T07:09:53Z</time>
      </trkpt>
      <trkpt lat="45.13145" lon="5.56188">
        <ele>1242.8</ele>
        <time>2020-06-06T07:09:56Z</time>
      </trkpt>
      <trkpt lat="45.13148" lon="5.56182">
        <ele>1242</ele>
        <time>2020-06-06T07:09:58Z</time>
      </trkpt>
      <trkpt lat="45.13151" lon="5.5618">
        <ele>1241.8</ele>
        <time>2020-06-06T07:10:00Z</time>
      </trkpt>
      <trkpt lat="45.13152" lon="5.56179">
        <ele>1241.7</ele>
        <time>2020-06-06T07:10:01Z</time>
      </trkpt>
      <trkpt lat="45.13176" lon="5.56179">
        <ele>1243</ele>
        <time>2020-06-06T07:10:10Z</time>
      </trkpt>
      <trkpt lat="45.13187" lon="5.56172">
        <ele>1243.2</ele>
        <time>2020-06-06T07:10:14Z</time>
      </trkpt>
      <trkpt lat="45.13211" lon="5.56165">
        <ele>1245</ele>
        <time>2020-06-06T07:10:24Z</time>
      </trkpt>
      <trkpt lat="45.13235" lon="5.56161">
        <ele>1247.3</ele>
        <time>2020-06-06T07:10:34Z</time>
      </trkpt>
      <trkpt lat="45.13242" lon="5.56162">
        <ele>1248.4</ele>
        <time>2020-06-06T07:10:37Z</time>
      </trkpt>
      <trkpt lat="45.13295" lon="5.5619">
        <ele>1256.2</ele>
        <time>2020-06-06T07:10:52Z</time>
      </trkpt>
      <trkpt lat="45.13314" lon="5.56184">
        <ele>1256.6</ele>
        <time>2020-06-06T07:10:57Z</time>
      </trkpt>
      <trkpt lat="45.13318" lon="5.56178">
        <ele>1255.8</ele>
        <time>2020-06-06T07:10:59Z</time>
      </trkpt>
      <trkpt lat="45.13325" lon="5.56162">
        <ele>1253.9</ele>
        <time>2020-06-06T07:11:03Z</time>
      </trkpt>
      <trkpt lat="45.13341" lon="5.56128">
        <ele>1251.7</ele>
        <time>2020-06-06T07:11:11Z</time>
      </trkpt>
      <trkpt lat="45.13344" lon="5.56125">
        <ele>1251.8</ele>
        <time>2020-06-06T07:11:12Z</time>
      </trkpt>
      <trkpt lat="45.13354" lon="5.56113">
        <ele>1252.1</ele>
        <time>2020-06-06T07:11:16Z</time>
      </trkpt>
      <trkpt lat="45.13363" lon="5.56101">
        <ele>1252.1</ele>
        <time>2020-06-06T07:11:20Z</time>
      </trkpt>
      <trkpt lat="45.13366" lon="5.561">
        <ele>1252.3</ele>
        <time>2020-06-06T07:11:21Z</time>
      </trkpt>
      <trkpt lat="45.13375" lon="5.56094">
        <ele>1253.1</ele>
        <time>2020-06-06T07:11:25Z</time>
      </trkpt>
      <trkpt lat="45.1338" lon="5.56092">
        <ele>1253.5</ele>
        <time>2020-06-06T07:11:27Z</time>
      </trkpt>
      <trkpt lat="45.13394" lon="5.56084">
        <ele>1254.5</ele>
        <time>2020-06-06T07:11:32Z</time>
      </trkpt>
      <trkpt lat="45.13463" lon="5.56107">
        <ele>1259.4</ele>
        <time>2020-06-06T07:11:54Z</time>
      </trkpt>
      <trkpt lat="45.13465" lon="5.56108">
        <ele>1259.5</ele>
        <time>2020-06-06T07:11:55Z</time>
      </trkpt>
      <trkpt lat="45.13493" lon="5.56126">
        <ele>1262.4</ele>
        <time>2020-06-06T07:12:04Z</time>
      </trkpt>
      <trkpt lat="45.13507" lon="5.56137">
        <ele>1264.8</ele>
        <time>2020-06-06T07:12:09Z</time>
      </trkpt>
      <trkpt lat="45.13545" lon="5.56171">
        <ele>1272.3</ele>
        <time>2020-06-06T07:12:24Z</time>
      </trkpt>
      <trkpt lat="45.13558" lon="5.5617">
        <ele>1271.9</ele>
        <time>2020-06-06T07:12:28Z</time>
      </trkpt>
      <trkpt lat="45.13626" lon="5.56133">
        <ele>1269.9</ele>
        <time>2020-06-06T07:12:53Z</time>
      </trkpt>
      <trkpt lat="45.13636" lon="5.56135">
        <ele>1272.3</ele>
        <time>2020-06-06T07:12:56Z</time>
      </trkpt>
      <trkpt lat="45.13676" lon="5.56123">
        <ele>1274.3</ele>
        <time>2020-06-06T07:13:05Z</time>
      </trkpt>
      <trkpt lat="45.13689" lon="5.56118">
        <ele>1274.4</ele>
        <time>2020-06-06T07:13:09Z</time>
      </trkpt>
      <trkpt lat="45.13711" lon="5.5611">
        <ele>1274.9</ele>
        <time>2020-06-06T07:13:15Z</time>
      </trkpt>
      <trkpt lat="45.1372" lon="5.56107">
        <ele>1275.3</ele>
        <time>2020-06-06T07:13:18Z</time>
      </trkpt>
      <trkpt lat="45.13755" lon="5.56091">
        <ele>1276.3</ele>
        <time>2020-06-06T07:13:29Z</time>
      </trkpt>
      <trkpt lat="45.1377" lon="5.56088">
        <ele>1277.8</ele>
        <time>2020-06-06T07:13:35Z</time>
      </trkpt>
      <trkpt lat="45.138" lon="5.5608">
        <ele>1281</ele>
        <time>2020-06-06T07:13:44Z</time>
      </trkpt>
      <trkpt lat="45.13802" lon="5.56078">
        <ele>1280.6</ele>
        <time>2020-06-06T07:13:45Z</time>
      </trkpt>
      <trkpt lat="45.13851" lon="5.56062">
        <ele>1279.3</ele>
        <time>2020-06-06T07:14:02Z</time>
      </trkpt>
      <trkpt lat="45.13867" lon="5.5606">
        <ele>1277.3</ele>
        <time>2020-06-06T07:14:08Z</time>
      </trkpt>
      <trkpt lat="45.13884" lon="5.5606">
        <ele>1275.9</ele>
        <time>2020-06-06T07:14:13Z</time>
      </trkpt>
      <trkpt lat="45.13889" lon="5.56062">
        <ele>1276.1</ele>
        <time>2020-06-06T07:14:15Z</time>
      </trkpt>
      <trkpt lat="45.13899" lon="5.56066">
        <ele>1276.2</ele>
        <time>2020-06-06T07:14:18Z</time>
      </trkpt>
      <trkpt lat="45.13911" lon="5.56121">
        <ele>1285.2</ele>
        <time>2020-06-06T07:14:34Z</time>
      </trkpt>
      <trkpt lat="45.1391" lon="5.56137">
        <ele>1288</ele>
        <time>2020-06-06T07:14:39Z</time>
      </trkpt>
      <trkpt lat="45.13911" lon="5.5614">
        <ele>1288.6</ele>
        <time>2020-06-06T07:14:40Z</time>
      </trkpt>
      <trkpt lat="45.13914" lon="5.56177">
        <ele>1293.9</ele>
        <time>2020-06-06T07:14:49Z</time>
      </trkpt>
      <trkpt lat="45.13914" lon="5.56181">
        <ele>1294.3</ele>
        <time>2020-06-06T07:14:50Z</time>
      </trkpt>
      <trkpt lat="45.13918" lon="5.56203">
        <ele>1296.9</ele>
        <time>2020-06-06T07:14:56Z</time>
      </trkpt>
      <trkpt lat="45.13962" lon="5.56238">
        <ele>1302.8</ele>
        <time>2020-06-06T07:15:28Z</time>
      </trkpt>
      <trkpt lat="45.13964" lon="5.56228">
        <ele>1301.3</ele>
        <time>2020-06-06T07:15:31Z</time>
      </trkpt>
      <trkpt lat="45.1397" lon="5.56205">
        <ele>1297.9</ele>
        <time>2020-06-06T07:15:37Z</time>
      </trkpt>
      <trkpt lat="45.13974" lon="5.56196">
        <ele>1296.6</ele>
        <time>2020-06-06T07:15:40Z</time>
      </trkpt>
      <trkpt lat="45.13979" lon="5.56188">
        <ele>1295.5</ele>
        <time>2020-06-06T07:15:43Z</time>
      </trkpt>
      <trkpt lat="45.13982" lon="5.56187">
        <ele>1295.3</ele>
        <time>2020-06-06T07:15:44Z</time>
      </trkpt>
      <trkpt lat="45.14025" lon="5.56217">
        <ele>1299.2</ele>
        <time>2020-06-06T07:16:04Z</time>
      </trkpt>
      <trkpt lat="45.14026" lon="5.56219">
        <ele>1299.6</ele>
        <time>2020-06-06T07:16:05Z</time>
      </trkpt>
      <trkpt lat="45.14068" lon="5.56292">
        <ele>1314</ele>
        <time>2020-06-06T07:16:30Z</time>
      </trkpt>
      <trkpt lat="45.14075" lon="5.56289">
        <ele>1313.4</ele>
        <time>2020-06-06T07:16:32Z</time>
      </trkpt>
      <trkpt lat="45.14081" lon="5.56283">
        <ele>1312</ele>
        <time>2020-06-06T07:16:34Z</time>
      </trkpt>
      <trkpt lat="45.14101" lon="5.56258">
        <ele>1309.6</ele>
        <time>2020-06-06T07:16:40Z</time>
      </trkpt>
      <trkpt lat="45.14107" lon="5.56246">
        <ele>1308.2</ele>
        <time>2020-06-06T07:16:44Z</time>
      </trkpt>
      <trkpt lat="45.14122" lon="5.5622">
        <ele>1305.3</ele>
        <time>2020-06-06T07:16:54Z</time>
      </trkpt>
      <trkpt lat="45.14139" lon="5.56221">
        <ele>1309</ele>
        <time>2020-06-06T07:17:00Z</time>
      </trkpt>
      <trkpt lat="45.14152" lon="5.56226">
        <ele>1313</ele>
        <time>2020-06-06T07:17:06Z</time>
      </trkpt>
      <trkpt lat="45.14167" lon="5.56225">
        <ele>1315.6</ele>
        <time>2020-06-06T07:17:13Z</time>
      </trkpt>
      <trkpt lat="45.14187" lon="5.56224">
        <ele>1316.5</ele>
        <time>2020-06-06T07:17:19Z</time>
      </trkpt>
      <trkpt lat="45.14196" lon="5.56223">
        <ele>1316.5</ele>
        <time>2020-06-06T07:17:23Z</time>
      </trkpt>
      <trkpt lat="45.14201" lon="5.56224">
        <ele>1316.8</ele>
        <time>2020-06-06T07:17:25Z</time>
      </trkpt>
      <trkpt lat="45.14211" lon="5.56227">
        <ele>1318.1</ele>
        <time>2020-06-06T07:17:30Z</time>
      </trkpt>
      <trkpt lat="45.14244" lon="5.56246">
        <ele>1323.9</ele>
        <time>2020-06-06T07:17:40Z</time>
      </trkpt>
      <trkpt lat="45.14273" lon="5.56261">
        <ele>1328.4</ele>
        <time>2020-06-06T07:17:51Z</time>
      </trkpt>
      <trkpt lat="45.1428" lon="5.56267">
        <ele>1330.4</ele>
        <time>2020-06-06T07:17:55Z</time>
      </trkpt>
      <trkpt lat="45.1429" lon="5.56265">
        <ele>1330.1</ele>
        <time>2020-06-06T07:17:59Z</time>
      </trkpt>
      <trkpt lat="45.14296" lon="5.56261">
        <ele>1329</ele>
        <time>2020-06-06T07:18:01Z</time>
      </trkpt>
      <trkpt lat="45.14373" lon="5.56248">
        <ele>1330.7</ele>
        <time>2020-06-06T07:18:30Z</time>
      </trkpt>
      <trkpt lat="45.14385" lon="5.56256">
        <ele>1334.5</ele>
        <time>2020-06-06T07:18:33Z</time>
      </trkpt>
      <trkpt lat="45.14406" lon="5.5627">
        <ele>1341</ele>
        <time>2020-06-06T07:18:42Z</time>
      </trkpt>
      <trkpt lat="45.14414" lon="5.56265">
        <ele>1340.7</ele>
        <time>2020-06-06T07:18:46Z</time>
      </trkpt>
      <trkpt lat="45.14418" lon="5.56262">
        <ele>1340.3</ele>
        <time>2020-06-06T07:18:48Z</time>
      </trkpt>
      <trkpt lat="45.14424" lon="5.56245">
        <ele>1336.7</ele>
        <time>2020-06-06T07:18:52Z</time>
      </trkpt>
      <trkpt lat="45.14429" lon="5.56222">
        <ele>1331.7</ele>
        <time>2020-06-06T07:18:58Z</time>
      </trkpt>
      <trkpt lat="45.14441" lon="5.56204">
        <ele>1328.8</ele>
        <time>2020-06-06T07:19:04Z</time>
      </trkpt>
      <trkpt lat="45.14451" lon="5.562">
        <ele>1329</ele>
        <time>2020-06-06T07:19:07Z</time>
      </trkpt>
      <trkpt lat="45.14466" lon="5.5621">
        <ele>1333.1</ele>
        <time>2020-06-06T07:19:14Z</time>
      </trkpt>
      <trkpt lat="45.14497" lon="5.56234">
        <ele>1342.7</ele>
        <time>2020-06-06T07:19:28Z</time>
      </trkpt>
      <trkpt lat="45.14506" lon="5.56238">
        <ele>1343.3</ele>
        <time>2020-06-06T07:19:31Z</time>
      </trkpt>
      <trkpt lat="45.14514" lon="5.56239">
        <ele>1342.6</ele>
        <time>2020-06-06T07:19:34Z</time>
      </trkpt>
      <trkpt lat="45.14552" lon="5.5626">
        <ele>1343.1</ele>
        <time>2020-06-06T07:19:52Z</time>
      </trkpt>
      <trkpt lat="45.14559" lon="5.56262">
        <ele>1342.8</ele>
        <time>2020-06-06T07:19:55Z</time>
      </trkpt>
      <trkpt lat="45.14587" lon="5.56296">
        <ele>1346.3</ele>
        <time>2020-06-06T07:20:09Z</time>
      </trkpt>
      <trkpt lat="45.14594" lon="5.56311">
        <ele>1348.7</ele>
        <time>2020-06-06T07:20:14Z</time>
      </trkpt>
      <trkpt lat="45.14631" lon="5.56387">
        <ele>1358.3</ele>
        <time>2020-06-06T07:20:35Z</time>
      </trkpt>
      <trkpt lat="45.14638" lon="5.56421">
        <ele>1362.4</ele>
        <time>2020-06-06T07:20:41Z</time>
      </trkpt>
      <trkpt lat="45.14644" lon="5.56445">
        <ele>1364.8</ele>
        <time>2020-06-06T07:20:46Z</time>
      </trkpt>
      <trkpt lat="45.14665" lon="5.56463">
        <ele>1364.4</ele>
        <time>2020-06-06T07:20:54Z</time>
      </trkpt>
      <trkpt lat="45.14673" lon="5.56456">
        <ele>1364.6</ele>
        <time>2020-06-06T07:20:57Z</time>
      </trkpt>
      <trkpt lat="45.14678" lon="5.56427">
        <ele>1361.6</ele>
        <time>2020-06-06T07:21:02Z</time>
      </trkpt>
      <trkpt lat="45.14678" lon="5.56423">
        <ele>1361</ele>
        <time>2020-06-06T07:21:03Z</time>
      </trkpt>
      <trkpt lat="45.14679" lon="5.56408">
        <ele>1359.4</ele>
        <time>2020-06-06T07:21:07Z</time>
      </trkpt>
      <trkpt lat="45.14681" lon="5.56393">
        <ele>1358.1</ele>
        <time>2020-06-06T07:21:11Z</time>
      </trkpt>
      <trkpt lat="45.14682" lon="5.56389">
        <ele>1357.8</ele>
        <time>2020-06-06T07:21:12Z</time>
      </trkpt>
      <trkpt lat="45.14694" lon="5.56375">
        <ele>1358.6</ele>
        <time>2020-06-06T07:21:21Z</time>
      </trkpt>
      <trkpt lat="45.14699" lon="5.56374">
        <ele>1359.6</ele>
        <time>2020-06-06T07:21:23Z</time>
      </trkpt>
      <trkpt lat="45.14713" lon="5.56358">
        <ele>1361</ele>
        <time>2020-06-06T07:21:28Z</time>
      </trkpt>
      <trkpt lat="45.14715" lon="5.56354">
        <ele>1361</ele>
        <time>2020-06-06T07:21:29Z</time>
      </trkpt>
      <trkpt lat="45.14726" lon="5.56317">
        <ele>1360.4</ele>
        <time>2020-06-06T07:21:39Z</time>
      </trkpt>
      <trkpt lat="45.14726" lon="5.5631">
        <ele>1360</ele>
        <time>2020-06-06T07:21:41Z</time>
      </trkpt>
      <trkpt lat="45.14724" lon="5.56303">
        <ele>1358.9</ele>
        <time>2020-06-06T07:21:43Z</time>
      </trkpt>
      <trkpt lat="45.14723" lon="5.56288">
        <ele>1357.8</ele>
        <time>2020-06-06T07:21:47Z</time>
      </trkpt>
      <trkpt lat="45.14724" lon="5.56285">
        <ele>1357.6</ele>
        <time>2020-06-06T07:21:48Z</time>
      </trkpt>
      <trkpt lat="45.14723" lon="5.56273">
        <ele>1356.8</ele>
        <time>2020-06-06T07:21:52Z</time>
      </trkpt>
      <trkpt lat="45.14809" lon="5.56259">
        <ele>1361</ele>
        <time>2020-06-06T07:22:22Z</time>
      </trkpt>
      <trkpt lat="45.14822" lon="5.56281">
        <ele>1363.5</ele>
        <time>2020-06-06T07:22:29Z</time>
      </trkpt>
      <trkpt lat="45.14826" lon="5.56287">
        <ele>1364.3</ele>
        <time>2020-06-06T07:22:31Z</time>
      </trkpt>
      <trkpt lat="45.14844" lon="5.56317">
        <ele>1366.8</ele>
        <time>2020-06-06T07:22:40Z</time>
      </trkpt>
      <trkpt lat="45.14851" lon="5.5634">
        <ele>1369.1</ele>
        <time>2020-06-06T07:22:45Z</time>
      </trkpt>
      <trkpt lat="45.14855" lon="5.56348">
        <ele>1369.7</ele>
        <time>2020-06-06T07:22:47Z</time>
      </trkpt>
      <trkpt lat="45.14871" lon="5.56387">
        <ele>1373.3</ele>
        <time>2020-06-06T07:22:59Z</time>
      </trkpt>
      <trkpt lat="45.14873" lon="5.56394">
        <ele>1374.2</ele>
        <time>2020-06-06T07:23:01Z</time>
      </trkpt>
      <trkpt lat="45.14875" lon="5.56402">
        <ele>1375</ele>
        <time>2020-06-06T07:23:03Z</time>
      </trkpt>
      <trkpt lat="45.14877" lon="5.56408">
        <ele>1375.7</ele>
        <time>2020-06-06T07:23:05Z</time>
      </trkpt>
      <trkpt lat="45.14887" lon="5.56429">
        <ele>1378.8</ele>
        <time>2020-06-06T07:23:35Z</time>
      </trkpt>
      <trkpt lat="45.14894" lon="5.5644">
        <ele>1380.6</ele>
        <time>2020-06-06T07:24:37Z</time>
      </trkpt>
      <trkpt lat="45.14894" lon="5.56442">
        <ele>1380.9</ele>
        <time>2020-06-06T07:24:46Z</time>
      </trkpt>
      <trkpt lat="45.14883" lon="5.56437">
        <ele>1380.5</ele>
        <time>2020-06-06T07:25:16Z</time>
      </trkpt>
      <trkpt lat="45.14882" lon="5.56434">
        <ele>1379.9</ele>
        <time>2020-06-06T07:25:33Z</time>
      </trkpt>
      <trkpt lat="45.14886" lon="5.56443">
        <ele>1381.5</ele>
        <time>2020-06-06T07:26:53Z</time>
      </trkpt>
      <trkpt lat="45.14872" lon="5.56422">
        <ele>1378.2</ele>
        <time>2020-06-06T07:27:06Z</time>
      </trkpt>
      <trkpt lat="45.14873" lon="5.56421">
        <ele>1377.9</ele>
        <time>2020-06-06T07:27:09Z</time>
      </trkpt>
      <trkpt lat="45.14874" lon="5.56419">
        <ele>1377.5</ele>
        <time>2020-06-06T07:27:27Z</time>
      </trkpt>
      <trkpt lat="45.14875" lon="5.56418">
        <ele>1377.2</ele>
        <time>2020-06-06T07:27:37Z</time>
      </trkpt>
      <trkpt lat="45.14875" lon="5.56417">
        <ele>1377.1</ele>
        <time>2020-06-06T07:28:33Z</time>
      </trkpt>
      <trkpt lat="45.14875" lon="5.56417">
        <ele>1377.1</ele>
        <time>2020-06-06T07:28:48Z</time>
      </trkpt>
      <trkpt lat="45.14883" lon="5.56431">
        <ele>1379.4</ele>
        <time>2020-06-06T07:29:35Z</time>
      </trkpt>
      <trkpt lat="45.14933" lon="5.56432">
        <ele>1373.6</ele>
        <time>2020-06-06T07:29:57Z</time>
      </trkpt>
      <trkpt lat="45.14934" lon="5.56432">
        <ele>1373.4</ele>
        <time>2020-06-06T07:29:58Z</time>
      </trkpt>
      <trkpt lat="45.14945" lon="5.56438">
        <ele>1371.8</ele>
        <time>2020-06-06T07:30:03Z</time>
      </trkpt>
      <trkpt lat="45.15018" lon="5.56539">
        <ele>1381.4</ele>
        <time>2020-06-06T07:30:29Z</time>
      </trkpt>
      <trkpt lat="45.15036" lon="5.56559">
        <ele>1382</ele>
        <time>2020-06-06T07:30:35Z</time>
      </trkpt>
      <trkpt lat="45.15045" lon="5.56584">
        <ele>1385</ele>
        <time>2020-06-06T07:30:40Z</time>
      </trkpt>
      <trkpt lat="45.15051" lon="5.56597">
        <ele>1387.1</ele>
        <time>2020-06-06T07:30:42Z</time>
      </trkpt>
      <trkpt lat="45.15074" lon="5.56611">
        <ele>1387.8</ele>
        <time>2020-06-06T07:30:49Z</time>
      </trkpt>
      <trkpt lat="45.15081" lon="5.56609">
        <ele>1386.6</ele>
        <time>2020-06-06T07:30:51Z</time>
      </trkpt>
      <trkpt lat="45.15135" lon="5.56588">
        <ele>1390.4</ele>
        <time>2020-06-06T07:31:03Z</time>
      </trkpt>
      <trkpt lat="45.15135" lon="5.56574">
        <ele>1388.4</ele>
        <time>2020-06-06T07:31:05Z</time>
      </trkpt>
      <trkpt lat="45.15124" lon="5.5654">
        <ele>1381.2</ele>
        <time>2020-06-06T07:31:10Z</time>
      </trkpt>
      <trkpt lat="45.15121" lon="5.56528">
        <ele>1378.8</ele>
        <time>2020-06-06T07:31:12Z</time>
      </trkpt>
      <trkpt lat="45.15133" lon="5.56486">
        <ele>1374.1</ele>
        <time>2020-06-06T07:31:20Z</time>
      </trkpt>
      <trkpt lat="45.1514" lon="5.56481">
        <ele>1374.3</ele>
        <time>2020-06-06T07:31:22Z</time>
      </trkpt>
      <trkpt lat="45.15213" lon="5.56495">
        <ele>1390</ele>
        <time>2020-06-06T07:31:40Z</time>
      </trkpt>
      <trkpt lat="45.15223" lon="5.56498">
        <ele>1391.4</ele>
        <time>2020-06-06T07:31:42Z</time>
      </trkpt>
      <trkpt lat="45.15233" lon="5.56497">
        <ele>1392</ele>
        <time>2020-06-06T07:31:44Z</time>
      </trkpt>
      <trkpt lat="45.15238" lon="5.56494">
        <ele>1391.7</ele>
        <time>2020-06-06T07:31:45Z</time>
      </trkpt>
      <trkpt lat="45.15253" lon="5.56475">
        <ele>1389.1</ele>
        <time>2020-06-06T07:31:48Z</time>
      </trkpt>
      <trkpt lat="45.15256" lon="5.56466">
        <ele>1387.8</ele>
        <time>2020-06-06T07:31:49Z</time>
      </trkpt>
      <trkpt lat="45.15259" lon="5.56458">
        <ele>1386.6</ele>
        <time>2020-06-06T07:31:50Z</time>
      </trkpt>
      <trkpt lat="45.15277" lon="5.56421">
        <ele>1382.6</ele>
        <time>2020-06-06T07:31:55Z</time>
      </trkpt>
      <trkpt lat="45.15279" lon="5.56415">
        <ele>1381.8</ele>
        <time>2020-06-06T07:31:56Z</time>
      </trkpt>
      <trkpt lat="45.15288" lon="5.56399">
        <ele>1379.2</ele>
        <time>2020-06-06T07:31:59Z</time>
      </trkpt>
      <trkpt lat="45.15294" lon="5.56389">
        <ele>1377.8</ele>
        <time>2020-06-06T07:32:01Z</time>
      </trkpt>
      <trkpt lat="45.15297" lon="5.56385">
        <ele>1377.2</ele>
        <time>2020-06-06T07:32:02Z</time>
      </trkpt>
      <trkpt lat="45.15309" lon="5.56372">
        <ele>1376.3</ele>
        <time>2020-06-06T07:32:05Z</time>
      </trkpt>
      <trkpt lat="45.15317" lon="5.56366">
        <ele>1376.3</ele>
        <time>2020-06-06T07:32:07Z</time>
      </trkpt>
      <trkpt lat="45.15329" lon="5.56358">
        <ele>1376.9</ele>
        <time>2020-06-06T07:32:10Z</time>
      </trkpt>
      <trkpt lat="45.15334" lon="5.56356">
        <ele>1377.4</ele>
        <time>2020-06-06T07:32:11Z</time>
      </trkpt>
      <trkpt lat="45.15354" lon="5.56351">
        <ele>1376.2</ele>
        <time>2020-06-06T07:32:16Z</time>
      </trkpt>
      <trkpt lat="45.15373" lon="5.56347">
        <ele>1375.5</ele>
        <time>2020-06-06T07:32:22Z</time>
      </trkpt>
      <trkpt lat="45.15403" lon="5.56377">
        <ele>1383.8</ele>
        <time>2020-06-06T07:32:31Z</time>
      </trkpt>
      <trkpt lat="45.15407" lon="5.56382">
        <ele>1385.1</ele>
        <time>2020-06-06T07:32:32Z</time>
      </trkpt>
      <trkpt lat="45.15458" lon="5.56449">
        <ele>1387.2</ele>
        <time>2020-06-06T07:32:45Z</time>
      </trkpt>
      <trkpt lat="45.15469" lon="5.56474">
        <ele>1389.7</ele>
        <time>2020-06-06T07:32:49Z</time>
      </trkpt>
      <trkpt lat="45.15478" lon="5.56481">
        <ele>1388.9</ele>
        <time>2020-06-06T07:32:51Z</time>
      </trkpt>
      <trkpt lat="45.15486" lon="5.56488">
        <ele>1388.4</ele>
        <time>2020-06-06T07:32:53Z</time>
      </trkpt>
      <trkpt lat="45.15499" lon="5.56489">
        <ele>1385.3</ele>
        <time>2020-06-06T07:32:55Z</time>
      </trkpt>
      <trkpt lat="45.15536" lon="5.56546">
        <ele>1380.8</ele>
        <time>2020-06-06T07:33:06Z</time>
      </trkpt>
      <trkpt lat="45.15544" lon="5.56566">
        <ele>1381.3</ele>
        <time>2020-06-06T07:33:09Z</time>
      </trkpt>
      <trkpt lat="45.15545" lon="5.56572">
        <ele>1382.3</ele>
        <time>2020-06-06T07:33:10Z</time>
      </trkpt>
      <trkpt lat="45.15548" lon="5.56612">
        <ele>1386.5</ele>
        <time>2020-06-06T07:33:17Z</time>
      </trkpt>
      <trkpt lat="45.15546" lon="5.56617">
        <ele>1387.6</ele>
        <time>2020-06-06T07:33:18Z</time>
      </trkpt>
      <trkpt lat="45.15538" lon="5.5663">
        <ele>1390.4</ele>
        <time>2020-06-06T07:33:21Z</time>
      </trkpt>
      <trkpt lat="45.1553" lon="5.56645">
        <ele>1393.1</ele>
        <time>2020-06-06T07:33:24Z</time>
      </trkpt>
      <trkpt lat="45.15511" lon="5.56681">
        <ele>1397</ele>
        <time>2020-06-06T07:33:31Z</time>
      </trkpt>
      <trkpt lat="45.15506" lon="5.56701">
        <ele>1397.7</ele>
        <time>2020-06-06T07:33:34Z</time>
      </trkpt>
      <trkpt lat="45.15517" lon="5.56766">
        <ele>1402.5</ele>
        <time>2020-06-06T07:33:52Z</time>
      </trkpt>
      <trkpt lat="45.15542" lon="5.56797">
        <ele>1411.6</ele>
        <time>2020-06-06T07:34:08Z</time>
      </trkpt>
      <trkpt lat="45.15541" lon="5.568">
        <ele>1412.1</ele>
        <time>2020-06-06T07:34:09Z</time>
      </trkpt>
      <trkpt lat="45.15503" lon="5.56778">
        <ele>1403.7</ele>
        <time>2020-06-06T07:34:29Z</time>
      </trkpt>
      <trkpt lat="45.15501" lon="5.56775">
        <ele>1403</ele>
        <time>2020-06-06T07:34:30Z</time>
      </trkpt>
      <trkpt lat="45.15497" lon="5.56764">
        <ele>1401.9</ele>
        <time>2020-06-06T07:34:34Z</time>
      </trkpt>
      <trkpt lat="45.15459" lon="5.56689">
        <ele>1412.7</ele>
        <time>2020-06-06T07:34:57Z</time>
      </trkpt>
      <trkpt lat="45.15464" lon="5.56667">
        <ele>1410.7</ele>
        <time>2020-06-06T07:35:04Z</time>
      </trkpt>
      <trkpt lat="45.15466" lon="5.5665">
        <ele>1408.9</ele>
        <time>2020-06-06T07:35:09Z</time>
      </trkpt>
      <trkpt lat="45.15471" lon="5.56638">
        <ele>1406.8</ele>
        <time>2020-06-06T07:35:14Z</time>
      </trkpt>
      <trkpt lat="45.15491" lon="5.56602">
        <ele>1400.7</ele>
        <time>2020-06-06T07:35:27Z</time>
      </trkpt>
      <trkpt lat="45.15491" lon="5.56583">
        <ele>1400.6</ele>
        <time>2020-06-06T07:35:32Z</time>
      </trkpt>
      <trkpt lat="45.15484" lon="5.56574">
        <ele>1400.7</ele>
        <time>2020-06-06T07:35:37Z</time>
      </trkpt>
      <trkpt lat="45.15478" lon="5.56575">
        <ele>1402.1</ele>
        <time>2020-06-06T07:35:41Z</time>
      </trkpt>
      <trkpt lat="45.15452" lon="5.56602">
        <ele>1409.2</ele>
        <time>2020-06-06T07:35:57Z</time>
      </trkpt>
      <trkpt lat="45.15446" lon="5.5661">
        <ele>1411.3</ele>
        <time>2020-06-06T07:36:02Z</time>
      </trkpt>
      <trkpt lat="45.15444" lon="5.56611">
        <ele>1411.7</ele>
        <time>2020-06-06T07:36:03Z</time>
      </trkpt>
      <trkpt lat="45.1544" lon="5.56613">
        <ele>1413.1</ele>
        <time>2020-06-06T07:36:06Z</time>
      </trkpt>
      <trkpt lat="45.15436" lon="5.56614">
        <ele>1414.1</ele>
        <time>2020-06-06T07:36:08Z</time>
      </trkpt>
      <trkpt lat="45.15421" lon="5.56612">
        <ele>1417.5</ele>
        <time>2020-06-06T07:36:15Z</time>
      </trkpt>
      <trkpt lat="45.15417" lon="5.5661">
        <ele>1418</ele>
        <time>2020-06-06T07:36:17Z</time>
      </trkpt>
      <trkpt lat="45.15395" lon="5.56606">
        <ele>1418.3</ele>
        <time>2020-06-06T07:36:28Z</time>
      </trkpt>
      <trkpt lat="45.15385" lon="5.56612">
        <ele>1419.6</ele>
        <time>2020-06-06T07:36:34Z</time>
      </trkpt>
      <trkpt lat="45.15374" lon="5.5662">
        <ele>1421.4</ele>
        <time>2020-06-06T07:36:40Z</time>
      </trkpt>
      <trkpt lat="45.15372" lon="5.56621">
        <ele>1421.7</ele>
        <time>2020-06-06T07:36:41Z</time>
      </trkpt>
      <trkpt lat="45.15367" lon="5.56625">
        <ele>1422.6</ele>
        <time>2020-06-06T07:36:44Z</time>
      </trkpt>
      <trkpt lat="45.15358" lon="5.56632">
        <ele>1424.2</ele>
        <time>2020-06-06T07:36:48Z</time>
      </trkpt>
      <trkpt lat="45.15314" lon="5.56707">
        <ele>1435.3</ele>
        <time>2020-06-06T07:37:25Z</time>
      </trkpt>
      <trkpt lat="45.15305" lon="5.56718">
        <ele>1435.9</ele>
        <time>2020-06-06T07:37:31Z</time>
      </trkpt>
      <trkpt lat="45.15304" lon="5.56719">
        <ele>1436</ele>
        <time>2020-06-06T07:37:32Z</time>
      </trkpt>
      <trkpt lat="45.15292" lon="5.56736">
        <ele>1437.6</ele>
        <time>2020-06-06T07:37:42Z</time>
      </trkpt>
      <trkpt lat="45.15284" lon="5.56745">
        <ele>1438.4</ele>
        <time>2020-06-06T07:37:47Z</time>
      </trkpt>
      <trkpt lat="45.15235" lon="5.56778">
        <ele>1438</ele>
        <time>2020-06-06T07:38:11Z</time>
      </trkpt>
      <trkpt lat="45.15224" lon="5.56796">
        <ele>1439.1</ele>
        <time>2020-06-06T07:38:19Z</time>
      </trkpt>
      <trkpt lat="45.15222" lon="5.56801">
        <ele>1439.5</ele>
        <time>2020-06-06T07:38:21Z</time>
      </trkpt>
      <trkpt lat="45.15213" lon="5.56842">
        <ele>1444.3</ele>
        <time>2020-06-06T07:38:37Z</time>
      </trkpt>
      <trkpt lat="45.15213" lon="5.56855">
        <ele>1445.7</ele>
        <time>2020-06-06T07:38:42Z</time>
      </trkpt>
      <trkpt lat="45.15214" lon="5.56875">
        <ele>1448.1</ele>
        <time>2020-06-06T07:38:50Z</time>
      </trkpt>
      <trkpt lat="45.15212" lon="5.56931">
        <ele>1454.4</ele>
        <time>2020-06-06T07:39:11Z</time>
      </trkpt>
      <trkpt lat="45.1521" lon="5.56942">
        <ele>1455.7</ele>
        <time>2020-06-06T07:39:15Z</time>
      </trkpt>
      <trkpt lat="45.15209" lon="5.5695">
        <ele>1456.7</ele>
        <time>2020-06-06T07:39:18Z</time>
      </trkpt>
      <trkpt lat="45.15207" lon="5.56966">
        <ele>1458.7</ele>
        <time>2020-06-06T07:39:24Z</time>
      </trkpt>
      <trkpt lat="45.15206" lon="5.56969">
        <ele>1459</ele>
        <time>2020-06-06T07:39:25Z</time>
      </trkpt>
      <trkpt lat="45.15203" lon="5.5701">
        <ele>1465.7</ele>
        <time>2020-06-06T07:39:40Z</time>
      </trkpt>
      <trkpt lat="45.15203" lon="5.57016">
        <ele>1467.3</ele>
        <time>2020-06-06T07:39:42Z</time>
      </trkpt>
      <trkpt lat="45.15201" lon="5.57022">
        <ele>1468.7</ele>
        <time>2020-06-06T07:39:44Z</time>
      </trkpt>
      <trkpt lat="45.15199" lon="5.57033">
        <ele>1471.5</ele>
        <time>2020-06-06T07:39:48Z</time>
      </trkpt>
      <trkpt lat="45.15198" lon="5.57036">
        <ele>1472.1</ele>
        <time>2020-06-06T07:39:49Z</time>
      </trkpt>
      <trkpt lat="45.1519" lon="5.57041">
        <ele>1473.1</ele>
        <time>2020-06-06T07:39:53Z</time>
      </trkpt>
      <trkpt lat="45.15184" lon="5.57043">
        <ele>1473.6</ele>
        <time>2020-06-06T07:39:55Z</time>
      </trkpt>
      <trkpt lat="45.15179" lon="5.57045">
        <ele>1473.7</ele>
        <time>2020-06-06T07:39:57Z</time>
      </trkpt>
      <trkpt lat="45.15162" lon="5.57037">
        <ele>1471.7</ele>
        <time>2020-06-06T07:40:06Z</time>
      </trkpt>
      <trkpt lat="45.15158" lon="5.57033">
        <ele>1471</ele>
        <time>2020-06-06T07:40:09Z</time>
      </trkpt>
      <trkpt lat="45.15152" lon="5.57031">
        <ele>1470.9</ele>
        <time>2020-06-06T07:40:12Z</time>
      </trkpt>
      <trkpt lat="45.1512" lon="5.57011">
        <ele>1469.3</ele>
        <time>2020-06-06T07:40:28Z</time>
      </trkpt>
      <trkpt lat="45.15063" lon="5.57018">
        <ele>1473.7</ele>
        <time>2020-06-06T07:40:58Z</time>
      </trkpt>
      <trkpt lat="45.15049" lon="5.57029">
        <ele>1475.4</ele>
        <time>2020-06-06T07:41:05Z</time>
      </trkpt>
      <trkpt lat="45.15032" lon="5.57041">
        <ele>1476.9</ele>
        <time>2020-06-06T07:41:11Z</time>
      </trkpt>
      <trkpt lat="45.14971" lon="5.57101">
        <ele>1483</ele>
        <time>2020-06-06T07:41:40Z</time>
      </trkpt>
      <trkpt lat="45.14962" lon="5.57118">
        <ele>1485.7</ele>
        <time>2020-06-06T07:41:45Z</time>
      </trkpt>
      <trkpt lat="45.14958" lon="5.57127">
        <ele>1487.5</ele>
        <time>2020-06-06T07:41:48Z</time>
      </trkpt>
      <trkpt lat="45.14927" lon="5.57156">
        <ele>1490.6</ele>
        <time>2020-06-06T07:41:59Z</time>
      </trkpt>
      <trkpt lat="45.14892" lon="5.57188">
        <ele>1495.5</ele>
        <time>2020-06-06T07:42:14Z</time>
      </trkpt>
      <trkpt lat="45.14872" lon="5.5719">
        <ele>1494.5</ele>
        <time>2020-06-06T07:42:21Z</time>
      </trkpt>
      <trkpt lat="45.14867" lon="5.5719">
        <ele>1493.8</ele>
        <time>2020-06-06T07:42:23Z</time>
      </trkpt>
      <trkpt lat="45.14824" lon="5.57186">
        <ele>1490.2</ele>
        <time>2020-06-06T07:42:40Z</time>
      </trkpt>
      <trkpt lat="45.14822" lon="5.57186">
        <ele>1490.4</ele>
        <time>2020-06-06T07:42:41Z</time>
      </trkpt>
      <trkpt lat="45.14791" lon="5.57196">
        <ele>1494.4</ele>
        <time>2020-06-06T07:42:52Z</time>
      </trkpt>
      <trkpt lat="45.14765" lon="5.57201">
        <ele>1496.6</ele>
        <time>2020-06-06T07:43:00Z</time>
      </trkpt>
      <trkpt lat="45.14716" lon="5.57185">
        <ele>1493.3</ele>
        <time>2020-06-06T07:43:18Z</time>
      </trkpt>
      <trkpt lat="45.14712" lon="5.57183">
        <ele>1492.9</ele>
        <time>2020-06-06T07:43:20Z</time>
      </trkpt>
      <trkpt lat="45.14683" lon="5.57186">
        <ele>1493.1</ele>
        <time>2020-06-06T07:43:34Z</time>
      </trkpt>
      <trkpt lat="45.1468" lon="5.57192">
        <ele>1494.2</ele>
        <time>2020-06-06T07:43:36Z</time>
      </trkpt>
      <trkpt lat="45.1469" lon="5.57215">
        <ele>1498.2</ele>
        <time>2020-06-06T07:43:46Z</time>
      </trkpt>
      <trkpt lat="45.14718" lon="5.57233">
        <ele>1502.4</ele>
        <time>2020-06-06T07:44:02Z</time>
      </trkpt>
      <trkpt lat="45.14722" lon="5.57235">
        <ele>1502.9</ele>
        <time>2020-06-06T07:44:04Z</time>
      </trkpt>
      <trkpt lat="45.14734" lon="5.57248">
        <ele>1505.9</ele>
        <time>2020-06-06T07:44:12Z</time>
      </trkpt>
      <trkpt lat="45.14823" lon="5.57293">
        <ele>1519</ele>
        <time>2020-06-06T07:45:00Z</time>
      </trkpt>
      <trkpt lat="45.14825" lon="5.57294">
        <ele>1519.4</ele>
        <time>2020-06-06T07:45:01Z</time>
      </trkpt>
      <trkpt lat="45.14833" lon="5.573">
        <ele>1521</ele>
        <time>2020-06-06T07:45:06Z</time>
      </trkpt>
      <trkpt lat="45.14837" lon="5.57303">
        <ele>1521.9</ele>
        <time>2020-06-06T07:45:08Z</time>
      </trkpt>
      <trkpt lat="45.1485" lon="5.57309">
        <ele>1523.7</ele>
        <time>2020-06-06T07:45:13Z</time>
      </trkpt>
      <trkpt lat="45.14872" lon="5.57345">
        <ele>1531.7</ele>
        <time>2020-06-06T07:45:32Z</time>
      </trkpt>
      <trkpt lat="45.14883" lon="5.57363">
        <ele>1535.4</ele>
        <time>2020-06-06T07:45:42Z</time>
      </trkpt>
      <trkpt lat="45.14894" lon="5.57369">
        <ele>1536.7</ele>
        <time>2020-06-06T07:45:47Z</time>
      </trkpt>
      <trkpt lat="45.14903" lon="5.57373">
        <ele>1537.6</ele>
        <time>2020-06-06T07:45:52Z</time>
      </trkpt>
      <trkpt lat="45.14962" lon="5.57346">
        <ele>1540.3</ele>
        <time>2020-06-06T07:46:26Z</time>
      </trkpt>
      <trkpt lat="45.14964" lon="5.57345">
        <ele>1540.5</ele>
        <time>2020-06-06T07:46:27Z</time>
      </trkpt>
      <trkpt lat="45.15042" lon="5.57329">
        <ele>1547</ele>
        <time>2020-06-06T07:47:12Z</time>
      </trkpt>
      <trkpt lat="45.15047" lon="5.57331">
        <ele>1547.8</ele>
        <time>2020-06-06T07:47:15Z</time>
      </trkpt>
      <trkpt lat="45.15104" lon="5.57374">
        <ele>1555</ele>
        <time>2020-06-06T07:47:54Z</time>
      </trkpt>
      <trkpt lat="45.15115" lon="5.57384">
        <ele>1555.4</ele>
        <time>2020-06-06T07:48:00Z</time>
      </trkpt>
      <trkpt lat="45.15123" lon="5.57393">
        <ele>1556.1</ele>
        <time>2020-06-06T07:48:06Z</time>
      </trkpt>
      <trkpt lat="45.15129" lon="5.57399">
        <ele>1556.5</ele>
        <time>2020-06-06T07:48:10Z</time>
      </trkpt>
      <trkpt lat="45.1513" lon="5.57401">
        <ele>1556.8</ele>
        <time>2020-06-06T07:48:11Z</time>
      </trkpt>
      <trkpt lat="45.15195" lon="5.57462">
        <ele>1567.1</ele>
        <time>2020-06-06T07:48:54Z</time>
      </trkpt>
      <trkpt lat="45.15197" lon="5.57466">
        <ele>1568.2</ele>
        <time>2020-06-06T07:48:56Z</time>
      </trkpt>
      <trkpt lat="45.15218" lon="5.57494">
        <ele>1574.7</ele>
        <time>2020-06-06T07:49:13Z</time>
      </trkpt>
      <trkpt lat="45.15219" lon="5.57495">
        <ele>1574.9</ele>
        <time>2020-06-06T07:49:14Z</time>
      </trkpt>
      <trkpt lat="45.15252" lon="5.57524">
        <ele>1581.4</ele>
        <time>2020-06-06T07:49:49Z</time>
      </trkpt>
      <trkpt lat="45.15259" lon="5.5753">
        <ele>1583.5</ele>
        <time>2020-06-06T07:49:55Z</time>
      </trkpt>
      <trkpt lat="45.15278" lon="5.57541">
        <ele>1587.5</ele>
        <time>2020-06-06T07:50:26Z</time>
      </trkpt>
      <trkpt lat="45.1528" lon="5.57541">
        <ele>1587.6</ele>
        <time>2020-06-06T07:50:28Z</time>
      </trkpt>
      <trkpt lat="45.15282" lon="5.57543">
        <ele>1588.2</ele>
        <time>2020-06-06T07:50:32Z</time>
      </trkpt>
      <trkpt lat="45.15284" lon="5.57545">
        <ele>1588.9</ele>
        <time>2020-06-06T07:50:37Z</time>
      </trkpt>
      <trkpt lat="45.15292" lon="5.57551">
        <ele>1590.9</ele>
        <time>2020-06-06T07:50:45Z</time>
      </trkpt>
      <trkpt lat="45.15293" lon="5.57552">
        <ele>1591.1</ele>
        <time>2020-06-06T07:50:46Z</time>
      </trkpt>
      <trkpt lat="45.15308" lon="5.57567">
        <ele>1595.7</ele>
        <time>2020-06-06T07:51:02Z</time>
      </trkpt>
      <trkpt lat="45.15311" lon="5.57568">
        <ele>1596.3</ele>
        <time>2020-06-06T07:51:05Z</time>
      </trkpt>
      <trkpt lat="45.15329" lon="5.57587">
        <ele>1601.5</ele>
        <time>2020-06-06T07:51:26Z</time>
      </trkpt>
      <trkpt lat="45.15331" lon="5.57588">
        <ele>1601.7</ele>
        <time>2020-06-06T07:51:31Z</time>
      </trkpt>
      <trkpt lat="45.15335" lon="5.5759">
        <ele>1602.3</ele>
        <time>2020-06-06T07:51:36Z</time>
      </trkpt>
      <trkpt lat="45.15337" lon="5.57592">
        <ele>1602.6</ele>
        <time>2020-06-06T07:51:37Z</time>
      </trkpt>
      <trkpt lat="45.15375" lon="5.57627">
        <ele>1610</ele>
        <time>2020-06-06T07:52:09Z</time>
      </trkpt>
      <trkpt lat="45.15377" lon="5.57627">
        <ele>1610.1</ele>
        <time>2020-06-06T07:52:10Z</time>
      </trkpt>
      <trkpt lat="45.15404" lon="5.57639">
        <ele>1613.3</ele>
        <time>2020-06-06T07:52:31Z</time>
      </trkpt>
      <trkpt lat="45.15409" lon="5.57638">
        <ele>1613.2</ele>
        <time>2020-06-06T07:52:35Z</time>
      </trkpt>
      <trkpt lat="45.15412" lon="5.5764">
        <ele>1613.6</ele>
        <time>2020-06-06T07:52:37Z</time>
      </trkpt>
      <trkpt lat="45.15422" lon="5.57642">
        <ele>1614</ele>
        <time>2020-06-06T07:52:44Z</time>
      </trkpt>
      <trkpt lat="45.15423" lon="5.57643">
        <ele>1614</ele>
        <time>2020-06-06T07:52:45Z</time>
      </trkpt>
      <trkpt lat="45.15459" lon="5.57656">
        <ele>1614.4</ele>
        <time>2020-06-06T07:53:04Z</time>
      </trkpt>
      <trkpt lat="45.15469" lon="5.57656">
        <ele>1613.7</ele>
        <time>2020-06-06T07:53:09Z</time>
      </trkpt>
      <trkpt lat="45.15476" lon="5.57657">
        <ele>1613.5</ele>
        <time>2020-06-06T07:53:13Z</time>
      </trkpt>
      <trkpt lat="45.15477" lon="5.57659">
        <ele>1613.7</ele>
        <time>2020-06-06T07:53:14Z</time>
      </trkpt>
      <trkpt lat="45.15499" lon="5.57673">
        <ele>1615.3</ele>
        <time>2020-06-06T07:53:28Z</time>
      </trkpt>
      <trkpt lat="45.15508" lon="5.57674">
        <ele>1615.2</ele>
        <time>2020-06-06T07:53:35Z</time>
      </trkpt>
      <trkpt lat="45.15544" lon="5.5771">
        <ele>1620.1</ele>
        <time>2020-06-06T07:53:58Z</time>
      </trkpt>
      <trkpt lat="45.15545" lon="5.57712">
        <ele>1620.5</ele>
        <time>2020-06-06T07:53:59Z</time>
      </trkpt>
      <trkpt lat="45.15569" lon="5.57784">
        <ele>1627.6</ele>
        <time>2020-06-06T07:54:33Z</time>
      </trkpt>
      <trkpt lat="45.1557" lon="5.57786">
        <ele>1627.7</ele>
        <time>2020-06-06T07:54:34Z</time>
      </trkpt>
      <trkpt lat="45.15573" lon="5.57795">
        <ele>1628.2</ele>
        <time>2020-06-06T07:54:38Z</time>
      </trkpt>
      <trkpt lat="45.15574" lon="5.57797">
        <ele>1628.4</ele>
        <time>2020-06-06T07:54:39Z</time>
      </trkpt>
      <trkpt lat="45.15577" lon="5.57836">
        <ele>1631</ele>
        <time>2020-06-06T07:54:56Z</time>
      </trkpt>
      <trkpt lat="45.15576" lon="5.57839">
        <ele>1630.9</ele>
        <time>2020-06-06T07:54:57Z</time>
      </trkpt>
      <trkpt lat="45.15517" lon="5.57819">
        <ele>1632</ele>
        <time>2020-06-06T07:55:42Z</time>
      </trkpt>
      <trkpt lat="45.15512" lon="5.57817">
        <ele>1632</ele>
        <time>2020-06-06T07:55:45Z</time>
      </trkpt>
      <trkpt lat="45.15507" lon="5.57811">
        <ele>1631.9</ele>
        <time>2020-06-06T07:55:48Z</time>
      </trkpt>
      <trkpt lat="45.15498" lon="5.578">
        <ele>1631.8</ele>
        <time>2020-06-06T07:55:54Z</time>
      </trkpt>
      <trkpt lat="45.15485" lon="5.57791">
        <ele>1631.1</ele>
        <time>2020-06-06T07:56:00Z</time>
      </trkpt>
      <trkpt lat="45.15479" lon="5.57786">
        <ele>1630.9</ele>
        <time>2020-06-06T07:56:03Z</time>
      </trkpt>
      <trkpt lat="45.15466" lon="5.57783">
        <ele>1630.6</ele>
        <time>2020-06-06T07:56:08Z</time>
      </trkpt>
      <trkpt lat="45.15453" lon="5.57782">
        <ele>1630.4</ele>
        <time>2020-06-06T07:56:13Z</time>
      </trkpt>
      <trkpt lat="45.15438" lon="5.57789">
        <ele>1630.1</ele>
        <time>2020-06-06T07:56:23Z</time>
      </trkpt>
      <trkpt lat="45.15438" lon="5.57796">
        <ele>1629.9</ele>
        <time>2020-06-06T07:56:40Z</time>
      </trkpt>
      <trkpt lat="45.15438" lon="5.57795">
        <ele>1630</ele>
        <time>2020-06-06T07:56:49Z</time>
      </trkpt>
      <trkpt lat="45.15439" lon="5.57795">
        <ele>1630</ele>
        <time>2020-06-06T07:56:59Z</time>
      </trkpt>
      <trkpt lat="45.15442" lon="5.57787">
        <ele>1630.2</ele>
        <time>2020-06-06T07:57:13Z</time>
      </trkpt>
      <trkpt lat="45.15441" lon="5.57786">
        <ele>1630.2</ele>
        <time>2020-06-06T07:57:17Z</time>
      </trkpt>
      <trkpt lat="45.15442" lon="5.57788">
        <ele>1630.2</ele>
        <time>2020-06-06T07:57:27Z</time>
      </trkpt>
      <trkpt lat="45.1544" lon="5.57781">
        <ele>1630.2</ele>
        <time>2020-06-06T07:57:35Z</time>
      </trkpt>
      <trkpt lat="45.15443" lon="5.57772">
        <ele>1630.4</ele>
        <time>2020-06-06T07:57:43Z</time>
      </trkpt>
      <trkpt lat="45.15443" lon="5.57773">
        <ele>1630.4</ele>
        <time>2020-06-06T07:57:44Z</time>
      </trkpt>
      <trkpt lat="45.15444" lon="5.57779">
        <ele>1630.3</ele>
        <time>2020-06-06T07:57:51Z</time>
      </trkpt>
      <trkpt lat="45.15445" lon="5.57782">
        <ele>1630.3</ele>
        <time>2020-06-06T07:57:59Z</time>
      </trkpt>
      <trkpt lat="45.15446" lon="5.57783">
        <ele>1630.3</ele>
        <time>2020-06-06T07:58:08Z</time>
      </trkpt>
      <trkpt lat="45.15447" lon="5.57786">
        <ele>1630.3</ele>
        <time>2020-06-06T07:58:22Z</time>
      </trkpt>
      <trkpt lat="45.1545" lon="5.57788">
        <ele>1630.3</ele>
        <time>2020-06-06T07:58:32Z</time>
      </trkpt>
      <trkpt lat="45.1545" lon="5.57787">
        <ele>1630.3</ele>
        <time>2020-06-06T07:58:40Z</time>
      </trkpt>
      <trkpt lat="45.15441" lon="5.57768">
        <ele>1630.4</ele>
        <time>2020-06-06T07:59:14Z</time>
      </trkpt>
      <trkpt lat="45.15438" lon="5.57765">
        <ele>1630.5</ele>
        <time>2020-06-06T07:59:24Z</time>
      </trkpt>
      <trkpt lat="45.15438" lon="5.57763">
        <ele>1630.5</ele>
        <time>2020-06-06T07:59:32Z</time>
      </trkpt>
      <trkpt lat="45.15437" lon="5.57759">
        <ele>1630.6</ele>
        <time>2020-06-06T07:59:43Z</time>
      </trkpt>
      <trkpt lat="45.15437" lon="5.57762">
        <ele>1630.5</ele>
        <time>2020-06-06T07:59:53Z</time>
      </trkpt>
      <trkpt lat="45.15439" lon="5.57776">
        <ele>1630.3</ele>
        <time>2020-06-06T08:00:00Z</time>
      </trkpt>
      <trkpt lat="45.15445" lon="5.57785">
        <ele>1630.3</ele>
        <time>2020-06-06T08:00:08Z</time>
      </trkpt>
      <trkpt lat="45.15446" lon="5.57785">
        <ele>1630.3</ele>
        <time>2020-06-06T08:00:15Z</time>
      </trkpt>
      <trkpt lat="45.15444" lon="5.57787">
        <ele>1630.2</ele>
        <time>2020-06-06T08:00:22Z</time>
      </trkpt>
      <trkpt lat="45.15443" lon="5.57786">
        <ele>1630.2</ele>
        <time>2020-06-06T08:00:30Z</time>
      </trkpt>
      <trkpt lat="45.15445" lon="5.57788">
        <ele>1630.2</ele>
        <time>2020-06-06T08:00:38Z</time>
      </trkpt>
      <trkpt lat="45.15444" lon="5.57781">
        <ele>1630.3</ele>
        <time>2020-06-06T08:01:17Z</time>
      </trkpt>
      <trkpt lat="45.15442" lon="5.57783">
        <ele>1630.2</ele>
        <time>2020-06-06T08:02:20Z</time>
      </trkpt>
      <trkpt lat="45.15411" lon="5.57792">
        <ele>1628.8</ele>
        <time>2020-06-06T08:02:32Z</time>
      </trkpt>
      <trkpt lat="45.15394" lon="5.57792">
        <ele>1627</ele>
        <time>2020-06-06T08:02:35Z</time>
      </trkpt>
      <trkpt lat="45.15388" lon="5.57791">
        <ele>1626.4</ele>
        <time>2020-06-06T08:02:36Z</time>
      </trkpt>
      <trkpt lat="45.15375" lon="5.5779">
        <ele>1625.1</ele>
        <time>2020-06-06T08:02:38Z</time>
      </trkpt>
      <trkpt lat="45.15368" lon="5.57789">
        <ele>1624.4</ele>
        <time>2020-06-06T08:02:39Z</time>
      </trkpt>
      <trkpt lat="45.15361" lon="5.57786">
        <ele>1623.7</ele>
        <time>2020-06-06T08:02:40Z</time>
      </trkpt>
      <trkpt lat="45.15339" lon="5.57773">
        <ele>1622.2</ele>
        <time>2020-06-06T08:02:43Z</time>
      </trkpt>
      <trkpt lat="45.15332" lon="5.57769">
        <ele>1621.7</ele>
        <time>2020-06-06T08:02:44Z</time>
      </trkpt>
      <trkpt lat="45.15324" lon="5.57766">
        <ele>1620.9</ele>
        <time>2020-06-06T08:02:45Z</time>
      </trkpt>
      <trkpt lat="45.15283" lon="5.57751">
        <ele>1618</ele>
        <time>2020-06-06T08:02:51Z</time>
      </trkpt>
      <trkpt lat="45.1527" lon="5.5775">
        <ele>1616.9</ele>
        <time>2020-06-06T08:02:53Z</time>
      </trkpt>
      <trkpt lat="45.15236" lon="5.57735">
        <ele>1611.8</ele>
        <time>2020-06-06T08:02:58Z</time>
      </trkpt>
      <trkpt lat="45.15202" lon="5.57722">
        <ele>1606.1</ele>
        <time>2020-06-06T08:03:02Z</time>
      </trkpt>
      <trkpt lat="45.15186" lon="5.57717">
        <ele>1603.7</ele>
        <time>2020-06-06T08:03:04Z</time>
      </trkpt>
      <trkpt lat="45.15172" lon="5.57707">
        <ele>1601.7</ele>
        <time>2020-06-06T08:03:06Z</time>
      </trkpt>
      <trkpt lat="45.15143" lon="5.5769">
        <ele>1596.4</ele>
        <time>2020-06-06T08:03:10Z</time>
      </trkpt>
      <trkpt lat="45.15135" lon="5.57686">
        <ele>1595</ele>
        <time>2020-06-06T08:03:11Z</time>
      </trkpt>
      <trkpt lat="45.15118" lon="5.57678">
        <ele>1592</ele>
        <time>2020-06-06T08:03:13Z</time>
      </trkpt>
      <trkpt lat="45.15111" lon="5.57675">
        <ele>1590.7</ele>
        <time>2020-06-06T08:03:14Z</time>
      </trkpt>
      <trkpt lat="45.15103" lon="5.57673">
        <ele>1589.4</ele>
        <time>2020-06-06T08:03:15Z</time>
      </trkpt>
      <trkpt lat="45.15038" lon="5.57684">
        <ele>1581.5</ele>
        <time>2020-06-06T08:03:24Z</time>
      </trkpt>
      <trkpt lat="45.15032" lon="5.57683">
        <ele>1581</ele>
        <time>2020-06-06T08:03:25Z</time>
      </trkpt>
      <trkpt lat="45.15026" lon="5.57682">
        <ele>1580.7</ele>
        <time>2020-06-06T08:03:26Z</time>
      </trkpt>
      <trkpt lat="45.1502" lon="5.5768">
        <ele>1580.3</ele>
        <time>2020-06-06T08:03:27Z</time>
      </trkpt>
      <trkpt lat="45.15007" lon="5.57683">
        <ele>1579</ele>
        <time>2020-06-06T08:03:29Z</time>
      </trkpt>
      <trkpt lat="45.15" lon="5.57685">
        <ele>1578.3</ele>
        <time>2020-06-06T08:03:30Z</time>
      </trkpt>
      <trkpt lat="45.14993" lon="5.57686">
        <ele>1577.7</ele>
        <time>2020-06-06T08:03:31Z</time>
      </trkpt>
      <trkpt lat="45.14967" lon="5.57685">
        <ele>1576.2</ele>
        <time>2020-06-06T08:03:35Z</time>
      </trkpt>
      <trkpt lat="45.14957" lon="5.57679">
        <ele>1576.7</ele>
        <time>2020-06-06T08:03:37Z</time>
      </trkpt>
      <trkpt lat="45.14954" lon="5.57674">
        <ele>1577.2</ele>
        <time>2020-06-06T08:03:38Z</time>
      </trkpt>
      <trkpt lat="45.14947" lon="5.57666">
        <ele>1578</ele>
        <time>2020-06-06T08:03:40Z</time>
      </trkpt>
      <trkpt lat="45.1494" lon="5.57662">
        <ele>1577.6</ele>
        <time>2020-06-06T08:03:42Z</time>
      </trkpt>
      <trkpt lat="45.14933" lon="5.5766">
        <ele>1577.3</ele>
        <time>2020-06-06T08:03:45Z</time>
      </trkpt>
      <trkpt lat="45.14933" lon="5.57661">
        <ele>1577.3</ele>
        <time>2020-06-06T08:04:09Z</time>
      </trkpt>
      <trkpt lat="45.14934" lon="5.57661">
        <ele>1577.4</ele>
        <time>2020-06-06T08:04:16Z</time>
      </trkpt>
      <trkpt lat="45.14934" lon="5.57661">
        <ele>1577.4</ele>
        <time>2020-06-06T08:04:18Z</time>
      </trkpt>
      <trkpt lat="45.14933" lon="5.57662">
        <ele>1577.4</ele>
        <time>2020-06-06T08:04:24Z</time>
      </trkpt>
      <trkpt lat="45.1493" lon="5.5766">
        <ele>1577.2</ele>
        <time>2020-06-06T08:04:33Z</time>
      </trkpt>
      <trkpt lat="45.14918" lon="5.57656">
        <ele>1576.5</ele>
        <time>2020-06-06T08:04:38Z</time>
      </trkpt>
      <trkpt lat="45.14913" lon="5.57655">
        <ele>1576</ele>
        <time>2020-06-06T08:04:39Z</time>
      </trkpt>
      <trkpt lat="45.14908" lon="5.57654">
        <ele>1575.3</ele>
        <time>2020-06-06T08:04:40Z</time>
      </trkpt>
      <trkpt lat="45.14873" lon="5.57637">
        <ele>1570.9</ele>
        <time>2020-06-06T08:04:46Z</time>
      </trkpt>
      <trkpt lat="45.14867" lon="5.57633">
        <ele>1570.3</ele>
        <time>2020-06-06T08:04:47Z</time>
      </trkpt>
      <trkpt lat="45.14859" lon="5.57628">
        <ele>1569.4</ele>
        <time>2020-06-06T08:04:49Z</time>
      </trkpt>
      <trkpt lat="45.1482" lon="5.57592">
        <ele>1566.5</ele>
        <time>2020-06-06T08:04:58Z</time>
      </trkpt>
      <trkpt lat="45.14814" lon="5.57593">
        <ele>1565.9</ele>
        <time>2020-06-06T08:04:59Z</time>
      </trkpt>
      <trkpt lat="45.14812" lon="5.57593">
        <ele>1565.7</ele>
        <time>2020-06-06T08:05:00Z</time>
      </trkpt>
      <trkpt lat="45.14809" lon="5.57593">
        <ele>1565.4</ele>
        <time>2020-06-06T08:05:02Z</time>
      </trkpt>
      <trkpt lat="45.14813" lon="5.57589">
        <ele>1565.9</ele>
        <time>2020-06-06T08:05:24Z</time>
      </trkpt>
      <trkpt lat="45.14813" lon="5.5759">
        <ele>1565.9</ele>
        <time>2020-06-06T08:05:31Z</time>
      </trkpt>
      <trkpt lat="45.14813" lon="5.5759">
        <ele>1565.9</ele>
        <time>2020-06-06T08:05:34Z</time>
      </trkpt>
      <trkpt lat="45.14812" lon="5.5759">
        <ele>1565.8</ele>
        <time>2020-06-06T08:05:39Z</time>
      </trkpt>
      <trkpt lat="45.14812" lon="5.57592">
        <ele>1565.7</ele>
        <time>2020-06-06T08:05:53Z</time>
      </trkpt>
      <trkpt lat="45.14813" lon="5.5759">
        <ele>1565.9</ele>
        <time>2020-06-06T08:06:00Z</time>
      </trkpt>
      <trkpt lat="45.14812" lon="5.57591">
        <ele>1565.8</ele>
        <time>2020-06-06T08:06:48Z</time>
      </trkpt>
      <trkpt lat="45.14811" lon="5.57592">
        <ele>1565.7</ele>
        <time>2020-06-06T08:06:58Z</time>
      </trkpt>
      <trkpt lat="45.14808" lon="5.57594">
        <ele>1565.3</ele>
        <time>2020-06-06T08:07:15Z</time>
      </trkpt>
      <trkpt lat="45.14799" lon="5.5759">
        <ele>1564.6</ele>
        <time>2020-06-06T08:07:19Z</time>
      </trkpt>
      <trkpt lat="45.14786" lon="5.57584">
        <ele>1563.4</ele>
        <time>2020-06-06T08:07:22Z</time>
      </trkpt>
      <trkpt lat="45.14781" lon="5.57582">
        <ele>1562.9</ele>
        <time>2020-06-06T08:07:23Z</time>
      </trkpt>
      <trkpt lat="45.14746" lon="5.57572">
        <ele>1559.7</ele>
        <time>2020-06-06T08:07:29Z</time>
      </trkpt>
      <trkpt lat="45.14618" lon="5.57565">
        <ele>1553.6</ele>
        <time>2020-06-06T08:07:45Z</time>
      </trkpt>
      <trkpt lat="45.14557" lon="5.57542">
        <ele>1546.1</ele>
        <time>2020-06-06T08:07:52Z</time>
      </trkpt>
      <trkpt lat="45.14539" lon="5.57528">
        <ele>1543.7</ele>
        <time>2020-06-06T08:07:55Z</time>
      </trkpt>
      <trkpt lat="45.14532" lon="5.57528">
        <ele>1543.1</ele>
        <time>2020-06-06T08:07:56Z</time>
      </trkpt>
      <trkpt lat="45.14524" lon="5.57528">
        <ele>1542.3</ele>
        <time>2020-06-06T08:07:57Z</time>
      </trkpt>
      <trkpt lat="45.14515" lon="5.57528">
        <ele>1541.5</ele>
        <time>2020-06-06T08:07:58Z</time>
      </trkpt>
      <trkpt lat="45.14447" lon="5.57519">
        <ele>1533.1</ele>
        <time>2020-06-06T08:08:07Z</time>
      </trkpt>
      <trkpt lat="45.14441" lon="5.5752">
        <ele>1532.3</ele>
        <time>2020-06-06T08:08:08Z</time>
      </trkpt>
      <trkpt lat="45.14364" lon="5.57548">
        <ele>1521.5</ele>
        <time>2020-06-06T08:08:19Z</time>
      </trkpt>
      <trkpt lat="45.14354" lon="5.57553">
        <ele>1520.1</ele>
        <time>2020-06-06T08:08:21Z</time>
      </trkpt>
      <trkpt lat="45.14328" lon="5.57564">
        <ele>1516.7</ele>
        <time>2020-06-06T08:08:27Z</time>
      </trkpt>
      <trkpt lat="45.1428" lon="5.57554">
        <ele>1508.9</ele>
        <time>2020-06-06T08:08:35Z</time>
      </trkpt>
      <trkpt lat="45.14276" lon="5.57552">
        <ele>1508.3</ele>
        <time>2020-06-06T08:08:36Z</time>
      </trkpt>
      <trkpt lat="45.14265" lon="5.57548">
        <ele>1506.9</ele>
        <time>2020-06-06T08:08:38Z</time>
      </trkpt>
      <trkpt lat="45.14254" lon="5.57543">
        <ele>1505.5</ele>
        <time>2020-06-06T08:08:40Z</time>
      </trkpt>
      <trkpt lat="45.14248" lon="5.57539">
        <ele>1504.9</ele>
        <time>2020-06-06T08:08:41Z</time>
      </trkpt>
      <trkpt lat="45.14237" lon="5.5753">
        <ele>1503.8</ele>
        <time>2020-06-06T08:08:43Z</time>
      </trkpt>
      <trkpt lat="45.14225" lon="5.5752">
        <ele>1503.3</ele>
        <time>2020-06-06T08:08:45Z</time>
      </trkpt>
      <trkpt lat="45.14208" lon="5.57504">
        <ele>1503.4</ele>
        <time>2020-06-06T08:08:48Z</time>
      </trkpt>
      <trkpt lat="45.14202" lon="5.575">
        <ele>1503.4</ele>
        <time>2020-06-06T08:08:49Z</time>
      </trkpt>
      <trkpt lat="45.14197" lon="5.57497">
        <ele>1502.5</ele>
        <time>2020-06-06T08:08:50Z</time>
      </trkpt>
      <trkpt lat="45.14186" lon="5.57492">
        <ele>1501.2</ele>
        <time>2020-06-06T08:08:52Z</time>
      </trkpt>
      <trkpt lat="45.14143" lon="5.57485">
        <ele>1497.2</ele>
        <time>2020-06-06T08:08:59Z</time>
      </trkpt>
      <trkpt lat="45.14118" lon="5.57482">
        <ele>1495.2</ele>
        <time>2020-06-06T08:09:03Z</time>
      </trkpt>
      <trkpt lat="45.14102" lon="5.57475">
        <ele>1493.8</ele>
        <time>2020-06-06T08:09:07Z</time>
      </trkpt>
      <trkpt lat="45.14079" lon="5.57464">
        <ele>1491.4</ele>
        <time>2020-06-06T08:09:11Z</time>
      </trkpt>
      <trkpt lat="45.14054" lon="5.57461">
        <ele>1487.3</ele>
        <time>2020-06-06T08:09:15Z</time>
      </trkpt>
      <trkpt lat="45.14048" lon="5.57461">
        <ele>1486.4</ele>
        <time>2020-06-06T08:09:16Z</time>
      </trkpt>
      <trkpt lat="45.14044" lon="5.57461">
        <ele>1485.7</ele>
        <time>2020-06-06T08:09:17Z</time>
      </trkpt>
      <trkpt lat="45.1404" lon="5.5746">
        <ele>1485.2</ele>
        <time>2020-06-06T08:09:18Z</time>
      </trkpt>
      <trkpt lat="45.14036" lon="5.57456">
        <ele>1484.9</ele>
        <time>2020-06-06T08:09:20Z</time>
      </trkpt>
      <trkpt lat="45.14035" lon="5.57453">
        <ele>1484.9</ele>
        <time>2020-06-06T08:09:21Z</time>
      </trkpt>
      <trkpt lat="45.14032" lon="5.5745">
        <ele>1484.6</ele>
        <time>2020-06-06T08:09:22Z</time>
      </trkpt>
      <trkpt lat="45.14022" lon="5.57445">
        <ele>1483.7</ele>
        <time>2020-06-06T08:09:24Z</time>
      </trkpt>
      <trkpt lat="45.1401" lon="5.57441">
        <ele>1482.8</ele>
        <time>2020-06-06T08:09:26Z</time>
      </trkpt>
      <trkpt lat="45.14004" lon="5.57441">
        <ele>1482</ele>
        <time>2020-06-06T08:09:27Z</time>
      </trkpt>
      <trkpt lat="45.13968" lon="5.57428">
        <ele>1475.9</ele>
        <time>2020-06-06T08:09:34Z</time>
      </trkpt>
      <trkpt lat="45.13944" lon="5.57431">
        <ele>1469.3</ele>
        <time>2020-06-06T08:09:39Z</time>
      </trkpt>
      <trkpt lat="45.13934" lon="5.57428">
        <ele>1468.1</ele>
        <time>2020-06-06T08:09:41Z</time>
      </trkpt>
      <trkpt lat="45.1393" lon="5.57428">
        <ele>1467</ele>
        <time>2020-06-06T08:09:42Z</time>
      </trkpt>
      <trkpt lat="45.13925" lon="5.57428">
        <ele>1465.9</ele>
        <time>2020-06-06T08:09:43Z</time>
      </trkpt>
      <trkpt lat="45.13919" lon="5.57428">
        <ele>1464.5</ele>
        <time>2020-06-06T08:09:44Z</time>
      </trkpt>
      <trkpt lat="45.13914" lon="5.57427">
        <ele>1463.6</ele>
        <time>2020-06-06T08:09:45Z</time>
      </trkpt>
      <trkpt lat="45.13909" lon="5.57425">
        <ele>1463.1</ele>
        <time>2020-06-06T08:09:46Z</time>
      </trkpt>
      <trkpt lat="45.13903" lon="5.57424">
        <ele>1462.3</ele>
        <time>2020-06-06T08:09:47Z</time>
      </trkpt>
      <trkpt lat="45.13897" lon="5.57422">
        <ele>1461.3</ele>
        <time>2020-06-06T08:09:48Z</time>
      </trkpt>
      <trkpt lat="45.13885" lon="5.57416">
        <ele>1460.7</ele>
        <time>2020-06-06T08:09:50Z</time>
      </trkpt>
      <trkpt lat="45.13878" lon="5.57414">
        <ele>1459.3</ele>
        <time>2020-06-06T08:09:51Z</time>
      </trkpt>
      <trkpt lat="45.13872" lon="5.57409">
        <ele>1458.2</ele>
        <time>2020-06-06T08:09:52Z</time>
      </trkpt>
      <trkpt lat="45.13866" lon="5.57405">
        <ele>1457.1</ele>
        <time>2020-06-06T08:09:53Z</time>
      </trkpt>
      <trkpt lat="45.13858" lon="5.57401">
        <ele>1455.7</ele>
        <time>2020-06-06T08:09:54Z</time>
      </trkpt>
      <trkpt lat="45.13816" lon="5.57401">
        <ele>1446.6</ele>
        <time>2020-06-06T08:09:59Z</time>
      </trkpt>
      <trkpt lat="45.13801" lon="5.57408">
        <ele>1442.9</ele>
        <time>2020-06-06T08:10:01Z</time>
      </trkpt>
      <trkpt lat="45.13788" lon="5.57417">
        <ele>1439.1</ele>
        <time>2020-06-06T08:10:03Z</time>
      </trkpt>
      <trkpt lat="45.13782" lon="5.57418">
        <ele>1436.8</ele>
        <time>2020-06-06T08:10:04Z</time>
      </trkpt>
      <trkpt lat="45.13775" lon="5.5742">
        <ele>1434.9</ele>
        <time>2020-06-06T08:10:05Z</time>
      </trkpt>
      <trkpt lat="45.1376" lon="5.5742">
        <ele>1431.4</ele>
        <time>2020-06-06T08:10:07Z</time>
      </trkpt>
      <trkpt lat="45.13718" lon="5.57404">
        <ele>1426.8</ele>
        <time>2020-06-06T08:10:12Z</time>
      </trkpt>
      <trkpt lat="45.13711" lon="5.574">
        <ele>1425.9</ele>
        <time>2020-06-06T08:10:13Z</time>
      </trkpt>
      <trkpt lat="45.13683" lon="5.57385">
        <ele>1423.3</ele>
        <time>2020-06-06T08:10:17Z</time>
      </trkpt>
      <trkpt lat="45.13669" lon="5.5738">
        <ele>1421.7</ele>
        <time>2020-06-06T08:10:20Z</time>
      </trkpt>
      <trkpt lat="45.1365" lon="5.57364">
        <ele>1421.7</ele>
        <time>2020-06-06T08:10:24Z</time>
      </trkpt>
      <trkpt lat="45.13645" lon="5.5736">
        <ele>1421.9</ele>
        <time>2020-06-06T08:10:25Z</time>
      </trkpt>
      <trkpt lat="45.13623" lon="5.57355">
        <ele>1420.7</ele>
        <time>2020-06-06T08:10:28Z</time>
      </trkpt>
      <trkpt lat="45.13617" lon="5.57352">
        <ele>1420.9</ele>
        <time>2020-06-06T08:10:29Z</time>
      </trkpt>
      <trkpt lat="45.13576" lon="5.5733">
        <ele>1422.2</ele>
        <time>2020-06-06T08:10:41Z</time>
      </trkpt>
      <trkpt lat="45.13571" lon="5.57328">
        <ele>1421.1</ele>
        <time>2020-06-06T08:10:42Z</time>
      </trkpt>
      <trkpt lat="45.13559" lon="5.57325">
        <ele>1418.9</ele>
        <time>2020-06-06T08:10:44Z</time>
      </trkpt>
      <trkpt lat="45.13533" lon="5.57312">
        <ele>1414.2</ele>
        <time>2020-06-06T08:10:49Z</time>
      </trkpt>
      <trkpt lat="45.13525" lon="5.57311">
        <ele>1413</ele>
        <time>2020-06-06T08:10:51Z</time>
      </trkpt>
      <trkpt lat="45.13522" lon="5.57311">
        <ele>1412.7</ele>
        <time>2020-06-06T08:10:57Z</time>
      </trkpt>
      <trkpt lat="45.13521" lon="5.57312">
        <ele>1412.6</ele>
        <time>2020-06-06T08:10:59Z</time>
      </trkpt>
      <trkpt lat="45.1352" lon="5.57315">
        <ele>1412.5</ele>
        <time>2020-06-06T08:11:06Z</time>
      </trkpt>
      <trkpt lat="45.13519" lon="5.57315">
        <ele>1412.4</ele>
        <time>2020-06-06T08:11:15Z</time>
      </trkpt>
      <trkpt lat="45.13519" lon="5.57315">
        <ele>1412.4</ele>
        <time>2020-06-06T08:11:19Z</time>
      </trkpt>
      <trkpt lat="45.13518" lon="5.57317">
        <ele>1412.2</ele>
        <time>2020-06-06T08:11:24Z</time>
      </trkpt>
      <trkpt lat="45.13518" lon="5.57319">
        <ele>1412.1</ele>
        <time>2020-06-06T08:11:31Z</time>
      </trkpt>
      <trkpt lat="45.13519" lon="5.5732">
        <ele>1412.3</ele>
        <time>2020-06-06T08:11:40Z</time>
      </trkpt>
      <trkpt lat="45.13519" lon="5.57319">
        <ele>1412.4</ele>
        <time>2020-06-06T08:11:53Z</time>
      </trkpt>
      <trkpt lat="45.13519" lon="5.5732">
        <ele>1412.4</ele>
        <time>2020-06-06T08:11:57Z</time>
      </trkpt>
      <trkpt lat="45.13518" lon="5.57322">
        <ele>1412.2</ele>
        <time>2020-06-06T08:12:23Z</time>
      </trkpt>
      <trkpt lat="45.13518" lon="5.57322">
        <ele>1412.2</ele>
        <time>2020-06-06T08:12:27Z</time>
      </trkpt>
      <trkpt lat="45.13476" lon="5.57291">
        <ele>1405.9</ele>
        <time>2020-06-06T08:13:00Z</time>
      </trkpt>
      <trkpt lat="45.13465" lon="5.57286">
        <ele>1404.5</ele>
        <time>2020-06-06T08:13:05Z</time>
      </trkpt>
      <trkpt lat="45.13453" lon="5.57281">
        <ele>1403.5</ele>
        <time>2020-06-06T08:13:08Z</time>
      </trkpt>
      <trkpt lat="45.13448" lon="5.57279">
        <ele>1403.2</ele>
        <time>2020-06-06T08:13:09Z</time>
      </trkpt>
      <trkpt lat="45.13437" lon="5.57274">
        <ele>1402.9</ele>
        <time>2020-06-06T08:13:11Z</time>
      </trkpt>
      <trkpt lat="45.13416" lon="5.57259">
        <ele>1405.6</ele>
        <time>2020-06-06T08:13:15Z</time>
      </trkpt>
      <trkpt lat="45.1341" lon="5.57254">
        <ele>1406.6</ele>
        <time>2020-06-06T08:13:16Z</time>
      </trkpt>
      <trkpt lat="45.13396" lon="5.57244">
        <ele>1406.1</ele>
        <time>2020-06-06T08:13:18Z</time>
      </trkpt>
      <trkpt lat="45.13384" lon="5.57235">
        <ele>1404.3</ele>
        <time>2020-06-06T08:13:20Z</time>
      </trkpt>
      <trkpt lat="45.13374" lon="5.57228">
        <ele>1403.1</ele>
        <time>2020-06-06T08:13:22Z</time>
      </trkpt>
      <trkpt lat="45.13362" lon="5.57219">
        <ele>1402.2</ele>
        <time>2020-06-06T08:13:25Z</time>
      </trkpt>
      <trkpt lat="45.13332" lon="5.57204">
        <ele>1400.9</ele>
        <time>2020-06-06T08:13:32Z</time>
      </trkpt>
      <trkpt lat="45.13321" lon="5.57194">
        <ele>1399.7</ele>
        <time>2020-06-06T08:13:34Z</time>
      </trkpt>
      <trkpt lat="45.1328" lon="5.57158">
        <ele>1398.6</ele>
        <time>2020-06-06T08:13:43Z</time>
      </trkpt>
      <trkpt lat="45.13266" lon="5.57149">
        <ele>1397.4</ele>
        <time>2020-06-06T08:13:46Z</time>
      </trkpt>
      <trkpt lat="45.13261" lon="5.57147">
        <ele>1397.2</ele>
        <time>2020-06-06T08:13:47Z</time>
      </trkpt>
      <trkpt lat="45.1322" lon="5.57127">
        <ele>1390.9</ele>
        <time>2020-06-06T08:14:00Z</time>
      </trkpt>
      <trkpt lat="45.13206" lon="5.5713">
        <ele>1388.1</ele>
        <time>2020-06-06T08:14:04Z</time>
      </trkpt>
      <trkpt lat="45.13202" lon="5.57131">
        <ele>1387.1</ele>
        <time>2020-06-06T08:14:05Z</time>
      </trkpt>
      <trkpt lat="45.1318" lon="5.57121">
        <ele>1384.5</ele>
        <time>2020-06-06T08:14:11Z</time>
      </trkpt>
      <trkpt lat="45.13171" lon="5.57116">
        <ele>1383.9</ele>
        <time>2020-06-06T08:14:14Z</time>
      </trkpt>
      <trkpt lat="45.13138" lon="5.57103">
        <ele>1380.7</ele>
        <time>2020-06-06T08:14:21Z</time>
      </trkpt>
      <trkpt lat="45.13122" lon="5.57096">
        <ele>1379.9</ele>
        <time>2020-06-06T08:14:25Z</time>
      </trkpt>
      <trkpt lat="45.13115" lon="5.57095">
        <ele>1379.1</ele>
        <time>2020-06-06T08:14:27Z</time>
      </trkpt>
      <trkpt lat="45.1309" lon="5.57085">
        <ele>1379</ele>
        <time>2020-06-06T08:14:34Z</time>
      </trkpt>
      <trkpt lat="45.13085" lon="5.57085">
        <ele>1378.5</ele>
        <time>2020-06-06T08:14:35Z</time>
      </trkpt>
      <trkpt lat="45.13072" lon="5.57082">
        <ele>1376</ele>
        <time>2020-06-06T08:14:38Z</time>
      </trkpt>
      <trkpt lat="45.13068" lon="5.5708">
        <ele>1374.9</ele>
        <time>2020-06-06T08:14:39Z</time>
      </trkpt>
      <trkpt lat="45.13041" lon="5.57076">
        <ele>1368.1</ele>
        <time>2020-06-06T08:14:46Z</time>
      </trkpt>
      <trkpt lat="45.13037" lon="5.57079">
        <ele>1367.3</ele>
        <time>2020-06-06T08:14:47Z</time>
      </trkpt>
      <trkpt lat="45.13034" lon="5.57081">
        <ele>1366.6</ele>
        <time>2020-06-06T08:14:48Z</time>
      </trkpt>
      <trkpt lat="45.13023" lon="5.57089">
        <ele>1360.4</ele>
        <time>2020-06-06T08:14:54Z</time>
      </trkpt>
      <trkpt lat="45.13019" lon="5.57088">
        <ele>1360.1</ele>
        <time>2020-06-06T08:14:56Z</time>
      </trkpt>
      <trkpt lat="45.13017" lon="5.57088">
        <ele>1359.7</ele>
        <time>2020-06-06T08:14:57Z</time>
      </trkpt>
      <trkpt lat="45.13015" lon="5.57089">
        <ele>1358.6</ele>
        <time>2020-06-06T08:14:58Z</time>
      </trkpt>
      <trkpt lat="45.12995" lon="5.57077">
        <ele>1356.6</ele>
        <time>2020-06-06T08:15:07Z</time>
      </trkpt>
      <trkpt lat="45.12986" lon="5.57072">
        <ele>1354.1</ele>
        <time>2020-06-06T08:15:11Z</time>
      </trkpt>
      <trkpt lat="45.12984" lon="5.57071">
        <ele>1353.4</ele>
        <time>2020-06-06T08:15:12Z</time>
      </trkpt>
      <trkpt lat="45.12976" lon="5.57073">
        <ele>1351</ele>
        <time>2020-06-06T08:15:14Z</time>
      </trkpt>
      <trkpt lat="45.12958" lon="5.57068">
        <ele>1345.7</ele>
        <time>2020-06-06T08:15:17Z</time>
      </trkpt>
      <trkpt lat="45.12952" lon="5.57065">
        <ele>1344.3</ele>
        <time>2020-06-06T08:15:18Z</time>
      </trkpt>
      <trkpt lat="45.12916" lon="5.57038">
        <ele>1340.8</ele>
        <time>2020-06-06T08:15:28Z</time>
      </trkpt>
      <trkpt lat="45.12903" lon="5.57033">
        <ele>1338.2</ele>
        <time>2020-06-06T08:15:31Z</time>
      </trkpt>
      <trkpt lat="45.1289" lon="5.57036">
        <ele>1333.3</ele>
        <time>2020-06-06T08:15:36Z</time>
      </trkpt>
      <trkpt lat="45.12888" lon="5.57037">
        <ele>1332.6</ele>
        <time>2020-06-06T08:15:37Z</time>
      </trkpt>
      <trkpt lat="45.12886" lon="5.57036">
        <ele>1332.2</ele>
        <time>2020-06-06T08:15:38Z</time>
      </trkpt>
      <trkpt lat="45.12884" lon="5.57038">
        <ele>1330.9</ele>
        <time>2020-06-06T08:15:39Z</time>
      </trkpt>
      <trkpt lat="45.12883" lon="5.57038">
        <ele>1330.6</ele>
        <time>2020-06-06T08:15:40Z</time>
      </trkpt>
      <trkpt lat="45.12881" lon="5.57037">
        <ele>1330.3</ele>
        <time>2020-06-06T08:15:41Z</time>
      </trkpt>
      <trkpt lat="45.12877" lon="5.57033">
        <ele>1330.8</ele>
        <time>2020-06-06T08:15:43Z</time>
      </trkpt>
      <trkpt lat="45.12874" lon="5.57032">
        <ele>1329.8</ele>
        <time>2020-06-06T08:15:44Z</time>
      </trkpt>
      <trkpt lat="45.12871" lon="5.57031">
        <ele>1329.6</ele>
        <time>2020-06-06T08:15:45Z</time>
      </trkpt>
      <trkpt lat="45.12862" lon="5.57028">
        <ele>1328.1</ele>
        <time>2020-06-06T08:15:47Z</time>
      </trkpt>
      <trkpt lat="45.12856" lon="5.57025">
        <ele>1327.7</ele>
        <time>2020-06-06T08:15:48Z</time>
      </trkpt>
      <trkpt lat="45.12839" lon="5.57017">
        <ele>1326.7</ele>
        <time>2020-06-06T08:15:51Z</time>
      </trkpt>
      <trkpt lat="45.12833" lon="5.57016">
        <ele>1325.5</ele>
        <time>2020-06-06T08:15:53Z</time>
      </trkpt>
      <trkpt lat="45.12791" lon="5.56994">
        <ele>1322.6</ele>
        <time>2020-06-06T08:16:06Z</time>
      </trkpt>
      <trkpt lat="45.12778" lon="5.56982">
        <ele>1319.9</ele>
        <time>2020-06-06T08:16:11Z</time>
      </trkpt>
      <trkpt lat="45.12738" lon="5.5696">
        <ele>1312.4</ele>
        <time>2020-06-06T08:16:28Z</time>
      </trkpt>
      <trkpt lat="45.12733" lon="5.56959">
        <ele>1311.2</ele>
        <time>2020-06-06T08:16:30Z</time>
      </trkpt>
      <trkpt lat="45.12726" lon="5.56956">
        <ele>1310</ele>
        <time>2020-06-06T08:16:33Z</time>
      </trkpt>
      <trkpt lat="45.12728" lon="5.56909">
        <ele>1314.3</ele>
        <time>2020-06-06T08:16:49Z</time>
      </trkpt>
      <trkpt lat="45.12727" lon="5.56888">
        <ele>1311.3</ele>
        <time>2020-06-06T08:16:56Z</time>
      </trkpt>
      <trkpt lat="45.12724" lon="5.56885">
        <ele>1310.4</ele>
        <time>2020-06-06T08:16:57Z</time>
      </trkpt>
      <trkpt lat="45.12722" lon="5.56873">
        <ele>1308.6</ele>
        <time>2020-06-06T08:17:05Z</time>
      </trkpt>
      <trkpt lat="45.12724" lon="5.56872">
        <ele>1308.6</ele>
        <time>2020-06-06T08:17:06Z</time>
      </trkpt>
      <trkpt lat="45.12708" lon="5.56837">
        <ele>1302.4</ele>
        <time>2020-06-06T08:17:16Z</time>
      </trkpt>
      <trkpt lat="45.12704" lon="5.56834">
        <ele>1301.7</ele>
        <time>2020-06-06T08:17:17Z</time>
      </trkpt>
      <trkpt lat="45.12701" lon="5.56832">
        <ele>1301.1</ele>
        <time>2020-06-06T08:17:18Z</time>
      </trkpt>
      <trkpt lat="45.12673" lon="5.56809">
        <ele>1295.8</ele>
        <time>2020-06-06T08:17:23Z</time>
      </trkpt>
      <trkpt lat="45.12623" lon="5.56787">
        <ele>1285.1</ele>
        <time>2020-06-06T08:17:33Z</time>
      </trkpt>
      <trkpt lat="45.12619" lon="5.56783">
        <ele>1283.8</ele>
        <time>2020-06-06T08:17:34Z</time>
      </trkpt>
      <trkpt lat="45.12588" lon="5.56781">
        <ele>1278.1</ele>
        <time>2020-06-06T08:17:39Z</time>
      </trkpt>
      <trkpt lat="45.12581" lon="5.56785">
        <ele>1277.2</ele>
        <time>2020-06-06T08:17:40Z</time>
      </trkpt>
      <trkpt lat="45.12551" lon="5.56794">
        <ele>1273.7</ele>
        <time>2020-06-06T08:17:44Z</time>
      </trkpt>
      <trkpt lat="45.12523" lon="5.56797">
        <ele>1269.6</ele>
        <time>2020-06-06T08:17:48Z</time>
      </trkpt>
      <trkpt lat="45.12513" lon="5.56797">
        <ele>1267.8</ele>
        <time>2020-06-06T08:17:50Z</time>
      </trkpt>
      <trkpt lat="45.12503" lon="5.5679">
        <ele>1265.2</ele>
        <time>2020-06-06T08:17:52Z</time>
      </trkpt>
      <trkpt lat="45.12498" lon="5.56788">
        <ele>1264.2</ele>
        <time>2020-06-06T08:17:53Z</time>
      </trkpt>
      <trkpt lat="45.12471" lon="5.56785">
        <ele>1261.2</ele>
        <time>2020-06-06T08:17:59Z</time>
      </trkpt>
      <trkpt lat="45.12468" lon="5.56783">
        <ele>1260.6</ele>
        <time>2020-06-06T08:18:00Z</time>
      </trkpt>
      <trkpt lat="45.12458" lon="5.56781">
        <ele>1259.3</ele>
        <time>2020-06-06T08:18:04Z</time>
      </trkpt>
      <trkpt lat="45.12446" lon="5.56781">
        <ele>1258.1</ele>
        <time>2020-06-06T08:18:07Z</time>
      </trkpt>
      <trkpt lat="45.12405" lon="5.56795">
        <ele>1253.9</ele>
        <time>2020-06-06T08:18:18Z</time>
      </trkpt>
      <trkpt lat="45.12398" lon="5.56802">
        <ele>1253.1</ele>
        <time>2020-06-06T08:18:22Z</time>
      </trkpt>
      <trkpt lat="45.12396" lon="5.56808">
        <ele>1253</ele>
        <time>2020-06-06T08:18:27Z</time>
      </trkpt>
      <trkpt lat="45.12379" lon="5.56827">
        <ele>1251</ele>
        <time>2020-06-06T08:18:31Z</time>
      </trkpt>
      <trkpt lat="45.12369" lon="5.56831">
        <ele>1249.2</ele>
        <time>2020-06-06T08:18:33Z</time>
      </trkpt>
      <trkpt lat="45.12365" lon="5.56831">
        <ele>1248.3</ele>
        <time>2020-06-06T08:18:34Z</time>
      </trkpt>
      <trkpt lat="45.12353" lon="5.56829">
        <ele>1245.8</ele>
        <time>2020-06-06T08:18:37Z</time>
      </trkpt>
      <trkpt lat="45.12351" lon="5.56829">
        <ele>1245.4</ele>
        <time>2020-06-06T08:18:38Z</time>
      </trkpt>
      <trkpt lat="45.12341" lon="5.56834">
        <ele>1243.3</ele>
        <time>2020-06-06T08:18:41Z</time>
      </trkpt>
      <trkpt lat="45.12334" lon="5.56832">
        <ele>1242.1</ele>
        <time>2020-06-06T08:18:43Z</time>
      </trkpt>
      <trkpt lat="45.12332" lon="5.56831">
        <ele>1241.5</ele>
        <time>2020-06-06T08:18:44Z</time>
      </trkpt>
      <trkpt lat="45.12328" lon="5.56831">
        <ele>1240.7</ele>
        <time>2020-06-06T08:18:45Z</time>
      </trkpt>
      <trkpt lat="45.12321" lon="5.5683">
        <ele>1239</ele>
        <time>2020-06-06T08:18:47Z</time>
      </trkpt>
      <trkpt lat="45.12313" lon="5.56828">
        <ele>1237.1</ele>
        <time>2020-06-06T08:18:49Z</time>
      </trkpt>
      <trkpt lat="45.1231" lon="5.56826">
        <ele>1236.4</ele>
        <time>2020-06-06T08:18:50Z</time>
      </trkpt>
      <trkpt lat="45.12303" lon="5.56822">
        <ele>1234.7</ele>
        <time>2020-06-06T08:18:52Z</time>
      </trkpt>
      <trkpt lat="45.12301" lon="5.56819">
        <ele>1234</ele>
        <time>2020-06-06T08:18:53Z</time>
      </trkpt>
      <trkpt lat="45.12298" lon="5.56817">
        <ele>1233.3</ele>
        <time>2020-06-06T08:18:54Z</time>
      </trkpt>
      <trkpt lat="45.1229" lon="5.56821">
        <ele>1231.7</ele>
        <time>2020-06-06T08:18:57Z</time>
      </trkpt>
      <trkpt lat="45.12291" lon="5.56825">
        <ele>1232.2</ele>
        <time>2020-06-06T08:18:58Z</time>
      </trkpt>
      <trkpt lat="45.12291" lon="5.56827">
        <ele>1232.1</ele>
        <time>2020-06-06T08:18:59Z</time>
      </trkpt>
      <trkpt lat="45.12273" lon="5.56839">
        <ele>1226.4</ele>
        <time>2020-06-06T08:19:04Z</time>
      </trkpt>
      <trkpt lat="45.12267" lon="5.56841">
        <ele>1224.5</ele>
        <time>2020-06-06T08:19:05Z</time>
      </trkpt>
      <trkpt lat="45.12253" lon="5.56845">
        <ele>1220.3</ele>
        <time>2020-06-06T08:19:09Z</time>
      </trkpt>
      <trkpt lat="45.12251" lon="5.56846">
        <ele>1219.2</ele>
        <time>2020-06-06T08:19:10Z</time>
      </trkpt>
      <trkpt lat="45.12213" lon="5.56844">
        <ele>1211.8</ele>
        <time>2020-06-06T08:19:18Z</time>
      </trkpt>
      <trkpt lat="45.12206" lon="5.56842">
        <ele>1211.2</ele>
        <time>2020-06-06T08:19:20Z</time>
      </trkpt>
      <trkpt lat="45.12203" lon="5.56842">
        <ele>1210.4</ele>
        <time>2020-06-06T08:19:21Z</time>
      </trkpt>
      <trkpt lat="45.12199" lon="5.5684">
        <ele>1210</ele>
        <time>2020-06-06T08:19:23Z</time>
      </trkpt>
      <trkpt lat="45.12195" lon="5.56843">
        <ele>1208.5</ele>
        <time>2020-06-06T08:19:25Z</time>
      </trkpt>
      <trkpt lat="45.12192" lon="5.56847">
        <ele>1206.5</ele>
        <time>2020-06-06T08:19:26Z</time>
      </trkpt>
      <trkpt lat="45.12177" lon="5.56848">
        <ele>1203.2</ele>
        <time>2020-06-06T08:19:31Z</time>
      </trkpt>
      <trkpt lat="45.12172" lon="5.56847">
        <ele>1202.3</ele>
        <time>2020-06-06T08:19:33Z</time>
      </trkpt>
      <trkpt lat="45.12152" lon="5.56863">
        <ele>1193.3</ele>
        <time>2020-06-06T08:19:43Z</time>
      </trkpt>
      <trkpt lat="45.1215" lon="5.56861">
        <ele>1193.3</ele>
        <time>2020-06-06T08:19:45Z</time>
      </trkpt>
      <trkpt lat="45.12124" lon="5.56868">
        <ele>1185.3</ele>
        <time>2020-06-06T08:20:02Z</time>
      </trkpt>
      <trkpt lat="45.12119" lon="5.56868">
        <ele>1183.9</ele>
        <time>2020-06-06T08:20:04Z</time>
      </trkpt>
      <trkpt lat="45.12086" lon="5.56858">
        <ele>1178.4</ele>
        <time>2020-06-06T08:20:10Z</time>
      </trkpt>
      <trkpt lat="45.12075" lon="5.5685">
        <ele>1178.2</ele>
        <time>2020-06-06T08:20:13Z</time>
      </trkpt>
      <trkpt lat="45.12054" lon="5.56841">
        <ele>1175.7</ele>
        <time>2020-06-06T08:20:19Z</time>
      </trkpt>
      <trkpt lat="45.12036" lon="5.56835">
        <ele>1173.3</ele>
        <time>2020-06-06T08:20:24Z</time>
      </trkpt>
      <trkpt lat="45.12037" lon="5.56834">
        <ele>1173.8</ele>
        <time>2020-06-06T08:20:28Z</time>
      </trkpt>
      <trkpt lat="45.12039" lon="5.56834">
        <ele>1174.3</ele>
        <time>2020-06-06T08:20:35Z</time>
      </trkpt>
      <trkpt lat="45.12039" lon="5.56836">
        <ele>1173.9</ele>
        <time>2020-06-06T08:20:41Z</time>
      </trkpt>
      <trkpt lat="45.12038" lon="5.56836">
        <ele>1173.5</ele>
        <time>2020-06-06T08:20:43Z</time>
      </trkpt>
      <trkpt lat="45.12036" lon="5.56836">
        <ele>1173.1</ele>
        <time>2020-06-06T08:20:47Z</time>
      </trkpt>
      <trkpt lat="45.12001" lon="5.56841">
        <ele>1164.2</ele>
        <time>2020-06-06T08:21:40Z</time>
      </trkpt>
      <trkpt lat="45.11999" lon="5.56841">
        <ele>1164.1</ele>
        <time>2020-06-06T08:21:41Z</time>
      </trkpt>
      <trkpt lat="45.11974" lon="5.56846">
        <ele>1156.4</ele>
        <time>2020-06-06T08:21:48Z</time>
      </trkpt>
      <trkpt lat="45.11964" lon="5.56849">
        <ele>1153.6</ele>
        <time>2020-06-06T08:21:51Z</time>
      </trkpt>
      <trkpt lat="45.11958" lon="5.56841">
        <ele>1153.6</ele>
        <time>2020-06-06T08:21:54Z</time>
      </trkpt>
      <trkpt lat="45.11956" lon="5.56843">
        <ele>1152.6</ele>
        <time>2020-06-06T08:21:56Z</time>
      </trkpt>
      <trkpt lat="45.11949" lon="5.56843">
        <ele>1151</ele>
        <time>2020-06-06T08:21:59Z</time>
      </trkpt>
      <trkpt lat="45.11948" lon="5.56844">
        <ele>1150.5</ele>
        <time>2020-06-06T08:22:00Z</time>
      </trkpt>
      <trkpt lat="45.11936" lon="5.56847">
        <ele>1147</ele>
        <time>2020-06-06T08:22:08Z</time>
      </trkpt>
      <trkpt lat="45.11932" lon="5.56849">
        <ele>1145.5</ele>
        <time>2020-06-06T08:22:10Z</time>
      </trkpt>
      <trkpt lat="45.11932" lon="5.56848">
        <ele>1145.6</ele>
        <time>2020-06-06T08:22:11Z</time>
      </trkpt>
      <trkpt lat="45.1193" lon="5.56848">
        <ele>1145.2</ele>
        <time>2020-06-06T08:22:12Z</time>
      </trkpt>
      <trkpt lat="45.11928" lon="5.56849">
        <ele>1144.4</ele>
        <time>2020-06-06T08:22:13Z</time>
      </trkpt>
      <trkpt lat="45.11922" lon="5.56853">
        <ele>1142.4</ele>
        <time>2020-06-06T08:22:16Z</time>
      </trkpt>
      <trkpt lat="45.11921" lon="5.56852">
        <ele>1142.2</ele>
        <time>2020-06-06T08:22:18Z</time>
      </trkpt>
      <trkpt lat="45.1192" lon="5.5685">
        <ele>1142.5</ele>
        <time>2020-06-06T08:22:19Z</time>
      </trkpt>
      <trkpt lat="45.11885" lon="5.56861">
        <ele>1128.9</ele>
        <time>2020-06-06T08:22:34Z</time>
      </trkpt>
      <trkpt lat="45.11878" lon="5.56864">
        <ele>1126.2</ele>
        <time>2020-06-06T08:22:36Z</time>
      </trkpt>
      <trkpt lat="45.11874" lon="5.56865">
        <ele>1124.8</ele>
        <time>2020-06-06T08:22:37Z</time>
      </trkpt>
      <trkpt lat="45.1187" lon="5.56864">
        <ele>1123.7</ele>
        <time>2020-06-06T08:22:38Z</time>
      </trkpt>
      <trkpt lat="45.11869" lon="5.56863">
        <ele>1123.4</ele>
        <time>2020-06-06T08:22:39Z</time>
      </trkpt>
      <trkpt lat="45.11867" lon="5.56857">
        <ele>1123.6</ele>
        <time>2020-06-06T08:22:42Z</time>
      </trkpt>
      <trkpt lat="45.11865" lon="5.56855">
        <ele>1123.1</ele>
        <time>2020-06-06T08:22:44Z</time>
      </trkpt>
      <trkpt lat="45.11861" lon="5.56852">
        <ele>1122</ele>
        <time>2020-06-06T08:22:47Z</time>
      </trkpt>
      <trkpt lat="45.11859" lon="5.56852">
        <ele>1121.6</ele>
        <time>2020-06-06T08:22:48Z</time>
      </trkpt>
      <trkpt lat="45.11847" lon="5.56839">
        <ele>1118.7</ele>
        <time>2020-06-06T08:23:05Z</time>
      </trkpt>
      <trkpt lat="45.11802" lon="5.5686">
        <ele>1102.9</ele>
        <time>2020-06-06T08:23:28Z</time>
      </trkpt>
      <trkpt lat="45.11795" lon="5.56879">
        <ele>1099.6</ele>
        <time>2020-06-06T08:23:31Z</time>
      </trkpt>
      <trkpt lat="45.11794" lon="5.56881">
        <ele>1099.1</ele>
        <time>2020-06-06T08:23:32Z</time>
      </trkpt>
      <trkpt lat="45.11791" lon="5.56877">
        <ele>1098.4</ele>
        <time>2020-06-06T08:23:34Z</time>
      </trkpt>
      <trkpt lat="45.1179" lon="5.56876">
        <ele>1098.2</ele>
        <time>2020-06-06T08:23:36Z</time>
      </trkpt>
      <trkpt lat="45.11768" lon="5.56891">
        <ele>1090.7</ele>
        <time>2020-06-06T08:23:54Z</time>
      </trkpt>
      <trkpt lat="45.11767" lon="5.56894">
        <ele>1090.5</ele>
        <time>2020-06-06T08:23:56Z</time>
      </trkpt>
      <trkpt lat="45.11762" lon="5.56898">
        <ele>1088.7</ele>
        <time>2020-06-06T08:24:00Z</time>
      </trkpt>
      <trkpt lat="45.11761" lon="5.56898">
        <ele>1088.5</ele>
        <time>2020-06-06T08:24:01Z</time>
      </trkpt>
      <trkpt lat="45.1176" lon="5.56896">
        <ele>1088.1</ele>
        <time>2020-06-06T08:24:03Z</time>
      </trkpt>
      <trkpt lat="45.11758" lon="5.56898">
        <ele>1087.5</ele>
        <time>2020-06-06T08:24:05Z</time>
      </trkpt>
      <trkpt lat="45.11757" lon="5.56906">
        <ele>1086.6</ele>
        <time>2020-06-06T08:24:10Z</time>
      </trkpt>
      <trkpt lat="45.11751" lon="5.56908">
        <ele>1084.9</ele>
        <time>2020-06-06T08:24:13Z</time>
      </trkpt>
      <trkpt lat="45.11749" lon="5.56908">
        <ele>1084.3</ele>
        <time>2020-06-06T08:24:14Z</time>
      </trkpt>
      <trkpt lat="45.11748" lon="5.56907">
        <ele>1083.7</ele>
        <time>2020-06-06T08:24:15Z</time>
      </trkpt>
      <trkpt lat="45.11727" lon="5.5687">
        <ele>1079.6</ele>
        <time>2020-06-06T08:24:27Z</time>
      </trkpt>
      <trkpt lat="45.11724" lon="5.56857">
        <ele>1080</ele>
        <time>2020-06-06T08:24:31Z</time>
      </trkpt>
      <trkpt lat="45.1172" lon="5.5686">
        <ele>1078.5</ele>
        <time>2020-06-06T08:24:33Z</time>
      </trkpt>
      <trkpt lat="45.11718" lon="5.56862">
        <ele>1077.7</ele>
        <time>2020-06-06T08:24:36Z</time>
      </trkpt>
      <trkpt lat="45.11718" lon="5.56863">
        <ele>1077.5</ele>
        <time>2020-06-06T08:24:37Z</time>
      </trkpt>
      <trkpt lat="45.11717" lon="5.56858">
        <ele>1077.9</ele>
        <time>2020-06-06T08:24:40Z</time>
      </trkpt>
      <trkpt lat="45.11717" lon="5.5685">
        <ele>1078.7</ele>
        <time>2020-06-06T08:24:43Z</time>
      </trkpt>
      <trkpt lat="45.11716" lon="5.56843">
        <ele>1079</ele>
        <time>2020-06-06T08:24:45Z</time>
      </trkpt>
      <trkpt lat="45.11715" lon="5.56838">
        <ele>1079.2</ele>
        <time>2020-06-06T08:24:46Z</time>
      </trkpt>
      <trkpt lat="45.11708" lon="5.56832">
        <ele>1078.3</ele>
        <time>2020-06-06T08:24:50Z</time>
      </trkpt>
      <trkpt lat="45.11695" lon="5.5683">
        <ele>1075.5</ele>
        <time>2020-06-06T08:24:54Z</time>
      </trkpt>
      <trkpt lat="45.11685" lon="5.56825">
        <ele>1074.4</ele>
        <time>2020-06-06T08:24:57Z</time>
      </trkpt>
      <trkpt lat="45.11683" lon="5.56821">
        <ele>1075.1</ele>
        <time>2020-06-06T08:25:00Z</time>
      </trkpt>
      <trkpt lat="45.11681" lon="5.5682">
        <ele>1074.7</ele>
        <time>2020-06-06T08:25:03Z</time>
      </trkpt>
      <trkpt lat="45.11681" lon="5.56826">
        <ele>1073.1</ele>
        <time>2020-06-06T08:25:06Z</time>
      </trkpt>
      <trkpt lat="45.11679" lon="5.56827">
        <ele>1072.3</ele>
        <time>2020-06-06T08:25:07Z</time>
      </trkpt>
      <trkpt lat="45.1167" lon="5.56829">
        <ele>1069.2</ele>
        <time>2020-06-06T08:25:10Z</time>
      </trkpt>
      <trkpt lat="45.11664" lon="5.56831">
        <ele>1067.4</ele>
        <time>2020-06-06T08:25:12Z</time>
      </trkpt>
      <trkpt lat="45.11661" lon="5.5683">
        <ele>1066.8</ele>
        <time>2020-06-06T08:25:14Z</time>
      </trkpt>
      <trkpt lat="45.1166" lon="5.56834">
        <ele>1065.4</ele>
        <time>2020-06-06T08:25:18Z</time>
      </trkpt>
      <trkpt lat="45.11662" lon="5.56841">
        <ele>1064.6</ele>
        <time>2020-06-06T08:25:22Z</time>
      </trkpt>
      <trkpt lat="45.11665" lon="5.56844">
        <ele>1064.9</ele>
        <time>2020-06-06T08:25:24Z</time>
      </trkpt>
      <trkpt lat="45.11665" lon="5.56845">
        <ele>1064.5</ele>
        <time>2020-06-06T08:25:25Z</time>
      </trkpt>
      <trkpt lat="45.11664" lon="5.56848">
        <ele>1064</ele>
        <time>2020-06-06T08:25:27Z</time>
      </trkpt>
      <trkpt lat="45.11666" lon="5.56853">
        <ele>1063.5</ele>
        <time>2020-06-06T08:25:36Z</time>
      </trkpt>
      <trkpt lat="45.11663" lon="5.56854">
        <ele>1062.7</ele>
        <time>2020-06-06T08:25:38Z</time>
      </trkpt>
      <trkpt lat="45.11662" lon="5.56855">
        <ele>1062.2</ele>
        <time>2020-06-06T08:25:39Z</time>
      </trkpt>
      <trkpt lat="45.1165" lon="5.5686">
        <ele>1058.1</ele>
        <time>2020-06-06T08:25:50Z</time>
      </trkpt>
      <trkpt lat="45.11646" lon="5.56897">
        <ele>1050.2</ele>
        <time>2020-06-06T08:25:57Z</time>
      </trkpt>
      <trkpt lat="45.11642" lon="5.56905">
        <ele>1047.4</ele>
        <time>2020-06-06T08:25:58Z</time>
      </trkpt>
      <trkpt lat="45.11627" lon="5.56962">
        <ele>1032</ele>
        <time>2020-06-06T08:26:05Z</time>
      </trkpt>
      <trkpt lat="45.11629" lon="5.56969">
        <ele>1031.1</ele>
        <time>2020-06-06T08:26:06Z</time>
      </trkpt>
      <trkpt lat="45.11634" lon="5.56975">
        <ele>1031.1</ele>
        <time>2020-06-06T08:26:08Z</time>
      </trkpt>
      <trkpt lat="45.1166" lon="5.57018">
        <ele>1028.2</ele>
        <time>2020-06-06T08:26:19Z</time>
      </trkpt>
      <trkpt lat="45.11661" lon="5.57026">
        <ele>1027.5</ele>
        <time>2020-06-06T08:26:20Z</time>
      </trkpt>
      <trkpt lat="45.11662" lon="5.57033">
        <ele>1026.9</ele>
        <time>2020-06-06T08:26:21Z</time>
      </trkpt>
      <trkpt lat="45.11655" lon="5.57046">
        <ele>1024.9</ele>
        <time>2020-06-06T08:26:24Z</time>
      </trkpt>
      <trkpt lat="45.11649" lon="5.57051">
        <ele>1023.8</ele>
        <time>2020-06-06T08:26:25Z</time>
      </trkpt>
      <trkpt lat="45.11643" lon="5.57058">
        <ele>1022.7</ele>
        <time>2020-06-06T08:26:26Z</time>
      </trkpt>
      <trkpt lat="45.11627" lon="5.57073">
        <ele>1020.3</ele>
        <time>2020-06-06T08:26:29Z</time>
      </trkpt>
      <trkpt lat="45.11626" lon="5.57064">
        <ele>1020.8</ele>
        <time>2020-06-06T08:26:30Z</time>
      </trkpt>
      <trkpt lat="45.1162" lon="5.57067">
        <ele>1020.2</ele>
        <time>2020-06-06T08:26:31Z</time>
      </trkpt>
      <trkpt lat="45.11615" lon="5.57065">
        <ele>1019.9</ele>
        <time>2020-06-06T08:26:32Z</time>
      </trkpt>
      <trkpt lat="45.11598" lon="5.57049">
        <ele>1019.2</ele>
        <time>2020-06-06T08:26:37Z</time>
      </trkpt>
      <trkpt lat="45.11583" lon="5.57025">
        <ele>1018.4</ele>
        <time>2020-06-06T08:26:43Z</time>
      </trkpt>
      <trkpt lat="45.11571" lon="5.56999">
        <ele>1017.9</ele>
        <time>2020-06-06T08:26:48Z</time>
      </trkpt>
      <trkpt lat="45.11569" lon="5.56993">
        <ele>1018</ele>
        <time>2020-06-06T08:26:49Z</time>
      </trkpt>
      <trkpt lat="45.11566" lon="5.56988">
        <ele>1018</ele>
        <time>2020-06-06T08:26:50Z</time>
      </trkpt>
      <trkpt lat="45.11557" lon="5.56977">
        <ele>1017.5</ele>
        <time>2020-06-06T08:26:52Z</time>
      </trkpt>
      <trkpt lat="45.11552" lon="5.56972">
        <ele>1017.1</ele>
        <time>2020-06-06T08:26:53Z</time>
      </trkpt>
      <trkpt lat="45.11546" lon="5.56967">
        <ele>1016.4</ele>
        <time>2020-06-06T08:26:54Z</time>
      </trkpt>
      <trkpt lat="45.11532" lon="5.5696">
        <ele>1014.5</ele>
        <time>2020-06-06T08:26:56Z</time>
      </trkpt>
      <trkpt lat="45.11524" lon="5.56957">
        <ele>1013.3</ele>
        <time>2020-06-06T08:26:57Z</time>
      </trkpt>
      <trkpt lat="45.11516" lon="5.56954">
        <ele>1012</ele>
        <time>2020-06-06T08:26:58Z</time>
      </trkpt>
      <trkpt lat="45.11472" lon="5.56938">
        <ele>1007.8</ele>
        <time>2020-06-06T08:27:03Z</time>
      </trkpt>
      <trkpt lat="45.11454" lon="5.5693">
        <ele>1006.9</ele>
        <time>2020-06-06T08:27:05Z</time>
      </trkpt>
      <trkpt lat="45.11445" lon="5.56926">
        <ele>1006.4</ele>
        <time>2020-06-06T08:27:06Z</time>
      </trkpt>
      <trkpt lat="45.11427" lon="5.56917">
        <ele>1005.4</ele>
        <time>2020-06-06T08:27:08Z</time>
      </trkpt>
      <trkpt lat="45.11351" lon="5.5689">
        <ele>1005.1</ele>
        <time>2020-06-06T08:27:17Z</time>
      </trkpt>
      <trkpt lat="45.11347" lon="5.56885">
        <ele>1005.2</ele>
        <time>2020-06-06T08:27:18Z</time>
      </trkpt>
      <trkpt lat="45.11345" lon="5.56879">
        <ele>1005.4</ele>
        <time>2020-06-06T08:27:19Z</time>
      </trkpt>
      <trkpt lat="45.11345" lon="5.56874">
        <ele>1005.7</ele>
        <time>2020-06-06T08:27:20Z</time>
      </trkpt>
      <trkpt lat="45.11346" lon="5.5687">
        <ele>1006</ele>
        <time>2020-06-06T08:27:21Z</time>
      </trkpt>
      <trkpt lat="45.11348" lon="5.56868">
        <ele>1006.2</ele>
        <time>2020-06-06T08:27:22Z</time>
      </trkpt>
      <trkpt lat="45.1135" lon="5.56852">
        <ele>1007.2</ele>
        <time>2020-06-06T08:27:27Z</time>
      </trkpt>
      <trkpt lat="45.11348" lon="5.5685">
        <ele>1007.3</ele>
        <time>2020-06-06T08:27:28Z</time>
      </trkpt>
      <trkpt lat="45.11341" lon="5.56845">
        <ele>1007</ele>
        <time>2020-06-06T08:27:31Z</time>
      </trkpt>
      <trkpt lat="45.11328" lon="5.56833">
        <ele>1006.8</ele>
        <time>2020-06-06T08:27:45Z</time>
      </trkpt>
      <trkpt lat="45.11326" lon="5.56832">
        <ele>1007.1</ele>
        <time>2020-06-06T08:27:46Z</time>
      </trkpt>
      <trkpt lat="45.11323" lon="5.56826">
        <ele>1008.6</ele>
        <time>2020-06-06T08:28:00Z</time>
      </trkpt>
      <trkpt lat="45.11325" lon="5.56825">
        <ele>1009.1</ele>
        <time>2020-06-06T08:28:16Z</time>
      </trkpt>
      <trkpt lat="45.11325" lon="5.56824">
        <ele>1009.4</ele>
        <time>2020-06-06T08:28:31Z</time>
      </trkpt>
      <trkpt lat="45.11322" lon="5.56825">
        <ele>1008.9</ele>
        <time>2020-06-06T08:28:40Z</time>
      </trkpt>
      <trkpt lat="45.11324" lon="5.56821">
        <ele>1010.2</ele>
        <time>2020-06-06T08:28:49Z</time>
      </trkpt>
      <trkpt lat="45.11323" lon="5.56821">
        <ele>1010.2</ele>
        <time>2020-06-06T08:28:57Z</time>
      </trkpt>
      <trkpt lat="45.11306" lon="5.56824">
        <ele>1008.1</ele>
        <time>2020-06-06T08:29:08Z</time>
      </trkpt>
      <trkpt lat="45.11288" lon="5.56821">
        <ele>1007.4</ele>
        <time>2020-06-06T08:29:16Z</time>
      </trkpt>
      <trkpt lat="45.11278" lon="5.56817">
        <ele>1007.3</ele>
        <time>2020-06-06T08:29:22Z</time>
      </trkpt>
      <trkpt lat="45.11274" lon="5.56815">
        <ele>1007.3</ele>
        <time>2020-06-06T08:29:24Z</time>
      </trkpt>
      <trkpt lat="45.11267" lon="5.56811">
        <ele>1007.3</ele>
        <time>2020-06-06T08:29:30Z</time>
      </trkpt>
      <trkpt lat="45.11262" lon="5.56795">
        <ele>1009.3</ele>
        <time>2020-06-06T08:29:40Z</time>
      </trkpt>
      <trkpt lat="45.11262" lon="5.56793">
        <ele>1009.5</ele>
        <time>2020-06-06T08:29:41Z</time>
      </trkpt>
      <trkpt lat="45.11265" lon="5.5679">
        <ele>1010.4</ele>
        <time>2020-06-06T08:29:46Z</time>
      </trkpt>
      <trkpt lat="45.11266" lon="5.56788">
        <ele>1010.8</ele>
        <time>2020-06-06T08:29:49Z</time>
      </trkpt>
      <trkpt lat="45.11269" lon="5.5678">
        <ele>1012.7</ele>
        <time>2020-06-06T08:29:56Z</time>
      </trkpt>
      <trkpt lat="45.1128" lon="5.56762">
        <ele>1018</ele>
        <time>2020-06-06T08:30:08Z</time>
      </trkpt>
      <trkpt lat="45.11283" lon="5.56757">
        <ele>1019.7</ele>
        <time>2020-06-06T08:30:13Z</time>
      </trkpt>
      <trkpt lat="45.11291" lon="5.56742">
        <ele>1025.1</ele>
        <time>2020-06-06T08:30:25Z</time>
      </trkpt>
      <trkpt lat="45.11291" lon="5.56737">
        <ele>1026.4</ele>
        <time>2020-06-06T08:30:27Z</time>
      </trkpt>
      <trkpt lat="45.11291" lon="5.56729">
        <ele>1028.7</ele>
        <time>2020-06-06T08:30:31Z</time>
      </trkpt>
      <trkpt lat="45.1128" lon="5.56722">
        <ele>1027.9</ele>
        <time>2020-06-06T08:30:39Z</time>
      </trkpt>
      <trkpt lat="45.11278" lon="5.5672">
        <ele>1028.2</ele>
        <time>2020-06-06T08:30:41Z</time>
      </trkpt>
      <trkpt lat="45.11275" lon="5.56713">
        <ele>1029.1</ele>
        <time>2020-06-06T08:31:12Z</time>
      </trkpt>
      <trkpt lat="45.11272" lon="5.5672">
        <ele>1026.5</ele>
        <time>2020-06-06T08:31:20Z</time>
      </trkpt>
      <trkpt lat="45.11275" lon="5.56721">
        <ele>1026.9</ele>
        <time>2020-06-06T08:31:50Z</time>
      </trkpt>
      <trkpt lat="45.11276" lon="5.56721">
        <ele>1027</ele>
        <time>2020-06-06T08:31:56Z</time>
      </trkpt>
      <trkpt lat="45.11266" lon="5.5673">
        <ele>1022.2</ele>
        <time>2020-06-06T08:32:27Z</time>
      </trkpt>
      <trkpt lat="45.11265" lon="5.56727">
        <ele>1022.9</ele>
        <time>2020-06-06T08:32:42Z</time>
      </trkpt>
      <trkpt lat="45.11267" lon="5.56724">
        <ele>1024</ele>
        <time>2020-06-06T08:32:49Z</time>
      </trkpt>
      <trkpt lat="45.11273" lon="5.56699">
        <ele>1032.4</ele>
        <time>2020-06-06T08:33:06Z</time>
      </trkpt>
      <trkpt lat="45.11271" lon="5.56696">
        <ele>1032.7</ele>
        <time>2020-06-06T08:33:08Z</time>
      </trkpt>
      <trkpt lat="45.11264" lon="5.5669">
        <ele>1032.6</ele>
        <time>2020-06-06T08:33:14Z</time>
      </trkpt>
      <trkpt lat="45.11262" lon="5.56685">
        <ele>1033.3</ele>
        <time>2020-06-06T08:33:17Z</time>
      </trkpt>
      <trkpt lat="45.11243" lon="5.5665">
        <ele>1036.9</ele>
        <time>2020-06-06T08:33:36Z</time>
      </trkpt>
      <trkpt lat="45.11244" lon="5.56646">
        <ele>1037.9</ele>
        <time>2020-06-06T08:33:38Z</time>
      </trkpt>
      <trkpt lat="45.11241" lon="5.56641">
        <ele>1038.1</ele>
        <time>2020-06-06T08:33:41Z</time>
      </trkpt>
      <trkpt lat="45.11239" lon="5.56638">
        <ele>1038.3</ele>
        <time>2020-06-06T08:33:43Z</time>
      </trkpt>
      <trkpt lat="45.11237" lon="5.56633">
        <ele>1038.9</ele>
        <time>2020-06-06T08:33:46Z</time>
      </trkpt>
      <trkpt lat="45.11229" lon="5.56622">
        <ele>1039.4</ele>
        <time>2020-06-06T08:33:52Z</time>
      </trkpt>
      <trkpt lat="45.11214" lon="5.56572">
        <ele>1047.9</ele>
        <time>2020-06-06T08:34:21Z</time>
      </trkpt>
      <trkpt lat="45.11211" lon="5.56566">
        <ele>1048.5</ele>
        <time>2020-06-06T08:34:23Z</time>
      </trkpt>
      <trkpt lat="45.11211" lon="5.56566">
        <ele>1048.5</ele>
        <time>2020-06-06T08:34:24Z</time>
      </trkpt>
      <trkpt lat="45.11207" lon="5.56563">
        <ele>1048.3</ele>
        <time>2020-06-06T08:34:25Z</time>
      </trkpt>
      <trkpt lat="45.11204" lon="5.56556">
        <ele>1049.1</ele>
        <time>2020-06-06T08:34:29Z</time>
      </trkpt>
      <trkpt lat="45.11196" lon="5.56527">
        <ele>1053.6</ele>
        <time>2020-06-06T08:34:42Z</time>
      </trkpt>
      <trkpt lat="45.11195" lon="5.56522">
        <ele>1054.5</ele>
        <time>2020-06-06T08:34:44Z</time>
      </trkpt>
      <trkpt lat="45.11194" lon="5.5651">
        <ele>1057.1</ele>
        <time>2020-06-06T08:34:48Z</time>
      </trkpt>
      <trkpt lat="45.11194" lon="5.56503">
        <ele>1058.8</ele>
        <time>2020-06-06T08:34:50Z</time>
      </trkpt>
      <trkpt lat="45.11192" lon="5.56496">
        <ele>1059.8</ele>
        <time>2020-06-06T08:34:53Z</time>
      </trkpt>
      <trkpt lat="45.11192" lon="5.56495">
        <ele>1060.1</ele>
        <time>2020-06-06T08:34:55Z</time>
      </trkpt>
      <trkpt lat="45.11185" lon="5.56476">
        <ele>1062.3</ele>
        <time>2020-06-06T08:35:00Z</time>
      </trkpt>
      <trkpt lat="45.11179" lon="5.56466">
        <ele>1063.1</ele>
        <time>2020-06-06T08:35:04Z</time>
      </trkpt>
      <trkpt lat="45.1117" lon="5.56456">
        <ele>1063.3</ele>
        <time>2020-06-06T08:35:09Z</time>
      </trkpt>
      <trkpt lat="45.11166" lon="5.56452">
        <ele>1063.3</ele>
        <time>2020-06-06T08:35:12Z</time>
      </trkpt>
      <trkpt lat="45.11154" lon="5.5645">
        <ele>1062.3</ele>
        <time>2020-06-06T08:35:19Z</time>
      </trkpt>
      <trkpt lat="45.11152" lon="5.56451">
        <ele>1061.9</ele>
        <time>2020-06-06T08:35:21Z</time>
      </trkpt>
      <trkpt lat="45.1112" lon="5.56459">
        <ele>1056.8</ele>
        <time>2020-06-06T08:35:35Z</time>
      </trkpt>
      <trkpt lat="45.11118" lon="5.56457">
        <ele>1056.9</ele>
        <time>2020-06-06T08:35:37Z</time>
      </trkpt>
      <trkpt lat="45.11113" lon="5.56438">
        <ele>1060.9</ele>
        <time>2020-06-06T08:35:47Z</time>
      </trkpt>
      <trkpt lat="45.11115" lon="5.56435">
        <ele>1061.9</ele>
        <time>2020-06-06T08:35:48Z</time>
      </trkpt>
      <trkpt lat="45.11129" lon="5.56428">
        <ele>1064.8</ele>
        <time>2020-06-06T08:35:58Z</time>
      </trkpt>
      <trkpt lat="45.11163" lon="5.56403">
        <ele>1073.7</ele>
        <time>2020-06-06T08:36:23Z</time>
      </trkpt>
      <trkpt lat="45.11169" lon="5.56399">
        <ele>1075.3</ele>
        <time>2020-06-06T08:36:28Z</time>
      </trkpt>
      <trkpt lat="45.11206" lon="5.56419">
        <ele>1077.3</ele>
        <time>2020-06-06T08:36:46Z</time>
      </trkpt>
      <trkpt lat="45.11209" lon="5.56426">
        <ele>1076.4</ele>
        <time>2020-06-06T08:36:50Z</time>
      </trkpt>
      <trkpt lat="45.11229" lon="5.56441">
        <ele>1077.6</ele>
        <time>2020-06-06T08:37:02Z</time>
      </trkpt>
      <trkpt lat="45.11233" lon="5.56441">
        <ele>1078.2</ele>
        <time>2020-06-06T08:37:04Z</time>
      </trkpt>
      <trkpt lat="45.11271" lon="5.56461">
        <ele>1081.9</ele>
        <time>2020-06-06T08:37:31Z</time>
      </trkpt>
      <trkpt lat="45.11274" lon="5.56463">
        <ele>1082</ele>
        <time>2020-06-06T08:37:33Z</time>
      </trkpt>
      <trkpt lat="45.11278" lon="5.56465">
        <ele>1082.3</ele>
        <time>2020-06-06T08:37:36Z</time>
      </trkpt>
      <trkpt lat="45.11283" lon="5.56466">
        <ele>1082.9</ele>
        <time>2020-06-06T08:37:39Z</time>
      </trkpt>
      <trkpt lat="45.11293" lon="5.56469">
        <ele>1084</ele>
        <time>2020-06-06T08:37:44Z</time>
      </trkpt>
      <trkpt lat="45.11297" lon="5.56471">
        <ele>1084.2</ele>
        <time>2020-06-06T08:37:46Z</time>
      </trkpt>
      <trkpt lat="45.11308" lon="5.56471">
        <ele>1085.9</ele>
        <time>2020-06-06T08:37:53Z</time>
      </trkpt>
      <trkpt lat="45.11315" lon="5.56471">
        <ele>1087.2</ele>
        <time>2020-06-06T08:37:59Z</time>
      </trkpt>
      <trkpt lat="45.1132" lon="5.56468">
        <ele>1088.1</ele>
        <time>2020-06-06T08:38:02Z</time>
      </trkpt>
      <trkpt lat="45.11321" lon="5.56465">
        <ele>1088.8</ele>
        <time>2020-06-06T08:38:05Z</time>
      </trkpt>
      <trkpt lat="45.1132" lon="5.56456">
        <ele>1089.9</ele>
        <time>2020-06-06T08:38:12Z</time>
      </trkpt>
      <trkpt lat="45.11337" lon="5.56366">
        <ele>1103.5</ele>
        <time>2020-06-06T08:38:50Z</time>
      </trkpt>
      <trkpt lat="45.11337" lon="5.56363">
        <ele>1103.8</ele>
        <time>2020-06-06T08:38:51Z</time>
      </trkpt>
      <trkpt lat="45.11336" lon="5.56348">
        <ele>1105.5</ele>
        <time>2020-06-06T08:38:56Z</time>
      </trkpt>
      <trkpt lat="45.11334" lon="5.56338">
        <ele>1106.5</ele>
        <time>2020-06-06T08:39:01Z</time>
      </trkpt>
      <trkpt lat="45.11331" lon="5.56328">
        <ele>1107.4</ele>
        <time>2020-06-06T08:39:07Z</time>
      </trkpt>
      <trkpt lat="45.11326" lon="5.5632">
        <ele>1107.8</ele>
        <time>2020-06-06T08:39:13Z</time>
      </trkpt>
      <trkpt lat="45.11325" lon="5.56319">
        <ele>1107.9</ele>
        <time>2020-06-06T08:39:14Z</time>
      </trkpt>
      <trkpt lat="45.11316" lon="5.56288">
        <ele>1111.1</ele>
        <time>2020-06-06T08:39:27Z</time>
      </trkpt>
      <trkpt lat="45.11314" lon="5.56282">
        <ele>1111.7</ele>
        <time>2020-06-06T08:39:30Z</time>
      </trkpt>
      <trkpt lat="45.11312" lon="5.56277">
        <ele>1112.1</ele>
        <time>2020-06-06T08:39:32Z</time>
      </trkpt>
      <trkpt lat="45.1131" lon="5.56271">
        <ele>1112.8</ele>
        <time>2020-06-06T08:39:35Z</time>
      </trkpt>
      <trkpt lat="45.11304" lon="5.56258">
        <ele>1114</ele>
        <time>2020-06-06T08:39:42Z</time>
      </trkpt>
      <trkpt lat="45.113" lon="5.56206">
        <ele>1117.9</ele>
        <time>2020-06-06T08:40:03Z</time>
      </trkpt>
      <trkpt lat="45.113" lon="5.562">
        <ele>1118.4</ele>
        <time>2020-06-06T08:40:05Z</time>
      </trkpt>
      <trkpt lat="45.11307" lon="5.5613">
        <ele>1122.9</ele>
        <time>2020-06-06T08:40:32Z</time>
      </trkpt>
      <trkpt lat="45.11307" lon="5.56128">
        <ele>1123</ele>
        <time>2020-06-06T08:40:33Z</time>
      </trkpt>
      <trkpt lat="45.11308" lon="5.5611">
        <ele>1124</ele>
        <time>2020-06-06T08:40:39Z</time>
      </trkpt>
      <trkpt lat="45.11314" lon="5.56095">
        <ele>1124.7</ele>
        <time>2020-06-06T08:40:45Z</time>
      </trkpt>
      <trkpt lat="45.11319" lon="5.56086">
        <ele>1125</ele>
        <time>2020-06-06T08:40:49Z</time>
      </trkpt>
      <trkpt lat="45.11327" lon="5.56065">
        <ele>1124.6</ele>
        <time>2020-06-06T08:40:55Z</time>
      </trkpt>
      <trkpt lat="45.11339" lon="5.56039">
        <ele>1124.3</ele>
        <time>2020-06-06T08:41:01Z</time>
      </trkpt>
      <trkpt lat="45.11341" lon="5.56038">
        <ele>1124.4</ele>
        <time>2020-06-06T08:41:02Z</time>
      </trkpt>
      <trkpt lat="45.11349" lon="5.56036">
        <ele>1124.8</ele>
        <time>2020-06-06T08:41:07Z</time>
      </trkpt>
      <trkpt lat="45.11356" lon="5.56039">
        <ele>1125.4</ele>
        <time>2020-06-06T08:41:11Z</time>
      </trkpt>
      <trkpt lat="45.11381" lon="5.56045">
        <ele>1127.3</ele>
        <time>2020-06-06T08:41:22Z</time>
      </trkpt>
      <trkpt lat="45.11406" lon="5.56057">
        <ele>1130</ele>
        <time>2020-06-06T08:41:40Z</time>
      </trkpt>
      <trkpt lat="45.11411" lon="5.56061">
        <ele>1130.7</ele>
        <time>2020-06-06T08:41:43Z</time>
      </trkpt>
      <trkpt lat="45.11418" lon="5.56068">
        <ele>1131.8</ele>
        <time>2020-06-06T08:41:48Z</time>
      </trkpt>
      <trkpt lat="45.11423" lon="5.56072">
        <ele>1132.4</ele>
        <time>2020-06-06T08:41:51Z</time>
      </trkpt>
      <trkpt lat="45.11461" lon="5.56091">
        <ele>1135.3</ele>
        <time>2020-06-06T08:42:10Z</time>
      </trkpt>
      <trkpt lat="45.11468" lon="5.56095">
        <ele>1135.8</ele>
        <time>2020-06-06T08:42:15Z</time>
      </trkpt>
      <trkpt lat="45.11494" lon="5.5611">
        <ele>1137.6</ele>
        <time>2020-06-06T08:42:27Z</time>
      </trkpt>
      <trkpt lat="45.115" lon="5.56127">
        <ele>1138.6</ele>
        <time>2020-06-06T08:42:35Z</time>
      </trkpt>
      <trkpt lat="45.11505" lon="5.56138">
        <ele>1138.9</ele>
        <time>2020-06-06T08:42:40Z</time>
      </trkpt>
      <trkpt lat="45.1151" lon="5.56147">
        <ele>1139.1</ele>
        <time>2020-06-06T08:42:44Z</time>
      </trkpt>
      <trkpt lat="45.11513" lon="5.56151">
        <ele>1139.2</ele>
        <time>2020-06-06T08:42:46Z</time>
      </trkpt>
      <trkpt lat="45.11519" lon="5.5616">
        <ele>1139.3</ele>
        <time>2020-06-06T08:42:49Z</time>
      </trkpt>
      <trkpt lat="45.11534" lon="5.56166">
        <ele>1139.1</ele>
        <time>2020-06-06T08:42:54Z</time>
      </trkpt>
      <trkpt lat="45.11543" lon="5.56168">
        <ele>1138.8</ele>
        <time>2020-06-06T08:42:57Z</time>
      </trkpt>
      <trkpt lat="45.11563" lon="5.56172">
        <ele>1138.2</ele>
        <time>2020-06-06T08:43:03Z</time>
      </trkpt>
      <trkpt lat="45.11566" lon="5.56173">
        <ele>1138.1</ele>
        <time>2020-06-06T08:43:04Z</time>
      </trkpt>
      <trkpt lat="45.11587" lon="5.56177">
        <ele>1138</ele>
        <time>2020-06-06T08:43:13Z</time>
      </trkpt>
      <trkpt lat="45.11594" lon="5.56179">
        <ele>1138.4</ele>
        <time>2020-06-06T08:43:16Z</time>
      </trkpt>
      <trkpt lat="45.11613" lon="5.56183">
        <ele>1139.8</ele>
        <time>2020-06-06T08:43:24Z</time>
      </trkpt>
      <trkpt lat="45.11621" lon="5.56183">
        <ele>1140.5</ele>
        <time>2020-06-06T08:43:28Z</time>
      </trkpt>
      <trkpt lat="45.11631" lon="5.56181">
        <ele>1141.4</ele>
        <time>2020-06-06T08:43:32Z</time>
      </trkpt>
      <trkpt lat="45.11635" lon="5.5618">
        <ele>1141.8</ele>
        <time>2020-06-06T08:43:34Z</time>
      </trkpt>
      <trkpt lat="45.11644" lon="5.56177">
        <ele>1142.6</ele>
        <time>2020-06-06T08:43:38Z</time>
      </trkpt>
      <trkpt lat="45.11664" lon="5.56169">
        <ele>1144.7</ele>
        <time>2020-06-06T08:43:48Z</time>
      </trkpt>
      <trkpt lat="45.11689" lon="5.56132">
        <ele>1147.9</ele>
        <time>2020-06-06T08:44:05Z</time>
      </trkpt>
      <trkpt lat="45.11693" lon="5.56128">
        <ele>1148.4</ele>
        <time>2020-06-06T08:44:07Z</time>
      </trkpt>
      <trkpt lat="45.117" lon="5.5612">
        <ele>1149.5</ele>
        <time>2020-06-06T08:44:12Z</time>
      </trkpt>
      <trkpt lat="45.11709" lon="5.56112">
        <ele>1151</ele>
        <time>2020-06-06T08:44:18Z</time>
      </trkpt>
      <trkpt lat="45.11765" lon="5.5606">
        <ele>1161.5</ele>
        <time>2020-06-06T08:44:52Z</time>
      </trkpt>
      <trkpt lat="45.11771" lon="5.56057">
        <ele>1162.5</ele>
        <time>2020-06-06T08:44:55Z</time>
      </trkpt>
      <trkpt lat="45.11775" lon="5.56055">
        <ele>1163.1</ele>
        <time>2020-06-06T08:44:57Z</time>
      </trkpt>
      <trkpt lat="45.11777" lon="5.56053">
        <ele>1163.4</ele>
        <time>2020-06-06T08:44:58Z</time>
      </trkpt>
      <trkpt lat="45.11793" lon="5.56045">
        <ele>1165.9</ele>
        <time>2020-06-06T08:45:06Z</time>
      </trkpt>
      <trkpt lat="45.11805" lon="5.56039">
        <ele>1167.9</ele>
        <time>2020-06-06T08:45:12Z</time>
      </trkpt>
      <trkpt lat="45.11814" lon="5.56036">
        <ele>1169.3</ele>
        <time>2020-06-06T08:45:16Z</time>
      </trkpt>
      <trkpt lat="45.11819" lon="5.56035">
        <ele>1170</ele>
        <time>2020-06-06T08:45:18Z</time>
      </trkpt>
      <trkpt lat="45.11831" lon="5.56031">
        <ele>1172</ele>
        <time>2020-06-06T08:45:24Z</time>
      </trkpt>
      <trkpt lat="45.11876" lon="5.56017">
        <ele>1175.6</ele>
        <time>2020-06-06T08:45:49Z</time>
      </trkpt>
      <trkpt lat="45.11877" lon="5.56017">
        <ele>1175.8</ele>
        <time>2020-06-06T08:45:50Z</time>
      </trkpt>
      <trkpt lat="45.11935" lon="5.55988">
        <ele>1182.3</ele>
        <time>2020-06-06T08:46:22Z</time>
      </trkpt>
      <trkpt lat="45.1194" lon="5.55981">
        <ele>1183</ele>
        <time>2020-06-06T08:46:25Z</time>
      </trkpt>
      <trkpt lat="45.11948" lon="5.55974">
        <ele>1184.2</ele>
        <time>2020-06-06T08:46:30Z</time>
      </trkpt>
      <trkpt lat="45.1196" lon="5.55968">
        <ele>1185.8</ele>
        <time>2020-06-06T08:46:36Z</time>
      </trkpt>
      <trkpt lat="45.11965" lon="5.55966">
        <ele>1186.4</ele>
        <time>2020-06-06T08:46:38Z</time>
      </trkpt>
      <trkpt lat="45.11971" lon="5.55963">
        <ele>1187.3</ele>
        <time>2020-06-06T08:46:41Z</time>
      </trkpt>
      <trkpt lat="45.11984" lon="5.55951">
        <ele>1189.2</ele>
        <time>2020-06-06T08:46:48Z</time>
      </trkpt>
      <trkpt lat="45.12001" lon="5.55937">
        <ele>1191.5</ele>
        <time>2020-06-06T08:46:56Z</time>
      </trkpt>
      <trkpt lat="45.12043" lon="5.55894">
        <ele>1194.9</ele>
        <time>2020-06-06T08:47:19Z</time>
      </trkpt>
      <trkpt lat="45.12051" lon="5.55864">
        <ele>1197.8</ele>
        <time>2020-06-06T08:47:30Z</time>
      </trkpt>
      <trkpt lat="45.12052" lon="5.5586">
        <ele>1198.2</ele>
        <time>2020-06-06T08:47:31Z</time>
      </trkpt>
      <trkpt lat="45.12055" lon="5.55841">
        <ele>1200</ele>
        <time>2020-06-06T08:47:36Z</time>
      </trkpt>
      <trkpt lat="45.12057" lon="5.55835">
        <ele>1200.6</ele>
        <time>2020-06-06T08:47:38Z</time>
      </trkpt>
      <trkpt lat="45.1205" lon="5.55806">
        <ele>1201.6</ele>
        <time>2020-06-06T08:47:44Z</time>
      </trkpt>
      <trkpt lat="45.1204" lon="5.55794">
        <ele>1201.9</ele>
        <time>2020-06-06T08:47:49Z</time>
      </trkpt>
      <trkpt lat="45.12037" lon="5.5579">
        <ele>1202</ele>
        <time>2020-06-06T08:47:50Z</time>
      </trkpt>
      <trkpt lat="45.12008" lon="5.55748">
        <ele>1204.2</ele>
        <time>2020-06-06T08:48:06Z</time>
      </trkpt>
      <trkpt lat="45.12006" lon="5.55745">
        <ele>1204.4</ele>
        <time>2020-06-06T08:48:07Z</time>
      </trkpt>
      <trkpt lat="45.11957" lon="5.557">
        <ele>1206</ele>
        <time>2020-06-06T08:48:26Z</time>
      </trkpt>
      <trkpt lat="45.11956" lon="5.55698">
        <ele>1206.2</ele>
        <time>2020-06-06T08:48:27Z</time>
      </trkpt>
      <trkpt lat="45.11956" lon="5.5569">
        <ele>1207</ele>
        <time>2020-06-06T08:48:30Z</time>
      </trkpt>
      <trkpt lat="45.11956" lon="5.55683">
        <ele>1207.7</ele>
        <time>2020-06-06T08:48:33Z</time>
      </trkpt>
      <trkpt lat="45.11955" lon="5.55677">
        <ele>1208.2</ele>
        <time>2020-06-06T08:48:35Z</time>
      </trkpt>
      <trkpt lat="45.11955" lon="5.55675">
        <ele>1208.5</ele>
        <time>2020-06-06T08:48:36Z</time>
      </trkpt>
      <trkpt lat="45.11954" lon="5.55671">
        <ele>1208.8</ele>
        <time>2020-06-06T08:48:37Z</time>
      </trkpt>
      <trkpt lat="45.11949" lon="5.55659">
        <ele>1209.8</ele>
        <time>2020-06-06T08:48:40Z</time>
      </trkpt>
      <trkpt lat="45.11944" lon="5.55647">
        <ele>1210.9</ele>
        <time>2020-06-06T08:48:43Z</time>
      </trkpt>
      <trkpt lat="45.11936" lon="5.55635">
        <ele>1211.8</ele>
        <time>2020-06-06T08:48:48Z</time>
      </trkpt>
      <trkpt lat="45.11934" lon="5.55632">
        <ele>1212</ele>
        <time>2020-06-06T08:48:49Z</time>
      </trkpt>
      <trkpt lat="45.11925" lon="5.55615">
        <ele>1213.2</ele>
        <time>2020-06-06T08:48:54Z</time>
      </trkpt>
      <trkpt lat="45.1192" lon="5.55608">
        <ele>1213.5</ele>
        <time>2020-06-06T08:48:56Z</time>
      </trkpt>
      <trkpt lat="45.1191" lon="5.55583">
        <ele>1215.4</ele>
        <time>2020-06-06T08:49:03Z</time>
      </trkpt>
      <trkpt lat="45.119" lon="5.55562">
        <ele>1217.7</ele>
        <time>2020-06-06T08:49:09Z</time>
      </trkpt>
      <trkpt lat="45.11894" lon="5.5554">
        <ele>1220.6</ele>
        <time>2020-06-06T08:49:16Z</time>
      </trkpt>
      <trkpt lat="45.11894" lon="5.55537">
        <ele>1221.1</ele>
        <time>2020-06-06T08:49:17Z</time>
      </trkpt>
      <trkpt lat="45.11879" lon="5.55484">
        <ele>1226.8</ele>
        <time>2020-06-06T08:49:33Z</time>
      </trkpt>
      <trkpt lat="45.11876" lon="5.55478">
        <ele>1227.1</ele>
        <time>2020-06-06T08:49:35Z</time>
      </trkpt>
      <trkpt lat="45.11874" lon="5.5547">
        <ele>1227.8</ele>
        <time>2020-06-06T08:49:38Z</time>
      </trkpt>
      <trkpt lat="45.11871" lon="5.55467">
        <ele>1227.7</ele>
        <time>2020-06-06T08:49:39Z</time>
      </trkpt>
      <trkpt lat="45.11868" lon="5.55464">
        <ele>1227.6</ele>
        <time>2020-06-06T08:49:40Z</time>
      </trkpt>
      <trkpt lat="45.11859" lon="5.55453">
        <ele>1227.3</ele>
        <time>2020-06-06T08:49:44Z</time>
      </trkpt>
      <trkpt lat="45.11858" lon="5.55451">
        <ele>1227.3</ele>
        <time>2020-06-06T08:49:45Z</time>
      </trkpt>
      <trkpt lat="45.11811" lon="5.5536">
        <ele>1232.1</ele>
        <time>2020-06-06T08:50:19Z</time>
      </trkpt>
      <trkpt lat="45.11806" lon="5.55343">
        <ele>1234.3</ele>
        <time>2020-06-06T08:50:23Z</time>
      </trkpt>
      <trkpt lat="45.11798" lon="5.55283">
        <ele>1240.9</ele>
        <time>2020-06-06T08:50:34Z</time>
      </trkpt>
      <trkpt lat="45.11797" lon="5.55275">
        <ele>1241.7</ele>
        <time>2020-06-06T08:50:35Z</time>
      </trkpt>
      <trkpt lat="45.11795" lon="5.55267">
        <ele>1242.6</ele>
        <time>2020-06-06T08:50:36Z</time>
      </trkpt>
      <trkpt lat="45.11791" lon="5.55245">
        <ele>1245</ele>
        <time>2020-06-06T08:50:39Z</time>
      </trkpt>
      <trkpt lat="45.11774" lon="5.55226">
        <ele>1246.4</ele>
        <time>2020-06-06T08:50:46Z</time>
      </trkpt>
      <trkpt lat="45.1177" lon="5.5523">
        <ele>1245.7</ele>
        <time>2020-06-06T08:50:49Z</time>
      </trkpt>
      <trkpt lat="45.11767" lon="5.55233">
        <ele>1245.3</ele>
        <time>2020-06-06T08:50:51Z</time>
      </trkpt>
      <trkpt lat="45.11755" lon="5.5525">
        <ele>1242.3</ele>
        <time>2020-06-06T08:50:58Z</time>
      </trkpt>
      <trkpt lat="45.11753" lon="5.55251">
        <ele>1242</ele>
        <time>2020-06-06T08:50:59Z</time>
      </trkpt>
      <trkpt lat="45.11752" lon="5.55252">
        <ele>1241.8</ele>
        <time>2020-06-06T08:51:01Z</time>
      </trkpt>
      <trkpt lat="45.1175" lon="5.55254">
        <ele>1241.4</ele>
        <time>2020-06-06T08:51:02Z</time>
      </trkpt>
      <trkpt lat="45.11738" lon="5.55264">
        <ele>1239.5</ele>
        <time>2020-06-06T08:51:09Z</time>
      </trkpt>
      <trkpt lat="45.11722" lon="5.55265">
        <ele>1239.1</ele>
        <time>2020-06-06T08:51:13Z</time>
      </trkpt>
      <trkpt lat="45.11713" lon="5.55265">
        <ele>1238.9</ele>
        <time>2020-06-06T08:51:15Z</time>
      </trkpt>
      <trkpt lat="45.11706" lon="5.55263">
        <ele>1239</ele>
        <time>2020-06-06T08:51:17Z</time>
      </trkpt>
      <trkpt lat="45.11697" lon="5.55263">
        <ele>1238.8</ele>
        <time>2020-06-06T08:51:19Z</time>
      </trkpt>
      <trkpt lat="45.11685" lon="5.55257">
        <ele>1239.4</ele>
        <time>2020-06-06T08:51:21Z</time>
      </trkpt>
      <trkpt lat="45.1168" lon="5.55253">
        <ele>1239.9</ele>
        <time>2020-06-06T08:51:22Z</time>
      </trkpt>
      <trkpt lat="45.11665" lon="5.55234">
        <ele>1242.4</ele>
        <time>2020-06-06T08:51:25Z</time>
      </trkpt>
      <trkpt lat="45.11658" lon="5.55224">
        <ele>1243.3</ele>
        <time>2020-06-06T08:51:27Z</time>
      </trkpt>
      <trkpt lat="45.11655" lon="5.5522">
        <ele>1243.8</ele>
        <time>2020-06-06T08:51:28Z</time>
      </trkpt>
      <trkpt lat="45.11645" lon="5.55205">
        <ele>1245.3</ele>
        <time>2020-06-06T08:51:33Z</time>
      </trkpt>
      <trkpt lat="45.11643" lon="5.55203">
        <ele>1245.6</ele>
        <time>2020-06-06T08:51:34Z</time>
      </trkpt>
      <trkpt lat="45.11632" lon="5.55176">
        <ele>1249</ele>
        <time>2020-06-06T08:51:48Z</time>
      </trkpt>
      <trkpt lat="45.11627" lon="5.55166">
        <ele>1250.2</ele>
        <time>2020-06-06T08:51:54Z</time>
      </trkpt>
      <trkpt lat="45.11624" lon="5.55157">
        <ele>1250.8</ele>
        <time>2020-06-06T08:51:59Z</time>
      </trkpt>
      <trkpt lat="45.11624" lon="5.55155">
        <ele>1251</ele>
        <time>2020-06-06T08:52:00Z</time>
      </trkpt>
      <trkpt lat="45.11621" lon="5.55146">
        <ele>1251.7</ele>
        <time>2020-06-06T08:52:05Z</time>
      </trkpt>
      <trkpt lat="45.1162" lon="5.55124">
        <ele>1253.7</ele>
        <time>2020-06-06T08:52:14Z</time>
      </trkpt>
      <trkpt lat="45.11618" lon="5.55107">
        <ele>1255</ele>
        <time>2020-06-06T08:52:19Z</time>
      </trkpt>
      <trkpt lat="45.11615" lon="5.55096">
        <ele>1255.9</ele>
        <time>2020-06-06T08:52:24Z</time>
      </trkpt>
      <trkpt lat="45.11615" lon="5.55091">
        <ele>1256.4</ele>
        <time>2020-06-06T08:52:26Z</time>
      </trkpt>
      <trkpt lat="45.11613" lon="5.55039">
        <ele>1261.3</ele>
        <time>2020-06-06T08:52:42Z</time>
      </trkpt>
      <trkpt lat="45.11613" lon="5.55021">
        <ele>1263.1</ele>
        <time>2020-06-06T08:52:48Z</time>
      </trkpt>
      <trkpt lat="45.11609" lon="5.55008">
        <ele>1264</ele>
        <time>2020-06-06T08:52:52Z</time>
      </trkpt>
      <trkpt lat="45.11602" lon="5.54993">
        <ele>1264.8</ele>
        <time>2020-06-06T08:52:58Z</time>
      </trkpt>
      <trkpt lat="45.116" lon="5.54983">
        <ele>1265.3</ele>
        <time>2020-06-06T08:53:01Z</time>
      </trkpt>
      <trkpt lat="45.1159" lon="5.54967">
        <ele>1265.8</ele>
        <time>2020-06-06T08:53:10Z</time>
      </trkpt>
      <trkpt lat="45.11588" lon="5.54958">
        <ele>1266.3</ele>
        <time>2020-06-06T08:53:14Z</time>
      </trkpt>
      <trkpt lat="45.11596" lon="5.54879">
        <ele>1268.6</ele>
        <time>2020-08-23T07:07:58Z</time>
      </trkpt>
      <trkpt lat="45.1158" lon="5.54875">
        <ele>1268.7</ele>
        <time>2020-08-23T07:08:03Z</time>
      </trkpt>
      <trkpt lat="45.11577" lon="5.54874">
        <ele>1268.8</ele>
        <time>2020-08-23T07:08:04Z</time>
      </trkpt>
      <trkpt lat="45.11573" lon="5.54873">
        <ele>1269</ele>
        <time>2020-08-23T07:08:06Z</time>
      </trkpt>
      <trkpt lat="45.1157" lon="5.5487">
        <ele>1269.2</ele>
        <time>2020-08-23T07:08:52Z</time>
      </trkpt>
      <trkpt lat="45.11554" lon="5.54843">
        <ele>1270.6</ele>
        <time>2020-08-23T07:09:06Z</time>
      </trkpt>
      <trkpt lat="45.11554" lon="5.54841">
        <ele>1270.7</ele>
        <time>2020-08-23T07:09:07Z</time>
      </trkpt>
      <trkpt lat="45.11553" lon="5.54839">
        <ele>1270.8</ele>
        <time>2020-08-23T07:09:08Z</time>
      </trkpt>
      <trkpt lat="45.11552" lon="5.54836">
        <ele>1271</ele>
        <time>2020-08-23T07:09:09Z</time>
      </trkpt>
      <trkpt lat="45.11543" lon="5.54824">
        <ele>1270.7</ele>
        <time>2020-08-23T07:09:16Z</time>
      </trkpt>
      <trkpt lat="45.11541" lon="5.54824">
        <ele>1270.9</ele>
        <time>2020-08-23T07:09:17Z</time>
      </trkpt>
      <trkpt lat="45.11538" lon="5.54823">
        <ele>1271</ele>
        <time>2020-08-23T07:09:18Z</time>
      </trkpt>
      <trkpt lat="45.11525" lon="5.5482">
        <ele>1272</ele>
        <time>2020-08-23T07:09:24Z</time>
      </trkpt>
      <trkpt lat="45.11523" lon="5.54819">
        <ele>1272.1</ele>
        <time>2020-08-23T07:09:25Z</time>
      </trkpt>
      <trkpt lat="45.11521" lon="5.54819">
        <ele>1272.3</ele>
        <time>2020-08-23T07:09:26Z</time>
      </trkpt>
      <trkpt lat="45.1152" lon="5.54819">
        <ele>1272.5</ele>
        <time>2020-08-23T07:09:27Z</time>
      </trkpt>
      <trkpt lat="45.11509" lon="5.54817">
        <ele>1273.5</ele>
        <time>2020-08-23T07:09:33Z</time>
      </trkpt>
      <trkpt lat="45.11507" lon="5.54817">
        <ele>1273.7</ele>
        <time>2020-08-23T07:09:34Z</time>
      </trkpt>
      <trkpt lat="45.11505" lon="5.54816">
        <ele>1273.8</ele>
        <time>2020-08-23T07:09:35Z</time>
      </trkpt>
      <trkpt lat="45.11503" lon="5.54815">
        <ele>1273.9</ele>
        <time>2020-08-23T07:09:36Z</time>
      </trkpt>
      <trkpt lat="45.11489" lon="5.548">
        <ele>1272.6</ele>
        <time>2020-08-23T07:09:43Z</time>
      </trkpt>
      <trkpt lat="45.11483" lon="5.54792">
        <ele>1271.8</ele>
        <time>2020-08-23T07:09:44Z</time>
      </trkpt>
      <trkpt lat="45.11477" lon="5.54784">
        <ele>1271.1</ele>
        <time>2020-08-23T07:09:45Z</time>
      </trkpt>
      <trkpt lat="45.11472" lon="5.54784">
        <ele>1271.1</ele>
        <time>2020-08-23T07:09:46Z</time>
      </trkpt>
      <trkpt lat="45.11469" lon="5.54784">
        <ele>1271.1</ele>
        <time>2020-08-23T07:09:47Z</time>
      </trkpt>
      <trkpt lat="45.11453" lon="5.54791">
        <ele>1271.4</ele>
        <time>2020-08-23T07:09:56Z</time>
      </trkpt>
      <trkpt lat="45.11451" lon="5.54791">
        <ele>1271.4</ele>
        <time>2020-08-23T07:09:57Z</time>
      </trkpt>
      <trkpt lat="45.11448" lon="5.54792">
        <ele>1271.4</ele>
        <time>2020-08-23T07:09:58Z</time>
      </trkpt>
      <trkpt lat="45.11446" lon="5.54792">
        <ele>1271.4</ele>
        <time>2020-08-23T07:09:59Z</time>
      </trkpt>
      <trkpt lat="45.1144" lon="5.54791">
        <ele>1271.2</ele>
        <time>2020-08-23T07:10:02Z</time>
      </trkpt>
      <trkpt lat="45.11438" lon="5.54789">
        <ele>1271.1</ele>
        <time>2020-08-23T07:10:03Z</time>
      </trkpt>
      <trkpt lat="45.11418" lon="5.54784">
        <ele>1270.6</ele>
        <time>2020-08-23T07:10:12Z</time>
      </trkpt>
      <trkpt lat="45.11415" lon="5.54783">
        <ele>1270.5</ele>
        <time>2020-08-23T07:10:13Z</time>
      </trkpt>
      <trkpt lat="45.11408" lon="5.54781">
        <ele>1270.2</ele>
        <time>2020-08-23T07:10:16Z</time>
      </trkpt>
      <trkpt lat="45.11406" lon="5.5478">
        <ele>1270</ele>
        <time>2020-08-23T07:10:17Z</time>
      </trkpt>
      <trkpt lat="45.11373" lon="5.54764">
        <ele>1267.7</ele>
        <time>2020-08-23T07:10:29Z</time>
      </trkpt>
      <trkpt lat="45.1137" lon="5.54764">
        <ele>1267.6</ele>
        <time>2020-08-23T07:10:30Z</time>
      </trkpt>
      <trkpt lat="45.11348" lon="5.54767">
        <ele>1266.9</ele>
        <time>2020-08-23T07:10:37Z</time>
      </trkpt>
      <trkpt lat="45.11345" lon="5.54767">
        <ele>1266.7</ele>
        <time>2020-08-23T07:10:38Z</time>
      </trkpt>
      <trkpt lat="45.11341" lon="5.54767">
        <ele>1266.5</ele>
        <time>2020-08-23T07:10:39Z</time>
      </trkpt>
      <trkpt lat="45.11337" lon="5.54766">
        <ele>1266.3</ele>
        <time>2020-08-23T07:10:40Z</time>
      </trkpt>
      <trkpt lat="45.11306" lon="5.54756">
        <ele>1262.9</ele>
        <time>2020-08-23T07:10:50Z</time>
      </trkpt>
      <trkpt lat="45.11305" lon="5.54756">
        <ele>1262.8</ele>
        <time>2020-08-23T07:10:51Z</time>
      </trkpt>
      <trkpt lat="45.11304" lon="5.54756">
        <ele>1262.7</ele>
        <time>2020-08-23T07:10:52Z</time>
      </trkpt>
      <trkpt lat="45.11304" lon="5.54756">
        <ele>1262.7</ele>
        <time>2020-08-23T07:10:53Z</time>
      </trkpt>
      <trkpt lat="45.11303" lon="5.54756">
        <ele>1262.6</ele>
        <time>2020-08-23T07:12:26Z</time>
      </trkpt>
      <trkpt lat="45.11301" lon="5.54755">
        <ele>1262.4</ele>
        <time>2020-08-23T07:12:27Z</time>
      </trkpt>
      <trkpt lat="45.11295" lon="5.54751">
        <ele>1261.4</ele>
        <time>2020-08-23T07:12:29Z</time>
      </trkpt>
      <trkpt lat="45.11291" lon="5.54749">
        <ele>1260.7</ele>
        <time>2020-08-23T07:12:30Z</time>
      </trkpt>
      <trkpt lat="45.11287" lon="5.54748">
        <ele>1260</ele>
        <time>2020-08-23T07:12:31Z</time>
      </trkpt>
      <trkpt lat="45.11178" lon="5.54759">
        <ele>1258.4</ele>
        <time>2020-08-23T07:13:03Z</time>
      </trkpt>
      <trkpt lat="45.11124" lon="5.54746">
        <ele>1253.3</ele>
        <time>2020-08-23T07:13:21Z</time>
      </trkpt>
      <trkpt lat="45.11121" lon="5.54746">
        <ele>1253.2</ele>
        <time>2020-08-23T07:13:22Z</time>
      </trkpt>
      <trkpt lat="45.11099" lon="5.54746">
        <ele>1251.9</ele>
        <time>2020-08-23T07:13:30Z</time>
      </trkpt>
      <trkpt lat="45.11096" lon="5.54747">
        <ele>1251.8</ele>
        <time>2020-08-23T07:13:31Z</time>
      </trkpt>
      <trkpt lat="45.11089" lon="5.54748">
        <ele>1252</ele>
        <time>2020-08-23T07:13:36Z</time>
      </trkpt>
      <trkpt lat="45.11089" lon="5.54748">
        <ele>1252</ele>
        <time>2020-08-23T07:13:37Z</time>
      </trkpt>
      <trkpt lat="45.11078" lon="5.54747">
        <ele>1251.2</ele>
        <time>2020-08-23T07:13:55Z</time>
      </trkpt>
      <trkpt lat="45.11076" lon="5.54746">
        <ele>1251.1</ele>
        <time>2020-08-23T07:13:56Z</time>
      </trkpt>
      <trkpt lat="45.11073" lon="5.54746">
        <ele>1251.1</ele>
        <time>2020-08-23T07:13:57Z</time>
      </trkpt>
      <trkpt lat="45.11071" lon="5.54746">
        <ele>1251.2</ele>
        <time>2020-08-23T07:13:58Z</time>
      </trkpt>
      <trkpt lat="45.11028" lon="5.54751">
        <ele>1252.8</ele>
        <time>2020-08-23T07:14:10Z</time>
      </trkpt>
      <trkpt lat="45.11016" lon="5.54746">
        <ele>1251.8</ele>
        <time>2020-08-23T07:14:13Z</time>
      </trkpt>
      <trkpt lat="45.11011" lon="5.54746">
        <ele>1251.9</ele>
        <time>2020-08-23T07:14:14Z</time>
      </trkpt>
      <trkpt lat="45.10952" lon="5.54734">
        <ele>1244.2</ele>
        <time>2020-08-23T07:14:22Z</time>
      </trkpt>
      <trkpt lat="45.10947" lon="5.54732">
        <ele>1243.3</ele>
        <time>2020-08-23T07:14:23Z</time>
      </trkpt>
      <trkpt lat="45.10942" lon="5.54732">
        <ele>1242.6</ele>
        <time>2020-08-23T07:14:24Z</time>
      </trkpt>
      <trkpt lat="45.10938" lon="5.5473">
        <ele>1241.9</ele>
        <time>2020-08-23T07:14:25Z</time>
      </trkpt>
      <trkpt lat="45.10916" lon="5.54738">
        <ele>1241.4</ele>
        <time>2020-08-23T07:14:33Z</time>
      </trkpt>
      <trkpt lat="45.10909" lon="5.5474">
        <ele>1241.4</ele>
        <time>2020-08-23T07:14:35Z</time>
      </trkpt>
      <trkpt lat="45.10889" lon="5.5474">
        <ele>1239.7</ele>
        <time>2020-08-23T07:14:40Z</time>
      </trkpt>
      <trkpt lat="45.10886" lon="5.54741">
        <ele>1239.8</ele>
        <time>2020-08-23T07:14:41Z</time>
      </trkpt>
      <trkpt lat="45.10883" lon="5.54742">
        <ele>1239.8</ele>
        <time>2020-08-23T07:14:42Z</time>
      </trkpt>
      <trkpt lat="45.1088" lon="5.54743">
        <ele>1239.9</ele>
        <time>2020-08-23T07:14:43Z</time>
      </trkpt>
      <trkpt lat="45.10878" lon="5.54744">
        <ele>1239.8</ele>
        <time>2020-08-23T07:14:47Z</time>
      </trkpt>
      <trkpt lat="45.10878" lon="5.54744">
        <ele>1239.8</ele>
        <time>2020-08-23T07:14:48Z</time>
      </trkpt>
      <trkpt lat="45.10878" lon="5.54744">
        <ele>1239.8</ele>
        <time>2020-08-23T07:14:54Z</time>
      </trkpt>
      <trkpt lat="45.10865" lon="5.54742">
        <ele>1238.6</ele>
        <time>2020-08-23T07:17:31Z</time>
      </trkpt>
      <trkpt lat="45.10862" lon="5.54742">
        <ele>1238.2</ele>
        <time>2020-08-23T07:17:32Z</time>
      </trkpt>
      <trkpt lat="45.10845" lon="5.54728">
        <ele>1233.9</ele>
        <time>2020-08-23T07:17:42Z</time>
      </trkpt>
      <trkpt lat="45.10841" lon="5.54726">
        <ele>1233.2</ele>
        <time>2020-08-23T07:17:43Z</time>
      </trkpt>
      <trkpt lat="45.10838" lon="5.54725">
        <ele>1232.5</ele>
        <time>2020-08-23T07:17:44Z</time>
      </trkpt>
      <trkpt lat="45.10834" lon="5.54723">
        <ele>1232</ele>
        <time>2020-08-23T07:17:45Z</time>
      </trkpt>
      <trkpt lat="45.10801" lon="5.54722">
        <ele>1230.4</ele>
        <time>2020-08-23T07:17:54Z</time>
      </trkpt>
      <trkpt lat="45.10799" lon="5.5472">
        <ele>1229.8</ele>
        <time>2020-08-23T07:17:55Z</time>
      </trkpt>
      <trkpt lat="45.10798" lon="5.54718">
        <ele>1229.4</ele>
        <time>2020-08-23T07:17:56Z</time>
      </trkpt>
      <trkpt lat="45.1079" lon="5.54713">
        <ele>1228.3</ele>
        <time>2020-08-23T07:18:00Z</time>
      </trkpt>
      <trkpt lat="45.10788" lon="5.54712">
        <ele>1228.2</ele>
        <time>2020-08-23T07:18:01Z</time>
      </trkpt>
      <trkpt lat="45.10787" lon="5.54712">
        <ele>1228</ele>
        <time>2020-08-23T07:18:02Z</time>
      </trkpt>
      <trkpt lat="45.10782" lon="5.54708">
        <ele>1227.3</ele>
        <time>2020-08-23T07:18:06Z</time>
      </trkpt>
      <trkpt lat="45.10781" lon="5.54708">
        <ele>1227.1</ele>
        <time>2020-08-23T07:18:07Z</time>
      </trkpt>
      <trkpt lat="45.1078" lon="5.54707">
        <ele>1227</ele>
        <time>2020-08-23T07:18:08Z</time>
      </trkpt>
      <trkpt lat="45.10778" lon="5.54706">
        <ele>1226.9</ele>
        <time>2020-08-23T07:18:09Z</time>
      </trkpt>
      <trkpt lat="45.10777" lon="5.54706">
        <ele>1226.7</ele>
        <time>2020-08-23T07:18:10Z</time>
      </trkpt>
      <trkpt lat="45.1077" lon="5.54703">
        <ele>1226.1</ele>
        <time>2020-08-23T07:18:13Z</time>
      </trkpt>
      <trkpt lat="45.10767" lon="5.54702">
        <ele>1226</ele>
        <time>2020-08-23T07:18:14Z</time>
      </trkpt>
      <trkpt lat="45.10765" lon="5.54701">
        <ele>1225.8</ele>
        <time>2020-08-23T07:18:15Z</time>
      </trkpt>
      <trkpt lat="45.10763" lon="5.547">
        <ele>1225.6</ele>
        <time>2020-08-23T07:18:16Z</time>
      </trkpt>
      <trkpt lat="45.10755" lon="5.54696">
        <ele>1224.9</ele>
        <time>2020-08-23T07:18:19Z</time>
      </trkpt>
      <trkpt lat="45.10752" lon="5.54694">
        <ele>1224.6</ele>
        <time>2020-08-23T07:18:20Z</time>
      </trkpt>
      <trkpt lat="45.10738" lon="5.54678">
        <ele>1222.5</ele>
        <time>2020-08-23T07:18:27Z</time>
      </trkpt>
      <trkpt lat="45.10718" lon="5.54664">
        <ele>1221.2</ele>
        <time>2020-08-23T07:18:32Z</time>
      </trkpt>
      <trkpt lat="45.10712" lon="5.54661">
        <ele>1221</ele>
        <time>2020-08-23T07:18:33Z</time>
      </trkpt>
      <trkpt lat="45.10687" lon="5.54649">
        <ele>1220.6</ele>
        <time>2020-08-23T07:18:39Z</time>
      </trkpt>
      <trkpt lat="45.10685" lon="5.54644">
        <ele>1220.3</ele>
        <time>2020-08-23T07:18:40Z</time>
      </trkpt>
      <trkpt lat="45.10675" lon="5.54636">
        <ele>1220.2</ele>
        <time>2020-08-23T07:18:44Z</time>
      </trkpt>
      <trkpt lat="45.10672" lon="5.54634">
        <ele>1220.2</ele>
        <time>2020-08-23T07:18:45Z</time>
      </trkpt>
      <trkpt lat="45.10661" lon="5.54625">
        <ele>1219.9</ele>
        <time>2020-08-23T07:18:51Z</time>
      </trkpt>
      <trkpt lat="45.10659" lon="5.5462">
        <ele>1219.7</ele>
        <time>2020-08-23T07:18:53Z</time>
      </trkpt>
      <trkpt lat="45.10659" lon="5.54617">
        <ele>1219.6</ele>
        <time>2020-08-23T07:18:54Z</time>
      </trkpt>
      <trkpt lat="45.1065" lon="5.54598">
        <ele>1218.9</ele>
        <time>2020-08-23T07:19:00Z</time>
      </trkpt>
      <trkpt lat="45.10647" lon="5.54594">
        <ele>1218.8</ele>
        <time>2020-08-23T07:19:01Z</time>
      </trkpt>
      <trkpt lat="45.10645" lon="5.54591">
        <ele>1218.8</ele>
        <time>2020-08-23T07:19:02Z</time>
      </trkpt>
      <trkpt lat="45.10643" lon="5.54588">
        <ele>1218.7</ele>
        <time>2020-08-23T07:19:03Z</time>
      </trkpt>
      <trkpt lat="45.10638" lon="5.54569">
        <ele>1218.8</ele>
        <time>2020-08-23T07:19:09Z</time>
      </trkpt>
      <trkpt lat="45.10637" lon="5.54565">
        <ele>1218.9</ele>
        <time>2020-08-23T07:19:10Z</time>
      </trkpt>
      <trkpt lat="45.10636" lon="5.54562">
        <ele>1218.9</ele>
        <time>2020-08-23T07:19:11Z</time>
      </trkpt>
      <trkpt lat="45.10635" lon="5.54559">
        <ele>1219</ele>
        <time>2020-08-23T07:19:12Z</time>
      </trkpt>
      <trkpt lat="45.10621" lon="5.5454">
        <ele>1220</ele>
        <time>2020-08-23T07:19:21Z</time>
      </trkpt>
      <trkpt lat="45.1062" lon="5.54537">
        <ele>1220.1</ele>
        <time>2020-08-23T07:19:22Z</time>
      </trkpt>
      <trkpt lat="45.10619" lon="5.54533">
        <ele>1220.3</ele>
        <time>2020-08-23T07:19:24Z</time>
      </trkpt>
      <trkpt lat="45.10619" lon="5.5453">
        <ele>1220.3</ele>
        <time>2020-08-23T07:19:25Z</time>
      </trkpt>
      <trkpt lat="45.1062" lon="5.54516">
        <ele>1220.6</ele>
        <time>2020-08-23T07:19:29Z</time>
      </trkpt>
      <trkpt lat="45.1062" lon="5.54513">
        <ele>1220.7</ele>
        <time>2020-08-23T07:19:30Z</time>
      </trkpt>
      <trkpt lat="45.10619" lon="5.54507">
        <ele>1220.9</ele>
        <time>2020-08-23T07:19:32Z</time>
      </trkpt>
      <trkpt lat="45.10583" lon="5.54438">
        <ele>1225.5</ele>
        <time>2020-08-23T07:19:59Z</time>
      </trkpt>
      <trkpt lat="45.10582" lon="5.54435">
        <ele>1225.6</ele>
        <time>2020-08-23T07:20:00Z</time>
      </trkpt>
      <trkpt lat="45.10528" lon="5.54374">
        <ele>1228.8</ele>
        <time>2020-08-23T07:20:28Z</time>
      </trkpt>
      <trkpt lat="45.10526" lon="5.54374">
        <ele>1228.9</ele>
        <time>2020-08-23T07:20:29Z</time>
      </trkpt>
      <trkpt lat="45.10501" lon="5.54364">
        <ele>1231.3</ele>
        <time>2020-08-23T07:20:39Z</time>
      </trkpt>
      <trkpt lat="45.10499" lon="5.54363">
        <ele>1231.5</ele>
        <time>2020-08-23T07:20:40Z</time>
      </trkpt>
      <trkpt lat="45.10495" lon="5.54359">
        <ele>1231.7</ele>
        <time>2020-08-23T07:20:42Z</time>
      </trkpt>
      <trkpt lat="45.10493" lon="5.54356">
        <ele>1231.8</ele>
        <time>2020-08-23T07:20:43Z</time>
      </trkpt>
      <trkpt lat="45.10473" lon="5.54347">
        <ele>1233.5</ele>
        <time>2020-08-23T07:20:52Z</time>
      </trkpt>
      <trkpt lat="45.1047" lon="5.54346">
        <ele>1233.8</ele>
        <time>2020-08-23T07:20:53Z</time>
      </trkpt>
      <trkpt lat="45.10468" lon="5.54344">
        <ele>1234</ele>
        <time>2020-08-23T07:20:54Z</time>
      </trkpt>
      <trkpt lat="45.10466" lon="5.54342">
        <ele>1234.2</ele>
        <time>2020-08-23T07:20:55Z</time>
      </trkpt>
      <trkpt lat="45.10456" lon="5.5433">
        <ele>1235.2</ele>
        <time>2020-08-23T07:21:01Z</time>
      </trkpt>
      <trkpt lat="45.10455" lon="5.54327">
        <ele>1235.3</ele>
        <time>2020-08-23T07:21:02Z</time>
      </trkpt>
      <trkpt lat="45.10442" lon="5.54289">
        <ele>1237.1</ele>
        <time>2020-08-23T07:21:17Z</time>
      </trkpt>
      <trkpt lat="45.1044" lon="5.54286">
        <ele>1237.3</ele>
        <time>2020-08-23T07:21:18Z</time>
      </trkpt>
      <trkpt lat="45.10435" lon="5.5428">
        <ele>1238.2</ele>
        <time>2020-08-23T07:21:21Z</time>
      </trkpt>
      <trkpt lat="45.10374" lon="5.5424">
        <ele>1244.6</ele>
        <time>2020-08-23T07:21:59Z</time>
      </trkpt>
      <trkpt lat="45.10372" lon="5.5424">
        <ele>1244.7</ele>
        <time>2020-08-23T07:22:00Z</time>
      </trkpt>
      <trkpt lat="45.10363" lon="5.54236">
        <ele>1245.2</ele>
        <time>2020-08-23T07:22:05Z</time>
      </trkpt>
      <trkpt lat="45.10361" lon="5.54234">
        <ele>1245.3</ele>
        <time>2020-08-23T07:22:06Z</time>
      </trkpt>
      <trkpt lat="45.10359" lon="5.54231">
        <ele>1245.5</ele>
        <time>2020-08-23T07:22:08Z</time>
      </trkpt>
      <trkpt lat="45.10357" lon="5.54229">
        <ele>1245.6</ele>
        <time>2020-08-23T07:22:09Z</time>
      </trkpt>
      <trkpt lat="45.10342" lon="5.54231">
        <ele>1246.5</ele>
        <time>2020-08-23T07:22:16Z</time>
      </trkpt>
      <trkpt lat="45.10341" lon="5.54231">
        <ele>1246.6</ele>
        <time>2020-08-23T07:22:17Z</time>
      </trkpt>
      <trkpt lat="45.10339" lon="5.54232">
        <ele>1246.7</ele>
        <time>2020-08-23T07:22:18Z</time>
      </trkpt>
      <trkpt lat="45.10337" lon="5.54232">
        <ele>1246.8</ele>
        <time>2020-08-23T07:22:19Z</time>
      </trkpt>
      <trkpt lat="45.10245" lon="5.54282">
        <ele>1246.9</ele>
        <time>2020-08-23T07:23:13Z</time>
      </trkpt>
      <trkpt lat="45.10117" lon="5.5428">
        <ele>1248.8</ele>
        <time>2020-08-23T07:23:58Z</time>
      </trkpt>
      <trkpt lat="45.10114" lon="5.54279">
        <ele>1249</ele>
        <time>2020-08-23T07:23:59Z</time>
      </trkpt>
      <trkpt lat="45.10068" lon="5.54265">
        <ele>1251.9</ele>
        <time>2020-08-23T07:24:14Z</time>
      </trkpt>
      <trkpt lat="45.10065" lon="5.54264">
        <ele>1252</ele>
        <time>2020-08-23T07:24:15Z</time>
      </trkpt>
      <trkpt lat="45.10059" lon="5.5426">
        <ele>1252.4</ele>
        <time>2020-08-23T07:24:17Z</time>
      </trkpt>
      <trkpt lat="45.10056" lon="5.54259">
        <ele>1252.6</ele>
        <time>2020-08-23T07:24:18Z</time>
      </trkpt>
      <trkpt lat="45.1002" lon="5.5424">
        <ele>1254</ele>
        <time>2020-08-23T07:24:31Z</time>
      </trkpt>
      <trkpt lat="45.10017" lon="5.54239">
        <ele>1254</ele>
        <time>2020-08-23T07:24:32Z</time>
      </trkpt>
      <trkpt lat="45.10012" lon="5.54237">
        <ele>1254.1</ele>
        <time>2020-08-23T07:24:34Z</time>
      </trkpt>
      <trkpt lat="45.1001" lon="5.54237">
        <ele>1254.2</ele>
        <time>2020-08-23T07:24:35Z</time>
      </trkpt>
      <trkpt lat="45.09993" lon="5.54233">
        <ele>1254.8</ele>
        <time>2020-08-23T07:24:42Z</time>
      </trkpt>
      <trkpt lat="45.09991" lon="5.54232">
        <ele>1255</ele>
        <time>2020-08-23T07:24:43Z</time>
      </trkpt>
      <trkpt lat="45.09989" lon="5.54232">
        <ele>1255.1</ele>
        <time>2020-08-23T07:24:44Z</time>
      </trkpt>
      <trkpt lat="45.09987" lon="5.54232">
        <ele>1255.3</ele>
        <time>2020-08-23T07:24:45Z</time>
      </trkpt>
      <trkpt lat="45.09957" lon="5.54228">
        <ele>1257.4</ele>
        <time>2020-08-23T07:24:57Z</time>
      </trkpt>
      <trkpt lat="45.09954" lon="5.54227">
        <ele>1257.6</ele>
        <time>2020-08-23T07:24:58Z</time>
      </trkpt>
      <trkpt lat="45.09935" lon="5.54223">
        <ele>1259</ele>
        <time>2020-08-23T07:25:06Z</time>
      </trkpt>
      <trkpt lat="45.09933" lon="5.54222">
        <ele>1259.2</ele>
        <time>2020-08-23T07:25:07Z</time>
      </trkpt>
      <trkpt lat="45.0993" lon="5.54221">
        <ele>1259.4</ele>
        <time>2020-08-23T07:25:08Z</time>
      </trkpt>
      <trkpt lat="45.09928" lon="5.54221">
        <ele>1259.6</ele>
        <time>2020-08-23T07:25:09Z</time>
      </trkpt>
      <trkpt lat="45.09906" lon="5.54217">
        <ele>1261.8</ele>
        <time>2020-08-23T07:25:19Z</time>
      </trkpt>
      <trkpt lat="45.09904" lon="5.54216">
        <ele>1262.1</ele>
        <time>2020-08-23T07:25:20Z</time>
      </trkpt>
      <trkpt lat="45.09902" lon="5.54216">
        <ele>1262.3</ele>
        <time>2020-08-23T07:25:21Z</time>
      </trkpt>
      <trkpt lat="45.09901" lon="5.54216">
        <ele>1262.5</ele>
        <time>2020-08-23T07:25:22Z</time>
      </trkpt>
      <trkpt lat="45.09889" lon="5.54213">
        <ele>1264</ele>
        <time>2020-08-23T07:25:29Z</time>
      </trkpt>
      <trkpt lat="45.09888" lon="5.54213">
        <ele>1264.2</ele>
        <time>2020-08-23T07:25:30Z</time>
      </trkpt>
      <trkpt lat="45.09877" lon="5.54209">
        <ele>1265.6</ele>
        <time>2020-08-23T07:25:37Z</time>
      </trkpt>
      <trkpt lat="45.09874" lon="5.54208">
        <ele>1265.9</ele>
        <time>2020-08-23T07:25:39Z</time>
      </trkpt>
      <trkpt lat="45.09872" lon="5.54208">
        <ele>1266.1</ele>
        <time>2020-08-23T07:25:40Z</time>
      </trkpt>
      <trkpt lat="45.09862" lon="5.54204">
        <ele>1267.3</ele>
        <time>2020-08-23T07:25:47Z</time>
      </trkpt>
      <trkpt lat="45.0986" lon="5.54204">
        <ele>1267.5</ele>
        <time>2020-08-23T07:25:48Z</time>
      </trkpt>
      <trkpt lat="45.09859" lon="5.54204">
        <ele>1267.7</ele>
        <time>2020-08-23T07:25:49Z</time>
      </trkpt>
      <trkpt lat="45.09858" lon="5.54203">
        <ele>1267.8</ele>
        <time>2020-08-23T07:25:50Z</time>
      </trkpt>
      <trkpt lat="45.09848" lon="5.54201">
        <ele>1268.9</ele>
        <time>2020-08-23T07:25:56Z</time>
      </trkpt>
      <trkpt lat="45.09847" lon="5.54201">
        <ele>1269.1</ele>
        <time>2020-08-23T07:25:57Z</time>
      </trkpt>
      <trkpt lat="45.09845" lon="5.54201">
        <ele>1269.3</ele>
        <time>2020-08-23T07:25:58Z</time>
      </trkpt>
      <trkpt lat="45.09843" lon="5.542">
        <ele>1269.5</ele>
        <time>2020-08-23T07:25:59Z</time>
      </trkpt>
      <trkpt lat="45.09837" lon="5.54199">
        <ele>1270.2</ele>
        <time>2020-08-23T07:26:03Z</time>
      </trkpt>
      <trkpt lat="45.09835" lon="5.54198">
        <ele>1270.4</ele>
        <time>2020-08-23T07:26:04Z</time>
      </trkpt>
      <trkpt lat="45.09833" lon="5.54197">
        <ele>1270.6</ele>
        <time>2020-08-23T07:26:05Z</time>
      </trkpt>
      <trkpt lat="45.09832" lon="5.54197">
        <ele>1270.9</ele>
        <time>2020-08-23T07:26:06Z</time>
      </trkpt>
      <trkpt lat="45.09825" lon="5.54195">
        <ele>1272.5</ele>
        <time>2020-08-23T07:26:11Z</time>
      </trkpt>
      <trkpt lat="45.09824" lon="5.54195">
        <ele>1272.7</ele>
        <time>2020-08-23T07:26:12Z</time>
      </trkpt>
      <trkpt lat="45.09815" lon="5.54193">
        <ele>1274.7</ele>
        <time>2020-08-23T07:26:18Z</time>
      </trkpt>
      <trkpt lat="45.09814" lon="5.54193">
        <ele>1275</ele>
        <time>2020-08-23T07:26:19Z</time>
      </trkpt>
      <trkpt lat="45.09808" lon="5.54196">
        <ele>1276.3</ele>
        <time>2020-08-23T07:26:24Z</time>
      </trkpt>
      <trkpt lat="45.09806" lon="5.54196">
        <ele>1276.5</ele>
        <time>2020-08-23T07:26:25Z</time>
      </trkpt>
      <trkpt lat="45.098" lon="5.54197">
        <ele>1277.9</ele>
        <time>2020-08-23T07:26:29Z</time>
      </trkpt>
      <trkpt lat="45.09798" lon="5.54197">
        <ele>1278.3</ele>
        <time>2020-08-23T07:26:30Z</time>
      </trkpt>
      <trkpt lat="45.09792" lon="5.54196">
        <ele>1279.8</ele>
        <time>2020-08-23T07:26:34Z</time>
      </trkpt>
      <trkpt lat="45.0979" lon="5.54196">
        <ele>1280</ele>
        <time>2020-08-23T07:26:35Z</time>
      </trkpt>
      <trkpt lat="45.09789" lon="5.54196">
        <ele>1280.4</ele>
        <time>2020-08-23T07:26:36Z</time>
      </trkpt>
      <trkpt lat="45.09787" lon="5.54196">
        <ele>1280.7</ele>
        <time>2020-08-23T07:26:37Z</time>
      </trkpt>
      <trkpt lat="45.09782" lon="5.54198">
        <ele>1281.7</ele>
        <time>2020-08-23T07:26:41Z</time>
      </trkpt>
      <trkpt lat="45.09779" lon="5.54198">
        <ele>1282.3</ele>
        <time>2020-08-23T07:26:43Z</time>
      </trkpt>
      <trkpt lat="45.09774" lon="5.542">
        <ele>1283.2</ele>
        <time>2020-08-23T07:26:47Z</time>
      </trkpt>
      <trkpt lat="45.0977" lon="5.54203">
        <ele>1283.9</ele>
        <time>2020-08-23T07:26:49Z</time>
      </trkpt>
      <trkpt lat="45.09768" lon="5.54204">
        <ele>1284.1</ele>
        <time>2020-08-23T07:26:50Z</time>
      </trkpt>
      <trkpt lat="45.09763" lon="5.54207">
        <ele>1285.1</ele>
        <time>2020-08-23T07:26:54Z</time>
      </trkpt>
      <trkpt lat="45.09761" lon="5.54207">
        <ele>1285.3</ele>
        <time>2020-08-23T07:26:55Z</time>
      </trkpt>
      <trkpt lat="45.0976" lon="5.54208">
        <ele>1285.5</ele>
        <time>2020-08-23T07:26:56Z</time>
      </trkpt>
      <trkpt lat="45.09758" lon="5.54209">
        <ele>1285.9</ele>
        <time>2020-08-23T07:26:57Z</time>
      </trkpt>
      <trkpt lat="45.09751" lon="5.54211">
        <ele>1287</ele>
        <time>2020-08-23T07:27:01Z</time>
      </trkpt>
      <trkpt lat="45.0975" lon="5.54212">
        <ele>1287.2</ele>
        <time>2020-08-23T07:27:02Z</time>
      </trkpt>
      <trkpt lat="45.09743" lon="5.54213">
        <ele>1288</ele>
        <time>2020-08-23T07:27:06Z</time>
      </trkpt>
      <trkpt lat="45.09742" lon="5.54213">
        <ele>1288.1</ele>
        <time>2020-08-23T07:27:07Z</time>
      </trkpt>
      <trkpt lat="45.09734" lon="5.54214">
        <ele>1289.2</ele>
        <time>2020-08-23T07:27:12Z</time>
      </trkpt>
      <trkpt lat="45.09731" lon="5.54214">
        <ele>1289.5</ele>
        <time>2020-08-23T07:27:14Z</time>
      </trkpt>
      <trkpt lat="45.09724" lon="5.54215">
        <ele>1290.4</ele>
        <time>2020-08-23T07:27:19Z</time>
      </trkpt>
      <trkpt lat="45.09722" lon="5.54215">
        <ele>1290.5</ele>
        <time>2020-08-23T07:27:20Z</time>
      </trkpt>
      <trkpt lat="45.09718" lon="5.54214">
        <ele>1291.3</ele>
        <time>2020-08-23T07:27:24Z</time>
      </trkpt>
      <trkpt lat="45.09716" lon="5.54214">
        <ele>1291.5</ele>
        <time>2020-08-23T07:27:25Z</time>
      </trkpt>
      <trkpt lat="45.09708" lon="5.54214">
        <ele>1292.6</ele>
        <time>2020-08-23T07:27:30Z</time>
      </trkpt>
      <trkpt lat="45.09707" lon="5.54214">
        <ele>1292.8</ele>
        <time>2020-08-23T07:27:31Z</time>
      </trkpt>
      <trkpt lat="45.09705" lon="5.54213">
        <ele>1293.1</ele>
        <time>2020-08-23T07:27:32Z</time>
      </trkpt>
      <trkpt lat="45.09698" lon="5.54214">
        <ele>1294</ele>
        <time>2020-08-23T07:27:36Z</time>
      </trkpt>
      <trkpt lat="45.09696" lon="5.54213">
        <ele>1294.4</ele>
        <time>2020-08-23T07:27:37Z</time>
      </trkpt>
      <trkpt lat="45.09691" lon="5.54212">
        <ele>1295.2</ele>
        <time>2020-08-23T07:27:41Z</time>
      </trkpt>
      <trkpt lat="45.09688" lon="5.54211">
        <ele>1295.8</ele>
        <time>2020-08-23T07:27:43Z</time>
      </trkpt>
      <trkpt lat="45.09682" lon="5.54209">
        <ele>1296.8</ele>
        <time>2020-08-23T07:27:48Z</time>
      </trkpt>
      <trkpt lat="45.09681" lon="5.54209">
        <ele>1297</ele>
        <time>2020-08-23T07:27:49Z</time>
      </trkpt>
      <trkpt lat="45.09679" lon="5.54208">
        <ele>1297.3</ele>
        <time>2020-08-23T07:27:50Z</time>
      </trkpt>
      <trkpt lat="45.09678" lon="5.54207">
        <ele>1297.5</ele>
        <time>2020-08-23T07:27:51Z</time>
      </trkpt>
      <trkpt lat="45.09675" lon="5.54206">
        <ele>1298.1</ele>
        <time>2020-08-23T07:27:54Z</time>
      </trkpt>
      <trkpt lat="45.09674" lon="5.54206">
        <ele>1298.3</ele>
        <time>2020-08-23T07:27:55Z</time>
      </trkpt>
      <trkpt lat="45.09669" lon="5.54205">
        <ele>1299.1</ele>
        <time>2020-08-23T07:27:59Z</time>
      </trkpt>
      <trkpt lat="45.09666" lon="5.54204">
        <ele>1299.5</ele>
        <time>2020-08-23T07:28:01Z</time>
      </trkpt>
      <trkpt lat="45.09659" lon="5.54204">
        <ele>1300</ele>
        <time>2020-08-23T07:28:06Z</time>
      </trkpt>
      <trkpt lat="45.09658" lon="5.54204">
        <ele>1300.1</ele>
        <time>2020-08-23T07:28:07Z</time>
      </trkpt>
      <trkpt lat="45.09652" lon="5.54202">
        <ele>1300.7</ele>
        <time>2020-08-23T07:28:11Z</time>
      </trkpt>
      <trkpt lat="45.09651" lon="5.54202">
        <ele>1300.9</ele>
        <time>2020-08-23T07:28:12Z</time>
      </trkpt>
      <trkpt lat="45.09646" lon="5.542">
        <ele>1301.4</ele>
        <time>2020-08-23T07:28:16Z</time>
      </trkpt>
      <trkpt lat="45.09645" lon="5.542">
        <ele>1301.5</ele>
        <time>2020-08-23T07:28:17Z</time>
      </trkpt>
      <trkpt lat="45.09639" lon="5.542">
        <ele>1301.9</ele>
        <time>2020-08-23T07:28:21Z</time>
      </trkpt>
      <trkpt lat="45.09638" lon="5.542">
        <ele>1302</ele>
        <time>2020-08-23T07:28:22Z</time>
      </trkpt>
      <trkpt lat="45.09633" lon="5.54198">
        <ele>1302.6</ele>
        <time>2020-08-23T07:28:26Z</time>
      </trkpt>
      <trkpt lat="45.0963" lon="5.54198">
        <ele>1302.9</ele>
        <time>2020-08-23T07:28:28Z</time>
      </trkpt>
      <trkpt lat="45.09625" lon="5.54196">
        <ele>1303.4</ele>
        <time>2020-08-23T07:28:32Z</time>
      </trkpt>
      <trkpt lat="45.09624" lon="5.54196">
        <ele>1303.6</ele>
        <time>2020-08-23T07:28:33Z</time>
      </trkpt>
      <trkpt lat="45.09623" lon="5.54195">
        <ele>1303.7</ele>
        <time>2020-08-23T07:28:34Z</time>
      </trkpt>
      <trkpt lat="45.09617" lon="5.54193">
        <ele>1304.4</ele>
        <time>2020-08-23T07:28:38Z</time>
      </trkpt>
      <trkpt lat="45.09615" lon="5.54193">
        <ele>1304.6</ele>
        <time>2020-08-23T07:28:39Z</time>
      </trkpt>
      <trkpt lat="45.09608" lon="5.54191">
        <ele>1305.3</ele>
        <time>2020-08-23T07:28:44Z</time>
      </trkpt>
      <trkpt lat="45.09607" lon="5.54191">
        <ele>1305.5</ele>
        <time>2020-08-23T07:28:45Z</time>
      </trkpt>
      <trkpt lat="45.09601" lon="5.5419">
        <ele>1306.1</ele>
        <time>2020-08-23T07:28:49Z</time>
      </trkpt>
      <trkpt lat="45.096" lon="5.54189">
        <ele>1306.3</ele>
        <time>2020-08-23T07:28:50Z</time>
      </trkpt>
      <trkpt lat="45.09595" lon="5.54187">
        <ele>1307</ele>
        <time>2020-08-23T07:28:54Z</time>
      </trkpt>
      <trkpt lat="45.09594" lon="5.54186">
        <ele>1307.1</ele>
        <time>2020-08-23T07:28:55Z</time>
      </trkpt>
      <trkpt lat="45.0959" lon="5.54185">
        <ele>1307.6</ele>
        <time>2020-08-23T07:28:58Z</time>
      </trkpt>
      <trkpt lat="45.09589" lon="5.54185">
        <ele>1307.7</ele>
        <time>2020-08-23T07:28:59Z</time>
      </trkpt>
      <trkpt lat="45.09584" lon="5.54184">
        <ele>1308.2</ele>
        <time>2020-08-23T07:29:03Z</time>
      </trkpt>
      <trkpt lat="45.09582" lon="5.54183">
        <ele>1308.5</ele>
        <time>2020-08-23T07:29:05Z</time>
      </trkpt>
      <trkpt lat="45.09577" lon="5.54181">
        <ele>1309.2</ele>
        <time>2020-08-23T07:29:09Z</time>
      </trkpt>
      <trkpt lat="45.09576" lon="5.54181">
        <ele>1309.3</ele>
        <time>2020-08-23T07:29:10Z</time>
      </trkpt>
      <trkpt lat="45.09572" lon="5.54179">
        <ele>1310</ele>
        <time>2020-08-23T07:29:14Z</time>
      </trkpt>
      <trkpt lat="45.09571" lon="5.54178">
        <ele>1310.2</ele>
        <time>2020-08-23T07:29:15Z</time>
      </trkpt>
      <trkpt lat="45.09566" lon="5.54176">
        <ele>1310.9</ele>
        <time>2020-08-23T07:29:19Z</time>
      </trkpt>
      <trkpt lat="45.09566" lon="5.54175">
        <ele>1311.1</ele>
        <time>2020-08-23T07:29:20Z</time>
      </trkpt>
      <trkpt lat="45.09561" lon="5.54172">
        <ele>1311.9</ele>
        <time>2020-08-23T07:29:24Z</time>
      </trkpt>
      <trkpt lat="45.0956" lon="5.54172">
        <ele>1312.1</ele>
        <time>2020-08-23T07:29:25Z</time>
      </trkpt>
      <trkpt lat="45.09555" lon="5.54171">
        <ele>1312.7</ele>
        <time>2020-08-23T07:29:29Z</time>
      </trkpt>
      <trkpt lat="45.09554" lon="5.5417">
        <ele>1313</ele>
        <time>2020-08-23T07:29:30Z</time>
      </trkpt>
      <trkpt lat="45.09549" lon="5.54168">
        <ele>1313.8</ele>
        <time>2020-08-23T07:29:34Z</time>
      </trkpt>
      <trkpt lat="45.09547" lon="5.54167">
        <ele>1313.9</ele>
        <time>2020-08-23T07:29:35Z</time>
      </trkpt>
      <trkpt lat="45.09543" lon="5.54165">
        <ele>1314.6</ele>
        <time>2020-08-23T07:29:39Z</time>
      </trkpt>
      <trkpt lat="45.09541" lon="5.54165">
        <ele>1314.8</ele>
        <time>2020-08-23T07:29:40Z</time>
      </trkpt>
      <trkpt lat="45.0954" lon="5.54164">
        <ele>1314.9</ele>
        <time>2020-08-23T07:29:41Z</time>
      </trkpt>
      <trkpt lat="45.09537" lon="5.54163">
        <ele>1315.5</ele>
        <time>2020-08-23T07:29:44Z</time>
      </trkpt>
      <trkpt lat="45.09536" lon="5.54162">
        <ele>1315.7</ele>
        <time>2020-08-23T07:29:45Z</time>
      </trkpt>
      <trkpt lat="45.09532" lon="5.54161">
        <ele>1316.2</ele>
        <time>2020-08-23T07:29:48Z</time>
      </trkpt>
      <trkpt lat="45.09531" lon="5.5416">
        <ele>1316.4</ele>
        <time>2020-08-23T07:29:49Z</time>
      </trkpt>
      <trkpt lat="45.09524" lon="5.54158">
        <ele>1317.1</ele>
        <time>2020-08-23T07:29:54Z</time>
      </trkpt>
      <trkpt lat="45.09523" lon="5.54158">
        <ele>1317.3</ele>
        <time>2020-08-23T07:29:55Z</time>
      </trkpt>
      <trkpt lat="45.09518" lon="5.54156">
        <ele>1317.9</ele>
        <time>2020-08-23T07:29:59Z</time>
      </trkpt>
      <trkpt lat="45.09515" lon="5.54156">
        <ele>1318.2</ele>
        <time>2020-08-23T07:30:01Z</time>
      </trkpt>
      <trkpt lat="45.0951" lon="5.54154">
        <ele>1318.8</ele>
        <time>2020-08-23T07:30:05Z</time>
      </trkpt>
      <trkpt lat="45.09509" lon="5.54154">
        <ele>1319</ele>
        <time>2020-08-23T07:30:06Z</time>
      </trkpt>
      <trkpt lat="45.09498" lon="5.54145">
        <ele>1321</ele>
        <time>2020-08-23T07:30:15Z</time>
      </trkpt>
      <trkpt lat="45.09496" lon="5.54144">
        <ele>1321.2</ele>
        <time>2020-08-23T07:30:16Z</time>
      </trkpt>
      <trkpt lat="45.09492" lon="5.54139">
        <ele>1322.2</ele>
        <time>2020-08-23T07:30:21Z</time>
      </trkpt>
      <trkpt lat="45.09491" lon="5.54138">
        <ele>1322.3</ele>
        <time>2020-08-23T07:30:22Z</time>
      </trkpt>
      <trkpt lat="45.0948" lon="5.54128">
        <ele>1324.3</ele>
        <time>2020-08-23T07:30:34Z</time>
      </trkpt>
      <trkpt lat="45.09478" lon="5.54126">
        <ele>1324.7</ele>
        <time>2020-08-23T07:30:36Z</time>
      </trkpt>
      <trkpt lat="45.09477" lon="5.54125">
        <ele>1324.9</ele>
        <time>2020-08-23T07:30:37Z</time>
      </trkpt>
      <trkpt lat="45.09476" lon="5.54124">
        <ele>1325.1</ele>
        <time>2020-08-23T07:30:38Z</time>
      </trkpt>
      <trkpt lat="45.09473" lon="5.54121">
        <ele>1325.6</ele>
        <time>2020-08-23T07:30:40Z</time>
      </trkpt>
      <trkpt lat="45.09472" lon="5.5412">
        <ele>1325.8</ele>
        <time>2020-08-23T07:30:41Z</time>
      </trkpt>
      <trkpt lat="45.09472" lon="5.54119">
        <ele>1326</ele>
        <time>2020-08-23T07:30:42Z</time>
      </trkpt>
      <trkpt lat="45.0947" lon="5.54117">
        <ele>1326.2</ele>
        <time>2020-08-23T07:30:43Z</time>
      </trkpt>
      <trkpt lat="45.09467" lon="5.54114">
        <ele>1326.8</ele>
        <time>2020-08-23T07:30:46Z</time>
      </trkpt>
      <trkpt lat="45.09466" lon="5.54113">
        <ele>1327</ele>
        <time>2020-08-23T07:30:47Z</time>
      </trkpt>
      <trkpt lat="45.09463" lon="5.5411">
        <ele>1327.5</ele>
        <time>2020-08-23T07:30:50Z</time>
      </trkpt>
      <trkpt lat="45.09461" lon="5.54109">
        <ele>1327.8</ele>
        <time>2020-08-23T07:30:51Z</time>
      </trkpt>
      <trkpt lat="45.09458" lon="5.54107">
        <ele>1328.2</ele>
        <time>2020-08-23T07:30:54Z</time>
      </trkpt>
      <trkpt lat="45.09457" lon="5.54106">
        <ele>1328.4</ele>
        <time>2020-08-23T07:30:55Z</time>
      </trkpt>
      <trkpt lat="45.09456" lon="5.54105">
        <ele>1328.5</ele>
        <time>2020-08-23T07:30:56Z</time>
      </trkpt>
      <trkpt lat="45.09452" lon="5.54102">
        <ele>1329.1</ele>
        <time>2020-08-23T07:31:00Z</time>
      </trkpt>
      <trkpt lat="45.09451" lon="5.54101">
        <ele>1329.3</ele>
        <time>2020-08-23T07:31:01Z</time>
      </trkpt>
      <trkpt lat="45.09446" lon="5.54099">
        <ele>1329.7</ele>
        <time>2020-08-23T07:31:05Z</time>
      </trkpt>
      <trkpt lat="45.09445" lon="5.54099">
        <ele>1329.8</ele>
        <time>2020-08-23T07:31:06Z</time>
      </trkpt>
      <trkpt lat="45.09439" lon="5.54098">
        <ele>1330.2</ele>
        <time>2020-08-23T07:31:10Z</time>
      </trkpt>
      <trkpt lat="45.09438" lon="5.54099">
        <ele>1330.3</ele>
        <time>2020-08-23T07:31:11Z</time>
      </trkpt>
      <trkpt lat="45.09431" lon="5.54098">
        <ele>1330.7</ele>
        <time>2020-08-23T07:31:15Z</time>
      </trkpt>
      <trkpt lat="45.09429" lon="5.54098">
        <ele>1330.8</ele>
        <time>2020-08-23T07:31:16Z</time>
      </trkpt>
      <trkpt lat="45.09423" lon="5.54099">
        <ele>1330.9</ele>
        <time>2020-08-23T07:31:20Z</time>
      </trkpt>
      <trkpt lat="45.09421" lon="5.54099">
        <ele>1331.1</ele>
        <time>2020-08-23T07:31:21Z</time>
      </trkpt>
      <trkpt lat="45.09414" lon="5.541">
        <ele>1331.4</ele>
        <time>2020-08-23T07:31:25Z</time>
      </trkpt>
      <trkpt lat="45.09412" lon="5.541">
        <ele>1331.4</ele>
        <time>2020-08-23T07:31:26Z</time>
      </trkpt>
      <trkpt lat="45.09404" lon="5.54101">
        <ele>1331.8</ele>
        <time>2020-08-23T07:31:30Z</time>
      </trkpt>
      <trkpt lat="45.09402" lon="5.54101">
        <ele>1332</ele>
        <time>2020-08-23T07:31:31Z</time>
      </trkpt>
      <trkpt lat="45.09394" lon="5.541">
        <ele>1332.6</ele>
        <time>2020-08-23T07:31:35Z</time>
      </trkpt>
      <trkpt lat="45.09391" lon="5.541">
        <ele>1332.7</ele>
        <time>2020-08-23T07:31:36Z</time>
      </trkpt>
      <trkpt lat="45.09383" lon="5.54098">
        <ele>1333.4</ele>
        <time>2020-08-23T07:31:40Z</time>
      </trkpt>
      <trkpt lat="45.0938" lon="5.54098">
        <ele>1333.6</ele>
        <time>2020-08-23T07:31:41Z</time>
      </trkpt>
      <trkpt lat="45.09375" lon="5.54096">
        <ele>1334.1</ele>
        <time>2020-08-23T07:31:44Z</time>
      </trkpt>
      <trkpt lat="45.09373" lon="5.54095">
        <ele>1334.3</ele>
        <time>2020-08-23T07:31:45Z</time>
      </trkpt>
      <trkpt lat="45.09372" lon="5.54094">
        <ele>1334.6</ele>
        <time>2020-08-23T07:31:46Z</time>
      </trkpt>
      <trkpt lat="45.09367" lon="5.54085">
        <ele>1335.8</ele>
        <time>2020-08-23T07:31:51Z</time>
      </trkpt>
      <trkpt lat="45.09367" lon="5.54083">
        <ele>1336</ele>
        <time>2020-08-23T07:31:52Z</time>
      </trkpt>
      <trkpt lat="45.09366" lon="5.54075">
        <ele>1337.2</ele>
        <time>2020-08-23T07:31:57Z</time>
      </trkpt>
      <trkpt lat="45.09366" lon="5.54072">
        <ele>1337.4</ele>
        <time>2020-08-23T07:31:58Z</time>
      </trkpt>
      <trkpt lat="45.09365" lon="5.5407">
        <ele>1337.8</ele>
        <time>2020-08-23T07:31:59Z</time>
      </trkpt>
      <trkpt lat="45.09365" lon="5.54067">
        <ele>1338.1</ele>
        <time>2020-08-23T07:32:01Z</time>
      </trkpt>
      <trkpt lat="45.09365" lon="5.54066">
        <ele>1338.4</ele>
        <time>2020-08-23T07:32:02Z</time>
      </trkpt>
      <trkpt lat="45.09365" lon="5.54064">
        <ele>1338.6</ele>
        <time>2020-08-23T07:32:03Z</time>
      </trkpt>
      <trkpt lat="45.09366" lon="5.54062">
        <ele>1338.9</ele>
        <time>2020-08-23T07:32:04Z</time>
      </trkpt>
      <trkpt lat="45.09365" lon="5.54056">
        <ele>1339.6</ele>
        <time>2020-08-23T07:32:07Z</time>
      </trkpt>
      <trkpt lat="45.09365" lon="5.54054">
        <ele>1339.9</ele>
        <time>2020-08-23T07:32:08Z</time>
      </trkpt>
      <trkpt lat="45.09364" lon="5.54042">
        <ele>1341.4</ele>
        <time>2020-08-23T07:32:13Z</time>
      </trkpt>
      <trkpt lat="45.09364" lon="5.5404">
        <ele>1341.7</ele>
        <time>2020-08-23T07:32:14Z</time>
      </trkpt>
      <trkpt lat="45.09365" lon="5.54038">
        <ele>1341.9</ele>
        <time>2020-08-23T07:32:15Z</time>
      </trkpt>
      <trkpt lat="45.09365" lon="5.54032">
        <ele>1342.6</ele>
        <time>2020-08-23T07:32:18Z</time>
      </trkpt>
      <trkpt lat="45.09365" lon="5.54031">
        <ele>1342.8</ele>
        <time>2020-08-23T07:32:19Z</time>
      </trkpt>
      <trkpt lat="45.09364" lon="5.54024">
        <ele>1343.7</ele>
        <time>2020-08-23T07:32:23Z</time>
      </trkpt>
      <trkpt lat="45.09364" lon="5.54022">
        <ele>1344</ele>
        <time>2020-08-23T07:32:24Z</time>
      </trkpt>
      <trkpt lat="45.09364" lon="5.54015">
        <ele>1344.8</ele>
        <time>2020-08-23T07:32:28Z</time>
      </trkpt>
      <trkpt lat="45.09364" lon="5.54014">
        <ele>1345</ele>
        <time>2020-08-23T07:32:29Z</time>
      </trkpt>
      <trkpt lat="45.09365" lon="5.54005">
        <ele>1346.1</ele>
        <time>2020-08-23T07:32:34Z</time>
      </trkpt>
      <trkpt lat="45.09365" lon="5.54003">
        <ele>1346.4</ele>
        <time>2020-08-23T07:32:35Z</time>
      </trkpt>
      <trkpt lat="45.09366" lon="5.53994">
        <ele>1347.2</ele>
        <time>2020-08-23T07:32:39Z</time>
      </trkpt>
      <trkpt lat="45.09366" lon="5.53991">
        <ele>1347.4</ele>
        <time>2020-08-23T07:32:40Z</time>
      </trkpt>
      <trkpt lat="45.09366" lon="5.53984">
        <ele>1348</ele>
        <time>2020-08-23T07:32:44Z</time>
      </trkpt>
      <trkpt lat="45.09366" lon="5.53982">
        <ele>1348.2</ele>
        <time>2020-08-23T07:32:45Z</time>
      </trkpt>
      <trkpt lat="45.09366" lon="5.53974">
        <ele>1348.9</ele>
        <time>2020-08-23T07:32:49Z</time>
      </trkpt>
      <trkpt lat="45.09365" lon="5.53972">
        <ele>1349</ele>
        <time>2020-08-23T07:32:50Z</time>
      </trkpt>
      <trkpt lat="45.09364" lon="5.53958">
        <ele>1350.4</ele>
        <time>2020-08-23T07:32:58Z</time>
      </trkpt>
      <trkpt lat="45.09364" lon="5.53956">
        <ele>1350.5</ele>
        <time>2020-08-23T07:32:59Z</time>
      </trkpt>
      <trkpt lat="45.09364" lon="5.53953">
        <ele>1350.7</ele>
        <time>2020-08-23T07:33:00Z</time>
      </trkpt>
      <trkpt lat="45.09364" lon="5.53945">
        <ele>1351.4</ele>
        <time>2020-08-23T07:33:04Z</time>
      </trkpt>
      <trkpt lat="45.09364" lon="5.53944">
        <ele>1351.6</ele>
        <time>2020-08-23T07:33:05Z</time>
      </trkpt>
      <trkpt lat="45.09362" lon="5.53937">
        <ele>1352.2</ele>
        <time>2020-08-23T07:33:09Z</time>
      </trkpt>
      <trkpt lat="45.09362" lon="5.53935">
        <ele>1352.4</ele>
        <time>2020-08-23T07:33:10Z</time>
      </trkpt>
      <trkpt lat="45.09362" lon="5.53927">
        <ele>1353</ele>
        <time>2020-08-23T07:33:14Z</time>
      </trkpt>
      <trkpt lat="45.09363" lon="5.53926">
        <ele>1353.1</ele>
        <time>2020-08-23T07:33:15Z</time>
      </trkpt>
      <trkpt lat="45.09366" lon="5.53918">
        <ele>1353.6</ele>
        <time>2020-08-23T07:33:20Z</time>
      </trkpt>
      <trkpt lat="45.09366" lon="5.53914">
        <ele>1353.6</ele>
        <time>2020-08-23T07:33:22Z</time>
      </trkpt>
      <trkpt lat="45.09367" lon="5.53907">
        <ele>1353.4</ele>
        <time>2020-08-23T07:33:25Z</time>
      </trkpt>
      <trkpt lat="45.09367" lon="5.53903">
        <ele>1353.4</ele>
        <time>2020-08-23T07:33:27Z</time>
      </trkpt>
      <trkpt lat="45.09367" lon="5.53902">
        <ele>1353.4</ele>
        <time>2020-08-23T07:33:28Z</time>
      </trkpt>
      <trkpt lat="45.09367" lon="5.53896">
        <ele>1353.3</ele>
        <time>2020-08-23T07:33:31Z</time>
      </trkpt>
      <trkpt lat="45.09367" lon="5.53894">
        <ele>1353.2</ele>
        <time>2020-08-23T07:33:32Z</time>
      </trkpt>
      <trkpt lat="45.09367" lon="5.53887">
        <ele>1353.1</ele>
        <time>2020-08-23T07:33:36Z</time>
      </trkpt>
      <trkpt lat="45.09367" lon="5.53886">
        <ele>1353.1</ele>
        <time>2020-08-23T07:33:37Z</time>
      </trkpt>
      <trkpt lat="45.09366" lon="5.53879">
        <ele>1353.1</ele>
        <time>2020-08-23T07:33:41Z</time>
      </trkpt>
      <trkpt lat="45.09366" lon="5.53877">
        <ele>1353.1</ele>
        <time>2020-08-23T07:33:42Z</time>
      </trkpt>
      <trkpt lat="45.09365" lon="5.53866">
        <ele>1353</ele>
        <time>2020-08-23T07:33:47Z</time>
      </trkpt>
      <trkpt lat="45.09365" lon="5.53864">
        <ele>1352.9</ele>
        <time>2020-08-23T07:33:48Z</time>
      </trkpt>
      <trkpt lat="45.09366" lon="5.53852">
        <ele>1352.7</ele>
        <time>2020-08-23T07:33:53Z</time>
      </trkpt>
      <trkpt lat="45.09366" lon="5.53849">
        <ele>1352.7</ele>
        <time>2020-08-23T07:33:55Z</time>
      </trkpt>
      <trkpt lat="45.09365" lon="5.53848">
        <ele>1352.7</ele>
        <time>2020-08-23T07:34:00Z</time>
      </trkpt>
      <trkpt lat="45.09365" lon="5.53848">
        <ele>1352.7</ele>
      </trkpt>
      <trkpt lat="45.09373" lon="5.53838">
        <ele>1352.1</ele>
        <time>2020-08-23T07:41:33Z</time>
      </trkpt>
      <trkpt lat="45.09375" lon="5.53838">
        <ele>1352</ele>
        <time>2020-08-23T07:41:34Z</time>
      </trkpt>
      <trkpt lat="45.09378" lon="5.53838">
        <ele>1351.9</ele>
        <time>2020-08-23T07:41:35Z</time>
      </trkpt>
      <trkpt lat="45.09386" lon="5.53836">
        <ele>1351.5</ele>
        <time>2020-08-23T07:41:38Z</time>
      </trkpt>
      <trkpt lat="45.09389" lon="5.53837">
        <ele>1351.4</ele>
        <time>2020-08-23T07:41:39Z</time>
      </trkpt>
      <trkpt lat="45.09391" lon="5.53837">
        <ele>1351.3</ele>
        <time>2020-08-23T07:41:40Z</time>
      </trkpt>
      <trkpt lat="45.09393" lon="5.53836">
        <ele>1351.2</ele>
        <time>2020-08-23T07:41:41Z</time>
      </trkpt>
      <trkpt lat="45.09448" lon="5.53808">
        <ele>1344.4</ele>
        <time>2020-08-23T07:42:03Z</time>
      </trkpt>
      <trkpt lat="45.0945" lon="5.5381">
        <ele>1344.3</ele>
        <time>2020-08-23T07:42:05Z</time>
      </trkpt>
      <trkpt lat="45.09451" lon="5.5381">
        <ele>1344.1</ele>
        <time>2020-08-23T07:42:06Z</time>
      </trkpt>
      <trkpt lat="45.09458" lon="5.53809">
        <ele>1343.1</ele>
        <time>2020-08-23T07:42:08Z</time>
      </trkpt>
      <trkpt lat="45.09462" lon="5.53808">
        <ele>1342.5</ele>
        <time>2020-08-23T07:42:09Z</time>
      </trkpt>
      <trkpt lat="45.09467" lon="5.53808">
        <ele>1341.8</ele>
        <time>2020-08-23T07:42:10Z</time>
      </trkpt>
      <trkpt lat="45.09473" lon="5.53807">
        <ele>1341</ele>
        <time>2020-08-23T07:42:11Z</time>
      </trkpt>
      <trkpt lat="45.09485" lon="5.53819">
        <ele>1340.4</ele>
        <time>2020-08-23T07:42:17Z</time>
      </trkpt>
      <trkpt lat="45.09487" lon="5.53822">
        <ele>1340.5</ele>
        <time>2020-08-23T07:42:18Z</time>
      </trkpt>
      <trkpt lat="45.09496" lon="5.53823">
        <ele>1339.4</ele>
        <time>2020-08-23T07:42:21Z</time>
      </trkpt>
      <trkpt lat="45.09501" lon="5.53822">
        <ele>1338.7</ele>
        <time>2020-08-23T07:42:22Z</time>
      </trkpt>
      <trkpt lat="45.09517" lon="5.53823">
        <ele>1337.1</ele>
        <time>2020-08-23T07:42:27Z</time>
      </trkpt>
      <trkpt lat="45.0952" lon="5.53826">
        <ele>1337.1</ele>
        <time>2020-08-23T07:42:28Z</time>
      </trkpt>
      <trkpt lat="45.09522" lon="5.53829">
        <ele>1337.2</ele>
        <time>2020-08-23T07:42:29Z</time>
      </trkpt>
      <trkpt lat="45.09524" lon="5.53831">
        <ele>1337.1</ele>
        <time>2020-08-23T07:42:30Z</time>
      </trkpt>
      <trkpt lat="45.09544" lon="5.53836">
        <ele>1335.4</ele>
        <time>2020-08-23T07:42:36Z</time>
      </trkpt>
      <trkpt lat="45.09547" lon="5.53837">
        <ele>1335.1</ele>
        <time>2020-08-23T07:42:37Z</time>
      </trkpt>
      <trkpt lat="45.0955" lon="5.53838">
        <ele>1335</ele>
        <time>2020-08-23T07:42:38Z</time>
      </trkpt>
      <trkpt lat="45.09552" lon="5.5384">
        <ele>1334.9</ele>
        <time>2020-08-23T07:42:39Z</time>
      </trkpt>
      <trkpt lat="45.09554" lon="5.53841">
        <ele>1334.7</ele>
        <time>2020-08-23T07:42:40Z</time>
      </trkpt>
      <trkpt lat="45.09571" lon="5.53869">
        <ele>1335.2</ele>
        <time>2020-08-23T07:42:48Z</time>
      </trkpt>
      <trkpt lat="45.09574" lon="5.53872">
        <ele>1335.2</ele>
        <time>2020-08-23T07:42:49Z</time>
      </trkpt>
      <trkpt lat="45.09579" lon="5.53877">
        <ele>1335.1</ele>
        <time>2020-08-23T07:42:51Z</time>
      </trkpt>
      <trkpt lat="45.0963" lon="5.53884">
        <ele>1332</ele>
        <time>2020-08-23T07:43:07Z</time>
      </trkpt>
      <trkpt lat="45.09646" lon="5.53874">
        <ele>1330.3</ele>
        <time>2020-08-23T07:43:13Z</time>
      </trkpt>
      <trkpt lat="45.09648" lon="5.53871">
        <ele>1330</ele>
        <time>2020-08-23T07:43:14Z</time>
      </trkpt>
      <trkpt lat="45.09652" lon="5.53868">
        <ele>1329.6</ele>
        <time>2020-08-23T07:43:15Z</time>
      </trkpt>
      <trkpt lat="45.09662" lon="5.53861">
        <ele>1328.6</ele>
        <time>2020-08-23T07:43:18Z</time>
      </trkpt>
      <trkpt lat="45.09666" lon="5.5386">
        <ele>1328.4</ele>
        <time>2020-08-23T07:43:19Z</time>
      </trkpt>
      <trkpt lat="45.0968" lon="5.53861">
        <ele>1326.1</ele>
        <time>2020-08-23T07:43:24Z</time>
      </trkpt>
      <trkpt lat="45.09682" lon="5.53862">
        <ele>1325.8</ele>
        <time>2020-08-23T07:43:25Z</time>
      </trkpt>
      <trkpt lat="45.09692" lon="5.53866">
        <ele>1324.3</ele>
        <time>2020-08-23T07:43:29Z</time>
      </trkpt>
      <trkpt lat="45.09696" lon="5.53864">
        <ele>1323.6</ele>
        <time>2020-08-23T07:43:30Z</time>
      </trkpt>
      <trkpt lat="45.09712" lon="5.53863">
        <ele>1320.9</ele>
        <time>2020-08-23T07:43:34Z</time>
      </trkpt>
      <trkpt lat="45.09714" lon="5.53867">
        <ele>1320.6</ele>
        <time>2020-08-23T07:43:35Z</time>
      </trkpt>
      <trkpt lat="45.09716" lon="5.53871">
        <ele>1320.5</ele>
        <time>2020-08-23T07:43:36Z</time>
      </trkpt>
      <trkpt lat="45.09718" lon="5.53875">
        <ele>1320.5</ele>
        <time>2020-08-23T07:43:37Z</time>
      </trkpt>
      <trkpt lat="45.0972" lon="5.53879">
        <ele>1320.3</ele>
        <time>2020-08-23T07:43:38Z</time>
      </trkpt>
      <trkpt lat="45.09722" lon="5.53881">
        <ele>1320</ele>
        <time>2020-08-23T07:43:39Z</time>
      </trkpt>
      <trkpt lat="45.09734" lon="5.53882">
        <ele>1318</ele>
        <time>2020-08-23T07:43:42Z</time>
      </trkpt>
      <trkpt lat="45.09737" lon="5.53884">
        <ele>1317.5</ele>
        <time>2020-08-23T07:43:43Z</time>
      </trkpt>
      <trkpt lat="45.09747" lon="5.53891">
        <ele>1316.4</ele>
        <time>2020-08-23T07:43:46Z</time>
      </trkpt>
      <trkpt lat="45.0975" lon="5.53892">
        <ele>1315.9</ele>
        <time>2020-08-23T07:43:47Z</time>
      </trkpt>
      <trkpt lat="45.09753" lon="5.53892">
        <ele>1315.2</ele>
        <time>2020-08-23T07:43:48Z</time>
      </trkpt>
      <trkpt lat="45.09761" lon="5.53894">
        <ele>1313.8</ele>
        <time>2020-08-23T07:43:50Z</time>
      </trkpt>
      <trkpt lat="45.09763" lon="5.53895">
        <ele>1313.4</ele>
        <time>2020-08-23T07:43:51Z</time>
      </trkpt>
      <trkpt lat="45.0979" lon="5.5391">
        <ele>1308.6</ele>
        <time>2020-08-23T07:43:59Z</time>
      </trkpt>
      <trkpt lat="45.09795" lon="5.53911">
        <ele>1307.7</ele>
        <time>2020-08-23T07:44:00Z</time>
      </trkpt>
      <trkpt lat="45.09801" lon="5.53912">
        <ele>1306.5</ele>
        <time>2020-08-23T07:44:01Z</time>
      </trkpt>
      <trkpt lat="45.09808" lon="5.53914">
        <ele>1305.2</ele>
        <time>2020-08-23T07:44:02Z</time>
      </trkpt>
      <trkpt lat="45.09816" lon="5.53915">
        <ele>1303.6</ele>
        <time>2020-08-23T07:44:03Z</time>
      </trkpt>
      <trkpt lat="45.0984" lon="5.53921">
        <ele>1298.4</ele>
        <time>2020-08-23T07:44:09Z</time>
      </trkpt>
      <trkpt lat="45.09841" lon="5.53921">
        <ele>1298.2</ele>
        <time>2020-08-23T07:44:10Z</time>
      </trkpt>
      <trkpt lat="45.09841" lon="5.53921">
        <ele>1298.1</ele>
        <time>2020-08-23T07:44:14Z</time>
      </trkpt>
      <trkpt lat="45.09841" lon="5.53921">
        <ele>1298.1</ele>
        <time>2020-08-23T07:44:15Z</time>
      </trkpt>
      <trkpt lat="45.09841" lon="5.53921">
        <ele>1298.1</ele>
        <time>2020-08-23T07:44:17Z</time>
      </trkpt>
      <trkpt lat="45.09851" lon="5.53922">
        <ele>1296.3</ele>
        <time>2020-08-23T07:46:44Z</time>
      </trkpt>
      <trkpt lat="45.09853" lon="5.5393">
        <ele>1295.1</ele>
        <time>2020-08-23T07:46:46Z</time>
      </trkpt>
      <trkpt lat="45.09854" lon="5.53934">
        <ele>1294.6</ele>
        <time>2020-08-23T07:46:47Z</time>
      </trkpt>
      <trkpt lat="45.09855" lon="5.53939">
        <ele>1293.8</ele>
        <time>2020-08-23T07:46:49Z</time>
      </trkpt>
      <trkpt lat="45.09855" lon="5.53943">
        <ele>1293.5</ele>
        <time>2020-08-23T07:46:50Z</time>
      </trkpt>
      <trkpt lat="45.09857" lon="5.53961">
        <ele>1291.3</ele>
        <time>2020-08-23T07:46:54Z</time>
      </trkpt>
      <trkpt lat="45.09858" lon="5.53965">
        <ele>1290.7</ele>
        <time>2020-08-23T07:46:55Z</time>
      </trkpt>
      <trkpt lat="45.09859" lon="5.5397">
        <ele>1290.1</ele>
        <time>2020-08-23T07:46:56Z</time>
      </trkpt>
      <trkpt lat="45.09856" lon="5.53979">
        <ele>1289.6</ele>
        <time>2020-08-23T07:46:59Z</time>
      </trkpt>
      <trkpt lat="45.09855" lon="5.53982">
        <ele>1289.5</ele>
        <time>2020-08-23T07:47:00Z</time>
      </trkpt>
      <trkpt lat="45.09858" lon="5.53997">
        <ele>1287.4</ele>
        <time>2020-08-23T07:47:05Z</time>
      </trkpt>
      <trkpt lat="45.09859" lon="5.54002">
        <ele>1286.6</ele>
        <time>2020-08-23T07:47:06Z</time>
      </trkpt>
      <trkpt lat="45.09867" lon="5.54014">
        <ele>1284</ele>
        <time>2020-08-23T07:47:09Z</time>
      </trkpt>
      <trkpt lat="45.09871" lon="5.54016">
        <ele>1283.1</ele>
        <time>2020-08-23T07:47:10Z</time>
      </trkpt>
      <trkpt lat="45.09877" lon="5.54018">
        <ele>1281.9</ele>
        <time>2020-08-23T07:47:12Z</time>
      </trkpt>
      <trkpt lat="45.09881" lon="5.54019">
        <ele>1281.3</ele>
        <time>2020-08-23T07:47:13Z</time>
      </trkpt>
      <trkpt lat="45.09885" lon="5.5402">
        <ele>1280.6</ele>
        <time>2020-08-23T07:47:14Z</time>
      </trkpt>
      <trkpt lat="45.09896" lon="5.54022">
        <ele>1278.7</ele>
        <time>2020-08-23T07:47:17Z</time>
      </trkpt>
      <trkpt lat="45.099" lon="5.54023">
        <ele>1278.1</ele>
        <time>2020-08-23T07:47:18Z</time>
      </trkpt>
      <trkpt lat="45.09921" lon="5.54036">
        <ele>1273.9</ele>
        <time>2020-08-23T07:47:25Z</time>
      </trkpt>
      <trkpt lat="45.09925" lon="5.54036">
        <ele>1273.2</ele>
        <time>2020-08-23T07:47:26Z</time>
      </trkpt>
      <trkpt lat="45.09934" lon="5.54037">
        <ele>1271.8</ele>
        <time>2020-08-23T07:47:28Z</time>
      </trkpt>
      <trkpt lat="45.09946" lon="5.54044">
        <ele>1269.2</ele>
        <time>2020-08-23T07:47:31Z</time>
      </trkpt>
      <trkpt lat="45.09949" lon="5.54047">
        <ele>1268.5</ele>
        <time>2020-08-23T07:47:32Z</time>
      </trkpt>
      <trkpt lat="45.09956" lon="5.54055">
        <ele>1266.6</ele>
        <time>2020-08-23T07:47:35Z</time>
      </trkpt>
      <trkpt lat="45.09958" lon="5.54055">
        <ele>1266.2</ele>
        <time>2020-08-23T07:47:36Z</time>
      </trkpt>
      <trkpt lat="45.09962" lon="5.54054">
        <ele>1265.7</ele>
        <time>2020-08-23T07:47:37Z</time>
      </trkpt>
      <trkpt lat="45.09965" lon="5.54053">
        <ele>1265.3</ele>
        <time>2020-08-23T07:47:38Z</time>
      </trkpt>
      <trkpt lat="45.09968" lon="5.54052">
        <ele>1265</ele>
        <time>2020-08-23T07:47:39Z</time>
      </trkpt>
      <trkpt lat="45.09971" lon="5.54051">
        <ele>1264.6</ele>
        <time>2020-08-23T07:47:40Z</time>
      </trkpt>
      <trkpt lat="45.09978" lon="5.54052">
        <ele>1263.5</ele>
        <time>2020-08-23T07:47:42Z</time>
      </trkpt>
      <trkpt lat="45.0998" lon="5.54054">
        <ele>1263</ele>
        <time>2020-08-23T07:47:43Z</time>
      </trkpt>
      <trkpt lat="45.09985" lon="5.54063">
        <ele>1261.3</ele>
        <time>2020-08-23T07:47:46Z</time>
      </trkpt>
      <trkpt lat="45.09989" lon="5.54063">
        <ele>1260.7</ele>
        <time>2020-08-23T07:47:47Z</time>
      </trkpt>
      <trkpt lat="45.10006" lon="5.5407">
        <ele>1257.4</ele>
        <time>2020-08-23T07:47:52Z</time>
      </trkpt>
      <trkpt lat="45.1001" lon="5.54072">
        <ele>1256.8</ele>
        <time>2020-08-23T07:47:53Z</time>
      </trkpt>
      <trkpt lat="45.1002" lon="5.54076">
        <ele>1255.3</ele>
        <time>2020-08-23T07:47:55Z</time>
      </trkpt>
      <trkpt lat="45.10026" lon="5.54079">
        <ele>1254.2</ele>
        <time>2020-08-23T07:47:56Z</time>
      </trkpt>
      <trkpt lat="45.10039" lon="5.54087">
        <ele>1252.4</ele>
        <time>2020-08-23T07:47:58Z</time>
      </trkpt>
      <trkpt lat="45.10045" lon="5.54091">
        <ele>1251.9</ele>
        <time>2020-08-23T07:47:59Z</time>
      </trkpt>
      <trkpt lat="45.1005" lon="5.54095">
        <ele>1251.5</ele>
        <time>2020-08-23T07:48:00Z</time>
      </trkpt>
      <trkpt lat="45.10054" lon="5.54099">
        <ele>1251.2</ele>
        <time>2020-08-23T07:48:01Z</time>
      </trkpt>
      <trkpt lat="45.10058" lon="5.54101">
        <ele>1251</ele>
        <time>2020-08-23T07:48:02Z</time>
      </trkpt>
      <trkpt lat="45.10066" lon="5.54106">
        <ele>1250.6</ele>
        <time>2020-08-23T07:48:04Z</time>
      </trkpt>
      <trkpt lat="45.1007" lon="5.54109">
        <ele>1250.4</ele>
        <time>2020-08-23T07:48:05Z</time>
      </trkpt>
      <trkpt lat="45.10082" lon="5.54118">
        <ele>1250.1</ele>
        <time>2020-08-23T07:48:08Z</time>
      </trkpt>
      <trkpt lat="45.10084" lon="5.54121">
        <ele>1250.1</ele>
        <time>2020-08-23T07:48:09Z</time>
      </trkpt>
      <trkpt lat="45.10088" lon="5.54126">
        <ele>1250.4</ele>
        <time>2020-08-23T07:48:11Z</time>
      </trkpt>
      <trkpt lat="45.10089" lon="5.54128">
        <ele>1250.5</ele>
        <time>2020-08-23T07:48:12Z</time>
      </trkpt>
      <trkpt lat="45.1009" lon="5.54129">
        <ele>1250.5</ele>
        <time>2020-08-23T07:48:13Z</time>
      </trkpt>
      <trkpt lat="45.1009" lon="5.54136">
        <ele>1251.1</ele>
        <time>2020-08-23T07:48:16Z</time>
      </trkpt>
      <trkpt lat="45.1009" lon="5.54137">
        <ele>1251.2</ele>
        <time>2020-08-23T07:48:17Z</time>
      </trkpt>
      <trkpt lat="45.1009" lon="5.54139">
        <ele>1251.4</ele>
        <time>2020-08-23T07:48:19Z</time>
      </trkpt>
      <trkpt lat="45.10089" lon="5.54141">
        <ele>1251.5</ele>
        <time>2020-08-23T07:48:20Z</time>
      </trkpt>
      <trkpt lat="45.10089" lon="5.54142">
        <ele>1251.6</ele>
        <time>2020-08-23T07:48:21Z</time>
      </trkpt>
      <trkpt lat="45.10088" lon="5.5415">
        <ele>1252.4</ele>
        <time>2020-08-23T07:48:25Z</time>
      </trkpt>
      <trkpt lat="45.10088" lon="5.54152">
        <ele>1252.5</ele>
        <time>2020-08-23T07:48:26Z</time>
      </trkpt>
      <trkpt lat="45.10088" lon="5.54156">
        <ele>1252.9</ele>
        <time>2020-08-23T07:48:28Z</time>
      </trkpt>
      <trkpt lat="45.10087" lon="5.54161">
        <ele>1253.3</ele>
        <time>2020-08-23T07:48:30Z</time>
      </trkpt>
      <trkpt lat="45.10088" lon="5.54163">
        <ele>1253.4</ele>
        <time>2020-08-23T07:48:31Z</time>
      </trkpt>
      <trkpt lat="45.10089" lon="5.54171">
        <ele>1253.6</ele>
        <time>2020-08-23T07:48:35Z</time>
      </trkpt>
      <trkpt lat="45.1009" lon="5.54173">
        <ele>1253.5</ele>
        <time>2020-08-23T07:48:36Z</time>
      </trkpt>
      <trkpt lat="45.10099" lon="5.54179">
        <ele>1252.9</ele>
        <time>2020-08-23T07:48:42Z</time>
      </trkpt>
      <trkpt lat="45.10101" lon="5.5418">
        <ele>1252.8</ele>
        <time>2020-08-23T07:48:43Z</time>
      </trkpt>
      <trkpt lat="45.10106" lon="5.5418">
        <ele>1252.5</ele>
        <time>2020-08-23T07:48:46Z</time>
      </trkpt>
      <trkpt lat="45.10108" lon="5.5418">
        <ele>1252.4</ele>
        <time>2020-08-23T07:48:47Z</time>
      </trkpt>
      <trkpt lat="45.10113" lon="5.54191">
        <ele>1251.9</ele>
        <time>2020-08-23T07:48:52Z</time>
      </trkpt>
      <trkpt lat="45.10114" lon="5.54194">
        <ele>1251.8</ele>
        <time>2020-08-23T07:48:53Z</time>
      </trkpt>
      <trkpt lat="45.10123" lon="5.54203">
        <ele>1251.2</ele>
        <time>2020-08-23T07:48:58Z</time>
      </trkpt>
      <trkpt lat="45.10126" lon="5.54203">
        <ele>1251</ele>
        <time>2020-08-23T07:48:59Z</time>
      </trkpt>
      <trkpt lat="45.10129" lon="5.54203">
        <ele>1250.8</ele>
        <time>2020-08-23T07:49:00Z</time>
      </trkpt>
      <trkpt lat="45.10133" lon="5.54203">
        <ele>1250.6</ele>
        <time>2020-08-23T07:49:02Z</time>
      </trkpt>
      <trkpt lat="45.10135" lon="5.54202">
        <ele>1250.5</ele>
        <time>2020-08-23T07:49:03Z</time>
      </trkpt>
      <trkpt lat="45.1014" lon="5.54198">
        <ele>1250.2</ele>
        <time>2020-08-23T07:49:07Z</time>
      </trkpt>
      <trkpt lat="45.10142" lon="5.54197">
        <ele>1250.1</ele>
        <time>2020-08-23T07:49:08Z</time>
      </trkpt>
      <trkpt lat="45.10151" lon="5.54197">
        <ele>1249.6</ele>
        <time>2020-08-23T07:49:12Z</time>
      </trkpt>
      <trkpt lat="45.10153" lon="5.54198">
        <ele>1249.5</ele>
        <time>2020-08-23T07:49:13Z</time>
      </trkpt>
      <trkpt lat="45.10161" lon="5.54205">
        <ele>1248.9</ele>
        <time>2020-08-23T07:49:17Z</time>
      </trkpt>
      <trkpt lat="45.10163" lon="5.54206">
        <ele>1248.7</ele>
        <time>2020-08-23T07:49:18Z</time>
      </trkpt>
      <trkpt lat="45.10175" lon="5.54214">
        <ele>1248.3</ele>
        <time>2020-08-23T07:49:23Z</time>
      </trkpt>
      <trkpt lat="45.10178" lon="5.54214">
        <ele>1248.3</ele>
        <time>2020-08-23T07:49:24Z</time>
      </trkpt>
      <trkpt lat="45.10191" lon="5.54216">
        <ele>1248.2</ele>
        <time>2020-08-23T07:49:29Z</time>
      </trkpt>
      <trkpt lat="45.10194" lon="5.54215">
        <ele>1248.1</ele>
        <time>2020-08-23T07:49:30Z</time>
      </trkpt>
      <trkpt lat="45.10196" lon="5.54213">
        <ele>1248.1</ele>
        <time>2020-08-23T07:49:31Z</time>
      </trkpt>
      <trkpt lat="45.10202" lon="5.54204">
        <ele>1248.1</ele>
        <time>2020-08-23T07:49:34Z</time>
      </trkpt>
      <trkpt lat="45.10205" lon="5.54199">
        <ele>1248.1</ele>
        <time>2020-08-23T07:49:35Z</time>
      </trkpt>
      <trkpt lat="45.10214" lon="5.54189">
        <ele>1247.9</ele>
        <time>2020-08-23T07:49:39Z</time>
      </trkpt>
      <trkpt lat="45.10217" lon="5.54187">
        <ele>1247.9</ele>
        <time>2020-08-23T07:49:40Z</time>
      </trkpt>
      <trkpt lat="45.10221" lon="5.54166">
        <ele>1247.7</ele>
        <time>2020-08-23T07:49:46Z</time>
      </trkpt>
      <trkpt lat="45.10221" lon="5.54162">
        <ele>1247.5</ele>
        <time>2020-08-23T07:49:47Z</time>
      </trkpt>
      <trkpt lat="45.10224" lon="5.54149">
        <ele>1246.8</ele>
        <time>2020-08-23T07:49:51Z</time>
      </trkpt>
      <trkpt lat="45.10226" lon="5.54145">
        <ele>1246.5</ele>
        <time>2020-08-23T07:49:52Z</time>
      </trkpt>
      <trkpt lat="45.10232" lon="5.54129">
        <ele>1245.6</ele>
        <time>2020-08-23T07:49:55Z</time>
      </trkpt>
      <trkpt lat="45.10234" lon="5.54124">
        <ele>1245.3</ele>
        <time>2020-08-23T07:49:56Z</time>
      </trkpt>
      <trkpt lat="45.10238" lon="5.5412">
        <ele>1245.1</ele>
        <time>2020-08-23T07:49:57Z</time>
      </trkpt>
      <trkpt lat="45.10246" lon="5.54115">
        <ele>1244.6</ele>
        <time>2020-08-23T07:50:00Z</time>
      </trkpt>
      <trkpt lat="45.10248" lon="5.54113">
        <ele>1244.5</ele>
        <time>2020-08-23T07:50:01Z</time>
      </trkpt>
      <trkpt lat="45.10261" lon="5.54105">
        <ele>1244.1</ele>
        <time>2020-08-23T07:50:06Z</time>
      </trkpt>
      <trkpt lat="45.10265" lon="5.54104">
        <ele>1244.1</ele>
        <time>2020-08-23T07:50:08Z</time>
      </trkpt>
      <trkpt lat="45.10275" lon="5.54103">
        <ele>1244.2</ele>
        <time>2020-08-23T07:50:14Z</time>
      </trkpt>
      <trkpt lat="45.10277" lon="5.54101">
        <ele>1244.1</ele>
        <time>2020-08-23T07:50:15Z</time>
      </trkpt>
      <trkpt lat="45.10289" lon="5.54088">
        <ele>1243.7</ele>
        <time>2020-08-23T07:50:21Z</time>
      </trkpt>
      <trkpt lat="45.10291" lon="5.54086">
        <ele>1243.6</ele>
        <time>2020-08-23T07:50:23Z</time>
      </trkpt>
      <trkpt lat="45.10292" lon="5.54086">
        <ele>1243.6</ele>
        <time>2020-08-23T07:50:24Z</time>
      </trkpt>
      <trkpt lat="45.10302" lon="5.54084">
        <ele>1243.6</ele>
        <time>2020-08-23T07:50:31Z</time>
      </trkpt>
      <trkpt lat="45.10303" lon="5.54081">
        <ele>1243.6</ele>
        <time>2020-08-23T07:50:32Z</time>
      </trkpt>
      <trkpt lat="45.10305" lon="5.54079">
        <ele>1243.5</ele>
        <time>2020-08-23T07:50:33Z</time>
      </trkpt>
      <trkpt lat="45.10305" lon="5.54076">
        <ele>1243.4</ele>
        <time>2020-08-23T07:50:34Z</time>
      </trkpt>
      <trkpt lat="45.10309" lon="5.54064">
        <ele>1243.1</ele>
        <time>2020-08-23T07:50:39Z</time>
      </trkpt>
      <trkpt lat="45.1031" lon="5.54061">
        <ele>1243</ele>
        <time>2020-08-23T07:50:40Z</time>
      </trkpt>
      <trkpt lat="45.10314" lon="5.54047">
        <ele>1242.7</ele>
        <time>2020-08-23T07:50:47Z</time>
      </trkpt>
      <trkpt lat="45.10313" lon="5.54046">
        <ele>1242.7</ele>
        <time>2020-08-23T07:50:48Z</time>
      </trkpt>
      <trkpt lat="45.10313" lon="5.54039">
        <ele>1242.5</ele>
        <time>2020-08-23T07:51:52Z</time>
      </trkpt>
      <trkpt lat="45.10312" lon="5.54034">
        <ele>1242.3</ele>
        <time>2020-08-23T07:51:53Z</time>
      </trkpt>
      <trkpt lat="45.10304" lon="5.54021">
        <ele>1241.3</ele>
        <time>2020-08-23T07:51:57Z</time>
      </trkpt>
      <trkpt lat="45.10303" lon="5.54015">
        <ele>1241</ele>
        <time>2020-08-23T07:51:58Z</time>
      </trkpt>
      <trkpt lat="45.103" lon="5.53997">
        <ele>1240.1</ele>
        <time>2020-08-23T07:52:01Z</time>
      </trkpt>
      <trkpt lat="45.10299" lon="5.53991">
        <ele>1239.8</ele>
        <time>2020-08-23T07:52:02Z</time>
      </trkpt>
      <trkpt lat="45.10291" lon="5.53977">
        <ele>1238.5</ele>
        <time>2020-08-23T07:52:05Z</time>
      </trkpt>
      <trkpt lat="45.10289" lon="5.53974">
        <ele>1238.2</ele>
        <time>2020-08-23T07:52:06Z</time>
      </trkpt>
      <trkpt lat="45.10287" lon="5.53971">
        <ele>1237.8</ele>
        <time>2020-08-23T07:52:07Z</time>
      </trkpt>
      <trkpt lat="45.10286" lon="5.53966">
        <ele>1237.5</ele>
        <time>2020-08-23T07:52:08Z</time>
      </trkpt>
      <trkpt lat="45.10285" lon="5.53953">
        <ele>1236.9</ele>
        <time>2020-08-23T07:52:10Z</time>
      </trkpt>
      <trkpt lat="45.10286" lon="5.53946">
        <ele>1236.6</ele>
        <time>2020-08-23T07:52:11Z</time>
      </trkpt>
      <trkpt lat="45.10288" lon="5.53933">
        <ele>1236.2</ele>
        <time>2020-08-23T07:52:13Z</time>
      </trkpt>
      <trkpt lat="45.10288" lon="5.53926">
        <ele>1235.9</ele>
        <time>2020-08-23T07:52:14Z</time>
      </trkpt>
      <trkpt lat="45.10289" lon="5.53894">
        <ele>1233.7</ele>
        <time>2020-08-23T07:52:19Z</time>
      </trkpt>
      <trkpt lat="45.10289" lon="5.53889">
        <ele>1233.3</ele>
        <time>2020-08-23T07:52:20Z</time>
      </trkpt>
      <trkpt lat="45.1029" lon="5.53885">
        <ele>1233</ele>
        <time>2020-08-23T07:52:21Z</time>
      </trkpt>
      <trkpt lat="45.10292" lon="5.5388">
        <ele>1232.8</ele>
        <time>2020-08-23T07:52:22Z</time>
      </trkpt>
      <trkpt lat="45.10294" lon="5.53875">
        <ele>1232.5</ele>
        <time>2020-08-23T07:52:23Z</time>
      </trkpt>
      <trkpt lat="45.10299" lon="5.53867">
        <ele>1232.1</ele>
        <time>2020-08-23T07:52:25Z</time>
      </trkpt>
      <trkpt lat="45.10298" lon="5.53862">
        <ele>1231.6</ele>
        <time>2020-08-23T07:52:26Z</time>
      </trkpt>
      <trkpt lat="45.10299" lon="5.53857">
        <ele>1231.3</ele>
        <time>2020-08-23T07:52:27Z</time>
      </trkpt>
      <trkpt lat="45.103" lon="5.53853">
        <ele>1230.9</ele>
        <time>2020-08-23T07:52:28Z</time>
      </trkpt>
      <trkpt lat="45.10302" lon="5.53849">
        <ele>1230.7</ele>
        <time>2020-08-23T07:52:29Z</time>
      </trkpt>
      <trkpt lat="45.10302" lon="5.53845">
        <ele>1230.2</ele>
        <time>2020-08-23T07:52:31Z</time>
      </trkpt>
      <trkpt lat="45.10302" lon="5.53841">
        <ele>1229.9</ele>
        <time>2020-08-23T07:52:32Z</time>
      </trkpt>
      <trkpt lat="45.10303" lon="5.53827">
        <ele>1228.2</ele>
        <time>2020-08-23T07:52:36Z</time>
      </trkpt>
      <trkpt lat="45.10303" lon="5.53824">
        <ele>1227.8</ele>
        <time>2020-08-23T07:52:37Z</time>
      </trkpt>
      <trkpt lat="45.10307" lon="5.53808">
        <ele>1225.1</ele>
        <time>2020-08-23T07:52:41Z</time>
      </trkpt>
      <trkpt lat="45.10309" lon="5.53803">
        <ele>1224.4</ele>
        <time>2020-08-23T07:52:42Z</time>
      </trkpt>
      <trkpt lat="45.10312" lon="5.53793">
        <ele>1222.4</ele>
        <time>2020-08-23T07:52:45Z</time>
      </trkpt>
      <trkpt lat="45.10313" lon="5.5379">
        <ele>1221.9</ele>
        <time>2020-08-23T07:52:46Z</time>
      </trkpt>
      <trkpt lat="45.10312" lon="5.53788">
        <ele>1221.6</ele>
        <time>2020-08-23T07:52:47Z</time>
      </trkpt>
      <trkpt lat="45.10307" lon="5.53786">
        <ele>1221.6</ele>
        <time>2020-08-23T07:52:50Z</time>
      </trkpt>
      <trkpt lat="45.10304" lon="5.53786">
        <ele>1221.6</ele>
        <time>2020-08-23T07:52:51Z</time>
      </trkpt>
      <trkpt lat="45.10294" lon="5.53787">
        <ele>1222.3</ele>
        <time>2020-08-23T07:52:55Z</time>
      </trkpt>
      <trkpt lat="45.1029" lon="5.53786">
        <ele>1222.3</ele>
        <time>2020-08-23T07:52:56Z</time>
      </trkpt>
      <trkpt lat="45.10285" lon="5.53777">
        <ele>1221.5</ele>
        <time>2020-08-23T07:52:59Z</time>
      </trkpt>
      <trkpt lat="45.10285" lon="5.53774">
        <ele>1221.1</ele>
        <time>2020-08-23T07:53:00Z</time>
      </trkpt>
      <trkpt lat="45.10293" lon="5.53758">
        <ele>1218.4</ele>
        <time>2020-08-23T07:53:05Z</time>
      </trkpt>
      <trkpt lat="45.10295" lon="5.53754">
        <ele>1217.5</ele>
        <time>2020-08-23T07:53:06Z</time>
      </trkpt>
      <trkpt lat="45.10297" lon="5.5375">
        <ele>1216.8</ele>
        <time>2020-08-23T07:53:07Z</time>
      </trkpt>
      <trkpt lat="45.10298" lon="5.53745">
        <ele>1216.3</ele>
        <time>2020-08-23T07:53:08Z</time>
      </trkpt>
      <trkpt lat="45.10303" lon="5.53738">
        <ele>1215</ele>
        <time>2020-08-23T07:53:10Z</time>
      </trkpt>
      <trkpt lat="45.10306" lon="5.53734">
        <ele>1214.2</ele>
        <time>2020-08-23T07:53:11Z</time>
      </trkpt>
      <trkpt lat="45.1032" lon="5.53714">
        <ele>1208.9</ele>
        <time>2020-08-23T07:53:16Z</time>
      </trkpt>
      <trkpt lat="45.10322" lon="5.5371">
        <ele>1207.9</ele>
        <time>2020-08-23T07:53:17Z</time>
      </trkpt>
      <trkpt lat="45.10323" lon="5.53707">
        <ele>1207.2</ele>
        <time>2020-08-23T07:53:18Z</time>
      </trkpt>
      <trkpt lat="45.10326" lon="5.53703">
        <ele>1206.1</ele>
        <time>2020-08-23T07:53:19Z</time>
      </trkpt>
      <trkpt lat="45.10328" lon="5.53699">
        <ele>1204.9</ele>
        <time>2020-08-23T07:53:20Z</time>
      </trkpt>
      <trkpt lat="45.10331" lon="5.53695">
        <ele>1203.4</ele>
        <time>2020-08-23T07:53:21Z</time>
      </trkpt>
      <trkpt lat="45.10335" lon="5.53692">
        <ele>1202.5</ele>
        <time>2020-08-23T07:53:22Z</time>
      </trkpt>
      <trkpt lat="45.10341" lon="5.53685">
        <ele>1202.2</ele>
        <time>2020-08-23T07:53:24Z</time>
      </trkpt>
      <trkpt lat="45.10342" lon="5.53681">
        <ele>1201.8</ele>
        <time>2020-08-23T07:53:25Z</time>
      </trkpt>
      <trkpt lat="45.10342" lon="5.53676">
        <ele>1201</ele>
        <time>2020-08-23T07:53:26Z</time>
      </trkpt>
      <trkpt lat="45.10342" lon="5.53671">
        <ele>1200.1</ele>
        <time>2020-08-23T07:53:27Z</time>
      </trkpt>
      <trkpt lat="45.10341" lon="5.53666">
        <ele>1199.1</ele>
        <time>2020-08-23T07:53:28Z</time>
      </trkpt>
      <trkpt lat="45.10347" lon="5.53631">
        <ele>1192.9</ele>
        <time>2020-08-23T07:53:34Z</time>
      </trkpt>
      <trkpt lat="45.10349" lon="5.53627">
        <ele>1192.3</ele>
        <time>2020-08-23T07:53:35Z</time>
      </trkpt>
      <trkpt lat="45.10351" lon="5.53623">
        <ele>1191.9</ele>
        <time>2020-08-23T07:53:36Z</time>
      </trkpt>
      <trkpt lat="45.10352" lon="5.53619">
        <ele>1191.1</ele>
        <time>2020-08-23T07:53:37Z</time>
      </trkpt>
      <trkpt lat="45.10352" lon="5.53614">
        <ele>1190.2</ele>
        <time>2020-08-23T07:53:38Z</time>
      </trkpt>
      <trkpt lat="45.10351" lon="5.53605">
        <ele>1188.1</ele>
        <time>2020-08-23T07:53:40Z</time>
      </trkpt>
      <trkpt lat="45.10351" lon="5.536">
        <ele>1187</ele>
        <time>2020-08-23T07:53:41Z</time>
      </trkpt>
      <trkpt lat="45.10351" lon="5.53594">
        <ele>1186</ele>
        <time>2020-08-23T07:53:42Z</time>
      </trkpt>
      <trkpt lat="45.10351" lon="5.53588">
        <ele>1184.7</ele>
        <time>2020-08-23T07:53:43Z</time>
      </trkpt>
      <trkpt lat="45.10352" lon="5.53568">
        <ele>1180.2</ele>
        <time>2020-08-23T07:53:47Z</time>
      </trkpt>
      <trkpt lat="45.10353" lon="5.53563">
        <ele>1179.1</ele>
        <time>2020-08-23T07:53:48Z</time>
      </trkpt>
      <trkpt lat="45.10348" lon="5.53539">
        <ele>1173</ele>
        <time>2020-08-23T07:53:52Z</time>
      </trkpt>
      <trkpt lat="45.10348" lon="5.53535">
        <ele>1171.8</ele>
        <time>2020-08-23T07:53:53Z</time>
      </trkpt>
      <trkpt lat="45.10348" lon="5.53531">
        <ele>1170.9</ele>
        <time>2020-08-23T07:53:54Z</time>
      </trkpt>
      <trkpt lat="45.10347" lon="5.53527">
        <ele>1170</ele>
        <time>2020-08-23T07:53:55Z</time>
      </trkpt>
      <trkpt lat="45.10353" lon="5.53533">
        <ele>1171.8</ele>
        <time>2020-08-23T07:54:01Z</time>
      </trkpt>
      <trkpt lat="45.10353" lon="5.53534">
        <ele>1172</ele>
        <time>2020-08-23T07:54:02Z</time>
      </trkpt>
      <trkpt lat="45.10354" lon="5.53534">
        <ele>1172.2</ele>
        <time>2020-08-23T07:54:03Z</time>
      </trkpt>
      <trkpt lat="45.10355" lon="5.53533">
        <ele>1172.2</ele>
        <time>2020-08-23T07:54:04Z</time>
      </trkpt>
      <trkpt lat="45.10355" lon="5.53533">
        <ele>1172.2</ele>
        <time>2020-08-23T07:54:05Z</time>
      </trkpt>
      <trkpt lat="45.10366" lon="5.5351">
        <ele>1167.8</ele>
        <time>2020-08-23T07:54:11Z</time>
      </trkpt>
      <trkpt lat="45.10366" lon="5.53508">
        <ele>1167.4</ele>
        <time>2020-08-23T07:54:12Z</time>
      </trkpt>
      <trkpt lat="45.10367" lon="5.53504">
        <ele>1166.6</ele>
        <time>2020-08-23T07:54:13Z</time>
      </trkpt>
      <trkpt lat="45.10367" lon="5.53501">
        <ele>1165.9</ele>
        <time>2020-08-23T07:54:14Z</time>
      </trkpt>
      <trkpt lat="45.1037" lon="5.5348">
        <ele>1159.7</ele>
        <time>2020-08-23T07:54:23Z</time>
      </trkpt>
      <trkpt lat="45.1037" lon="5.53478">
        <ele>1158.9</ele>
        <time>2020-08-23T07:54:24Z</time>
      </trkpt>
      <trkpt lat="45.10369" lon="5.53476">
        <ele>1158.2</ele>
        <time>2020-08-23T07:54:25Z</time>
      </trkpt>
      <trkpt lat="45.10371" lon="5.53458">
        <ele>1152.9</ele>
        <time>2020-08-23T07:54:30Z</time>
      </trkpt>
      <trkpt lat="45.10372" lon="5.53455">
        <ele>1152.2</ele>
        <time>2020-08-23T07:54:31Z</time>
      </trkpt>
      <trkpt lat="45.10374" lon="5.53453">
        <ele>1151.7</ele>
        <time>2020-08-23T07:54:32Z</time>
      </trkpt>
      <trkpt lat="45.10376" lon="5.53447">
        <ele>1150.2</ele>
        <time>2020-08-23T07:54:34Z</time>
      </trkpt>
      <trkpt lat="45.10377" lon="5.53445">
        <ele>1149.5</ele>
        <time>2020-08-23T07:54:35Z</time>
      </trkpt>
      <trkpt lat="45.10379" lon="5.53439">
        <ele>1148.3</ele>
        <time>2020-08-23T07:54:37Z</time>
      </trkpt>
      <trkpt lat="45.10381" lon="5.53438">
        <ele>1147.9</ele>
        <time>2020-08-23T07:54:38Z</time>
      </trkpt>
      <trkpt lat="45.10382" lon="5.53435">
        <ele>1147.6</ele>
        <time>2020-08-23T07:54:39Z</time>
      </trkpt>
      <trkpt lat="45.10383" lon="5.53433">
        <ele>1147.1</ele>
        <time>2020-08-23T07:54:40Z</time>
      </trkpt>
      <trkpt lat="45.10384" lon="5.53431">
        <ele>1146.5</ele>
        <time>2020-08-23T07:54:41Z</time>
      </trkpt>
      <trkpt lat="45.10385" lon="5.53428">
        <ele>1145.9</ele>
        <time>2020-08-23T07:54:42Z</time>
      </trkpt>
      <trkpt lat="45.10387" lon="5.53425">
        <ele>1145.3</ele>
        <time>2020-08-23T07:54:43Z</time>
      </trkpt>
      <trkpt lat="45.10389" lon="5.53422">
        <ele>1144.4</ele>
        <time>2020-08-23T07:54:44Z</time>
      </trkpt>
      <trkpt lat="45.10394" lon="5.53408">
        <ele>1140.9</ele>
        <time>2020-08-23T07:54:48Z</time>
      </trkpt>
      <trkpt lat="45.10396" lon="5.53403">
        <ele>1139.8</ele>
        <time>2020-08-23T07:54:49Z</time>
      </trkpt>
      <trkpt lat="45.10398" lon="5.53383">
        <ele>1133.4</ele>
        <time>2020-08-23T07:54:54Z</time>
      </trkpt>
      <trkpt lat="45.10397" lon="5.5338">
        <ele>1132.4</ele>
        <time>2020-08-23T07:54:55Z</time>
      </trkpt>
      <trkpt lat="45.10397" lon="5.53377">
        <ele>1131.6</ele>
        <time>2020-08-23T07:54:56Z</time>
      </trkpt>
      <trkpt lat="45.10398" lon="5.53375">
        <ele>1131</ele>
        <time>2020-08-23T07:54:57Z</time>
      </trkpt>
      <trkpt lat="45.104" lon="5.53372">
        <ele>1130.4</ele>
        <time>2020-08-23T07:54:58Z</time>
      </trkpt>
      <trkpt lat="45.10401" lon="5.53369">
        <ele>1129.4</ele>
        <time>2020-08-23T07:54:59Z</time>
      </trkpt>
      <trkpt lat="45.10402" lon="5.53366">
        <ele>1128.6</ele>
        <time>2020-08-23T07:55:00Z</time>
      </trkpt>
      <trkpt lat="45.10404" lon="5.53363">
        <ele>1127.9</ele>
        <time>2020-08-23T07:55:01Z</time>
      </trkpt>
      <trkpt lat="45.10405" lon="5.5336">
        <ele>1127.4</ele>
        <time>2020-08-23T07:55:02Z</time>
      </trkpt>
      <trkpt lat="45.10406" lon="5.53358">
        <ele>1126.6</ele>
        <time>2020-08-23T07:55:03Z</time>
      </trkpt>
      <trkpt lat="45.10407" lon="5.53355">
        <ele>1125.8</ele>
        <time>2020-08-23T07:55:04Z</time>
      </trkpt>
      <trkpt lat="45.10408" lon="5.53353">
        <ele>1125.1</ele>
        <time>2020-08-23T07:55:05Z</time>
      </trkpt>
      <trkpt lat="45.10408" lon="5.53306">
        <ele>1112</ele>
        <time>2020-08-23T07:55:17Z</time>
      </trkpt>
      <trkpt lat="45.1041" lon="5.53304">
        <ele>1111.5</ele>
        <time>2020-08-23T07:55:18Z</time>
      </trkpt>
      <trkpt lat="45.10414" lon="5.53291">
        <ele>1108.6</ele>
        <time>2020-08-23T07:55:22Z</time>
      </trkpt>
      <trkpt lat="45.10415" lon="5.53288">
        <ele>1107.9</ele>
        <time>2020-08-23T07:55:23Z</time>
      </trkpt>
      <trkpt lat="45.10415" lon="5.53285">
        <ele>1107.2</ele>
        <time>2020-08-23T07:55:24Z</time>
      </trkpt>
      <trkpt lat="45.10414" lon="5.53283">
        <ele>1106.6</ele>
        <time>2020-08-23T07:55:25Z</time>
      </trkpt>
      <trkpt lat="45.10414" lon="5.53281">
        <ele>1106.1</ele>
        <time>2020-08-23T07:55:29Z</time>
      </trkpt>
      <trkpt lat="45.10414" lon="5.53281">
        <ele>1106.1</ele>
        <time>2020-08-23T07:55:30Z</time>
      </trkpt>
      <trkpt lat="45.10414" lon="5.53281">
        <ele>1106.1</ele>
        <time>2020-08-23T07:55:32Z</time>
      </trkpt>
      <trkpt lat="45.10414" lon="5.53281">
        <ele>1106.1</ele>
        <time>2020-08-23T07:55:33Z</time>
      </trkpt>
      <trkpt lat="45.10403" lon="5.53267">
        <ele>1102.1</ele>
        <time>2020-08-23T07:58:22Z</time>
      </trkpt>
      <trkpt lat="45.10394" lon="5.5326">
        <ele>1100.3</ele>
        <time>2020-08-23T07:58:27Z</time>
      </trkpt>
      <trkpt lat="45.10393" lon="5.53259">
        <ele>1100</ele>
        <time>2020-08-23T07:58:28Z</time>
      </trkpt>
      <trkpt lat="45.10388" lon="5.53255">
        <ele>1099</ele>
        <time>2020-08-23T07:58:31Z</time>
      </trkpt>
      <trkpt lat="45.10386" lon="5.53254">
        <ele>1098.9</ele>
        <time>2020-08-23T07:58:32Z</time>
      </trkpt>
      <trkpt lat="45.10383" lon="5.53252">
        <ele>1098.4</ele>
        <time>2020-08-23T07:58:34Z</time>
      </trkpt>
      <trkpt lat="45.10382" lon="5.5325">
        <ele>1098</ele>
        <time>2020-08-23T07:58:35Z</time>
      </trkpt>
      <trkpt lat="45.10374" lon="5.53242">
        <ele>1096.8</ele>
        <time>2020-08-23T07:58:39Z</time>
      </trkpt>
      <trkpt lat="45.10372" lon="5.53241">
        <ele>1096.6</ele>
        <time>2020-08-23T07:58:40Z</time>
      </trkpt>
      <trkpt lat="45.1037" lon="5.53238">
        <ele>1096.3</ele>
        <time>2020-08-23T07:58:43Z</time>
      </trkpt>
      <trkpt lat="45.1037" lon="5.53238">
        <ele>1096.3</ele>
        <time>2020-08-23T07:58:44Z</time>
      </trkpt>
      <trkpt lat="45.1036" lon="5.53232">
        <ele>1095.9</ele>
        <time>2020-08-23T07:58:57Z</time>
      </trkpt>
      <trkpt lat="45.10358" lon="5.5323">
        <ele>1095.9</ele>
        <time>2020-08-23T07:58:58Z</time>
      </trkpt>
      <trkpt lat="45.10353" lon="5.53225">
        <ele>1095.7</ele>
        <time>2020-08-23T07:59:01Z</time>
      </trkpt>
      <trkpt lat="45.10352" lon="5.53223">
        <ele>1095.6</ele>
        <time>2020-08-23T07:59:02Z</time>
      </trkpt>
      <trkpt lat="45.10332" lon="5.53207">
        <ele>1096.2</ele>
        <time>2020-08-23T07:59:12Z</time>
      </trkpt>
      <trkpt lat="45.1033" lon="5.53206">
        <ele>1096</ele>
        <time>2020-08-23T07:59:13Z</time>
      </trkpt>
      <trkpt lat="45.10326" lon="5.53203">
        <ele>1095.3</ele>
        <time>2020-08-23T07:59:15Z</time>
      </trkpt>
      <trkpt lat="45.10325" lon="5.532">
        <ele>1095</ele>
        <time>2020-08-23T07:59:16Z</time>
      </trkpt>
      <trkpt lat="45.10315" lon="5.53191">
        <ele>1093</ele>
        <time>2020-08-23T07:59:20Z</time>
      </trkpt>
      <trkpt lat="45.10312" lon="5.53189">
        <ele>1092.5</ele>
        <time>2020-08-23T07:59:21Z</time>
      </trkpt>
      <trkpt lat="45.10308" lon="5.53181">
        <ele>1091.4</ele>
        <time>2020-08-23T07:59:24Z</time>
      </trkpt>
      <trkpt lat="45.10306" lon="5.53178">
        <ele>1090.9</ele>
        <time>2020-08-23T07:59:25Z</time>
      </trkpt>
      <trkpt lat="45.10303" lon="5.53163">
        <ele>1089.1</ele>
        <time>2020-08-23T07:59:28Z</time>
      </trkpt>
      <trkpt lat="45.10303" lon="5.53157">
        <ele>1088.2</ele>
        <time>2020-08-23T07:59:29Z</time>
      </trkpt>
      <trkpt lat="45.10296" lon="5.5315">
        <ele>1086.1</ele>
        <time>2020-08-23T07:59:31Z</time>
      </trkpt>
      <trkpt lat="45.10294" lon="5.53147">
        <ele>1085.2</ele>
        <time>2020-08-23T07:59:32Z</time>
      </trkpt>
      <trkpt lat="45.10292" lon="5.53139">
        <ele>1083.8</ele>
        <time>2020-08-23T07:59:34Z</time>
      </trkpt>
      <trkpt lat="45.10292" lon="5.53133">
        <ele>1083.2</ele>
        <time>2020-08-23T07:59:35Z</time>
      </trkpt>
      <trkpt lat="45.10291" lon="5.53127">
        <ele>1082.2</ele>
        <time>2020-08-23T07:59:36Z</time>
      </trkpt>
      <trkpt lat="45.1029" lon="5.53122">
        <ele>1081.3</ele>
        <time>2020-08-23T07:59:37Z</time>
      </trkpt>
      <trkpt lat="45.10288" lon="5.53116">
        <ele>1080.3</ele>
        <time>2020-08-23T07:59:38Z</time>
      </trkpt>
      <trkpt lat="45.10278" lon="5.53051">
        <ele>1069</ele>
        <time>2020-08-23T07:59:52Z</time>
      </trkpt>
      <trkpt lat="45.10278" lon="5.53051">
        <ele>1069</ele>
        <time>2020-08-23T07:59:53Z</time>
      </trkpt>
      <trkpt lat="45.10278" lon="5.53051">
        <ele>1069</ele>
        <time>2020-08-23T07:59:56Z</time>
      </trkpt>
      <trkpt lat="45.10277" lon="5.53047">
        <ele>1068.2</ele>
        <time>2020-08-23T08:00:56Z</time>
      </trkpt>
      <trkpt lat="45.10288" lon="5.53033">
        <ele>1066.6</ele>
        <time>2020-08-23T08:00:59Z</time>
      </trkpt>
      <trkpt lat="45.10293" lon="5.53028">
        <ele>1065.9</ele>
        <time>2020-08-23T08:01:00Z</time>
      </trkpt>
      <trkpt lat="45.10307" lon="5.5301">
        <ele>1063.4</ele>
        <time>2020-08-23T08:01:03Z</time>
      </trkpt>
      <trkpt lat="45.10312" lon="5.53004">
        <ele>1062.6</ele>
        <time>2020-08-23T08:01:04Z</time>
      </trkpt>
      <trkpt lat="45.10316" lon="5.52999">
        <ele>1061.8</ele>
        <time>2020-08-23T08:01:05Z</time>
      </trkpt>
      <trkpt lat="45.1032" lon="5.52994">
        <ele>1061.1</ele>
        <time>2020-08-23T08:01:06Z</time>
      </trkpt>
      <trkpt lat="45.10379" lon="5.53028">
        <ele>1052.4</ele>
        <time>2020-08-23T08:01:21Z</time>
      </trkpt>
      <trkpt lat="45.10383" lon="5.53036">
        <ele>1052.6</ele>
        <time>2020-08-23T08:01:22Z</time>
      </trkpt>
      <trkpt lat="45.10387" lon="5.53043">
        <ele>1052.7</ele>
        <time>2020-08-23T08:01:23Z</time>
      </trkpt>
      <trkpt lat="45.10391" lon="5.5305">
        <ele>1052.8</ele>
        <time>2020-08-23T08:01:24Z</time>
      </trkpt>
      <trkpt lat="45.10402" lon="5.53067">
        <ele>1052.4</ele>
        <time>2020-08-23T08:01:27Z</time>
      </trkpt>
      <trkpt lat="45.10424" lon="5.53086">
        <ele>1048.9</ele>
        <time>2020-08-23T08:01:32Z</time>
      </trkpt>
      <trkpt lat="45.10429" lon="5.53091">
        <ele>1048.3</ele>
        <time>2020-08-23T08:01:33Z</time>
      </trkpt>
      <trkpt lat="45.10435" lon="5.53096">
        <ele>1047.6</ele>
        <time>2020-08-23T08:01:34Z</time>
      </trkpt>
      <trkpt lat="45.10441" lon="5.53101">
        <ele>1046.4</ele>
        <time>2020-08-23T08:01:35Z</time>
      </trkpt>
      <trkpt lat="45.10448" lon="5.53105">
        <ele>1045</ele>
        <time>2020-08-23T08:01:36Z</time>
      </trkpt>
      <trkpt lat="45.10461" lon="5.53114">
        <ele>1043.1</ele>
        <time>2020-08-23T08:01:38Z</time>
      </trkpt>
      <trkpt lat="45.10466" lon="5.53118">
        <ele>1042.5</ele>
        <time>2020-08-23T08:01:39Z</time>
      </trkpt>
      <trkpt lat="45.10472" lon="5.53122">
        <ele>1041.8</ele>
        <time>2020-08-23T08:01:40Z</time>
      </trkpt>
      <trkpt lat="45.10479" lon="5.53127">
        <ele>1041</ele>
        <time>2020-08-23T08:01:41Z</time>
      </trkpt>
      <trkpt lat="45.10487" lon="5.53131">
        <ele>1039.7</ele>
        <time>2020-08-23T08:01:42Z</time>
      </trkpt>
      <trkpt lat="45.10524" lon="5.53152">
        <ele>1038.4</ele>
        <time>2020-08-23T08:01:47Z</time>
      </trkpt>
      <trkpt lat="45.10532" lon="5.53156">
        <ele>1038.2</ele>
        <time>2020-08-23T08:01:48Z</time>
      </trkpt>
      <trkpt lat="45.10546" lon="5.53161">
        <ele>1037.8</ele>
        <time>2020-08-23T08:01:50Z</time>
      </trkpt>
      <trkpt lat="45.10554" lon="5.53164">
        <ele>1037.5</ele>
        <time>2020-08-23T08:01:51Z</time>
      </trkpt>
      <trkpt lat="45.10561" lon="5.53168">
        <ele>1037.6</ele>
        <time>2020-08-23T08:01:52Z</time>
      </trkpt>
      <trkpt lat="45.10608" lon="5.5318">
        <ele>1039.1</ele>
        <time>2020-08-23T08:01:59Z</time>
      </trkpt>
      <trkpt lat="45.10612" lon="5.53177">
        <ele>1038.2</ele>
        <time>2020-08-23T08:02:00Z</time>
      </trkpt>
      <trkpt lat="45.10621" lon="5.5317">
        <ele>1035.3</ele>
        <time>2020-08-23T08:02:02Z</time>
      </trkpt>
      <trkpt lat="45.10633" lon="5.53159">
        <ele>1032.1</ele>
        <time>2020-08-23T08:02:05Z</time>
      </trkpt>
      <trkpt lat="45.10643" lon="5.53153">
        <ele>1030.8</ele>
        <time>2020-08-23T08:02:07Z</time>
      </trkpt>
      <trkpt lat="45.10648" lon="5.53148">
        <ele>1030</ele>
        <time>2020-08-23T08:02:08Z</time>
      </trkpt>
      <trkpt lat="45.10668" lon="5.5314">
        <ele>1029</ele>
        <time>2020-08-23T08:02:11Z</time>
      </trkpt>
      <trkpt lat="45.10675" lon="5.53137">
        <ele>1028.3</ele>
        <time>2020-08-23T08:02:12Z</time>
      </trkpt>
      <trkpt lat="45.10711" lon="5.53123">
        <ele>1026.3</ele>
        <time>2020-08-23T08:02:17Z</time>
      </trkpt>
      <trkpt lat="45.10719" lon="5.5312">
        <ele>1026</ele>
        <time>2020-08-23T08:02:18Z</time>
      </trkpt>
      <trkpt lat="45.10735" lon="5.53115">
        <ele>1025.8</ele>
        <time>2020-08-23T08:02:20Z</time>
      </trkpt>
      <trkpt lat="45.10742" lon="5.53114">
        <ele>1025.8</ele>
        <time>2020-08-23T08:02:21Z</time>
      </trkpt>
      <trkpt lat="45.10793" lon="5.5311">
        <ele>1019.3</ele>
        <time>2020-08-23T08:02:28Z</time>
      </trkpt>
      <trkpt lat="45.108" lon="5.5311">
        <ele>1018.4</ele>
        <time>2020-08-23T08:02:29Z</time>
      </trkpt>
      <trkpt lat="45.10805" lon="5.5311">
        <ele>1017.6</ele>
        <time>2020-08-23T08:02:30Z</time>
      </trkpt>
      <trkpt lat="45.10824" lon="5.53109">
        <ele>1014.8</ele>
        <time>2020-08-23T08:02:34Z</time>
      </trkpt>
      <trkpt lat="45.10828" lon="5.53109">
        <ele>1014.1</ele>
        <time>2020-08-23T08:02:35Z</time>
      </trkpt>
      <trkpt lat="45.10842" lon="5.53105">
        <ele>1012.1</ele>
        <time>2020-08-23T08:02:38Z</time>
      </trkpt>
      <trkpt lat="45.10847" lon="5.53104">
        <ele>1011.5</ele>
        <time>2020-08-23T08:02:39Z</time>
      </trkpt>
      <trkpt lat="45.10856" lon="5.53102">
        <ele>1010.3</ele>
        <time>2020-08-23T08:02:41Z</time>
      </trkpt>
      <trkpt lat="45.10861" lon="5.53101">
        <ele>1009.7</ele>
        <time>2020-08-23T08:02:42Z</time>
      </trkpt>
      <trkpt lat="45.1088" lon="5.53099">
        <ele>1007.5</ele>
        <time>2020-08-23T08:02:46Z</time>
      </trkpt>
      <trkpt lat="45.10884" lon="5.531">
        <ele>1007</ele>
        <time>2020-08-23T08:02:47Z</time>
      </trkpt>
      <trkpt lat="45.10889" lon="5.531">
        <ele>1006.6</ele>
        <time>2020-08-23T08:02:48Z</time>
      </trkpt>
      <trkpt lat="45.10913" lon="5.53105">
        <ele>1004.8</ele>
        <time>2020-08-23T08:02:53Z</time>
      </trkpt>
      <trkpt lat="45.10917" lon="5.53106">
        <ele>1004.5</ele>
        <time>2020-08-23T08:02:54Z</time>
      </trkpt>
      <trkpt lat="45.1093" lon="5.53108">
        <ele>1003.6</ele>
        <time>2020-08-23T08:02:57Z</time>
      </trkpt>
      <trkpt lat="45.10936" lon="5.53109">
        <ele>1003.1</ele>
        <time>2020-08-23T08:02:58Z</time>
      </trkpt>
      <trkpt lat="45.10953" lon="5.53111">
        <ele>1001.7</ele>
        <time>2020-08-23T08:03:01Z</time>
      </trkpt>
      <trkpt lat="45.10959" lon="5.53114">
        <ele>1001.6</ele>
        <time>2020-08-23T08:03:02Z</time>
      </trkpt>
      <trkpt lat="45.10964" lon="5.53117">
        <ele>1001.6</ele>
        <time>2020-08-23T08:03:03Z</time>
      </trkpt>
      <trkpt lat="45.10974" lon="5.53124">
        <ele>1001.9</ele>
        <time>2020-08-23T08:03:05Z</time>
      </trkpt>
      <trkpt lat="45.10978" lon="5.53128">
        <ele>1002.1</ele>
        <time>2020-08-23T08:03:06Z</time>
      </trkpt>
      <trkpt lat="45.10989" lon="5.53133">
        <ele>1002</ele>
        <time>2020-08-23T08:03:08Z</time>
      </trkpt>
      <trkpt lat="45.10994" lon="5.53135">
        <ele>1001.9</ele>
        <time>2020-08-23T08:03:09Z</time>
      </trkpt>
      <trkpt lat="45.11014" lon="5.5314">
        <ele>998.9</ele>
        <time>2020-08-23T08:03:12Z</time>
      </trkpt>
      <trkpt lat="45.11022" lon="5.53141">
        <ele>997.3</ele>
        <time>2020-08-23T08:03:13Z</time>
      </trkpt>
      <trkpt lat="45.11047" lon="5.53146">
        <ele>992.3</ele>
        <time>2020-08-23T08:03:16Z</time>
      </trkpt>
      <trkpt lat="45.11055" lon="5.53149">
        <ele>991</ele>
        <time>2020-08-23T08:03:17Z</time>
      </trkpt>
      <trkpt lat="45.11087" lon="5.53165">
        <ele>986.2</ele>
        <time>2020-08-23T08:03:21Z</time>
      </trkpt>
      <trkpt lat="45.11094" lon="5.53168">
        <ele>985.8</ele>
        <time>2020-08-23T08:03:22Z</time>
      </trkpt>
      <trkpt lat="45.11123" lon="5.53177">
        <ele>984.1</ele>
        <time>2020-08-23T08:03:26Z</time>
      </trkpt>
      <trkpt lat="45.1113" lon="5.5318">
        <ele>984.1</ele>
        <time>2020-08-23T08:03:27Z</time>
      </trkpt>
      <trkpt lat="45.11136" lon="5.53184">
        <ele>984.3</ele>
        <time>2020-08-23T08:03:28Z</time>
      </trkpt>
      <trkpt lat="45.11157" lon="5.53212">
        <ele>988.8</ele>
        <time>2020-08-23T08:03:32Z</time>
      </trkpt>
      <trkpt lat="45.11162" lon="5.53221">
        <ele>990.6</ele>
        <time>2020-08-23T08:03:33Z</time>
      </trkpt>
      <trkpt lat="45.11167" lon="5.5323">
        <ele>992.2</ele>
        <time>2020-08-23T08:03:34Z</time>
      </trkpt>
      <trkpt lat="45.11173" lon="5.53238">
        <ele>992.3</ele>
        <time>2020-08-23T08:03:35Z</time>
      </trkpt>
      <trkpt lat="45.11179" lon="5.53245">
        <ele>991.3</ele>
        <time>2020-08-23T08:03:36Z</time>
      </trkpt>
      <trkpt lat="45.11187" lon="5.5325">
        <ele>989.6</ele>
        <time>2020-08-23T08:03:37Z</time>
      </trkpt>
      <trkpt lat="45.11212" lon="5.53261">
        <ele>979.4</ele>
        <time>2020-08-23T08:03:40Z</time>
      </trkpt>
      <trkpt lat="45.11221" lon="5.53263">
        <ele>976.1</ele>
        <time>2020-08-23T08:03:41Z</time>
      </trkpt>
      <trkpt lat="45.11229" lon="5.53265">
        <ele>973</ele>
        <time>2020-08-23T08:03:42Z</time>
      </trkpt>
      <trkpt lat="45.11262" lon="5.53275">
        <ele>964.8</ele>
        <time>2020-08-23T08:03:48Z</time>
      </trkpt>
      <trkpt lat="45.11266" lon="5.53275">
        <ele>964.7</ele>
        <time>2020-08-23T08:03:49Z</time>
      </trkpt>
      <trkpt lat="45.1128" lon="5.53277">
        <ele>964.2</ele>
        <time>2020-08-23T08:03:53Z</time>
      </trkpt>
      <trkpt lat="45.11283" lon="5.53277">
        <ele>964</ele>
        <time>2020-08-23T08:03:54Z</time>
      </trkpt>
      <trkpt lat="45.11289" lon="5.53278">
        <ele>963.8</ele>
        <time>2020-08-23T08:04:49Z</time>
      </trkpt>
      <trkpt lat="45.11296" lon="5.53278">
        <ele>963.5</ele>
        <time>2020-08-23T08:04:52Z</time>
      </trkpt>
      <trkpt lat="45.11306" lon="5.53279">
        <ele>963.1</ele>
        <time>2020-08-23T08:04:54Z</time>
      </trkpt>
      <trkpt lat="45.11311" lon="5.53281">
        <ele>962.9</ele>
        <time>2020-08-23T08:04:55Z</time>
      </trkpt>
      <trkpt lat="45.11316" lon="5.53285">
        <ele>962.8</ele>
        <time>2020-08-23T08:04:56Z</time>
      </trkpt>
      <trkpt lat="45.11332" lon="5.53296">
        <ele>962.2</ele>
        <time>2020-08-23T08:04:59Z</time>
      </trkpt>
      <trkpt lat="45.11347" lon="5.53309">
        <ele>962.1</ele>
        <time>2020-08-23T08:05:02Z</time>
      </trkpt>
      <trkpt lat="45.11352" lon="5.53315">
        <ele>962</ele>
        <time>2020-08-23T08:05:03Z</time>
      </trkpt>
      <trkpt lat="45.11357" lon="5.53328">
        <ele>962.1</ele>
        <time>2020-08-23T08:05:05Z</time>
      </trkpt>
      <trkpt lat="45.11358" lon="5.53335">
        <ele>962.1</ele>
        <time>2020-08-23T08:05:06Z</time>
      </trkpt>
      <trkpt lat="45.1136" lon="5.53346">
        <ele>962</ele>
        <time>2020-08-23T08:05:08Z</time>
      </trkpt>
      <trkpt lat="45.11362" lon="5.5335">
        <ele>961.9</ele>
        <time>2020-08-23T08:05:09Z</time>
      </trkpt>
      <trkpt lat="45.11364" lon="5.53358">
        <ele>961.8</ele>
        <time>2020-08-23T08:05:15Z</time>
      </trkpt>
      <trkpt lat="45.11364" lon="5.53358">
        <ele>961.8</ele>
        <time>2020-08-23T08:05:16Z</time>
      </trkpt>
      <trkpt lat="45.11366" lon="5.53361">
        <ele>961.7</ele>
        <time>2020-08-23T08:06:45Z</time>
      </trkpt>
      <trkpt lat="45.11367" lon="5.53363">
        <ele>961.6</ele>
        <time>2020-08-23T08:06:46Z</time>
      </trkpt>
      <trkpt lat="45.11373" lon="5.5337">
        <ele>961.3</ele>
        <time>2020-08-23T08:06:50Z</time>
      </trkpt>
      <trkpt lat="45.11375" lon="5.53372">
        <ele>961.3</ele>
        <time>2020-08-23T08:06:51Z</time>
      </trkpt>
      <trkpt lat="45.11377" lon="5.53375">
        <ele>961.2</ele>
        <time>2020-08-23T08:06:52Z</time>
      </trkpt>
      <trkpt lat="45.11384" lon="5.53382">
        <ele>960.8</ele>
        <time>2020-08-23T08:06:55Z</time>
      </trkpt>
      <trkpt lat="45.11386" lon="5.53385">
        <ele>960.7</ele>
        <time>2020-08-23T08:06:56Z</time>
      </trkpt>
      <trkpt lat="45.11399" lon="5.53397">
        <ele>960</ele>
        <time>2020-08-23T08:07:01Z</time>
      </trkpt>
      <trkpt lat="45.11402" lon="5.534">
        <ele>959.9</ele>
        <time>2020-08-23T08:07:02Z</time>
      </trkpt>
      <trkpt lat="45.11422" lon="5.5341">
        <ele>959</ele>
        <time>2020-08-23T08:07:08Z</time>
      </trkpt>
      <trkpt lat="45.11428" lon="5.53413">
        <ele>958.9</ele>
        <time>2020-08-23T08:07:10Z</time>
      </trkpt>
      <trkpt lat="45.11446" lon="5.53419">
        <ele>959</ele>
        <time>2020-08-23T08:07:15Z</time>
      </trkpt>
      <trkpt lat="45.11449" lon="5.53419">
        <ele>959.1</ele>
        <time>2020-08-23T08:07:16Z</time>
      </trkpt>
      <trkpt lat="45.1148" lon="5.53421">
        <ele>958.9</ele>
        <time>2020-08-23T08:07:24Z</time>
      </trkpt>
      <trkpt lat="45.11483" lon="5.53421">
        <ele>958.7</ele>
        <time>2020-08-23T08:07:25Z</time>
      </trkpt>
      <trkpt lat="45.11502" lon="5.53411">
        <ele>958.1</ele>
        <time>2020-08-23T08:07:30Z</time>
      </trkpt>
      <trkpt lat="45.11504" lon="5.53407">
        <ele>958.2</ele>
        <time>2020-08-23T08:07:31Z</time>
      </trkpt>
      <trkpt lat="45.11525" lon="5.53382">
        <ele>958.9</ele>
        <time>2020-08-23T08:07:38Z</time>
      </trkpt>
      <trkpt lat="45.11532" lon="5.53376">
        <ele>959.1</ele>
        <time>2020-08-23T08:07:40Z</time>
      </trkpt>
      <trkpt lat="45.11543" lon="5.53373">
        <ele>959.5</ele>
        <time>2020-08-23T08:07:43Z</time>
      </trkpt>
      <trkpt lat="45.11558" lon="5.53379">
        <ele>960.1</ele>
        <time>2020-08-23T08:07:47Z</time>
      </trkpt>
      <trkpt lat="45.11561" lon="5.5338">
        <ele>960.2</ele>
        <time>2020-08-23T08:07:48Z</time>
      </trkpt>
      <trkpt lat="45.11588" lon="5.53391">
        <ele>961</ele>
        <time>2020-08-23T08:07:55Z</time>
      </trkpt>
      <trkpt lat="45.11595" lon="5.53394">
        <ele>961</ele>
        <time>2020-08-23T08:07:57Z</time>
      </trkpt>
      <trkpt lat="45.1162" lon="5.53409">
        <ele>961</ele>
        <time>2020-08-23T08:08:04Z</time>
      </trkpt>
      <trkpt lat="45.11626" lon="5.53415">
        <ele>961</ele>
        <time>2020-08-23T08:08:06Z</time>
      </trkpt>
      <trkpt lat="45.11629" lon="5.53418">
        <ele>961</ele>
        <time>2020-08-23T08:08:07Z</time>
      </trkpt>
      <trkpt lat="45.11645" lon="5.53435">
        <ele>960.5</ele>
        <time>2020-08-23T08:08:12Z</time>
      </trkpt>
      <trkpt lat="45.11648" lon="5.53439">
        <ele>960.3</ele>
        <time>2020-08-23T08:08:13Z</time>
      </trkpt>
      <trkpt lat="45.11652" lon="5.53442">
        <ele>960.1</ele>
        <time>2020-08-23T08:08:14Z</time>
      </trkpt>
      <trkpt lat="45.11655" lon="5.53445">
        <ele>959.9</ele>
        <time>2020-08-23T08:08:15Z</time>
      </trkpt>
      <trkpt lat="45.11676" lon="5.53459">
        <ele>959.3</ele>
        <time>2020-08-23T08:08:21Z</time>
      </trkpt>
      <trkpt lat="45.11681" lon="5.5346">
        <ele>959.4</ele>
        <time>2020-08-23T08:08:22Z</time>
      </trkpt>
      <trkpt lat="45.11684" lon="5.53461">
        <ele>959.5</ele>
        <time>2020-08-23T08:08:23Z</time>
      </trkpt>
      <trkpt lat="45.11689" lon="5.53461">
        <ele>959.7</ele>
        <time>2020-08-23T08:08:24Z</time>
      </trkpt>
      <trkpt lat="45.11693" lon="5.53462">
        <ele>959.8</ele>
        <time>2020-08-23T08:08:25Z</time>
      </trkpt>
      <trkpt lat="45.11697" lon="5.53462">
        <ele>960</ele>
        <time>2020-08-23T08:08:26Z</time>
      </trkpt>
      <trkpt lat="45.11709" lon="5.53462">
        <ele>960.4</ele>
        <time>2020-08-23T08:08:29Z</time>
      </trkpt>
      <trkpt lat="45.11713" lon="5.53462">
        <ele>960.6</ele>
        <time>2020-08-23T08:08:30Z</time>
      </trkpt>
      <trkpt lat="45.11733" lon="5.53469">
        <ele>961.3</ele>
        <time>2020-08-23T08:08:35Z</time>
      </trkpt>
      <trkpt lat="45.11737" lon="5.53471">
        <ele>961.4</ele>
        <time>2020-08-23T08:08:36Z</time>
      </trkpt>
      <trkpt lat="45.11743" lon="5.53478">
        <ele>961.7</ele>
        <time>2020-08-23T08:08:38Z</time>
      </trkpt>
      <trkpt lat="45.11746" lon="5.53482">
        <ele>961.8</ele>
        <time>2020-08-23T08:08:39Z</time>
      </trkpt>
      <trkpt lat="45.1177" lon="5.5352">
        <ele>963.1</ele>
        <time>2020-08-23T08:08:48Z</time>
      </trkpt>
      <trkpt lat="45.11773" lon="5.53524">
        <ele>963.2</ele>
        <time>2020-08-23T08:08:49Z</time>
      </trkpt>
      <trkpt lat="45.11778" lon="5.53532">
        <ele>963.5</ele>
        <time>2020-08-23T08:08:51Z</time>
      </trkpt>
      <trkpt lat="45.11781" lon="5.53536">
        <ele>963.6</ele>
        <time>2020-08-23T08:08:52Z</time>
      </trkpt>
      <trkpt lat="45.11794" lon="5.53557">
        <ele>964.1</ele>
        <time>2020-08-23T08:08:57Z</time>
      </trkpt>
      <trkpt lat="45.11797" lon="5.53561">
        <ele>964.2</ele>
        <time>2020-08-23T08:08:58Z</time>
      </trkpt>
      <trkpt lat="45.11803" lon="5.53569">
        <ele>964.3</ele>
        <time>2020-08-23T08:09:00Z</time>
      </trkpt>
      <trkpt lat="45.11805" lon="5.53573">
        <ele>964.4</ele>
        <time>2020-08-23T08:09:01Z</time>
      </trkpt>
      <trkpt lat="45.11808" lon="5.53578">
        <ele>964.4</ele>
        <time>2020-08-23T08:09:02Z</time>
      </trkpt>
      <trkpt lat="45.11811" lon="5.53582">
        <ele>964.5</ele>
        <time>2020-08-23T08:09:03Z</time>
      </trkpt>
      <trkpt lat="45.11831" lon="5.53613">
        <ele>966.4</ele>
        <time>2020-08-23T08:09:11Z</time>
      </trkpt>
      <trkpt lat="45.11833" lon="5.53616">
        <ele>966.6</ele>
        <time>2020-08-23T08:09:12Z</time>
      </trkpt>
      <trkpt lat="45.11838" lon="5.53624">
        <ele>967</ele>
        <time>2020-08-23T08:09:14Z</time>
      </trkpt>
      <trkpt lat="45.1184" lon="5.53628">
        <ele>967.3</ele>
        <time>2020-08-23T08:09:15Z</time>
      </trkpt>
      <trkpt lat="45.11863" lon="5.53659">
        <ele>969.3</ele>
        <time>2020-08-23T08:09:24Z</time>
      </trkpt>
      <trkpt lat="45.11865" lon="5.53663">
        <ele>969.6</ele>
        <time>2020-08-23T08:09:25Z</time>
      </trkpt>
      <trkpt lat="45.11868" lon="5.53666">
        <ele>969.8</ele>
        <time>2020-08-23T08:09:26Z</time>
      </trkpt>
      <trkpt lat="45.1187" lon="5.53669">
        <ele>970</ele>
        <time>2020-08-23T08:09:27Z</time>
      </trkpt>
      <trkpt lat="45.1189" lon="5.53686">
        <ele>971</ele>
        <time>2020-08-23T08:09:35Z</time>
      </trkpt>
      <trkpt lat="45.11892" lon="5.53688">
        <ele>971.1</ele>
        <time>2020-08-23T08:09:36Z</time>
      </trkpt>
      <trkpt lat="45.11895" lon="5.53691">
        <ele>971.2</ele>
        <time>2020-08-23T08:09:37Z</time>
      </trkpt>
      <trkpt lat="45.11897" lon="5.53693">
        <ele>971.3</ele>
        <time>2020-08-23T08:09:38Z</time>
      </trkpt>
      <trkpt lat="45.11914" lon="5.53714">
        <ele>972.1</ele>
        <time>2020-08-23T08:09:46Z</time>
      </trkpt>
      <trkpt lat="45.11916" lon="5.53715">
        <ele>972.2</ele>
        <time>2020-08-23T08:09:47Z</time>
      </trkpt>
      <trkpt lat="45.11918" lon="5.53717">
        <ele>972.2</ele>
        <time>2020-08-23T08:09:48Z</time>
      </trkpt>
      <trkpt lat="45.11919" lon="5.53719">
        <ele>972.3</ele>
        <time>2020-08-23T08:09:49Z</time>
      </trkpt>
      <trkpt lat="45.11933" lon="5.53736">
        <ele>972.6</ele>
        <time>2020-08-23T08:09:57Z</time>
      </trkpt>
      <trkpt lat="45.11935" lon="5.53737">
        <ele>972.7</ele>
        <time>2020-08-23T08:09:58Z</time>
      </trkpt>
      <trkpt lat="45.1194" lon="5.5374">
        <ele>972.7</ele>
        <time>2020-08-23T08:10:00Z</time>
      </trkpt>
      <trkpt lat="45.11943" lon="5.53741">
        <ele>972.8</ele>
        <time>2020-08-23T08:10:01Z</time>
      </trkpt>
      <trkpt lat="45.11955" lon="5.5375">
        <ele>973</ele>
        <time>2020-08-23T08:10:07Z</time>
      </trkpt>
      <trkpt lat="45.11957" lon="5.53752">
        <ele>973</ele>
        <time>2020-08-23T08:10:08Z</time>
      </trkpt>
      <trkpt lat="45.11961" lon="5.53756">
        <ele>973</ele>
        <time>2020-08-23T08:10:10Z</time>
      </trkpt>
      <trkpt lat="45.11963" lon="5.53758">
        <ele>973</ele>
        <time>2020-08-23T08:10:11Z</time>
      </trkpt>
      <trkpt lat="45.11978" lon="5.53772">
        <ele>973.3</ele>
        <time>2020-08-23T08:10:20Z</time>
      </trkpt>
      <trkpt lat="45.1198" lon="5.53774">
        <ele>973.3</ele>
        <time>2020-08-23T08:10:21Z</time>
      </trkpt>
      <trkpt lat="45.11985" lon="5.53779">
        <ele>973.5</ele>
        <time>2020-08-23T08:10:24Z</time>
      </trkpt>
      <trkpt lat="45.11988" lon="5.5378">
        <ele>973.5</ele>
        <time>2020-08-23T08:10:25Z</time>
      </trkpt>
      <trkpt lat="45.12013" lon="5.53794">
        <ele>974.3</ele>
        <time>2020-08-23T08:10:37Z</time>
      </trkpt>
      <trkpt lat="45.12015" lon="5.53795">
        <ele>974.4</ele>
        <time>2020-08-23T08:10:38Z</time>
      </trkpt>
      <trkpt lat="45.1202" lon="5.53797">
        <ele>974.5</ele>
        <time>2020-08-23T08:10:40Z</time>
      </trkpt>
      <trkpt lat="45.12022" lon="5.53799">
        <ele>974.6</ele>
        <time>2020-08-23T08:10:41Z</time>
      </trkpt>
      <trkpt lat="45.12044" lon="5.53807">
        <ele>975.4</ele>
        <time>2020-08-23T08:10:50Z</time>
      </trkpt>
      <trkpt lat="45.12046" lon="5.53807">
        <ele>975.5</ele>
        <time>2020-08-23T08:10:51Z</time>
      </trkpt>
      <trkpt lat="45.12054" lon="5.53808">
        <ele>975.7</ele>
        <time>2020-08-23T08:10:54Z</time>
      </trkpt>
      <trkpt lat="45.12056" lon="5.53808">
        <ele>975.8</ele>
        <time>2020-08-23T08:10:55Z</time>
      </trkpt>
      <trkpt lat="45.12069" lon="5.53809">
        <ele>976.2</ele>
        <time>2020-08-23T08:11:00Z</time>
      </trkpt>
      <trkpt lat="45.12072" lon="5.5381">
        <ele>976.3</ele>
        <time>2020-08-23T08:11:01Z</time>
      </trkpt>
      <trkpt lat="45.12127" lon="5.53815">
        <ele>972.3</ele>
        <time>2020-08-23T08:11:18Z</time>
      </trkpt>
      <trkpt lat="45.12131" lon="5.53816">
        <ele>971.9</ele>
        <time>2020-08-23T08:11:19Z</time>
      </trkpt>
      <trkpt lat="45.12145" lon="5.5382">
        <ele>970.6</ele>
        <time>2020-08-23T08:11:23Z</time>
      </trkpt>
      <trkpt lat="45.12149" lon="5.53821">
        <ele>970.3</ele>
        <time>2020-08-23T08:11:24Z</time>
      </trkpt>
      <trkpt lat="45.12186" lon="5.53826">
        <ele>969.5</ele>
        <time>2020-08-23T08:11:34Z</time>
      </trkpt>
      <trkpt lat="45.12191" lon="5.53826">
        <ele>969.7</ele>
        <time>2020-08-23T08:11:35Z</time>
      </trkpt>
      <trkpt lat="45.1221" lon="5.53827">
        <ele>970.7</ele>
        <time>2020-08-23T08:11:40Z</time>
      </trkpt>
      <trkpt lat="45.12214" lon="5.53827">
        <ele>970.9</ele>
        <time>2020-08-23T08:11:41Z</time>
      </trkpt>
      <trkpt lat="45.12292" lon="5.53862">
        <ele>978.3</ele>
        <time>2020-08-23T08:12:08Z</time>
      </trkpt>
      <trkpt lat="45.12294" lon="5.53864">
        <ele>978.6</ele>
        <time>2020-08-23T08:12:09Z</time>
      </trkpt>
      <trkpt lat="45.12377" lon="5.53855">
        <ele>986.3</ele>
        <time>2020-08-23T08:12:51Z</time>
      </trkpt>
      <trkpt lat="45.1238" lon="5.53855">
        <ele>986.5</ele>
        <time>2020-08-23T08:12:52Z</time>
      </trkpt>
      <trkpt lat="45.12417" lon="5.53845">
        <ele>989.9</ele>
        <time>2020-08-23T08:13:05Z</time>
      </trkpt>
      <trkpt lat="45.1242" lon="5.53844">
        <ele>989.9</ele>
        <time>2020-08-23T08:13:06Z</time>
      </trkpt>
      <trkpt lat="45.12596" lon="5.53823">
        <ele>988.3</ele>
        <time>2020-08-23T08:13:58Z</time>
      </trkpt>
      <trkpt lat="45.12599" lon="5.53821">
        <ele>988</ele>
        <time>2020-08-23T08:13:59Z</time>
      </trkpt>
      <trkpt lat="45.1262" lon="5.53806">
        <ele>986</ele>
        <time>2020-08-23T08:14:05Z</time>
      </trkpt>
      <trkpt lat="45.12624" lon="5.53803">
        <ele>985.7</ele>
        <time>2020-08-23T08:14:06Z</time>
      </trkpt>
      <trkpt lat="45.12627" lon="5.53801">
        <ele>985.5</ele>
        <time>2020-08-23T08:14:07Z</time>
      </trkpt>
      <trkpt lat="45.12631" lon="5.53799">
        <ele>985.3</ele>
        <time>2020-08-23T08:14:08Z</time>
      </trkpt>
      <trkpt lat="45.12645" lon="5.5379">
        <ele>984.6</ele>
        <time>2020-08-23T08:14:12Z</time>
      </trkpt>
      <trkpt lat="45.12648" lon="5.53788">
        <ele>984.4</ele>
        <time>2020-08-23T08:14:13Z</time>
      </trkpt>
      <trkpt lat="45.12671" lon="5.53776">
        <ele>984.3</ele>
        <time>2020-08-23T08:14:20Z</time>
      </trkpt>
      <trkpt lat="45.12674" lon="5.53774">
        <ele>984.5</ele>
        <time>2020-08-23T08:14:21Z</time>
      </trkpt>
      <trkpt lat="45.12687" lon="5.53767">
        <ele>985.5</ele>
        <time>2020-08-23T08:14:25Z</time>
      </trkpt>
      <trkpt lat="45.1269" lon="5.53765">
        <ele>985.7</ele>
        <time>2020-08-23T08:14:26Z</time>
      </trkpt>
      <trkpt lat="45.1271" lon="5.53754">
        <ele>987.4</ele>
        <time>2020-08-23T08:14:32Z</time>
      </trkpt>
      <trkpt lat="45.12713" lon="5.53753">
        <ele>987.6</ele>
        <time>2020-08-23T08:14:33Z</time>
      </trkpt>
      <trkpt lat="45.12768" lon="5.53742">
        <ele>989.9</ele>
        <time>2020-08-23T08:14:54Z</time>
      </trkpt>
      <trkpt lat="45.1277" lon="5.53742">
        <ele>989.9</ele>
        <time>2020-08-23T08:14:55Z</time>
      </trkpt>
      <trkpt lat="45.12776" lon="5.53742">
        <ele>990</ele>
        <time>2020-08-23T08:14:58Z</time>
      </trkpt>
      <trkpt lat="45.12778" lon="5.53742">
        <ele>990</ele>
        <time>2020-08-23T08:14:59Z</time>
      </trkpt>
      <trkpt lat="45.12807" lon="5.53734">
        <ele>989.6</ele>
        <time>2020-08-23T08:15:13Z</time>
      </trkpt>
      <trkpt lat="45.12809" lon="5.53734">
        <ele>989.7</ele>
        <time>2020-08-23T08:15:14Z</time>
      </trkpt>
      <trkpt lat="45.12819" lon="5.53736">
        <ele>989.8</ele>
        <time>2020-08-23T08:15:18Z</time>
      </trkpt>
      <trkpt lat="45.12822" lon="5.53736">
        <ele>989.8</ele>
        <time>2020-08-23T08:15:19Z</time>
      </trkpt>
      <trkpt lat="45.12873" lon="5.53756">
        <ele>992.1</ele>
        <time>2020-08-23T08:15:39Z</time>
      </trkpt>
      <trkpt lat="45.12876" lon="5.53757">
        <ele>992.2</ele>
        <time>2020-08-23T08:15:40Z</time>
      </trkpt>
      <trkpt lat="45.12884" lon="5.53762">
        <ele>992.3</ele>
        <time>2020-08-23T08:15:43Z</time>
      </trkpt>
      <trkpt lat="45.12886" lon="5.53763">
        <ele>992.4</ele>
        <time>2020-08-23T08:15:44Z</time>
      </trkpt>
      <trkpt lat="45.12909" lon="5.53777">
        <ele>993</ele>
        <time>2020-08-23T08:15:53Z</time>
      </trkpt>
      <trkpt lat="45.12912" lon="5.53778">
        <ele>993.1</ele>
        <time>2020-08-23T08:15:54Z</time>
      </trkpt>
      <trkpt lat="45.12917" lon="5.53781">
        <ele>993.3</ele>
        <time>2020-08-23T08:15:56Z</time>
      </trkpt>
      <trkpt lat="45.12919" lon="5.53783">
        <ele>993.4</ele>
        <time>2020-08-23T08:15:57Z</time>
      </trkpt>
      <trkpt lat="45.12946" lon="5.53799">
        <ele>995.3</ele>
        <time>2020-08-23T08:16:08Z</time>
      </trkpt>
      <trkpt lat="45.12948" lon="5.538">
        <ele>995.5</ele>
        <time>2020-08-23T08:16:09Z</time>
      </trkpt>
      <trkpt lat="45.12954" lon="5.53804">
        <ele>996.3</ele>
        <time>2020-08-23T08:16:12Z</time>
      </trkpt>
      <trkpt lat="45.12957" lon="5.53805">
        <ele>996.6</ele>
        <time>2020-08-23T08:16:13Z</time>
      </trkpt>
      <trkpt lat="45.12959" lon="5.53806">
        <ele>996.9</ele>
        <time>2020-08-23T08:16:14Z</time>
      </trkpt>
      <trkpt lat="45.12962" lon="5.53807">
        <ele>997.3</ele>
        <time>2020-08-23T08:16:15Z</time>
      </trkpt>
      <trkpt lat="45.1298" lon="5.53818">
        <ele>1000.3</ele>
        <time>2020-08-23T08:16:23Z</time>
      </trkpt>
      <trkpt lat="45.12983" lon="5.5382">
        <ele>1000.8</ele>
        <time>2020-08-23T08:16:24Z</time>
      </trkpt>
      <trkpt lat="45.12987" lon="5.53823">
        <ele>1001.8</ele>
        <time>2020-08-23T08:16:26Z</time>
      </trkpt>
      <trkpt lat="45.1299" lon="5.53824">
        <ele>1002.3</ele>
        <time>2020-08-23T08:16:27Z</time>
      </trkpt>
      <trkpt lat="45.13013" lon="5.5384">
        <ele>1005.1</ele>
        <time>2020-08-23T08:16:38Z</time>
      </trkpt>
      <trkpt lat="45.13015" lon="5.53842">
        <ele>1005.1</ele>
        <time>2020-08-23T08:16:39Z</time>
      </trkpt>
      <trkpt lat="45.13018" lon="5.53843">
        <ele>1005.2</ele>
        <time>2020-08-23T08:16:40Z</time>
      </trkpt>
      <trkpt lat="45.1302" lon="5.53844">
        <ele>1005.2</ele>
        <time>2020-08-23T08:16:41Z</time>
      </trkpt>
      <trkpt lat="45.13039" lon="5.53857">
        <ele>1005.8</ele>
        <time>2020-08-23T08:16:51Z</time>
      </trkpt>
      <trkpt lat="45.1304" lon="5.53858">
        <ele>1005.8</ele>
        <time>2020-08-23T08:16:52Z</time>
      </trkpt>
      <trkpt lat="45.13044" lon="5.53861">
        <ele>1006</ele>
        <time>2020-08-23T08:16:54Z</time>
      </trkpt>
      <trkpt lat="45.13046" lon="5.53862">
        <ele>1006.1</ele>
        <time>2020-08-23T08:16:55Z</time>
      </trkpt>
      <trkpt lat="45.13071" lon="5.53872">
        <ele>1008.2</ele>
        <time>2020-08-23T08:17:08Z</time>
      </trkpt>
      <trkpt lat="45.13073" lon="5.53873">
        <ele>1008.4</ele>
        <time>2020-08-23T08:17:09Z</time>
      </trkpt>
      <trkpt lat="45.13084" lon="5.53874">
        <ele>1009.5</ele>
        <time>2020-08-23T08:17:14Z</time>
      </trkpt>
      <trkpt lat="45.13086" lon="5.53874">
        <ele>1009.7</ele>
        <time>2020-08-23T08:17:15Z</time>
      </trkpt>
      <trkpt lat="45.13124" lon="5.53872">
        <ele>1013.3</ele>
        <time>2020-08-23T08:17:34Z</time>
      </trkpt>
      <trkpt lat="45.13126" lon="5.53872">
        <ele>1013.5</ele>
        <time>2020-08-23T08:17:35Z</time>
      </trkpt>
      <trkpt lat="45.13136" lon="5.53873">
        <ele>1014.5</ele>
        <time>2020-08-23T08:17:39Z</time>
      </trkpt>
      <trkpt lat="45.13139" lon="5.53876">
        <ele>1014.8</ele>
        <time>2020-08-23T08:17:40Z</time>
      </trkpt>
      <trkpt lat="45.1315" lon="5.53966">
        <ele>1011.9</ele>
        <time>2020-08-23T08:17:51Z</time>
      </trkpt>
      <trkpt lat="45.13151" lon="5.53977">
        <ele>1011.2</ele>
        <time>2020-08-23T08:17:52Z</time>
      </trkpt>
      <trkpt lat="45.13153" lon="5.53987">
        <ele>1010.4</ele>
        <time>2020-08-23T08:17:53Z</time>
      </trkpt>
      <trkpt lat="45.13154" lon="5.53999">
        <ele>1009.6</ele>
        <time>2020-08-23T08:17:54Z</time>
      </trkpt>
      <trkpt lat="45.13158" lon="5.54021">
        <ele>1008.7</ele>
        <time>2020-08-23T08:17:56Z</time>
      </trkpt>
      <trkpt lat="45.1316" lon="5.54032">
        <ele>1008.4</ele>
        <time>2020-08-23T08:17:57Z</time>
      </trkpt>
      <trkpt lat="45.13163" lon="5.54042">
        <ele>1008.1</ele>
        <time>2020-08-23T08:17:58Z</time>
      </trkpt>
      <trkpt lat="45.13166" lon="5.54052">
        <ele>1007.8</ele>
        <time>2020-08-23T08:17:59Z</time>
      </trkpt>
      <trkpt lat="45.13185" lon="5.54099">
        <ele>1005.8</ele>
        <time>2020-08-23T08:18:04Z</time>
      </trkpt>
      <trkpt lat="45.13189" lon="5.54108">
        <ele>1005.5</ele>
        <time>2020-08-23T08:18:05Z</time>
      </trkpt>
      <trkpt lat="45.13193" lon="5.54116">
        <ele>1005.2</ele>
        <time>2020-08-23T08:18:06Z</time>
      </trkpt>
      <trkpt lat="45.13196" lon="5.54124">
        <ele>1004.9</ele>
        <time>2020-08-23T08:18:07Z</time>
      </trkpt>
      <trkpt lat="45.13199" lon="5.54131">
        <ele>1004.7</ele>
        <time>2020-08-23T08:18:08Z</time>
      </trkpt>
      <trkpt lat="45.13202" lon="5.54138">
        <ele>1004.6</ele>
        <time>2020-08-23T08:18:09Z</time>
      </trkpt>
      <trkpt lat="45.13211" lon="5.54158">
        <ele>1004.3</ele>
        <time>2020-08-23T08:18:12Z</time>
      </trkpt>
      <trkpt lat="45.13213" lon="5.54163">
        <ele>1004.3</ele>
        <time>2020-08-23T08:18:13Z</time>
      </trkpt>
      <trkpt lat="45.13237" lon="5.54213">
        <ele>1007.3</ele>
        <time>2020-08-23T08:18:23Z</time>
      </trkpt>
      <trkpt lat="45.13254" lon="5.54233">
        <ele>1008.1</ele>
        <time>2020-08-23T08:18:28Z</time>
      </trkpt>
      <trkpt lat="45.13258" lon="5.54235">
        <ele>1008</ele>
        <time>2020-08-23T08:18:29Z</time>
      </trkpt>
      <trkpt lat="45.13298" lon="5.54237">
        <ele>1007.1</ele>
        <time>2020-08-23T08:18:37Z</time>
      </trkpt>
      <trkpt lat="45.13303" lon="5.54237">
        <ele>1007</ele>
        <time>2020-08-23T08:18:38Z</time>
      </trkpt>
      <trkpt lat="45.1335" lon="5.54238">
        <ele>1006.4</ele>
        <time>2020-08-23T08:18:49Z</time>
      </trkpt>
      <trkpt lat="45.13354" lon="5.54239">
        <ele>1006.4</ele>
        <time>2020-08-23T08:18:50Z</time>
      </trkpt>
      <trkpt lat="45.13361" lon="5.5424">
        <ele>1006.3</ele>
        <time>2020-08-23T08:18:52Z</time>
      </trkpt>
      <trkpt lat="45.13364" lon="5.54241">
        <ele>1006.3</ele>
        <time>2020-08-23T08:18:53Z</time>
      </trkpt>
      <trkpt lat="45.13411" lon="5.54254">
        <ele>1004.9</ele>
        <time>2020-08-23T08:19:06Z</time>
      </trkpt>
      <trkpt lat="45.13414" lon="5.54256">
        <ele>1004.9</ele>
        <time>2020-08-23T08:19:07Z</time>
      </trkpt>
      <trkpt lat="45.13417" lon="5.54258">
        <ele>1004.9</ele>
        <time>2020-08-23T08:19:08Z</time>
      </trkpt>
      <trkpt lat="45.1342" lon="5.54259">
        <ele>1005.3</ele>
        <time>2020-08-23T08:19:09Z</time>
      </trkpt>
      <trkpt lat="45.13446" lon="5.54276">
        <ele>1007.9</ele>
        <time>2020-08-23T08:19:17Z</time>
      </trkpt>
      <trkpt lat="45.13449" lon="5.54279">
        <ele>1008.2</ele>
        <time>2020-08-23T08:19:18Z</time>
      </trkpt>
      <trkpt lat="45.1346" lon="5.54289">
        <ele>1008.8</ele>
        <time>2020-08-23T08:19:22Z</time>
      </trkpt>
      <trkpt lat="45.13462" lon="5.54292">
        <ele>1008.9</ele>
        <time>2020-08-23T08:19:23Z</time>
      </trkpt>
      <trkpt lat="45.13468" lon="5.54297">
        <ele>1009.2</ele>
        <time>2020-08-23T08:19:25Z</time>
      </trkpt>
      <trkpt lat="45.13471" lon="5.543">
        <ele>1009.3</ele>
        <time>2020-08-23T08:19:26Z</time>
      </trkpt>
      <trkpt lat="45.13501" lon="5.54313">
        <ele>1011</ele>
        <time>2020-08-23T08:19:36Z</time>
      </trkpt>
      <trkpt lat="45.1351" lon="5.54312">
        <ele>1011.7</ele>
        <time>2020-08-23T08:19:39Z</time>
      </trkpt>
      <trkpt lat="45.13543" lon="5.54315">
        <ele>1013.1</ele>
        <time>2020-08-23T08:19:50Z</time>
      </trkpt>
      <trkpt lat="45.1356" lon="5.54329">
        <ele>1012.4</ele>
        <time>2020-08-23T08:19:56Z</time>
      </trkpt>
      <trkpt lat="45.13563" lon="5.54332">
        <ele>1012.1</ele>
        <time>2020-08-23T08:19:57Z</time>
      </trkpt>
      <trkpt lat="45.13609" lon="5.54375">
        <ele>1015.3</ele>
        <time>2020-08-23T08:20:13Z</time>
      </trkpt>
      <trkpt lat="45.13612" lon="5.54378">
        <ele>1015.6</ele>
        <time>2020-08-23T08:20:14Z</time>
      </trkpt>
      <trkpt lat="45.13617" lon="5.54383">
        <ele>1016.1</ele>
        <time>2020-08-23T08:20:16Z</time>
      </trkpt>
      <trkpt lat="45.1362" lon="5.54385">
        <ele>1016.4</ele>
        <time>2020-08-23T08:20:17Z</time>
      </trkpt>
      <trkpt lat="45.13642" lon="5.54405">
        <ele>1017.9</ele>
        <time>2020-08-23T08:20:25Z</time>
      </trkpt>
      <trkpt lat="45.13645" lon="5.54408">
        <ele>1018</ele>
        <time>2020-08-23T08:20:26Z</time>
      </trkpt>
      <trkpt lat="45.13733" lon="5.54458">
        <ele>1017.6</ele>
        <time>2020-08-23T08:20:55Z</time>
      </trkpt>
      <trkpt lat="45.13736" lon="5.54459">
        <ele>1017.5</ele>
        <time>2020-08-23T08:20:56Z</time>
      </trkpt>
      <trkpt lat="45.13749" lon="5.54465">
        <ele>1016.9</ele>
        <time>2020-08-23T08:21:00Z</time>
      </trkpt>
      <trkpt lat="45.13752" lon="5.54467">
        <ele>1016.9</ele>
        <time>2020-08-23T08:21:01Z</time>
      </trkpt>
      <trkpt lat="45.13792" lon="5.5449">
        <ele>1018.8</ele>
        <time>2020-08-23T08:21:15Z</time>
      </trkpt>
      <trkpt lat="45.13795" lon="5.5449">
        <ele>1019.1</ele>
        <time>2020-08-23T08:21:16Z</time>
      </trkpt>
      <trkpt lat="45.13824" lon="5.54493">
        <ele>1021.9</ele>
        <time>2020-08-23T08:21:26Z</time>
      </trkpt>
      <trkpt lat="45.13827" lon="5.54493">
        <ele>1022.2</ele>
        <time>2020-08-23T08:21:27Z</time>
      </trkpt>
      <trkpt lat="45.13829" lon="5.54493">
        <ele>1022.4</ele>
        <time>2020-08-23T08:21:28Z</time>
      </trkpt>
      <trkpt lat="45.13832" lon="5.54493">
        <ele>1022.7</ele>
        <time>2020-08-23T08:21:29Z</time>
      </trkpt>
      <trkpt lat="45.13846" lon="5.54493">
        <ele>1023.7</ele>
        <time>2020-08-23T08:21:34Z</time>
      </trkpt>
      <trkpt lat="45.13848" lon="5.54493">
        <ele>1023.9</ele>
        <time>2020-08-23T08:21:35Z</time>
      </trkpt>
      <trkpt lat="45.13851" lon="5.54494">
        <ele>1024.1</ele>
        <time>2020-08-23T08:21:36Z</time>
      </trkpt>
      <trkpt lat="45.13854" lon="5.54494">
        <ele>1024.3</ele>
        <time>2020-08-23T08:21:37Z</time>
      </trkpt>
      <trkpt lat="45.13875" lon="5.54495">
        <ele>1025.7</ele>
        <time>2020-08-23T08:21:45Z</time>
      </trkpt>
      <trkpt lat="45.13877" lon="5.54495">
        <ele>1025.8</ele>
        <time>2020-08-23T08:21:46Z</time>
      </trkpt>
      <trkpt lat="45.13896" lon="5.54497">
        <ele>1027</ele>
        <time>2020-08-23T08:21:54Z</time>
      </trkpt>
      <trkpt lat="45.13899" lon="5.54497">
        <ele>1027.1</ele>
        <time>2020-08-23T08:21:55Z</time>
      </trkpt>
      <trkpt lat="45.13908" lon="5.54497">
        <ele>1027.7</ele>
        <time>2020-08-23T08:21:59Z</time>
      </trkpt>
      <trkpt lat="45.1391" lon="5.54497">
        <ele>1027.8</ele>
        <time>2020-08-23T08:22:00Z</time>
      </trkpt>
      <trkpt lat="45.1393" lon="5.545">
        <ele>1028.3</ele>
        <time>2020-08-23T08:22:09Z</time>
      </trkpt>
      <trkpt lat="45.13941" lon="5.54518">
        <ele>1028.3</ele>
        <time>2020-08-23T08:22:19Z</time>
      </trkpt>
      <trkpt lat="45.13942" lon="5.5452">
        <ele>1028.3</ele>
        <time>2020-08-23T08:22:20Z</time>
      </trkpt>
      <trkpt lat="45.13944" lon="5.54535">
        <ele>1028.1</ele>
        <time>2020-08-23T08:22:26Z</time>
      </trkpt>
      <trkpt lat="45.13944" lon="5.54538">
        <ele>1028.1</ele>
        <time>2020-08-23T08:22:27Z</time>
      </trkpt>
      <trkpt lat="45.13947" lon="5.54555">
        <ele>1027.8</ele>
        <time>2020-08-23T08:31:14Z</time>
      </trkpt>
      <trkpt lat="45.13954" lon="5.54571">
        <ele>1027.4</ele>
        <time>2020-08-23T08:31:21Z</time>
      </trkpt>
      <trkpt lat="45.13954" lon="5.54573">
        <ele>1027.3</ele>
        <time>2020-08-23T08:31:22Z</time>
      </trkpt>
      <trkpt lat="45.13955" lon="5.54578">
        <ele>1027.2</ele>
        <time>2020-08-23T08:31:24Z</time>
      </trkpt>
      <trkpt lat="45.13956" lon="5.5458">
        <ele>1027.1</ele>
        <time>2020-08-23T08:31:25Z</time>
      </trkpt>
      <trkpt lat="45.13965" lon="5.54604">
        <ele>1029.1</ele>
        <time>2020-08-23T08:31:35Z</time>
      </trkpt>
      <trkpt lat="45.13965" lon="5.54607">
        <ele>1029.4</ele>
        <time>2020-08-23T08:31:36Z</time>
      </trkpt>
      <trkpt lat="45.13956" lon="5.54636">
        <ele>1032.7</ele>
        <time>2020-08-23T08:31:47Z</time>
      </trkpt>
      <trkpt lat="45.13955" lon="5.54638">
        <ele>1032.9</ele>
        <time>2020-08-23T08:31:48Z</time>
      </trkpt>
      <trkpt lat="45.13947" lon="5.54663">
        <ele>1035.3</ele>
        <time>2020-08-23T08:31:59Z</time>
      </trkpt>
      <trkpt lat="45.13946" lon="5.54665">
        <ele>1035.5</ele>
        <time>2020-08-23T08:32:00Z</time>
      </trkpt>
      <trkpt lat="45.1394" lon="5.54678">
        <ele>1036.7</ele>
        <time>2020-08-23T08:32:07Z</time>
      </trkpt>
      <trkpt lat="45.1394" lon="5.5468">
        <ele>1036.9</ele>
        <time>2020-08-23T08:32:08Z</time>
      </trkpt>
      <trkpt lat="45.13939" lon="5.54684">
        <ele>1037.2</ele>
        <time>2020-08-23T08:32:10Z</time>
      </trkpt>
      <trkpt lat="45.13938" lon="5.54686">
        <ele>1037.4</ele>
        <time>2020-08-23T08:32:11Z</time>
      </trkpt>
      <trkpt lat="45.13926" lon="5.54708">
        <ele>1039.7</ele>
        <time>2020-08-23T08:32:24Z</time>
      </trkpt>
      <trkpt lat="45.13925" lon="5.54709">
        <ele>1039.9</ele>
        <time>2020-08-23T08:32:25Z</time>
      </trkpt>
      <trkpt lat="45.13924" lon="5.5471">
        <ele>1040.1</ele>
        <time>2020-08-23T08:32:26Z</time>
      </trkpt>
      <trkpt lat="45.13919" lon="5.54715">
        <ele>1040.8</ele>
        <time>2020-08-23T08:32:30Z</time>
      </trkpt>
      <trkpt lat="45.13918" lon="5.54716">
        <ele>1040.9</ele>
        <time>2020-08-23T08:32:31Z</time>
      </trkpt>
      <trkpt lat="45.13884" lon="5.54746">
        <ele>1047.7</ele>
        <time>2020-08-23T08:32:55Z</time>
      </trkpt>
      <trkpt lat="45.13882" lon="5.54747">
        <ele>1047.9</ele>
        <time>2020-08-23T08:32:56Z</time>
      </trkpt>
      <trkpt lat="45.13873" lon="5.5475">
        <ele>1049.3</ele>
        <time>2020-08-23T08:33:02Z</time>
      </trkpt>
      <trkpt lat="45.13872" lon="5.54751">
        <ele>1049.5</ele>
        <time>2020-08-23T08:33:03Z</time>
      </trkpt>
      <trkpt lat="45.13842" lon="5.54757">
        <ele>1054.2</ele>
        <time>2020-08-23T08:33:24Z</time>
      </trkpt>
      <trkpt lat="45.13841" lon="5.54757">
        <ele>1054.5</ele>
        <time>2020-08-23T08:33:25Z</time>
      </trkpt>
      <trkpt lat="45.13839" lon="5.54758">
        <ele>1054.8</ele>
        <time>2020-08-23T08:33:26Z</time>
      </trkpt>
      <trkpt lat="45.13838" lon="5.54758">
        <ele>1055.1</ele>
        <time>2020-08-23T08:33:27Z</time>
      </trkpt>
      <trkpt lat="45.13793" lon="5.54777">
        <ele>1059.6</ele>
        <time>2020-08-23T08:34:00Z</time>
      </trkpt>
      <trkpt lat="45.13792" lon="5.54778">
        <ele>1059.8</ele>
        <time>2020-08-23T08:34:01Z</time>
      </trkpt>
      <trkpt lat="45.13792" lon="5.54779">
        <ele>1060.1</ele>
        <time>2020-08-23T08:35:19Z</time>
      </trkpt>
      <trkpt lat="45.13792" lon="5.54779">
        <ele>1060.1</ele>
        <time>2020-08-23T08:35:20Z</time>
      </trkpt>
      <trkpt lat="45.13792" lon="5.54779">
        <ele>1060.1</ele>
        <time>2020-08-23T08:35:21Z</time>
      </trkpt>
      <trkpt lat="45.13791" lon="5.54793">
        <ele>1063.7</ele>
        <time>2020-08-23T08:35:26Z</time>
      </trkpt>
      <trkpt lat="45.1379" lon="5.54795">
        <ele>1064.2</ele>
        <time>2020-08-23T08:35:27Z</time>
      </trkpt>
      <trkpt lat="45.13786" lon="5.54822">
        <ele>1071</ele>
        <time>2020-08-23T08:35:39Z</time>
      </trkpt>
      <trkpt lat="45.13785" lon="5.54824">
        <ele>1071.4</ele>
        <time>2020-08-23T08:35:40Z</time>
      </trkpt>
      <trkpt lat="45.13783" lon="5.54827">
        <ele>1072.3</ele>
        <time>2020-08-23T08:35:42Z</time>
      </trkpt>
      <trkpt lat="45.13782" lon="5.54829">
        <ele>1072.6</ele>
        <time>2020-08-23T08:35:43Z</time>
      </trkpt>
      <trkpt lat="45.13774" lon="5.54839">
        <ele>1074.8</ele>
        <time>2020-08-23T08:35:51Z</time>
      </trkpt>
      <trkpt lat="45.13773" lon="5.54839">
        <ele>1074.8</ele>
        <time>2020-08-23T08:35:52Z</time>
      </trkpt>
      <trkpt lat="45.13771" lon="5.54839">
        <ele>1074.8</ele>
        <time>2020-08-23T08:35:53Z</time>
      </trkpt>
      <trkpt lat="45.1377" lon="5.5484">
        <ele>1074.8</ele>
        <time>2020-08-23T08:35:54Z</time>
      </trkpt>
      <trkpt lat="45.13761" lon="5.54845">
        <ele>1075.9</ele>
        <time>2020-08-23T08:36:00Z</time>
      </trkpt>
      <trkpt lat="45.1376" lon="5.54846">
        <ele>1076.2</ele>
        <time>2020-08-23T08:36:01Z</time>
      </trkpt>
      <trkpt lat="45.13759" lon="5.54847">
        <ele>1076.4</ele>
        <time>2020-08-23T08:36:02Z</time>
      </trkpt>
      <trkpt lat="45.13759" lon="5.54848">
        <ele>1076.7</ele>
        <time>2020-08-23T08:36:03Z</time>
      </trkpt>
      <trkpt lat="45.13753" lon="5.54854">
        <ele>1078.3</ele>
        <time>2020-08-23T08:36:08Z</time>
      </trkpt>
      <trkpt lat="45.13752" lon="5.54855">
        <ele>1078.6</ele>
        <time>2020-08-23T08:36:09Z</time>
      </trkpt>
      <trkpt lat="45.13745" lon="5.54859">
        <ele>1080.4</ele>
        <time>2020-08-23T08:36:15Z</time>
      </trkpt>
      <trkpt lat="45.13744" lon="5.5486">
        <ele>1080.7</ele>
        <time>2020-08-23T08:36:16Z</time>
      </trkpt>
      <trkpt lat="45.13739" lon="5.54864">
        <ele>1083</ele>
        <time>2020-08-23T08:36:21Z</time>
      </trkpt>
      <trkpt lat="45.13737" lon="5.54865">
        <ele>1083.4</ele>
        <time>2020-08-23T08:36:22Z</time>
      </trkpt>
      <trkpt lat="45.1373" lon="5.54868">
        <ele>1085</ele>
        <time>2020-08-23T08:36:27Z</time>
      </trkpt>
      <trkpt lat="45.13729" lon="5.54868">
        <ele>1085.4</ele>
        <time>2020-08-23T08:36:28Z</time>
      </trkpt>
      <trkpt lat="45.13723" lon="5.54871">
        <ele>1086.8</ele>
        <time>2020-08-23T08:36:32Z</time>
      </trkpt>
      <trkpt lat="45.1372" lon="5.54871">
        <ele>1087.4</ele>
        <time>2020-08-23T08:36:34Z</time>
      </trkpt>
      <trkpt lat="45.1371" lon="5.54872">
        <ele>1088.4</ele>
        <time>2020-08-23T08:36:39Z</time>
      </trkpt>
      <trkpt lat="45.13709" lon="5.54871">
        <ele>1088.3</ele>
        <time>2020-08-23T08:36:41Z</time>
      </trkpt>
      <trkpt lat="45.13708" lon="5.5487">
        <ele>1088.2</ele>
        <time>2020-08-23T08:36:42Z</time>
      </trkpt>
      <trkpt lat="45.13706" lon="5.5487">
        <ele>1088.1</ele>
        <time>2020-08-23T08:36:43Z</time>
      </trkpt>
      <trkpt lat="45.13703" lon="5.54869">
        <ele>1088.2</ele>
        <time>2020-08-23T08:36:45Z</time>
      </trkpt>
      <trkpt lat="45.13701" lon="5.54869">
        <ele>1088.3</ele>
        <time>2020-08-23T08:36:46Z</time>
      </trkpt>
      <trkpt lat="45.13698" lon="5.54869">
        <ele>1088.8</ele>
        <time>2020-08-23T08:36:48Z</time>
      </trkpt>
      <trkpt lat="45.13694" lon="5.54867">
        <ele>1088.4</ele>
        <time>2020-08-23T08:36:52Z</time>
      </trkpt>
      <trkpt lat="45.13692" lon="5.54866">
        <ele>1088.5</ele>
        <time>2020-08-23T08:36:53Z</time>
      </trkpt>
      <trkpt lat="45.13686" lon="5.54865">
        <ele>1088.7</ele>
        <time>2020-08-23T08:36:58Z</time>
      </trkpt>
      <trkpt lat="45.13685" lon="5.54865">
        <ele>1088.7</ele>
        <time>2020-08-23T08:36:59Z</time>
      </trkpt>
      <trkpt lat="45.13685" lon="5.54865">
        <ele>1088.6</ele>
        <time>2020-08-23T08:37:05Z</time>
      </trkpt>
      <trkpt lat="45.13685" lon="5.54865">
        <ele>1088.6</ele>
        <time>2020-08-23T08:37:06Z</time>
      </trkpt>
      <trkpt lat="45.13673" lon="5.5486">
        <ele>1088.4</ele>
        <time>2020-08-23T08:37:09Z</time>
      </trkpt>
      <trkpt lat="45.13673" lon="5.54859">
        <ele>1088.1</ele>
        <time>2020-08-23T08:37:10Z</time>
      </trkpt>
      <trkpt lat="45.13671" lon="5.54859">
        <ele>1088</ele>
        <time>2020-08-23T08:37:11Z</time>
      </trkpt>
      <trkpt lat="45.13662" lon="5.54855">
        <ele>1087.8</ele>
        <time>2020-08-23T08:37:18Z</time>
      </trkpt>
      <trkpt lat="45.13659" lon="5.54854">
        <ele>1087.9</ele>
        <time>2020-08-23T08:37:20Z</time>
      </trkpt>
      <trkpt lat="45.13651" lon="5.54852">
        <ele>1088</ele>
        <time>2020-08-23T08:37:26Z</time>
      </trkpt>
      <trkpt lat="45.1365" lon="5.54852">
        <ele>1088</ele>
        <time>2020-08-23T08:37:27Z</time>
      </trkpt>
      <trkpt lat="45.13649" lon="5.54851">
        <ele>1087.9</ele>
        <time>2020-08-23T08:37:28Z</time>
      </trkpt>
      <trkpt lat="45.13647" lon="5.54851">
        <ele>1087.9</ele>
        <time>2020-08-23T08:37:29Z</time>
      </trkpt>
      <trkpt lat="45.1364" lon="5.54849">
        <ele>1088.2</ele>
        <time>2020-08-23T08:37:35Z</time>
      </trkpt>
      <trkpt lat="45.13638" lon="5.54849">
        <ele>1088.3</ele>
        <time>2020-08-23T08:37:36Z</time>
      </trkpt>
      <trkpt lat="45.13628" lon="5.54849">
        <ele>1089.1</ele>
        <time>2020-08-23T08:37:45Z</time>
      </trkpt>
      <trkpt lat="45.13625" lon="5.54849">
        <ele>1089.6</ele>
        <time>2020-08-23T08:37:48Z</time>
      </trkpt>
      <trkpt lat="45.13623" lon="5.5485">
        <ele>1089.9</ele>
        <time>2020-08-23T08:37:49Z</time>
      </trkpt>
      <trkpt lat="45.13612" lon="5.54852">
        <ele>1091.9</ele>
        <time>2020-08-23T08:37:59Z</time>
      </trkpt>
      <trkpt lat="45.13611" lon="5.54851">
        <ele>1091.9</ele>
        <time>2020-08-23T08:38:00Z</time>
      </trkpt>
      <trkpt lat="45.13609" lon="5.54851">
        <ele>1092</ele>
        <time>2020-08-23T08:38:02Z</time>
      </trkpt>
      <trkpt lat="45.13609" lon="5.54851">
        <ele>1092</ele>
        <time>2020-08-23T08:38:03Z</time>
      </trkpt>
      <trkpt lat="45.13596" lon="5.54853">
        <ele>1094.1</ele>
        <time>2020-08-23T08:38:11Z</time>
      </trkpt>
      <trkpt lat="45.13594" lon="5.54854">
        <ele>1094.6</ele>
        <time>2020-08-23T08:38:12Z</time>
      </trkpt>
      <trkpt lat="45.13591" lon="5.54855">
        <ele>1095.1</ele>
        <time>2020-08-23T08:38:14Z</time>
      </trkpt>
      <trkpt lat="45.1359" lon="5.54855">
        <ele>1095.3</ele>
        <time>2020-08-23T08:38:15Z</time>
      </trkpt>
      <trkpt lat="45.13584" lon="5.54855">
        <ele>1095.9</ele>
        <time>2020-08-23T08:38:20Z</time>
      </trkpt>
      <trkpt lat="45.13583" lon="5.54855">
        <ele>1095.9</ele>
        <time>2020-08-23T08:38:21Z</time>
      </trkpt>
      <trkpt lat="45.13581" lon="5.54854">
        <ele>1095.8</ele>
        <time>2020-08-23T08:38:23Z</time>
      </trkpt>
      <trkpt lat="45.1358" lon="5.54854">
        <ele>1095.7</ele>
        <time>2020-08-23T08:38:24Z</time>
      </trkpt>
      <trkpt lat="45.1357" lon="5.54856">
        <ele>1095.8</ele>
        <time>2020-08-23T08:38:31Z</time>
      </trkpt>
      <trkpt lat="45.13568" lon="5.54856">
        <ele>1095.9</ele>
        <time>2020-08-23T08:38:32Z</time>
      </trkpt>
      <trkpt lat="45.13567" lon="5.54857">
        <ele>1096.1</ele>
        <time>2020-08-23T08:38:33Z</time>
      </trkpt>
      <trkpt lat="45.13566" lon="5.54857">
        <ele>1096.1</ele>
        <time>2020-08-23T08:38:34Z</time>
      </trkpt>
      <trkpt lat="45.13563" lon="5.54858">
        <ele>1096.1</ele>
        <time>2020-08-23T08:38:37Z</time>
      </trkpt>
      <trkpt lat="45.13559" lon="5.5486">
        <ele>1096.9</ele>
        <time>2020-08-23T08:38:40Z</time>
      </trkpt>
      <trkpt lat="45.13558" lon="5.54861">
        <ele>1097.1</ele>
        <time>2020-08-23T08:38:41Z</time>
      </trkpt>
      <trkpt lat="45.13557" lon="5.54862">
        <ele>1097.3</ele>
        <time>2020-08-23T08:38:42Z</time>
      </trkpt>
      <trkpt lat="45.13556" lon="5.54862">
        <ele>1097.4</ele>
        <time>2020-08-23T08:38:43Z</time>
      </trkpt>
      <trkpt lat="45.13547" lon="5.54868">
        <ele>1099</ele>
        <time>2020-08-23T08:38:51Z</time>
      </trkpt>
      <trkpt lat="45.13546" lon="5.54869">
        <ele>1099.2</ele>
        <time>2020-08-23T08:38:52Z</time>
      </trkpt>
      <trkpt lat="45.13545" lon="5.54869">
        <ele>1099.2</ele>
        <time>2020-08-23T08:38:53Z</time>
      </trkpt>
      <trkpt lat="45.13543" lon="5.54869">
        <ele>1099.2</ele>
        <time>2020-08-23T08:38:54Z</time>
      </trkpt>
      <trkpt lat="45.13541" lon="5.54871">
        <ele>1099.7</ele>
        <time>2020-08-23T08:38:56Z</time>
      </trkpt>
      <trkpt lat="45.1354" lon="5.54871">
        <ele>1099.6</ele>
        <time>2020-08-23T08:38:57Z</time>
      </trkpt>
      <trkpt lat="45.13536" lon="5.54871">
        <ele>1099.7</ele>
        <time>2020-08-23T08:39:00Z</time>
      </trkpt>
      <trkpt lat="45.13535" lon="5.54872">
        <ele>1099.8</ele>
        <time>2020-08-23T08:39:01Z</time>
      </trkpt>
      <trkpt lat="45.13529" lon="5.54876">
        <ele>1100.8</ele>
        <time>2020-08-23T08:39:06Z</time>
      </trkpt>
      <trkpt lat="45.13528" lon="5.54876">
        <ele>1101</ele>
        <time>2020-08-23T08:39:07Z</time>
      </trkpt>
      <trkpt lat="45.13526" lon="5.54877">
        <ele>1101.3</ele>
        <time>2020-08-23T08:39:08Z</time>
      </trkpt>
      <trkpt lat="45.13521" lon="5.54882">
        <ele>1102.4</ele>
        <time>2020-08-23T08:39:14Z</time>
      </trkpt>
      <trkpt lat="45.13519" lon="5.54884">
        <ele>1103</ele>
        <time>2020-08-23T08:39:16Z</time>
      </trkpt>
      <trkpt lat="45.13511" lon="5.5489">
        <ele>1104.6</ele>
        <time>2020-08-23T08:39:21Z</time>
      </trkpt>
      <trkpt lat="45.1351" lon="5.5489">
        <ele>1104.6</ele>
        <time>2020-08-23T08:39:22Z</time>
      </trkpt>
      <trkpt lat="45.13506" lon="5.54893">
        <ele>1105.4</ele>
        <time>2020-08-23T08:39:27Z</time>
      </trkpt>
      <trkpt lat="45.13504" lon="5.54894">
        <ele>1105.7</ele>
        <time>2020-08-23T08:39:28Z</time>
      </trkpt>
      <trkpt lat="45.13497" lon="5.54898">
        <ele>1106.5</ele>
        <time>2020-08-23T08:39:33Z</time>
      </trkpt>
      <trkpt lat="45.13496" lon="5.54899">
        <ele>1106.7</ele>
        <time>2020-08-23T08:39:34Z</time>
      </trkpt>
      <trkpt lat="45.13494" lon="5.549">
        <ele>1107</ele>
        <time>2020-08-23T08:39:39Z</time>
      </trkpt>
      <trkpt lat="45.13494" lon="5.549">
        <ele>1107</ele>
        <time>2020-08-23T08:39:40Z</time>
      </trkpt>
      <trkpt lat="45.13485" lon="5.54909">
        <ele>1109.1</ele>
        <time>2020-08-23T08:39:46Z</time>
      </trkpt>
      <trkpt lat="45.13485" lon="5.54909">
        <ele>1109.1</ele>
        <time>2020-08-23T08:39:47Z</time>
      </trkpt>
      <trkpt lat="45.13477" lon="5.54915">
        <ele>1110.5</ele>
        <time>2020-08-23T08:39:52Z</time>
      </trkpt>
      <trkpt lat="45.13475" lon="5.54916">
        <ele>1110.7</ele>
        <time>2020-08-23T08:39:53Z</time>
      </trkpt>
      <trkpt lat="45.13469" lon="5.54922">
        <ele>1111.8</ele>
        <time>2020-08-23T08:39:58Z</time>
      </trkpt>
      <trkpt lat="45.13467" lon="5.54925">
        <ele>1112.4</ele>
        <time>2020-08-23T08:40:00Z</time>
      </trkpt>
      <trkpt lat="45.13461" lon="5.54932">
        <ele>1114</ele>
        <time>2020-08-23T08:40:06Z</time>
      </trkpt>
      <trkpt lat="45.1346" lon="5.54934">
        <ele>1114.4</ele>
        <time>2020-08-23T08:40:07Z</time>
      </trkpt>
      <trkpt lat="45.13457" lon="5.5494">
        <ele>1115.9</ele>
        <time>2020-08-23T08:40:10Z</time>
      </trkpt>
      <trkpt lat="45.13457" lon="5.54944">
        <ele>1116.8</ele>
        <time>2020-08-23T08:40:12Z</time>
      </trkpt>
      <trkpt lat="45.13456" lon="5.54945">
        <ele>1117.3</ele>
        <time>2020-08-23T08:40:13Z</time>
      </trkpt>
      <trkpt lat="45.13455" lon="5.54949">
        <ele>1118.3</ele>
        <time>2020-08-23T08:40:15Z</time>
      </trkpt>
      <trkpt lat="45.13451" lon="5.54956">
        <ele>1119.7</ele>
        <time>2020-08-23T08:40:19Z</time>
      </trkpt>
      <trkpt lat="45.1345" lon="5.54957">
        <ele>1120</ele>
        <time>2020-08-23T08:40:20Z</time>
      </trkpt>
      <trkpt lat="45.13449" lon="5.54958">
        <ele>1120.4</ele>
        <time>2020-08-23T08:40:21Z</time>
      </trkpt>
      <trkpt lat="45.13448" lon="5.54959">
        <ele>1120.6</ele>
        <time>2020-08-23T08:40:22Z</time>
      </trkpt>
      <trkpt lat="45.13442" lon="5.54963">
        <ele>1121.2</ele>
        <time>2020-08-23T08:40:27Z</time>
      </trkpt>
      <trkpt lat="45.13441" lon="5.54964">
        <ele>1121.4</ele>
        <time>2020-08-23T08:40:28Z</time>
      </trkpt>
      <trkpt lat="45.1344" lon="5.54965">
        <ele>1121.6</ele>
        <time>2020-08-23T08:40:29Z</time>
      </trkpt>
      <trkpt lat="45.13439" lon="5.54966">
        <ele>1121.9</ele>
        <time>2020-08-23T08:40:30Z</time>
      </trkpt>
      <trkpt lat="45.13431" lon="5.54972">
        <ele>1122.8</ele>
        <time>2020-08-23T08:40:36Z</time>
      </trkpt>
      <trkpt lat="45.1343" lon="5.54972">
        <ele>1122.9</ele>
        <time>2020-08-23T08:40:37Z</time>
      </trkpt>
      <trkpt lat="45.13429" lon="5.54972">
        <ele>1122.8</ele>
        <time>2020-08-23T08:40:38Z</time>
      </trkpt>
      <trkpt lat="45.13428" lon="5.54973">
        <ele>1123</ele>
        <time>2020-08-23T08:40:39Z</time>
      </trkpt>
      <trkpt lat="45.13423" lon="5.54976">
        <ele>1123.6</ele>
        <time>2020-08-23T08:40:43Z</time>
      </trkpt>
      <trkpt lat="45.13422" lon="5.54977">
        <ele>1123.7</ele>
        <time>2020-08-23T08:40:44Z</time>
      </trkpt>
      <trkpt lat="45.13421" lon="5.54978">
        <ele>1123.8</ele>
        <time>2020-08-23T08:40:45Z</time>
      </trkpt>
      <trkpt lat="45.1342" lon="5.54979">
        <ele>1124.1</ele>
        <time>2020-08-23T08:40:46Z</time>
      </trkpt>
      <trkpt lat="45.13414" lon="5.54981">
        <ele>1124.6</ele>
        <time>2020-08-23T08:40:51Z</time>
      </trkpt>
      <trkpt lat="45.13413" lon="5.54982">
        <ele>1124.7</ele>
        <time>2020-08-23T08:40:52Z</time>
      </trkpt>
      <trkpt lat="45.13404" lon="5.54986">
        <ele>1125.6</ele>
        <time>2020-08-23T08:40:59Z</time>
      </trkpt>
      <trkpt lat="45.13403" lon="5.54986">
        <ele>1125.8</ele>
        <time>2020-08-23T08:41:00Z</time>
      </trkpt>
      <trkpt lat="45.13394" lon="5.5499">
        <ele>1126.6</ele>
        <time>2020-08-23T08:41:06Z</time>
      </trkpt>
      <trkpt lat="45.13393" lon="5.5499">
        <ele>1126.8</ele>
        <time>2020-08-23T08:41:07Z</time>
      </trkpt>
      <trkpt lat="45.13388" lon="5.54992">
        <ele>1127.3</ele>
        <time>2020-08-23T08:41:11Z</time>
      </trkpt>
      <trkpt lat="45.13387" lon="5.54992">
        <ele>1127.3</ele>
        <time>2020-08-23T08:41:12Z</time>
      </trkpt>
      <trkpt lat="45.13386" lon="5.54992">
        <ele>1127.2</ele>
        <time>2020-08-23T08:41:13Z</time>
      </trkpt>
      <trkpt lat="45.13385" lon="5.54992">
        <ele>1127.2</ele>
        <time>2020-08-23T08:41:14Z</time>
      </trkpt>
      <trkpt lat="45.13382" lon="5.54993">
        <ele>1127.5</ele>
        <time>2020-08-23T08:41:17Z</time>
      </trkpt>
      <trkpt lat="45.1338" lon="5.54994">
        <ele>1127.6</ele>
        <time>2020-08-23T08:41:18Z</time>
      </trkpt>
      <trkpt lat="45.13379" lon="5.54995">
        <ele>1127.8</ele>
        <time>2020-08-23T08:41:19Z</time>
      </trkpt>
      <trkpt lat="45.13378" lon="5.54995">
        <ele>1128.1</ele>
        <time>2020-08-23T08:41:20Z</time>
      </trkpt>
      <trkpt lat="45.13374" lon="5.54997">
        <ele>1128.6</ele>
        <time>2020-08-23T08:41:24Z</time>
      </trkpt>
      <trkpt lat="45.13373" lon="5.54998">
        <ele>1128.9</ele>
        <time>2020-08-23T08:41:25Z</time>
      </trkpt>
      <trkpt lat="45.13371" lon="5.54999">
        <ele>1129.3</ele>
        <time>2020-08-23T08:41:30Z</time>
      </trkpt>
      <trkpt lat="45.13367" lon="5.55002">
        <ele>1130.3</ele>
        <time>2020-08-23T08:41:31Z</time>
      </trkpt>
      <trkpt lat="45.1336" lon="5.55006">
        <ele>1131.7</ele>
        <time>2020-08-23T08:41:35Z</time>
      </trkpt>
      <trkpt lat="45.13358" lon="5.55007">
        <ele>1131.9</ele>
        <time>2020-08-23T08:41:36Z</time>
      </trkpt>
      <trkpt lat="45.13351" lon="5.55008">
        <ele>1132.4</ele>
        <time>2020-08-23T08:41:41Z</time>
      </trkpt>
      <trkpt lat="45.13349" lon="5.55009">
        <ele>1132.5</ele>
        <time>2020-08-23T08:41:42Z</time>
      </trkpt>
      <trkpt lat="45.13343" lon="5.55011">
        <ele>1133.4</ele>
        <time>2020-08-23T08:41:47Z</time>
      </trkpt>
      <trkpt lat="45.13341" lon="5.55011">
        <ele>1133.5</ele>
        <time>2020-08-23T08:41:48Z</time>
      </trkpt>
      <trkpt lat="45.13327" lon="5.55015">
        <ele>1135.2</ele>
        <time>2020-08-23T08:41:58Z</time>
      </trkpt>
      <trkpt lat="45.13326" lon="5.55015">
        <ele>1135.3</ele>
        <time>2020-08-23T08:41:59Z</time>
      </trkpt>
      <trkpt lat="45.13319" lon="5.55017">
        <ele>1136.2</ele>
        <time>2020-08-23T08:42:03Z</time>
      </trkpt>
      <trkpt lat="45.13318" lon="5.55017">
        <ele>1136.3</ele>
        <time>2020-08-23T08:42:04Z</time>
      </trkpt>
      <trkpt lat="45.13311" lon="5.55018">
        <ele>1137</ele>
        <time>2020-08-23T08:42:09Z</time>
      </trkpt>
      <trkpt lat="45.1331" lon="5.55019">
        <ele>1137.3</ele>
        <time>2020-08-23T08:42:10Z</time>
      </trkpt>
      <trkpt lat="45.13306" lon="5.55022">
        <ele>1138.6</ele>
        <time>2020-08-23T08:42:14Z</time>
      </trkpt>
      <trkpt lat="45.13305" lon="5.55023">
        <ele>1138.8</ele>
        <time>2020-08-23T08:42:15Z</time>
      </trkpt>
      <trkpt lat="45.13305" lon="5.55023">
        <ele>1138.8</ele>
        <time>2020-08-23T08:42:18Z</time>
      </trkpt>
      <trkpt lat="45.13301" lon="5.55025">
        <ele>1139.7</ele>
        <time>2020-08-23T08:42:19Z</time>
      </trkpt>
      <trkpt lat="45.13298" lon="5.55026">
        <ele>1140.2</ele>
        <time>2020-08-23T08:42:20Z</time>
      </trkpt>
      <trkpt lat="45.13294" lon="5.55027">
        <ele>1140.6</ele>
        <time>2020-08-23T08:42:23Z</time>
      </trkpt>
      <trkpt lat="45.13291" lon="5.55027">
        <ele>1140.9</ele>
        <time>2020-08-23T08:42:25Z</time>
      </trkpt>
      <trkpt lat="45.1329" lon="5.55028">
        <ele>1141.3</ele>
        <time>2020-08-23T08:42:26Z</time>
      </trkpt>
      <trkpt lat="45.13289" lon="5.55029">
        <ele>1141.8</ele>
        <time>2020-08-23T08:42:27Z</time>
      </trkpt>
      <trkpt lat="45.13283" lon="5.5503">
        <ele>1142.3</ele>
        <time>2020-08-23T08:42:30Z</time>
      </trkpt>
      <trkpt lat="45.13282" lon="5.55031">
        <ele>1142.6</ele>
        <time>2020-08-23T08:42:31Z</time>
      </trkpt>
      <trkpt lat="45.13277" lon="5.55032">
        <ele>1143.1</ele>
        <time>2020-08-23T08:42:35Z</time>
      </trkpt>
      <trkpt lat="45.13275" lon="5.55032">
        <ele>1143.3</ele>
        <time>2020-08-23T08:42:36Z</time>
      </trkpt>
      <trkpt lat="45.13271" lon="5.55033">
        <ele>1143.9</ele>
        <time>2020-08-23T08:42:40Z</time>
      </trkpt>
      <trkpt lat="45.13271" lon="5.55034">
        <ele>1144</ele>
        <time>2020-08-23T08:42:41Z</time>
      </trkpt>
      <trkpt lat="45.13271" lon="5.55034">
        <ele>1144</ele>
        <time>2020-08-23T08:42:46Z</time>
      </trkpt>
      <trkpt lat="45.13264" lon="5.55034">
        <ele>1144.4</ele>
        <time>2020-08-23T08:42:47Z</time>
      </trkpt>
      <trkpt lat="45.13257" lon="5.55036">
        <ele>1145.2</ele>
        <time>2020-08-23T08:42:51Z</time>
      </trkpt>
      <trkpt lat="45.13256" lon="5.55036">
        <ele>1145.2</ele>
        <time>2020-08-23T08:42:53Z</time>
      </trkpt>
      <trkpt lat="45.13247" lon="5.55037">
        <ele>1146.5</ele>
        <time>2020-08-23T08:42:57Z</time>
      </trkpt>
      <trkpt lat="45.13245" lon="5.55038">
        <ele>1147.1</ele>
        <time>2020-08-23T08:42:58Z</time>
      </trkpt>
      <trkpt lat="45.13238" lon="5.55037">
        <ele>1148.6</ele>
        <time>2020-08-23T08:43:03Z</time>
      </trkpt>
      <trkpt lat="45.13236" lon="5.55036">
        <ele>1148.7</ele>
        <time>2020-08-23T08:43:04Z</time>
      </trkpt>
      <trkpt lat="45.13229" lon="5.55033">
        <ele>1149.4</ele>
        <time>2020-08-23T08:43:09Z</time>
      </trkpt>
      <trkpt lat="45.13227" lon="5.55033">
        <ele>1149.4</ele>
        <time>2020-08-23T08:43:10Z</time>
      </trkpt>
      <trkpt lat="45.13221" lon="5.5503">
        <ele>1149.9</ele>
        <time>2020-08-23T08:43:14Z</time>
      </trkpt>
      <trkpt lat="45.1322" lon="5.55029">
        <ele>1149.9</ele>
        <time>2020-08-23T08:43:15Z</time>
      </trkpt>
      <trkpt lat="45.13214" lon="5.55024">
        <ele>1149.4</ele>
        <time>2020-08-23T08:43:19Z</time>
      </trkpt>
      <trkpt lat="45.13213" lon="5.55023">
        <ele>1149.4</ele>
        <time>2020-08-23T08:43:20Z</time>
      </trkpt>
      <trkpt lat="45.13208" lon="5.55018">
        <ele>1148.8</ele>
        <time>2020-08-23T08:43:24Z</time>
      </trkpt>
      <trkpt lat="45.13207" lon="5.55017">
        <ele>1148.7</ele>
        <time>2020-08-23T08:43:25Z</time>
      </trkpt>
      <trkpt lat="45.13205" lon="5.55015">
        <ele>1148.6</ele>
        <time>2020-08-23T08:43:26Z</time>
      </trkpt>
      <trkpt lat="45.13202" lon="5.55011">
        <ele>1148</ele>
        <time>2020-08-23T08:43:29Z</time>
      </trkpt>
      <trkpt lat="45.13201" lon="5.5501">
        <ele>1147.7</ele>
        <time>2020-08-23T08:43:30Z</time>
      </trkpt>
      <trkpt lat="45.13197" lon="5.55004">
        <ele>1146.9</ele>
        <time>2020-08-23T08:43:34Z</time>
      </trkpt>
      <trkpt lat="45.13196" lon="5.55003">
        <ele>1146.7</ele>
        <time>2020-08-23T08:43:35Z</time>
      </trkpt>
      <trkpt lat="45.13191" lon="5.54999">
        <ele>1146.5</ele>
        <time>2020-08-23T08:43:39Z</time>
      </trkpt>
      <trkpt lat="45.1319" lon="5.54998">
        <ele>1146.4</ele>
        <time>2020-08-23T08:43:40Z</time>
      </trkpt>
      <trkpt lat="45.13186" lon="5.54993">
        <ele>1146</ele>
        <time>2020-08-23T08:43:44Z</time>
      </trkpt>
      <trkpt lat="45.13184" lon="5.54992">
        <ele>1146.1</ele>
        <time>2020-08-23T08:43:45Z</time>
      </trkpt>
      <trkpt lat="45.13181" lon="5.5499">
        <ele>1146.3</ele>
        <time>2020-08-23T08:43:48Z</time>
      </trkpt>
      <trkpt lat="45.1318" lon="5.5499">
        <ele>1146.3</ele>
        <time>2020-08-23T08:43:49Z</time>
      </trkpt>
      <trkpt lat="45.13175" lon="5.54988">
        <ele>1147.1</ele>
        <time>2020-08-23T08:43:53Z</time>
      </trkpt>
      <trkpt lat="45.13174" lon="5.54988">
        <ele>1147.3</ele>
        <time>2020-08-23T08:43:54Z</time>
      </trkpt>
      <trkpt lat="45.13168" lon="5.54986">
        <ele>1148.2</ele>
        <time>2020-08-23T08:43:58Z</time>
      </trkpt>
      <trkpt lat="45.13166" lon="5.54986">
        <ele>1148.5</ele>
        <time>2020-08-23T08:43:59Z</time>
      </trkpt>
      <trkpt lat="45.13161" lon="5.54984">
        <ele>1148.5</ele>
        <time>2020-08-23T08:44:03Z</time>
      </trkpt>
      <trkpt lat="45.1316" lon="5.54983">
        <ele>1148.5</ele>
        <time>2020-08-23T08:44:04Z</time>
      </trkpt>
      <trkpt lat="45.13154" lon="5.5498">
        <ele>1148.3</ele>
        <time>2020-08-23T08:44:09Z</time>
      </trkpt>
      <trkpt lat="45.13152" lon="5.5498">
        <ele>1148.3</ele>
        <time>2020-08-23T08:44:10Z</time>
      </trkpt>
      <trkpt lat="45.13148" lon="5.54978">
        <ele>1148.2</ele>
        <time>2020-08-23T08:44:13Z</time>
      </trkpt>
      <trkpt lat="45.13147" lon="5.54977">
        <ele>1148.1</ele>
        <time>2020-08-23T08:44:14Z</time>
      </trkpt>
      <trkpt lat="45.1314" lon="5.54974">
        <ele>1147.9</ele>
        <time>2020-08-23T08:44:19Z</time>
      </trkpt>
      <trkpt lat="45.13139" lon="5.54973">
        <ele>1147.7</ele>
        <time>2020-08-23T08:44:20Z</time>
      </trkpt>
      <trkpt lat="45.13131" lon="5.54967">
        <ele>1146.9</ele>
        <time>2020-08-23T08:44:28Z</time>
      </trkpt>
      <trkpt lat="45.13129" lon="5.54966">
        <ele>1146.9</ele>
        <time>2020-08-23T08:44:29Z</time>
      </trkpt>
      <trkpt lat="45.13127" lon="5.54965">
        <ele>1146.7</ele>
        <time>2020-08-23T08:44:37Z</time>
      </trkpt>
      <trkpt lat="45.13127" lon="5.54965">
        <ele>1146.7</ele>
        <time>2020-08-23T08:44:38Z</time>
      </trkpt>
      <trkpt lat="45.1312" lon="5.54962">
        <ele>1146.6</ele>
        <time>2020-08-23T08:44:39Z</time>
      </trkpt>
      <trkpt lat="45.13117" lon="5.54961">
        <ele>1146.6</ele>
        <time>2020-08-23T08:44:40Z</time>
      </trkpt>
      <trkpt lat="45.13113" lon="5.54959">
        <ele>1146.6</ele>
        <time>2020-08-23T08:44:43Z</time>
      </trkpt>
      <trkpt lat="45.13112" lon="5.54958">
        <ele>1146.5</ele>
        <time>2020-08-23T08:44:44Z</time>
      </trkpt>
      <trkpt lat="45.13109" lon="5.54958">
        <ele>1146.5</ele>
        <time>2020-08-23T08:44:45Z</time>
      </trkpt>
      <trkpt lat="45.13107" lon="5.54957">
        <ele>1146.7</ele>
        <time>2020-08-23T08:44:46Z</time>
      </trkpt>
      <trkpt lat="45.13104" lon="5.54957">
        <ele>1146.9</ele>
        <time>2020-08-23T08:44:48Z</time>
      </trkpt>
      <trkpt lat="45.13102" lon="5.54956">
        <ele>1146.8</ele>
        <time>2020-08-23T08:44:49Z</time>
      </trkpt>
      <trkpt lat="45.13095" lon="5.54955">
        <ele>1147.5</ele>
        <time>2020-08-23T08:44:53Z</time>
      </trkpt>
      <trkpt lat="45.13094" lon="5.54955">
        <ele>1147.6</ele>
        <time>2020-08-23T08:44:54Z</time>
      </trkpt>
      <trkpt lat="45.13087" lon="5.54956">
        <ele>1148.8</ele>
        <time>2020-08-23T08:44:59Z</time>
      </trkpt>
      <trkpt lat="45.13086" lon="5.54956">
        <ele>1149</ele>
        <time>2020-08-23T08:45:00Z</time>
      </trkpt>
      <trkpt lat="45.13082" lon="5.54959">
        <ele>1150.3</ele>
        <time>2020-08-23T08:45:03Z</time>
      </trkpt>
      <trkpt lat="45.13081" lon="5.5496">
        <ele>1150.9</ele>
        <time>2020-08-23T08:45:04Z</time>
      </trkpt>
      <trkpt lat="45.1308" lon="5.54961">
        <ele>1151.4</ele>
        <time>2020-08-23T08:45:05Z</time>
      </trkpt>
      <trkpt lat="45.13079" lon="5.54962">
        <ele>1152</ele>
        <time>2020-08-23T08:45:06Z</time>
      </trkpt>
      <trkpt lat="45.13075" lon="5.54972">
        <ele>1155.6</ele>
        <time>2020-08-23T08:45:12Z</time>
      </trkpt>
      <trkpt lat="45.13074" lon="5.54973">
        <ele>1156.3</ele>
        <time>2020-08-23T08:45:13Z</time>
      </trkpt>
      <trkpt lat="45.13073" lon="5.54981">
        <ele>1158.9</ele>
        <time>2020-08-23T08:45:17Z</time>
      </trkpt>
      <trkpt lat="45.13072" lon="5.54982">
        <ele>1159.5</ele>
        <time>2020-08-23T08:45:18Z</time>
      </trkpt>
      <trkpt lat="45.13069" lon="5.54989">
        <ele>1162.3</ele>
        <time>2020-08-23T08:45:23Z</time>
      </trkpt>
      <trkpt lat="45.13069" lon="5.54989">
        <ele>1162.3</ele>
        <time>2020-08-23T08:45:24Z</time>
      </trkpt>
      <trkpt lat="45.13065" lon="5.54997">
        <ele>1165.3</ele>
        <time>2020-08-23T08:45:30Z</time>
      </trkpt>
      <trkpt lat="45.13065" lon="5.54997">
        <ele>1165.4</ele>
        <time>2020-08-23T08:45:32Z</time>
      </trkpt>
      <trkpt lat="45.1306" lon="5.55005">
        <ele>1168.9</ele>
        <time>2020-08-23T08:45:37Z</time>
      </trkpt>
      <trkpt lat="45.13057" lon="5.55006">
        <ele>1169.7</ele>
        <time>2020-08-23T08:45:39Z</time>
      </trkpt>
      <trkpt lat="45.13055" lon="5.55007">
        <ele>1170.1</ele>
        <time>2020-08-23T08:45:40Z</time>
      </trkpt>
      <trkpt lat="45.13048" lon="5.55007">
        <ele>1171.2</ele>
        <time>2020-08-23T08:45:44Z</time>
      </trkpt>
      <trkpt lat="45.13046" lon="5.55008">
        <ele>1171.7</ele>
        <time>2020-08-23T08:45:45Z</time>
      </trkpt>
      <trkpt lat="45.13041" lon="5.5501">
        <ele>1173.2</ele>
        <time>2020-08-23T08:45:49Z</time>
      </trkpt>
      <trkpt lat="45.1304" lon="5.5501">
        <ele>1173.3</ele>
        <time>2020-08-23T08:45:50Z</time>
      </trkpt>
      <trkpt lat="45.1304" lon="5.5501">
        <ele>1173.3</ele>
        <time>2020-08-23T08:45:51Z</time>
      </trkpt>
      <trkpt lat="45.1304" lon="5.5501">
        <ele>1173.3</ele>
        <time>2020-08-23T08:45:53Z</time>
      </trkpt>
      <trkpt lat="45.13035" lon="5.5501">
        <ele>1174</ele>
        <time>2020-08-23T08:45:54Z</time>
      </trkpt>
      <trkpt lat="45.13032" lon="5.5501">
        <ele>1174.4</ele>
        <time>2020-08-23T08:45:55Z</time>
      </trkpt>
      <trkpt lat="45.13028" lon="5.55009">
        <ele>1174.7</ele>
        <time>2020-08-23T08:45:58Z</time>
      </trkpt>
      <trkpt lat="45.13026" lon="5.55009">
        <ele>1175</ele>
        <time>2020-08-23T08:45:59Z</time>
      </trkpt>
      <trkpt lat="45.13022" lon="5.55009">
        <ele>1175.4</ele>
        <time>2020-08-23T08:46:02Z</time>
      </trkpt>
      <trkpt lat="45.1302" lon="5.55008">
        <ele>1175.5</ele>
        <time>2020-08-23T08:46:03Z</time>
      </trkpt>
      <trkpt lat="45.13015" lon="5.55008">
        <ele>1175.9</ele>
        <time>2020-08-23T08:46:07Z</time>
      </trkpt>
      <trkpt lat="45.13014" lon="5.55008">
        <ele>1175.9</ele>
        <time>2020-08-23T08:46:08Z</time>
      </trkpt>
      <trkpt lat="45.13009" lon="5.55007">
        <ele>1176.4</ele>
        <time>2020-08-23T08:46:11Z</time>
      </trkpt>
      <trkpt lat="45.13007" lon="5.55007">
        <ele>1176.5</ele>
        <time>2020-08-23T08:46:12Z</time>
      </trkpt>
      <trkpt lat="45.13001" lon="5.55003">
        <ele>1175.8</ele>
        <time>2020-08-23T08:46:16Z</time>
      </trkpt>
      <trkpt lat="45.13" lon="5.55002">
        <ele>1175.6</ele>
        <time>2020-08-23T08:46:17Z</time>
      </trkpt>
      <trkpt lat="45.12998" lon="5.55">
        <ele>1175.6</ele>
        <time>2020-08-23T08:46:20Z</time>
      </trkpt>
      <trkpt lat="45.12997" lon="5.54999">
        <ele>1175.5</ele>
        <time>2020-08-23T08:46:21Z</time>
      </trkpt>
      <trkpt lat="45.12991" lon="5.54996">
        <ele>1176.1</ele>
        <time>2020-08-23T08:46:27Z</time>
      </trkpt>
      <trkpt lat="45.12989" lon="5.54995">
        <ele>1176.3</ele>
        <time>2020-08-23T08:46:28Z</time>
      </trkpt>
      <trkpt lat="45.12986" lon="5.54993">
        <ele>1176.4</ele>
        <time>2020-08-23T08:46:31Z</time>
      </trkpt>
      <trkpt lat="45.12985" lon="5.54993">
        <ele>1176.6</ele>
        <time>2020-08-23T08:46:32Z</time>
      </trkpt>
      <trkpt lat="45.12981" lon="5.5499">
        <ele>1176.6</ele>
        <time>2020-08-23T08:46:38Z</time>
      </trkpt>
      <trkpt lat="45.12981" lon="5.5499">
        <ele>1176.6</ele>
        <time>2020-08-23T08:46:39Z</time>
      </trkpt>
      <trkpt lat="45.1297" lon="5.54985">
        <ele>1177.8</ele>
        <time>2020-08-23T08:46:45Z</time>
      </trkpt>
      <trkpt lat="45.12969" lon="5.54984">
        <ele>1177.8</ele>
        <time>2020-08-23T08:46:46Z</time>
      </trkpt>
      <trkpt lat="45.12966" lon="5.54982">
        <ele>1177.8</ele>
        <time>2020-08-23T08:46:49Z</time>
      </trkpt>
      <trkpt lat="45.12965" lon="5.54981">
        <ele>1177.7</ele>
        <time>2020-08-23T08:46:50Z</time>
      </trkpt>
      <trkpt lat="45.12962" lon="5.54979">
        <ele>1177.9</ele>
        <time>2020-08-23T08:46:56Z</time>
      </trkpt>
      <trkpt lat="45.12962" lon="5.54979">
        <ele>1177.9</ele>
        <time>2020-08-23T08:46:57Z</time>
      </trkpt>
      <trkpt lat="45.12956" lon="5.54976">
        <ele>1178.5</ele>
        <time>2020-08-23T08:47:01Z</time>
      </trkpt>
      <trkpt lat="45.12953" lon="5.54974">
        <ele>1178.7</ele>
        <time>2020-08-23T08:47:02Z</time>
      </trkpt>
      <trkpt lat="45.12952" lon="5.54973">
        <ele>1178.8</ele>
        <time>2020-08-23T08:47:03Z</time>
      </trkpt>
      <trkpt lat="45.1295" lon="5.54972">
        <ele>1178.9</ele>
        <time>2020-08-23T08:47:04Z</time>
      </trkpt>
      <trkpt lat="45.12946" lon="5.5497">
        <ele>1179.1</ele>
        <time>2020-08-23T08:47:07Z</time>
      </trkpt>
      <trkpt lat="45.12945" lon="5.5497">
        <ele>1179.3</ele>
        <time>2020-08-23T08:47:08Z</time>
      </trkpt>
      <trkpt lat="45.12944" lon="5.54969">
        <ele>1179.5</ele>
        <time>2020-08-23T08:47:09Z</time>
      </trkpt>
      <trkpt lat="45.12941" lon="5.54967">
        <ele>1179.3</ele>
        <time>2020-08-23T08:47:11Z</time>
      </trkpt>
      <trkpt lat="45.12941" lon="5.54966">
        <ele>1179.2</ele>
        <time>2020-08-23T08:47:12Z</time>
      </trkpt>
      <trkpt lat="45.1294" lon="5.54965">
        <ele>1179.1</ele>
        <time>2020-08-23T08:47:15Z</time>
      </trkpt>
      <trkpt lat="45.1294" lon="5.54965">
        <ele>1179.1</ele>
        <time>2020-08-23T08:47:16Z</time>
      </trkpt>
      <trkpt lat="45.1294" lon="5.54965">
        <ele>1179.1</ele>
        <time>2020-08-23T08:47:19Z</time>
      </trkpt>
      <trkpt lat="45.1294" lon="5.54965">
        <ele>1179.1</ele>
      </trkpt>
      <trkpt lat="45.12931" lon="5.54961">
        <ele>1180.1</ele>
        <time>2020-08-23T08:47:22Z</time>
      </trkpt>
      <trkpt lat="45.12929" lon="5.5496">
        <ele>1180.3</ele>
        <time>2020-08-23T08:47:23Z</time>
      </trkpt>
      <trkpt lat="45.12928" lon="5.5496">
        <ele>1180.5</ele>
        <time>2020-08-23T08:47:24Z</time>
      </trkpt>
      <trkpt lat="45.12924" lon="5.54958">
        <ele>1181.1</ele>
        <time>2020-08-23T08:47:27Z</time>
      </trkpt>
      <trkpt lat="45.12923" lon="5.54958">
        <ele>1181.1</ele>
        <time>2020-08-23T08:47:28Z</time>
      </trkpt>
      <trkpt lat="45.12922" lon="5.54957">
        <ele>1181.3</ele>
        <time>2020-08-23T08:47:29Z</time>
      </trkpt>
      <trkpt lat="45.12919" lon="5.54956">
        <ele>1181.7</ele>
        <time>2020-08-23T08:47:31Z</time>
      </trkpt>
      <trkpt lat="45.12918" lon="5.54956">
        <ele>1181.8</ele>
        <time>2020-08-23T08:47:32Z</time>
      </trkpt>
      <trkpt lat="45.12913" lon="5.54953">
        <ele>1181.9</ele>
        <time>2020-08-23T08:47:36Z</time>
      </trkpt>
      <trkpt lat="45.12912" lon="5.54952">
        <ele>1181.7</ele>
        <time>2020-08-23T08:47:37Z</time>
      </trkpt>
      <trkpt lat="45.12909" lon="5.54951">
        <ele>1181.7</ele>
        <time>2020-08-23T08:47:40Z</time>
      </trkpt>
      <trkpt lat="45.12907" lon="5.54951">
        <ele>1181.9</ele>
        <time>2020-08-23T08:47:41Z</time>
      </trkpt>
      <trkpt lat="45.12905" lon="5.5495">
        <ele>1182.2</ele>
        <time>2020-08-23T08:47:45Z</time>
      </trkpt>
      <trkpt lat="45.12905" lon="5.5495">
        <ele>1182.2</ele>
        <time>2020-08-23T08:47:46Z</time>
      </trkpt>
      <trkpt lat="45.12896" lon="5.54946">
        <ele>1182.3</ele>
        <time>2020-08-23T08:47:51Z</time>
      </trkpt>
      <trkpt lat="45.12895" lon="5.54946">
        <ele>1182.3</ele>
        <time>2020-08-23T08:47:52Z</time>
      </trkpt>
      <trkpt lat="45.12891" lon="5.54945">
        <ele>1182.5</ele>
        <time>2020-08-23T08:47:56Z</time>
      </trkpt>
      <trkpt lat="45.1289" lon="5.54944">
        <ele>1182.6</ele>
        <time>2020-08-23T08:47:57Z</time>
      </trkpt>
      <trkpt lat="45.12884" lon="5.54943">
        <ele>1183.2</ele>
        <time>2020-08-23T08:48:02Z</time>
      </trkpt>
      <trkpt lat="45.12883" lon="5.54943">
        <ele>1183.3</ele>
        <time>2020-08-23T08:48:03Z</time>
      </trkpt>
      <trkpt lat="45.12877" lon="5.5494">
        <ele>1183.2</ele>
        <time>2020-08-23T08:48:08Z</time>
      </trkpt>
      <trkpt lat="45.12875" lon="5.54939">
        <ele>1183.3</ele>
        <time>2020-08-23T08:48:09Z</time>
      </trkpt>
      <trkpt lat="45.12874" lon="5.54939">
        <ele>1183.4</ele>
        <time>2020-08-23T08:48:10Z</time>
      </trkpt>
      <trkpt lat="45.1287" lon="5.54939">
        <ele>1184.2</ele>
        <time>2020-08-23T08:48:14Z</time>
      </trkpt>
      <trkpt lat="45.12869" lon="5.5494">
        <ele>1184.5</ele>
        <time>2020-08-23T08:48:15Z</time>
      </trkpt>
      <trkpt lat="45.12866" lon="5.54941">
        <ele>1185.3</ele>
        <time>2020-08-23T08:48:17Z</time>
      </trkpt>
      <trkpt lat="45.12863" lon="5.5494">
        <ele>1185.6</ele>
        <time>2020-08-23T08:48:19Z</time>
      </trkpt>
      <trkpt lat="45.12862" lon="5.5494">
        <ele>1185.6</ele>
        <time>2020-08-23T08:48:20Z</time>
      </trkpt>
      <trkpt lat="45.12861" lon="5.5494">
        <ele>1185.9</ele>
        <time>2020-08-23T08:48:21Z</time>
      </trkpt>
      <trkpt lat="45.1286" lon="5.54941">
        <ele>1186.3</ele>
        <time>2020-08-23T08:48:22Z</time>
      </trkpt>
      <trkpt lat="45.12856" lon="5.54941">
        <ele>1187</ele>
        <time>2020-08-23T08:48:26Z</time>
      </trkpt>
      <trkpt lat="45.12854" lon="5.54941">
        <ele>1187.4</ele>
        <time>2020-08-23T08:48:27Z</time>
      </trkpt>
      <trkpt lat="45.12853" lon="5.54942">
        <ele>1187.8</ele>
        <time>2020-08-23T08:48:28Z</time>
      </trkpt>
      <trkpt lat="45.12851" lon="5.54942">
        <ele>1188.3</ele>
        <time>2020-08-23T08:48:29Z</time>
      </trkpt>
      <trkpt lat="45.12851" lon="5.54943">
        <ele>1188.6</ele>
        <time>2020-08-23T08:48:30Z</time>
      </trkpt>
      <trkpt lat="45.12846" lon="5.54943">
        <ele>1189.3</ele>
        <time>2020-08-23T08:48:33Z</time>
      </trkpt>
      <trkpt lat="45.12845" lon="5.54943">
        <ele>1189.6</ele>
        <time>2020-08-23T08:48:34Z</time>
      </trkpt>
      <trkpt lat="45.12839" lon="5.54943">
        <ele>1190.5</ele>
        <time>2020-08-23T08:48:39Z</time>
      </trkpt>
      <trkpt lat="45.12838" lon="5.54943">
        <ele>1190.5</ele>
        <time>2020-08-23T08:48:40Z</time>
      </trkpt>
      <trkpt lat="45.12828" lon="5.54945">
        <ele>1192.8</ele>
        <time>2020-08-23T08:48:48Z</time>
      </trkpt>
      <trkpt lat="45.12828" lon="5.54945">
        <ele>1193</ele>
        <time>2020-08-23T08:48:49Z</time>
      </trkpt>
      <trkpt lat="45.12825" lon="5.54946">
        <ele>1193.5</ele>
        <time>2020-08-23T08:48:54Z</time>
      </trkpt>
      <trkpt lat="45.12825" lon="5.54946">
        <ele>1193.5</ele>
        <time>2020-08-23T08:48:55Z</time>
      </trkpt>
      <trkpt lat="45.12825" lon="5.54946">
        <ele>1193.5</ele>
        <time>2020-08-23T08:48:59Z</time>
      </trkpt>
      <trkpt lat="45.12818" lon="5.54948">
        <ele>1194.8</ele>
        <time>2020-08-23T08:49:00Z</time>
      </trkpt>
      <trkpt lat="45.1281" lon="5.5495">
        <ele>1196.4</ele>
        <time>2020-08-23T08:49:05Z</time>
      </trkpt>
      <trkpt lat="45.12809" lon="5.5495">
        <ele>1196.4</ele>
        <time>2020-08-23T08:49:06Z</time>
      </trkpt>
      <trkpt lat="45.12806" lon="5.54952">
        <ele>1197.3</ele>
        <time>2020-08-23T08:49:11Z</time>
      </trkpt>
      <trkpt lat="45.12806" lon="5.54952">
        <ele>1197.3</ele>
        <time>2020-08-23T08:49:12Z</time>
      </trkpt>
      <trkpt lat="45.12806" lon="5.54952">
        <ele>1197.3</ele>
        <time>2020-08-23T08:49:14Z</time>
      </trkpt>
      <trkpt lat="45.12801" lon="5.54957">
        <ele>1199.6</ele>
        <time>2020-08-23T08:49:16Z</time>
      </trkpt>
      <trkpt lat="45.128" lon="5.54958">
        <ele>1200</ele>
        <time>2020-08-23T08:49:17Z</time>
      </trkpt>
      <trkpt lat="45.12799" lon="5.5496">
        <ele>1200.5</ele>
        <time>2020-08-23T08:49:18Z</time>
      </trkpt>
      <trkpt lat="45.12796" lon="5.54962">
        <ele>1201.4</ele>
        <time>2020-08-23T08:49:21Z</time>
      </trkpt>
      <trkpt lat="45.12795" lon="5.54962">
        <ele>1201.7</ele>
        <time>2020-08-23T08:49:22Z</time>
      </trkpt>
      <trkpt lat="45.12794" lon="5.54963">
        <ele>1202</ele>
        <time>2020-08-23T08:49:26Z</time>
      </trkpt>
      <trkpt lat="45.12794" lon="5.54963">
        <ele>1202</ele>
        <time>2020-08-23T08:49:28Z</time>
      </trkpt>
      <trkpt lat="45.12788" lon="5.54968">
        <ele>1203.8</ele>
        <time>2020-08-23T08:49:32Z</time>
      </trkpt>
      <trkpt lat="45.12785" lon="5.54969">
        <ele>1204.5</ele>
        <time>2020-08-23T08:49:33Z</time>
      </trkpt>
      <trkpt lat="45.12784" lon="5.5497">
        <ele>1204.6</ele>
        <time>2020-08-23T08:49:34Z</time>
      </trkpt>
      <trkpt lat="45.12783" lon="5.54971">
        <ele>1205</ele>
        <time>2020-08-23T08:49:38Z</time>
      </trkpt>
      <trkpt lat="45.12783" lon="5.54971">
        <ele>1205</ele>
        <time>2020-08-23T08:49:39Z</time>
      </trkpt>
      <trkpt lat="45.12783" lon="5.54971">
        <ele>1205</ele>
        <time>2020-08-23T08:49:43Z</time>
      </trkpt>
      <trkpt lat="45.12778" lon="5.54978">
        <ele>1207.4</ele>
        <time>2020-08-23T08:49:44Z</time>
      </trkpt>
      <trkpt lat="45.12777" lon="5.54982">
        <ele>1208.4</ele>
        <time>2020-08-23T08:49:45Z</time>
      </trkpt>
      <trkpt lat="45.12775" lon="5.54984">
        <ele>1209.1</ele>
        <time>2020-08-23T08:49:49Z</time>
      </trkpt>
      <trkpt lat="45.12775" lon="5.54984">
        <ele>1209.1</ele>
        <time>2020-08-23T08:49:50Z</time>
      </trkpt>
      <trkpt lat="45.12775" lon="5.54984">
        <ele>1209.1</ele>
        <time>2020-08-23T08:49:53Z</time>
      </trkpt>
      <trkpt lat="45.12775" lon="5.54984">
        <ele>1209.1</ele>
        <time>2020-08-23T08:49:54Z</time>
      </trkpt>
      <trkpt lat="45.12764" lon="5.54994">
        <ele>1212.2</ele>
        <time>2020-08-23T08:49:58Z</time>
      </trkpt>
      <trkpt lat="45.12763" lon="5.54995">
        <ele>1212.6</ele>
        <time>2020-08-23T08:49:59Z</time>
      </trkpt>
      <trkpt lat="45.12763" lon="5.54997">
        <ele>1213</ele>
        <time>2020-08-23T08:50:03Z</time>
      </trkpt>
      <trkpt lat="45.12763" lon="5.54997">
        <ele>1213</ele>
        <time>2020-08-23T08:50:04Z</time>
      </trkpt>
      <trkpt lat="45.12753" lon="5.54999">
        <ele>1213.8</ele>
        <time>2020-08-23T08:50:08Z</time>
      </trkpt>
      <trkpt lat="45.12753" lon="5.54998">
        <ele>1213.6</ele>
        <time>2020-08-23T08:50:09Z</time>
      </trkpt>
      <trkpt lat="45.12751" lon="5.54998">
        <ele>1213.5</ele>
        <time>2020-08-23T08:50:13Z</time>
      </trkpt>
      <trkpt lat="45.12751" lon="5.54998">
        <ele>1213.5</ele>
        <time>2020-08-23T08:50:14Z</time>
      </trkpt>
      <trkpt lat="45.12751" lon="5.54998">
        <ele>1213.5</ele>
        <time>2020-08-23T08:50:18Z</time>
      </trkpt>
      <trkpt lat="45.12751" lon="5.54998">
        <ele>1213.5</ele>
        <time>2020-08-23T08:50:19Z</time>
      </trkpt>
      <trkpt lat="45.12751" lon="5.54998">
        <ele>1213.5</ele>
        <time>2020-08-23T08:50:20Z</time>
      </trkpt>
      <trkpt lat="45.12743" lon="5.54987">
        <ele>1212.4</ele>
        <time>2020-08-23T08:50:22Z</time>
      </trkpt>
      <trkpt lat="45.12743" lon="5.54986">
        <ele>1212.2</ele>
        <time>2020-08-23T08:50:23Z</time>
      </trkpt>
      <trkpt lat="45.12741" lon="5.54984">
        <ele>1212.1</ele>
        <time>2020-08-23T08:50:26Z</time>
      </trkpt>
      <trkpt lat="45.1274" lon="5.54981">
        <ele>1211.5</ele>
        <time>2020-08-23T08:50:27Z</time>
      </trkpt>
      <trkpt lat="45.12734" lon="5.54971">
        <ele>1210.4</ele>
        <time>2020-08-23T08:50:34Z</time>
      </trkpt>
      <trkpt lat="45.12721" lon="5.54969">
        <ele>1212.4</ele>
        <time>2020-08-23T08:50:45Z</time>
      </trkpt>
      <trkpt lat="45.12707" lon="5.54967">
        <ele>1214.5</ele>
        <time>2020-08-23T08:50:55Z</time>
      </trkpt>
      <trkpt lat="45.12706" lon="5.54967">
        <ele>1214.8</ele>
        <time>2020-08-23T08:50:56Z</time>
      </trkpt>
      <trkpt lat="45.12703" lon="5.54967">
        <ele>1215.2</ele>
        <time>2020-08-23T08:50:58Z</time>
      </trkpt>
      <trkpt lat="45.12702" lon="5.54966">
        <ele>1215.3</ele>
        <time>2020-08-23T08:50:59Z</time>
      </trkpt>
      <trkpt lat="45.12696" lon="5.54967">
        <ele>1216.5</ele>
        <time>2020-08-23T08:51:03Z</time>
      </trkpt>
      <trkpt lat="45.12695" lon="5.54967">
        <ele>1216.9</ele>
        <time>2020-08-23T08:51:04Z</time>
      </trkpt>
      <trkpt lat="45.12689" lon="5.54969">
        <ele>1218.2</ele>
        <time>2020-08-23T08:51:08Z</time>
      </trkpt>
      <trkpt lat="45.12688" lon="5.54969">
        <ele>1218.5</ele>
        <time>2020-08-23T08:51:09Z</time>
      </trkpt>
      <trkpt lat="45.12685" lon="5.5497">
        <ele>1219.2</ele>
        <time>2020-08-23T08:51:12Z</time>
      </trkpt>
      <trkpt lat="45.12684" lon="5.5497">
        <ele>1219.5</ele>
        <time>2020-08-23T08:51:13Z</time>
      </trkpt>
      <trkpt lat="45.12681" lon="5.54972">
        <ele>1220.5</ele>
        <time>2020-08-23T08:51:18Z</time>
      </trkpt>
      <trkpt lat="45.12679" lon="5.54972">
        <ele>1221.1</ele>
        <time>2020-08-23T08:51:19Z</time>
      </trkpt>
      <trkpt lat="45.12675" lon="5.54975">
        <ele>1222.4</ele>
        <time>2020-08-23T08:51:22Z</time>
      </trkpt>
      <trkpt lat="45.12673" lon="5.54976">
        <ele>1223</ele>
        <time>2020-08-23T08:51:23Z</time>
      </trkpt>
      <trkpt lat="45.12666" lon="5.5498">
        <ele>1225.2</ele>
        <time>2020-08-23T08:51:27Z</time>
      </trkpt>
      <trkpt lat="45.12664" lon="5.5498">
        <ele>1225.3</ele>
        <time>2020-08-23T08:51:28Z</time>
      </trkpt>
      <trkpt lat="45.12663" lon="5.54979">
        <ele>1225.2</ele>
        <time>2020-08-23T08:51:29Z</time>
      </trkpt>
      <trkpt lat="45.12661" lon="5.54979">
        <ele>1225.2</ele>
        <time>2020-08-23T08:51:30Z</time>
      </trkpt>
      <trkpt lat="45.12656" lon="5.5498">
        <ele>1225.7</ele>
        <time>2020-08-23T08:51:33Z</time>
      </trkpt>
      <trkpt lat="45.12655" lon="5.54981">
        <ele>1225.9</ele>
        <time>2020-08-23T08:51:34Z</time>
      </trkpt>
      <trkpt lat="45.12653" lon="5.54981">
        <ele>1226.2</ele>
        <time>2020-08-23T08:51:35Z</time>
      </trkpt>
      <trkpt lat="45.12652" lon="5.54982">
        <ele>1226.4</ele>
        <time>2020-08-23T08:51:36Z</time>
      </trkpt>
      <trkpt lat="45.12649" lon="5.54983">
        <ele>1226.8</ele>
        <time>2020-08-23T08:51:39Z</time>
      </trkpt>
      <trkpt lat="45.12648" lon="5.54983">
        <ele>1226.9</ele>
        <time>2020-08-23T08:51:40Z</time>
      </trkpt>
      <trkpt lat="45.12625" lon="5.5499">
        <ele>1229.6</ele>
        <time>2020-08-23T08:51:59Z</time>
      </trkpt>
      <trkpt lat="45.12624" lon="5.5499">
        <ele>1229.6</ele>
        <time>2020-08-23T08:52:00Z</time>
      </trkpt>
      <trkpt lat="45.12624" lon="5.5499">
        <ele>1229.6</ele>
        <time>2020-08-23T08:52:02Z</time>
      </trkpt>
      <trkpt lat="45.12624" lon="5.5499">
        <ele>1229.6</ele>
        <time>2020-08-23T08:52:03Z</time>
      </trkpt>
      <trkpt lat="45.12581" lon="5.55023">
        <ele>1237.7</ele>
        <time>2020-08-23T08:52:37Z</time>
      </trkpt>
      <trkpt lat="45.1258" lon="5.55023">
        <ele>1237.8</ele>
        <time>2020-08-23T08:52:38Z</time>
      </trkpt>
      <trkpt lat="45.12574" lon="5.55031">
        <ele>1239.3</ele>
        <time>2020-08-23T08:52:44Z</time>
      </trkpt>
      <trkpt lat="45.12572" lon="5.55033">
        <ele>1239.6</ele>
        <time>2020-08-23T08:52:45Z</time>
      </trkpt>
      <trkpt lat="45.12566" lon="5.55041">
        <ele>1241</ele>
        <time>2020-08-23T08:52:50Z</time>
      </trkpt>
      <trkpt lat="45.12563" lon="5.55045">
        <ele>1241.6</ele>
        <time>2020-08-23T08:52:52Z</time>
      </trkpt>
      <trkpt lat="45.12563" lon="5.55046">
        <ele>1241.8</ele>
        <time>2020-08-23T08:52:53Z</time>
      </trkpt>
      <trkpt lat="45.12559" lon="5.55048">
        <ele>1242.2</ele>
        <time>2020-08-23T08:52:56Z</time>
      </trkpt>
      <trkpt lat="45.12558" lon="5.5505">
        <ele>1242.4</ele>
        <time>2020-08-23T08:52:57Z</time>
      </trkpt>
      <trkpt lat="45.12557" lon="5.55051">
        <ele>1242.6</ele>
        <time>2020-08-23T08:52:58Z</time>
      </trkpt>
      <trkpt lat="45.12556" lon="5.55053">
        <ele>1242.8</ele>
        <time>2020-08-23T08:52:59Z</time>
      </trkpt>
      <trkpt lat="45.12552" lon="5.55058">
        <ele>1243.5</ele>
        <time>2020-08-23T08:53:03Z</time>
      </trkpt>
      <trkpt lat="45.12551" lon="5.55058">
        <ele>1243.6</ele>
        <time>2020-08-23T08:53:04Z</time>
      </trkpt>
      <trkpt lat="45.12547" lon="5.55066">
        <ele>1244.6</ele>
        <time>2020-08-23T08:53:10Z</time>
      </trkpt>
      <trkpt lat="45.12546" lon="5.55067">
        <ele>1244.7</ele>
        <time>2020-08-23T08:53:11Z</time>
      </trkpt>
      <trkpt lat="45.1254" lon="5.55073">
        <ele>1245.4</ele>
        <time>2020-08-23T08:53:16Z</time>
      </trkpt>
      <trkpt lat="45.1254" lon="5.55074">
        <ele>1245.5</ele>
        <time>2020-08-23T08:53:17Z</time>
      </trkpt>
      <trkpt lat="45.1251" lon="5.55126">
        <ele>1248.1</ele>
        <time>2020-08-23T08:53:47Z</time>
      </trkpt>
      <trkpt lat="45.12509" lon="5.55128">
        <ele>1248.2</ele>
        <time>2020-08-23T08:53:48Z</time>
      </trkpt>
      <trkpt lat="45.12482" lon="5.55126">
        <ele>1249.3</ele>
        <time>2020-08-23T09:03:59Z</time>
      </trkpt>
      <trkpt lat="45.12481" lon="5.55122">
        <ele>1249.3</ele>
        <time>2020-08-23T09:04:00Z</time>
      </trkpt>
      <trkpt lat="45.1248" lon="5.55118">
        <ele>1249.3</ele>
        <time>2020-08-23T09:04:01Z</time>
      </trkpt>
      <trkpt lat="45.12476" lon="5.55092">
        <ele>1249.1</ele>
        <time>2020-08-23T09:04:08Z</time>
      </trkpt>
      <trkpt lat="45.12475" lon="5.55088">
        <ele>1249.1</ele>
        <time>2020-08-23T09:04:09Z</time>
      </trkpt>
      <trkpt lat="45.12472" lon="5.55059">
        <ele>1247.8</ele>
        <time>2020-08-23T09:04:16Z</time>
      </trkpt>
      <trkpt lat="45.12471" lon="5.55056">
        <ele>1247.7</ele>
        <time>2020-08-23T09:04:17Z</time>
      </trkpt>
      <trkpt lat="45.12471" lon="5.55048">
        <ele>1247.2</ele>
        <time>2020-08-23T09:04:19Z</time>
      </trkpt>
      <trkpt lat="45.1247" lon="5.55044">
        <ele>1247.1</ele>
        <time>2020-08-23T09:04:20Z</time>
      </trkpt>
      <trkpt lat="45.12469" lon="5.5504">
        <ele>1246.9</ele>
        <time>2020-08-23T09:04:21Z</time>
      </trkpt>
      <trkpt lat="45.12468" lon="5.55036">
        <ele>1246.8</ele>
        <time>2020-08-23T09:04:22Z</time>
      </trkpt>
      <trkpt lat="45.12457" lon="5.55015">
        <ele>1246.6</ele>
        <time>2020-08-23T09:04:28Z</time>
      </trkpt>
      <trkpt lat="45.12455" lon="5.55012">
        <ele>1246.7</ele>
        <time>2020-08-23T09:04:29Z</time>
      </trkpt>
      <trkpt lat="45.12424" lon="5.54991">
        <ele>1247.6</ele>
        <time>2020-08-23T09:04:40Z</time>
      </trkpt>
      <trkpt lat="45.1242" lon="5.54989">
        <ele>1247.7</ele>
        <time>2020-08-23T09:04:41Z</time>
      </trkpt>
      <trkpt lat="45.12413" lon="5.54987">
        <ele>1248.1</ele>
        <time>2020-08-23T09:04:43Z</time>
      </trkpt>
      <trkpt lat="45.12409" lon="5.54986">
        <ele>1248.2</ele>
        <time>2020-08-23T09:04:44Z</time>
      </trkpt>
      <trkpt lat="45.12403" lon="5.54982">
        <ele>1248.2</ele>
        <time>2020-08-23T09:04:46Z</time>
      </trkpt>
      <trkpt lat="45.124" lon="5.5498">
        <ele>1248.2</ele>
        <time>2020-08-23T09:04:47Z</time>
      </trkpt>
      <trkpt lat="45.12393" lon="5.54978">
        <ele>1248.4</ele>
        <time>2020-08-23T09:04:49Z</time>
      </trkpt>
      <trkpt lat="45.12389" lon="5.54976">
        <ele>1248.5</ele>
        <time>2020-08-23T09:04:50Z</time>
      </trkpt>
      <trkpt lat="45.12382" lon="5.54972">
        <ele>1248.6</ele>
        <time>2020-08-23T09:04:52Z</time>
      </trkpt>
      <trkpt lat="45.12378" lon="5.5497">
        <ele>1248.6</ele>
        <time>2020-08-23T09:04:53Z</time>
      </trkpt>
      <trkpt lat="45.12375" lon="5.54968">
        <ele>1248.7</ele>
        <time>2020-08-23T09:04:54Z</time>
      </trkpt>
      <trkpt lat="45.12372" lon="5.54966">
        <ele>1248.7</ele>
        <time>2020-08-23T09:04:55Z</time>
      </trkpt>
      <trkpt lat="45.12368" lon="5.54965">
        <ele>1248.8</ele>
        <time>2020-08-23T09:04:56Z</time>
      </trkpt>
      <trkpt lat="45.12357" lon="5.5496">
        <ele>1249.2</ele>
        <time>2020-08-23T09:04:59Z</time>
      </trkpt>
      <trkpt lat="45.12352" lon="5.54957">
        <ele>1249.3</ele>
        <time>2020-08-23T09:05:00Z</time>
      </trkpt>
      <trkpt lat="45.12348" lon="5.54956">
        <ele>1249.5</ele>
        <time>2020-08-23T09:05:01Z</time>
      </trkpt>
      <trkpt lat="45.12333" lon="5.54947">
        <ele>1249.8</ele>
        <time>2020-08-23T09:05:06Z</time>
      </trkpt>
      <trkpt lat="45.1233" lon="5.54945">
        <ele>1249.8</ele>
        <time>2020-08-23T09:05:07Z</time>
      </trkpt>
      <trkpt lat="45.12321" lon="5.54941">
        <ele>1250.2</ele>
        <time>2020-08-23T09:05:10Z</time>
      </trkpt>
      <trkpt lat="45.12317" lon="5.5494">
        <ele>1250.3</ele>
        <time>2020-08-23T09:05:11Z</time>
      </trkpt>
      <trkpt lat="45.1231" lon="5.54937">
        <ele>1250.6</ele>
        <time>2020-08-23T09:05:13Z</time>
      </trkpt>
      <trkpt lat="45.12307" lon="5.54936">
        <ele>1250.7</ele>
        <time>2020-08-23T09:05:14Z</time>
      </trkpt>
      <trkpt lat="45.12296" lon="5.54932">
        <ele>1251.4</ele>
        <time>2020-08-23T09:05:17Z</time>
      </trkpt>
      <trkpt lat="45.12292" lon="5.54931">
        <ele>1251.6</ele>
        <time>2020-08-23T09:05:18Z</time>
      </trkpt>
      <trkpt lat="45.12289" lon="5.54929">
        <ele>1251.8</ele>
        <time>2020-08-23T09:05:19Z</time>
      </trkpt>
      <trkpt lat="45.1228" lon="5.54925">
        <ele>1252</ele>
        <time>2020-08-23T09:05:21Z</time>
      </trkpt>
      <trkpt lat="45.12276" lon="5.54923">
        <ele>1252.2</ele>
        <time>2020-08-23T09:05:22Z</time>
      </trkpt>
      <trkpt lat="45.1225" lon="5.54913">
        <ele>1253.4</ele>
        <time>2020-08-23T09:05:29Z</time>
      </trkpt>
      <trkpt lat="45.12246" lon="5.5491">
        <ele>1253.4</ele>
        <time>2020-08-23T09:05:30Z</time>
      </trkpt>
      <trkpt lat="45.12207" lon="5.54892">
        <ele>1254.3</ele>
        <time>2020-08-23T09:05:41Z</time>
      </trkpt>
      <trkpt lat="45.12204" lon="5.54891">
        <ele>1254.4</ele>
        <time>2020-08-23T09:05:42Z</time>
      </trkpt>
      <trkpt lat="45.12189" lon="5.54882">
        <ele>1254.7</ele>
        <time>2020-08-23T09:05:46Z</time>
      </trkpt>
      <trkpt lat="45.12185" lon="5.5488">
        <ele>1254.7</ele>
        <time>2020-08-23T09:05:47Z</time>
      </trkpt>
      <trkpt lat="45.12175" lon="5.54874">
        <ele>1255</ele>
        <time>2020-08-23T09:05:50Z</time>
      </trkpt>
      <trkpt lat="45.12171" lon="5.54872">
        <ele>1255.2</ele>
        <time>2020-08-23T09:05:51Z</time>
      </trkpt>
      <trkpt lat="45.12168" lon="5.5487">
        <ele>1255.2</ele>
        <time>2020-08-23T09:05:52Z</time>
      </trkpt>
      <trkpt lat="45.12159" lon="5.54864">
        <ele>1255</ele>
        <time>2020-08-23T09:05:55Z</time>
      </trkpt>
      <trkpt lat="45.12156" lon="5.54863">
        <ele>1254.9</ele>
        <time>2020-08-23T09:05:56Z</time>
      </trkpt>
      <trkpt lat="45.12143" lon="5.54858">
        <ele>1254.6</ele>
        <time>2020-08-23T09:06:00Z</time>
      </trkpt>
      <trkpt lat="45.1214" lon="5.54857">
        <ele>1254.6</ele>
        <time>2020-08-23T09:06:01Z</time>
      </trkpt>
      <trkpt lat="45.12117" lon="5.54853">
        <ele>1254.5</ele>
        <time>2020-08-23T09:06:07Z</time>
      </trkpt>
      <trkpt lat="45.12111" lon="5.54851">
        <ele>1254.4</ele>
        <time>2020-08-23T09:06:09Z</time>
      </trkpt>
      <trkpt lat="45.1209" lon="5.54848">
        <ele>1254.4</ele>
        <time>2020-08-23T09:06:15Z</time>
      </trkpt>
      <trkpt lat="45.12086" lon="5.54847">
        <ele>1254.3</ele>
        <time>2020-08-23T09:06:16Z</time>
      </trkpt>
      <trkpt lat="45.12061" lon="5.54847">
        <ele>1255.2</ele>
        <time>2020-08-23T09:06:23Z</time>
      </trkpt>
      <trkpt lat="45.12056" lon="5.54849">
        <ele>1255.7</ele>
        <time>2020-08-23T09:06:25Z</time>
      </trkpt>
      <trkpt lat="45.1204" lon="5.54858">
        <ele>1257.5</ele>
        <time>2020-08-23T09:06:30Z</time>
      </trkpt>
      <trkpt lat="45.12006" lon="5.54876">
        <ele>1261</ele>
        <time>2020-08-23T09:06:40Z</time>
      </trkpt>
      <trkpt lat="45.12003" lon="5.54878">
        <ele>1261.3</ele>
        <time>2020-08-23T09:06:41Z</time>
      </trkpt>
      <trkpt lat="45.11979" lon="5.54874">
        <ele>1262.3</ele>
        <time>2020-08-23T09:06:47Z</time>
      </trkpt>
      <trkpt lat="45.11977" lon="5.54872">
        <ele>1262.2</ele>
        <time>2020-08-23T09:06:48Z</time>
      </trkpt>
      <trkpt lat="45.11974" lon="5.54869">
        <ele>1262.1</ele>
        <time>2020-08-23T09:06:49Z</time>
      </trkpt>
      <trkpt lat="45.11973" lon="5.54866">
        <ele>1262</ele>
        <time>2020-08-23T09:06:50Z</time>
      </trkpt>
      <trkpt lat="45.11971" lon="5.54863">
        <ele>1261.8</ele>
        <time>2020-08-23T09:06:51Z</time>
      </trkpt>
      <trkpt lat="45.1197" lon="5.5486">
        <ele>1261.6</ele>
        <time>2020-08-23T09:06:52Z</time>
      </trkpt>
      <trkpt lat="45.11967" lon="5.54847">
        <ele>1260.8</ele>
        <time>2020-08-23T09:06:56Z</time>
      </trkpt>
      <trkpt lat="45.11966" lon="5.54844">
        <ele>1260.6</ele>
        <time>2020-08-23T09:06:57Z</time>
      </trkpt>
      <trkpt lat="45.11965" lon="5.54833">
        <ele>1259.8</ele>
        <time>2020-08-23T09:07:00Z</time>
      </trkpt>
      <trkpt lat="45.11964" lon="5.54829">
        <ele>1259.3</ele>
        <time>2020-08-23T09:07:01Z</time>
      </trkpt>
      <trkpt lat="45.11959" lon="5.54813">
        <ele>1257.6</ele>
        <time>2020-08-23T09:07:05Z</time>
      </trkpt>
      <trkpt lat="45.11957" lon="5.54809">
        <ele>1257.3</ele>
        <time>2020-08-23T09:07:06Z</time>
      </trkpt>
      <trkpt lat="45.11947" lon="5.54794">
        <ele>1256.3</ele>
        <time>2020-08-23T09:07:11Z</time>
      </trkpt>
      <trkpt lat="45.11945" lon="5.54792">
        <ele>1256.2</ele>
        <time>2020-08-23T09:07:12Z</time>
      </trkpt>
      <trkpt lat="45.11942" lon="5.54791">
        <ele>1256.3</ele>
        <time>2020-08-23T09:07:13Z</time>
      </trkpt>
      <trkpt lat="45.11939" lon="5.54789">
        <ele>1256.4</ele>
        <time>2020-08-23T09:07:14Z</time>
      </trkpt>
      <trkpt lat="45.11933" lon="5.54786">
        <ele>1256.6</ele>
        <time>2020-08-23T09:07:16Z</time>
      </trkpt>
      <trkpt lat="45.1193" lon="5.54785">
        <ele>1256.8</ele>
        <time>2020-08-23T09:07:17Z</time>
      </trkpt>
      <trkpt lat="45.11915" lon="5.54783">
        <ele>1257.8</ele>
        <time>2020-08-23T09:07:22Z</time>
      </trkpt>
      <trkpt lat="45.11912" lon="5.54783">
        <ele>1257.9</ele>
        <time>2020-08-23T09:07:23Z</time>
      </trkpt>
      <trkpt lat="45.11903" lon="5.54784">
        <ele>1258.3</ele>
        <time>2020-08-23T09:07:27Z</time>
      </trkpt>
      <trkpt lat="45.119" lon="5.54784">
        <ele>1258.5</ele>
        <time>2020-08-23T09:07:28Z</time>
      </trkpt>
      <trkpt lat="45.11885" lon="5.5479">
        <ele>1259.8</ele>
        <time>2020-08-23T09:07:34Z</time>
      </trkpt>
      <trkpt lat="45.11882" lon="5.54791">
        <ele>1260.1</ele>
        <time>2020-08-23T09:07:35Z</time>
      </trkpt>
      <trkpt lat="45.1188" lon="5.54792">
        <ele>1260.4</ele>
        <time>2020-08-23T09:07:36Z</time>
      </trkpt>
      <trkpt lat="45.11875" lon="5.54793">
        <ele>1260.7</ele>
        <time>2020-08-23T09:07:38Z</time>
      </trkpt>
      <trkpt lat="45.11872" lon="5.54793">
        <ele>1260.8</ele>
        <time>2020-08-23T09:07:39Z</time>
      </trkpt>
      <trkpt lat="45.11869" lon="5.54795">
        <ele>1261.2</ele>
        <time>2020-08-23T09:07:41Z</time>
      </trkpt>
      <trkpt lat="45.11867" lon="5.54796">
        <ele>1261.4</ele>
        <time>2020-08-23T09:07:42Z</time>
      </trkpt>
      <trkpt lat="45.11852" lon="5.54802">
        <ele>1263</ele>
        <time>2020-08-23T09:07:47Z</time>
      </trkpt>
      <trkpt lat="45.1185" lon="5.54803">
        <ele>1263.3</ele>
        <time>2020-08-23T09:07:48Z</time>
      </trkpt>
      <trkpt lat="45.11834" lon="5.5481">
        <ele>1265.1</ele>
        <time>2020-08-23T09:07:53Z</time>
      </trkpt>
      <trkpt lat="45.11831" lon="5.54811">
        <ele>1265.3</ele>
        <time>2020-08-23T09:07:54Z</time>
      </trkpt>
      <trkpt lat="45.11816" lon="5.54818">
        <ele>1266.3</ele>
        <time>2020-08-23T09:07:59Z</time>
      </trkpt>
      <trkpt lat="45.11813" lon="5.54819">
        <ele>1266.5</ele>
        <time>2020-08-23T09:08:00Z</time>
      </trkpt>
      <trkpt lat="45.11799" lon="5.54821">
        <ele>1266.9</ele>
        <time>2020-08-23T09:08:04Z</time>
      </trkpt>
      <trkpt lat="45.11796" lon="5.54822">
        <ele>1267</ele>
        <time>2020-08-23T09:08:05Z</time>
      </trkpt>
      <trkpt lat="45.11779" lon="5.54823">
        <ele>1267.2</ele>
        <time>2020-08-23T09:08:10Z</time>
      </trkpt>
      <trkpt lat="45.11776" lon="5.54824">
        <ele>1267.2</ele>
        <time>2020-08-23T09:08:11Z</time>
      </trkpt>
      <trkpt lat="45.11763" lon="5.54826">
        <ele>1267.5</ele>
        <time>2020-08-23T09:08:15Z</time>
      </trkpt>
      <trkpt lat="45.11761" lon="5.54827">
        <ele>1267.7</ele>
        <time>2020-08-23T09:08:16Z</time>
      </trkpt>
      <trkpt lat="45.11751" lon="5.54829">
        <ele>1268.1</ele>
        <time>2020-08-23T09:08:19Z</time>
      </trkpt>
      <trkpt lat="45.11747" lon="5.5483">
        <ele>1268.2</ele>
        <time>2020-08-23T09:08:20Z</time>
      </trkpt>
      <trkpt lat="45.11731" lon="5.54835">
        <ele>1268.2</ele>
        <time>2020-08-23T09:08:25Z</time>
      </trkpt>
      <trkpt lat="45.11728" lon="5.54836">
        <ele>1268.2</ele>
        <time>2020-08-23T09:08:26Z</time>
      </trkpt>
      <trkpt lat="45.11716" lon="5.54842">
        <ele>1268.3</ele>
        <time>2020-08-23T09:08:30Z</time>
      </trkpt>
      <trkpt lat="45.11713" lon="5.54843">
        <ele>1268.2</ele>
        <time>2020-08-23T09:08:31Z</time>
      </trkpt>
      <trkpt lat="45.11705" lon="5.54847">
        <ele>1268.2</ele>
        <time>2020-08-23T09:08:33Z</time>
      </trkpt>
      <trkpt lat="45.11701" lon="5.54848">
        <ele>1268.1</ele>
        <time>2020-08-23T09:08:34Z</time>
      </trkpt>
      <trkpt lat="45.11697" lon="5.5485">
        <ele>1268.1</ele>
        <time>2020-08-23T09:08:35Z</time>
      </trkpt>
      <trkpt lat="45.11693" lon="5.54852">
        <ele>1268.1</ele>
        <time>2020-08-23T09:08:36Z</time>
      </trkpt>
      <trkpt lat="45.11675" lon="5.54859">
        <ele>1267.7</ele>
        <time>2020-08-23T09:08:41Z</time>
      </trkpt>
      <trkpt lat="45.11673" lon="5.5486">
        <ele>1267.6</ele>
        <time>2020-08-23T09:08:42Z</time>
      </trkpt>
      <trkpt lat="45.11659" lon="5.54864">
        <ele>1267.6</ele>
        <time>2020-08-23T09:08:46Z</time>
      </trkpt>
      <trkpt lat="45.11651" lon="5.54867">
        <ele>1267.9</ele>
        <time>2020-08-23T09:08:48Z</time>
      </trkpt>
      <trkpt lat="45.11636" lon="5.54872">
        <ele>1268.3</ele>
        <time>2020-08-23T09:08:52Z</time>
      </trkpt>
      <trkpt lat="45.11625" lon="5.54873">
        <ele>1268.4</ele>
        <time>2020-08-23T09:08:55Z</time>
      </trkpt>
      <trkpt lat="45.11621" lon="5.54874">
        <ele>1268.5</ele>
        <time>2020-08-23T09:08:56Z</time>
      </trkpt>
      <trkpt lat="45.11595" lon="5.54874">
        <ele>1268.5</ele>
        <time>2020-08-23T09:09:03Z</time>
      </trkpt>
      <trkpt lat="45.11592" lon="5.54873">
        <ele>1268.5</ele>
        <time>2020-08-23T09:09:04Z</time>
      </trkpt>
      <trkpt lat="45.1158" lon="5.5487">
        <ele>1268.6</ele>
        <time>2020-08-23T09:09:10Z</time>
      </trkpt>
      <trkpt lat="45.11577" lon="5.54868">
        <ele>1268.8</ele>
        <time>2020-08-23T09:09:12Z</time>
      </trkpt>
      <trkpt lat="45.11574" lon="5.54867">
        <ele>1268.9</ele>
        <time>2020-08-23T09:09:15Z</time>
      </trkpt>
      <trkpt lat="45.11568" lon="5.54857">
        <ele>1269.3</ele>
        <time>2020-08-23T09:09:20Z</time>
      </trkpt>
      <trkpt lat="45.11567" lon="5.54854">
        <ele>1269.4</ele>
        <time>2020-08-23T09:09:21Z</time>
      </trkpt>
      <trkpt lat="45.11565" lon="5.54848">
        <ele>1269.6</ele>
        <time>2020-08-23T09:09:23Z</time>
      </trkpt>
      <trkpt lat="45.11564" lon="5.54846">
        <ele>1269.7</ele>
        <time>2020-08-23T09:09:24Z</time>
      </trkpt>
      <trkpt lat="45.11555" lon="5.54842">
        <ele>1270.5</ele>
        <time>2020-08-23T09:09:30Z</time>
      </trkpt>
      <trkpt lat="45.11554" lon="5.54841">
        <ele>1270.7</ele>
        <time>2020-08-23T09:09:31Z</time>
      </trkpt>
      <trkpt lat="45.11549" lon="5.54835">
        <ele>1271.2</ele>
        <time>2020-08-23T09:09:35Z</time>
      </trkpt>
      <trkpt lat="45.11548" lon="5.54833">
        <ele>1271.3</ele>
        <time>2020-08-23T09:09:36Z</time>
      </trkpt>
      <trkpt lat="45.11542" lon="5.54826">
        <ele>1271</ele>
        <time>2020-08-23T09:09:41Z</time>
      </trkpt>
      <trkpt lat="45.1154" lon="5.54825">
        <ele>1271</ele>
        <time>2020-08-23T09:09:42Z</time>
      </trkpt>
      <trkpt lat="45.11523" lon="5.5482">
        <ele>1272.1</ele>
        <time>2020-08-23T09:09:46Z</time>
      </trkpt>
      <trkpt lat="45.11517" lon="5.54817">
        <ele>1272.6</ele>
        <time>2020-08-23T09:09:47Z</time>
      </trkpt>
      <trkpt lat="45.11517" lon="5.54818">
        <ele>1272.7</ele>
        <time>2020-08-23T09:09:51Z</time>
      </trkpt>
      <trkpt lat="45.11515" lon="5.54817">
        <ele>1272.8</ele>
        <time>2020-08-23T09:09:53Z</time>
      </trkpt>
      <trkpt lat="45.1151" lon="5.54816">
        <ele>1273.3</ele>
        <time>2020-08-23T09:09:57Z</time>
      </trkpt>
      <trkpt lat="45.11508" lon="5.54816">
        <ele>1273.4</ele>
        <time>2020-08-23T09:09:58Z</time>
      </trkpt>
      <trkpt lat="45.115" lon="5.54814">
        <ele>1274</ele>
        <time>2020-08-23T09:10:02Z</time>
      </trkpt>
      <trkpt lat="45.11499" lon="5.54812">
        <ele>1273.9</ele>
        <time>2020-08-23T09:10:03Z</time>
      </trkpt>
      <trkpt lat="45.11491" lon="5.54804">
        <ele>1273</ele>
        <time>2020-08-23T09:10:08Z</time>
      </trkpt>
      <trkpt lat="45.1149" lon="5.54803">
        <ele>1272.9</ele>
        <time>2020-08-23T09:10:09Z</time>
      </trkpt>
      <trkpt lat="45.11483" lon="5.54797">
        <ele>1272.3</ele>
        <time>2020-08-23T09:10:13Z</time>
      </trkpt>
      <trkpt lat="45.1148" lon="5.54794">
        <ele>1272</ele>
        <time>2020-08-23T09:10:15Z</time>
      </trkpt>
      <trkpt lat="45.11472" lon="5.54793">
        <ele>1271.8</ele>
        <time>2020-08-23T09:10:19Z</time>
      </trkpt>
      <trkpt lat="45.1147" lon="5.54794">
        <ele>1271.8</ele>
        <time>2020-08-23T09:10:20Z</time>
      </trkpt>
      <trkpt lat="45.11468" lon="5.54795">
        <ele>1271.8</ele>
        <time>2020-08-23T09:10:21Z</time>
      </trkpt>
      <trkpt lat="45.11465" lon="5.54796">
        <ele>1271.9</ele>
        <time>2020-08-23T09:10:22Z</time>
      </trkpt>
      <trkpt lat="45.11457" lon="5.54798">
        <ele>1272</ele>
        <time>2020-08-23T09:10:25Z</time>
      </trkpt>
      <trkpt lat="45.11454" lon="5.54799">
        <ele>1271.9</ele>
        <time>2020-08-23T09:10:26Z</time>
      </trkpt>
      <trkpt lat="45.11451" lon="5.54799">
        <ele>1271.9</ele>
        <time>2020-08-23T09:10:27Z</time>
      </trkpt>
      <trkpt lat="45.1144" lon="5.54792">
        <ele>1271.3</ele>
        <time>2020-08-23T09:10:32Z</time>
      </trkpt>
      <trkpt lat="45.11438" lon="5.5479">
        <ele>1271.1</ele>
        <time>2020-08-23T09:10:33Z</time>
      </trkpt>
      <trkpt lat="45.11437" lon="5.54787">
        <ele>1271</ele>
        <time>2020-08-23T09:10:34Z</time>
      </trkpt>
      <trkpt lat="45.11427" lon="5.54787">
        <ele>1270.9</ele>
        <time>2020-08-23T09:10:38Z</time>
      </trkpt>
      <trkpt lat="45.11425" lon="5.54787">
        <ele>1270.8</ele>
        <time>2020-08-23T09:10:39Z</time>
      </trkpt>
      <trkpt lat="45.11422" lon="5.54787">
        <ele>1270.8</ele>
        <time>2020-08-23T09:10:40Z</time>
      </trkpt>
      <trkpt lat="45.11419" lon="5.54786">
        <ele>1270.7</ele>
        <time>2020-08-23T09:10:41Z</time>
      </trkpt>
      <trkpt lat="45.11406" lon="5.54781">
        <ele>1270.1</ele>
        <time>2020-08-23T09:10:46Z</time>
      </trkpt>
      <trkpt lat="45.11403" lon="5.54779">
        <ele>1269.9</ele>
        <time>2020-08-23T09:10:47Z</time>
      </trkpt>
      <trkpt lat="45.11401" lon="5.54777">
        <ele>1269.7</ele>
        <time>2020-08-23T09:10:48Z</time>
      </trkpt>
      <trkpt lat="45.11398" lon="5.54775">
        <ele>1269.4</ele>
        <time>2020-08-23T09:10:49Z</time>
      </trkpt>
      <trkpt lat="45.11382" lon="5.54768">
        <ele>1268.4</ele>
        <time>2020-08-23T09:10:53Z</time>
      </trkpt>
      <trkpt lat="45.11379" lon="5.54766">
        <ele>1268.1</ele>
        <time>2020-08-23T09:10:54Z</time>
      </trkpt>
      <trkpt lat="45.11372" lon="5.54762">
        <ele>1267.6</ele>
        <time>2020-08-23T09:10:56Z</time>
      </trkpt>
      <trkpt lat="45.11368" lon="5.54762">
        <ele>1267.4</ele>
        <time>2020-08-23T09:10:57Z</time>
      </trkpt>
      <trkpt lat="45.11344" lon="5.54765">
        <ele>1266.5</ele>
        <time>2020-08-23T09:11:03Z</time>
      </trkpt>
      <trkpt lat="45.1134" lon="5.54765">
        <ele>1266.4</ele>
        <time>2020-08-23T09:11:04Z</time>
      </trkpt>
      <trkpt lat="45.11327" lon="5.54765">
        <ele>1265.6</ele>
        <time>2020-08-23T09:11:07Z</time>
      </trkpt>
      <trkpt lat="45.11297" lon="5.54751">
        <ele>1261.5</ele>
        <time>2020-08-23T09:11:15Z</time>
      </trkpt>
      <trkpt lat="45.11291" lon="5.54748">
        <ele>1260.5</ele>
        <time>2020-08-23T09:11:16Z</time>
      </trkpt>
      <trkpt lat="45.11284" lon="5.54747">
        <ele>1259.5</ele>
        <time>2020-08-23T09:11:17Z</time>
      </trkpt>
      <trkpt lat="45.11277" lon="5.54748">
        <ele>1258.9</ele>
        <time>2020-08-23T09:11:18Z</time>
      </trkpt>
      <trkpt lat="45.11249" lon="5.5475">
        <ele>1257</ele>
        <time>2020-08-23T09:11:22Z</time>
      </trkpt>
      <trkpt lat="45.11243" lon="5.54752">
        <ele>1257.3</ele>
        <time>2020-08-23T09:11:23Z</time>
      </trkpt>
      <trkpt lat="45.11239" lon="5.54755">
        <ele>1257.6</ele>
        <time>2020-08-23T09:11:24Z</time>
      </trkpt>
      <trkpt lat="45.11233" lon="5.5476">
        <ele>1258.2</ele>
        <time>2020-08-23T09:11:26Z</time>
      </trkpt>
      <trkpt lat="45.11211" lon="5.54769">
        <ele>1259.7</ele>
        <time>2020-08-23T09:11:33Z</time>
      </trkpt>
      <trkpt lat="45.11208" lon="5.54769">
        <ele>1259.7</ele>
        <time>2020-08-23T09:11:34Z</time>
      </trkpt>
      <trkpt lat="45.11182" lon="5.54764">
        <ele>1259.1</ele>
        <time>2020-08-23T09:11:40Z</time>
      </trkpt>
      <trkpt lat="45.11178" lon="5.54763">
        <ele>1259</ele>
        <time>2020-08-23T09:11:41Z</time>
      </trkpt>
      <trkpt lat="45.11129" lon="5.54743">
        <ele>1252.8</ele>
        <time>2020-08-23T09:11:52Z</time>
      </trkpt>
      <trkpt lat="45.11127" lon="5.54745">
        <ele>1253.1</ele>
        <time>2020-08-23T09:11:53Z</time>
      </trkpt>
      <trkpt lat="45.11126" lon="5.54746">
        <ele>1253.4</ele>
        <time>2020-08-23T09:11:54Z</time>
      </trkpt>
      <trkpt lat="45.11124" lon="5.54748">
        <ele>1253.8</ele>
        <time>2020-08-23T09:11:55Z</time>
      </trkpt>
      <trkpt lat="45.11122" lon="5.54749">
        <ele>1254</ele>
        <time>2020-08-23T09:11:56Z</time>
      </trkpt>
      <trkpt lat="45.11106" lon="5.54751">
        <ele>1253.5</ele>
        <time>2020-08-23T09:12:02Z</time>
      </trkpt>
      <trkpt lat="45.11103" lon="5.54751">
        <ele>1253.3</ele>
        <time>2020-08-23T09:12:03Z</time>
      </trkpt>
      <trkpt lat="45.11079" lon="5.54751">
        <ele>1252.2</ele>
        <time>2020-08-23T09:12:11Z</time>
      </trkpt>
      <trkpt lat="45.11076" lon="5.5475">
        <ele>1252.1</ele>
        <time>2020-08-23T09:12:12Z</time>
      </trkpt>
      <trkpt lat="45.11046" lon="5.5475">
        <ele>1252.4</ele>
        <time>2020-08-23T09:12:20Z</time>
      </trkpt>
      <trkpt lat="45.11033" lon="5.54754">
        <ele>1253</ele>
        <time>2020-08-23T09:12:23Z</time>
      </trkpt>
      <trkpt lat="45.11029" lon="5.54755">
        <ele>1253.2</ele>
        <time>2020-08-23T09:12:24Z</time>
      </trkpt>
      <trkpt lat="45.11026" lon="5.54755">
        <ele>1253.2</ele>
        <time>2020-08-23T09:12:25Z</time>
      </trkpt>
      <trkpt lat="45.11023" lon="5.54754">
        <ele>1253.1</ele>
        <time>2020-08-23T09:12:26Z</time>
      </trkpt>
      <trkpt lat="45.11019" lon="5.54754">
        <ele>1253.1</ele>
        <time>2020-08-23T09:12:27Z</time>
      </trkpt>
      <trkpt lat="45.10984" lon="5.54752">
        <ele>1251.5</ele>
        <time>2020-08-23T09:12:36Z</time>
      </trkpt>
      <trkpt lat="45.10966" lon="5.54741">
        <ele>1247.1</ele>
        <time>2020-08-23T09:12:40Z</time>
      </trkpt>
      <trkpt lat="45.10961" lon="5.54739">
        <ele>1246.2</ele>
        <time>2020-08-23T09:12:41Z</time>
      </trkpt>
      <trkpt lat="45.10956" lon="5.54737">
        <ele>1245.2</ele>
        <time>2020-08-23T09:12:42Z</time>
      </trkpt>
      <trkpt lat="45.1095" lon="5.54735">
        <ele>1244.1</ele>
        <time>2020-08-23T09:12:43Z</time>
      </trkpt>
      <trkpt lat="45.10937" lon="5.54735">
        <ele>1242.7</ele>
        <time>2020-08-23T09:12:46Z</time>
      </trkpt>
      <trkpt lat="45.10934" lon="5.54735">
        <ele>1242.6</ele>
        <time>2020-08-23T09:12:47Z</time>
      </trkpt>
      <trkpt lat="45.10919" lon="5.54739">
        <ele>1241.9</ele>
        <time>2020-08-23T09:14:35Z</time>
      </trkpt>
      <trkpt lat="45.10911" lon="5.54741">
        <ele>1241.6</ele>
        <time>2020-08-23T09:14:40Z</time>
      </trkpt>
      <trkpt lat="45.10909" lon="5.54741">
        <ele>1241.6</ele>
        <time>2020-08-23T09:14:41Z</time>
      </trkpt>
      <trkpt lat="45.10904" lon="5.54741">
        <ele>1241</ele>
        <time>2020-08-23T09:14:44Z</time>
      </trkpt>
      <trkpt lat="45.10902" lon="5.5474">
        <ele>1240.7</ele>
        <time>2020-08-23T09:14:45Z</time>
      </trkpt>
      <trkpt lat="45.1089" lon="5.54739">
        <ele>1239.7</ele>
        <time>2020-08-23T09:14:51Z</time>
      </trkpt>
      <trkpt lat="45.10888" lon="5.54741">
        <ele>1239.8</ele>
        <time>2020-08-23T09:14:52Z</time>
      </trkpt>
      <trkpt lat="45.1088" lon="5.54743">
        <ele>1239.9</ele>
        <time>2020-08-23T09:14:55Z</time>
      </trkpt>
      <trkpt lat="45.10877" lon="5.54744">
        <ele>1239.8</ele>
        <time>2020-08-23T09:14:56Z</time>
      </trkpt>
      <trkpt lat="45.10872" lon="5.54744">
        <ele>1239.4</ele>
        <time>2020-08-23T09:14:57Z</time>
      </trkpt>
      <trkpt lat="45.10867" lon="5.54743">
        <ele>1238.8</ele>
        <time>2020-08-23T09:14:58Z</time>
      </trkpt>
      <trkpt lat="45.10863" lon="5.54742">
        <ele>1238.3</ele>
        <time>2020-08-23T09:14:59Z</time>
      </trkpt>
      <trkpt lat="45.10861" lon="5.5474">
        <ele>1237.7</ele>
        <time>2020-08-23T09:15:00Z</time>
      </trkpt>
      <trkpt lat="45.10849" lon="5.54726">
        <ele>1233.7</ele>
        <time>2020-08-23T09:15:06Z</time>
      </trkpt>
      <trkpt lat="45.10844" lon="5.54724">
        <ele>1232.9</ele>
        <time>2020-08-23T09:15:07Z</time>
      </trkpt>
      <trkpt lat="45.10817" lon="5.54727">
        <ele>1232</ele>
        <time>2020-08-23T09:15:13Z</time>
      </trkpt>
      <trkpt lat="45.10812" lon="5.54729">
        <ele>1232.3</ele>
        <time>2020-08-23T09:15:14Z</time>
      </trkpt>
      <trkpt lat="45.10798" lon="5.54721">
        <ele>1230</ele>
        <time>2020-08-23T09:15:19Z</time>
      </trkpt>
      <trkpt lat="45.10796" lon="5.54719">
        <ele>1229.6</ele>
        <time>2020-08-23T09:15:20Z</time>
      </trkpt>
      <trkpt lat="45.10791" lon="5.54718">
        <ele>1229.3</ele>
        <time>2020-08-23T09:15:22Z</time>
      </trkpt>
      <trkpt lat="45.10789" lon="5.54717">
        <ele>1229</ele>
        <time>2020-08-23T09:15:23Z</time>
      </trkpt>
      <trkpt lat="45.10779" lon="5.54711">
        <ele>1227.6</ele>
        <time>2020-08-23T09:15:29Z</time>
      </trkpt>
      <trkpt lat="45.10777" lon="5.5471">
        <ele>1227.4</ele>
        <time>2020-08-23T09:15:30Z</time>
      </trkpt>
      <trkpt lat="45.10773" lon="5.54708">
        <ele>1227</ele>
        <time>2020-08-23T09:15:32Z</time>
      </trkpt>
      <trkpt lat="45.10771" lon="5.54708">
        <ele>1226.9</ele>
        <time>2020-08-23T09:15:33Z</time>
      </trkpt>
      <trkpt lat="45.10726" lon="5.54677">
        <ele>1222.6</ele>
        <time>2020-08-23T09:15:52Z</time>
      </trkpt>
      <trkpt lat="45.10723" lon="5.54675">
        <ele>1222.2</ele>
        <time>2020-08-23T09:15:53Z</time>
      </trkpt>
      <trkpt lat="45.10663" lon="5.5463">
        <ele>1220.2</ele>
        <time>2020-08-23T09:16:14Z</time>
      </trkpt>
      <trkpt lat="45.10659" lon="5.54623">
        <ele>1219.8</ele>
        <time>2020-08-23T09:16:17Z</time>
      </trkpt>
      <trkpt lat="45.10658" lon="5.5462">
        <ele>1219.7</ele>
        <time>2020-08-23T09:16:18Z</time>
      </trkpt>
      <trkpt lat="45.10637" lon="5.54575">
        <ele>1218.8</ele>
        <time>2020-08-23T09:16:31Z</time>
      </trkpt>
      <trkpt lat="45.10636" lon="5.5457">
        <ele>1218.9</ele>
        <time>2020-08-23T09:16:32Z</time>
      </trkpt>
      <trkpt lat="45.10611" lon="5.54526">
        <ele>1221</ele>
        <time>2020-08-23T09:16:48Z</time>
      </trkpt>
      <trkpt lat="45.1061" lon="5.54523">
        <ele>1221.1</ele>
        <time>2020-08-23T09:16:49Z</time>
      </trkpt>
      <trkpt lat="45.10609" lon="5.54521">
        <ele>1221.3</ele>
        <time>2020-08-23T09:16:50Z</time>
      </trkpt>
      <trkpt lat="45.10609" lon="5.54518">
        <ele>1221.3</ele>
        <time>2020-08-23T09:16:51Z</time>
      </trkpt>
      <trkpt lat="45.10609" lon="5.54515">
        <ele>1221.4</ele>
        <time>2020-08-23T09:16:52Z</time>
      </trkpt>
      <trkpt lat="45.10593" lon="5.54478">
        <ele>1223.6</ele>
        <time>2020-08-23T09:17:07Z</time>
      </trkpt>
      <trkpt lat="45.10593" lon="5.54475">
        <ele>1223.7</ele>
        <time>2020-08-23T09:17:08Z</time>
      </trkpt>
      <trkpt lat="45.10585" lon="5.54455">
        <ele>1224.9</ele>
        <time>2020-08-23T09:17:16Z</time>
      </trkpt>
      <trkpt lat="45.10585" lon="5.54453">
        <ele>1225</ele>
        <time>2020-08-23T09:17:17Z</time>
      </trkpt>
      <trkpt lat="45.10584" lon="5.54449">
        <ele>1225.2</ele>
        <time>2020-08-23T09:17:18Z</time>
      </trkpt>
      <trkpt lat="45.10584" lon="5.54446">
        <ele>1225.3</ele>
        <time>2020-08-23T09:17:19Z</time>
      </trkpt>
      <trkpt lat="45.1058" lon="5.54437">
        <ele>1225.7</ele>
        <time>2020-08-23T09:17:22Z</time>
      </trkpt>
      <trkpt lat="45.10575" lon="5.54429">
        <ele>1226.3</ele>
        <time>2020-08-23T09:17:25Z</time>
      </trkpt>
      <trkpt lat="45.10566" lon="5.54404">
        <ele>1226.7</ele>
        <time>2020-08-23T09:17:33Z</time>
      </trkpt>
      <trkpt lat="45.10552" lon="5.54384">
        <ele>1226.9</ele>
        <time>2020-08-23T09:17:41Z</time>
      </trkpt>
      <trkpt lat="45.10545" lon="5.54382">
        <ele>1227.5</ele>
        <time>2020-08-23T09:17:44Z</time>
      </trkpt>
      <trkpt lat="45.10543" lon="5.54382">
        <ele>1227.6</ele>
        <time>2020-08-23T09:17:45Z</time>
      </trkpt>
      <trkpt lat="45.10528" lon="5.54375">
        <ele>1228.8</ele>
        <time>2020-08-23T09:17:52Z</time>
      </trkpt>
      <trkpt lat="45.10522" lon="5.54373">
        <ele>1229.3</ele>
        <time>2020-08-23T09:17:54Z</time>
      </trkpt>
      <trkpt lat="45.10504" lon="5.54364">
        <ele>1230.9</ele>
        <time>2020-08-23T09:18:02Z</time>
      </trkpt>
      <trkpt lat="45.1047" lon="5.5435">
        <ele>1233.8</ele>
        <time>2020-08-23T09:18:19Z</time>
      </trkpt>
      <trkpt lat="45.10456" lon="5.54334">
        <ele>1235.2</ele>
        <time>2020-08-23T09:18:28Z</time>
      </trkpt>
      <trkpt lat="45.10454" lon="5.54331">
        <ele>1235.4</ele>
        <time>2020-08-23T09:18:29Z</time>
      </trkpt>
      <trkpt lat="45.10443" lon="5.54307">
        <ele>1236.7</ele>
        <time>2020-08-23T09:18:38Z</time>
      </trkpt>
      <trkpt lat="45.10436" lon="5.5429">
        <ele>1237.9</ele>
        <time>2020-08-23T09:18:45Z</time>
      </trkpt>
      <trkpt lat="45.10435" lon="5.54288">
        <ele>1238.1</ele>
        <time>2020-08-23T09:18:46Z</time>
      </trkpt>
      <trkpt lat="45.10429" lon="5.54283">
        <ele>1239</ele>
        <time>2020-08-23T09:18:50Z</time>
      </trkpt>
      <trkpt lat="45.10427" lon="5.54281">
        <ele>1239.4</ele>
        <time>2020-08-23T09:18:51Z</time>
      </trkpt>
      <trkpt lat="45.10413" lon="5.54273">
        <ele>1241.4</ele>
        <time>2020-08-23T09:18:57Z</time>
      </trkpt>
      <trkpt lat="45.10412" lon="5.54273">
        <ele>1241.5</ele>
        <time>2020-08-23T09:18:58Z</time>
      </trkpt>
      <trkpt lat="45.10395" lon="5.54261">
        <ele>1242.9</ele>
        <time>2020-08-23T09:19:09Z</time>
      </trkpt>
      <trkpt lat="45.10395" lon="5.5426">
        <ele>1243</ele>
        <time>2020-08-23T09:19:10Z</time>
      </trkpt>
      <trkpt lat="45.10371" lon="5.54242">
        <ele>1244.7</ele>
        <time>2020-08-23T09:19:27Z</time>
      </trkpt>
      <trkpt lat="45.1037" lon="5.54241">
        <ele>1244.8</ele>
        <time>2020-08-23T09:19:28Z</time>
      </trkpt>
      <trkpt lat="45.10369" lon="5.5424">
        <ele>1244.9</ele>
        <time>2020-08-23T09:19:29Z</time>
      </trkpt>
      <trkpt lat="45.10367" lon="5.54239">
        <ele>1245</ele>
        <time>2020-08-23T09:19:30Z</time>
      </trkpt>
      <trkpt lat="45.10331" lon="5.54232">
        <ele>1247</ele>
        <time>2020-08-23T09:19:52Z</time>
      </trkpt>
      <trkpt lat="45.10329" lon="5.54233">
        <ele>1247</ele>
        <time>2020-08-23T09:19:53Z</time>
      </trkpt>
      <trkpt lat="45.10327" lon="5.54234">
        <ele>1247.1</ele>
        <time>2020-08-23T09:19:54Z</time>
      </trkpt>
      <trkpt lat="45.10326" lon="5.54235">
        <ele>1247.1</ele>
        <time>2020-08-23T09:19:55Z</time>
      </trkpt>
      <trkpt lat="45.10318" lon="5.54239">
        <ele>1247.2</ele>
        <time>2020-08-23T09:20:00Z</time>
      </trkpt>
      <trkpt lat="45.10316" lon="5.5424">
        <ele>1247.2</ele>
        <time>2020-08-23T09:20:01Z</time>
      </trkpt>
      <trkpt lat="45.10291" lon="5.54255">
        <ele>1247.4</ele>
        <time>2020-08-23T09:20:18Z</time>
      </trkpt>
      <trkpt lat="45.1029" lon="5.54257">
        <ele>1247.3</ele>
        <time>2020-08-23T09:20:19Z</time>
      </trkpt>
      <trkpt lat="45.10289" lon="5.54259">
        <ele>1247.3</ele>
        <time>2020-08-23T09:20:20Z</time>
      </trkpt>
      <trkpt lat="45.10288" lon="5.54261">
        <ele>1247.2</ele>
        <time>2020-08-23T09:20:21Z</time>
      </trkpt>
      <trkpt lat="45.10286" lon="5.54266">
        <ele>1247.1</ele>
        <time>2020-08-23T09:20:24Z</time>
      </trkpt>
      <trkpt lat="45.10279" lon="5.54273">
        <ele>1246.9</ele>
        <time>2020-08-23T09:20:29Z</time>
      </trkpt>
      <trkpt lat="45.10278" lon="5.54273">
        <ele>1246.9</ele>
        <time>2020-08-23T09:20:30Z</time>
      </trkpt>
      <trkpt lat="45.10274" lon="5.54275">
        <ele>1246.9</ele>
        <time>2020-08-23T09:20:32Z</time>
      </trkpt>
      <trkpt lat="45.10273" lon="5.54276">
        <ele>1246.9</ele>
        <time>2020-08-23T09:20:33Z</time>
      </trkpt>
      <trkpt lat="45.10253" lon="5.5428">
        <ele>1246.9</ele>
        <time>2020-08-23T09:20:43Z</time>
      </trkpt>
      <trkpt lat="45.1025" lon="5.5428">
        <ele>1246.9</ele>
        <time>2020-08-23T09:20:44Z</time>
      </trkpt>
      <trkpt lat="45.10248" lon="5.54281">
        <ele>1246.9</ele>
        <time>2020-08-23T09:20:45Z</time>
      </trkpt>
      <trkpt lat="45.10246" lon="5.54281">
        <ele>1246.9</ele>
        <time>2020-08-23T09:20:46Z</time>
      </trkpt>
      <trkpt lat="45.1023" lon="5.54283">
        <ele>1246.8</ele>
        <time>2020-08-23T09:20:52Z</time>
      </trkpt>
      <trkpt lat="45.10228" lon="5.54284">
        <ele>1246.8</ele>
        <time>2020-08-23T09:20:53Z</time>
      </trkpt>
      <trkpt lat="45.1018" lon="5.54289">
        <ele>1246.6</ele>
        <time>2020-08-23T09:21:11Z</time>
      </trkpt>
      <trkpt lat="45.10167" lon="5.54289">
        <ele>1246.6</ele>
        <time>2020-08-23T09:21:16Z</time>
      </trkpt>
      <trkpt lat="45.10122" lon="5.54289">
        <ele>1248</ele>
        <time>2020-08-23T09:21:32Z</time>
      </trkpt>
      <trkpt lat="45.10119" lon="5.54289">
        <ele>1248.1</ele>
        <time>2020-08-23T09:21:33Z</time>
      </trkpt>
      <trkpt lat="45.1009" lon="5.54284">
        <ele>1249.5</ele>
        <time>2020-08-23T09:21:42Z</time>
      </trkpt>
      <trkpt lat="45.10088" lon="5.54284">
        <ele>1249.6</ele>
        <time>2020-08-23T09:21:43Z</time>
      </trkpt>
      <trkpt lat="45.10076" lon="5.54279">
        <ele>1250.4</ele>
        <time>2020-08-23T09:21:47Z</time>
      </trkpt>
      <trkpt lat="45.10073" lon="5.54277">
        <ele>1250.7</ele>
        <time>2020-08-23T09:21:48Z</time>
      </trkpt>
      <trkpt lat="45.10053" lon="5.54266">
        <ele>1252</ele>
        <time>2020-08-23T09:21:55Z</time>
      </trkpt>
      <trkpt lat="45.1005" lon="5.54265">
        <ele>1252.2</ele>
        <time>2020-08-23T09:21:56Z</time>
      </trkpt>
      <trkpt lat="45.10045" lon="5.54261">
        <ele>1252.6</ele>
        <time>2020-08-23T09:21:58Z</time>
      </trkpt>
      <trkpt lat="45.10042" lon="5.5426">
        <ele>1252.7</ele>
        <time>2020-08-23T09:21:59Z</time>
      </trkpt>
      <trkpt lat="45.09992" lon="5.54241">
        <ele>1254.7</ele>
        <time>2020-08-23T09:22:19Z</time>
      </trkpt>
      <trkpt lat="45.0999" lon="5.5424">
        <ele>1254.9</ele>
        <time>2020-08-23T09:22:20Z</time>
      </trkpt>
      <trkpt lat="45.09984" lon="5.54239">
        <ele>1255.3</ele>
        <time>2020-08-23T09:22:23Z</time>
      </trkpt>
      <trkpt lat="45.09981" lon="5.54238">
        <ele>1255.5</ele>
        <time>2020-08-23T09:22:24Z</time>
      </trkpt>
      <trkpt lat="45.09972" lon="5.54235">
        <ele>1256.2</ele>
        <time>2020-08-23T09:22:28Z</time>
      </trkpt>
      <trkpt lat="45.09969" lon="5.54234">
        <ele>1256.4</ele>
        <time>2020-08-23T09:22:29Z</time>
      </trkpt>
      <trkpt lat="45.0995" lon="5.54232">
        <ele>1257.7</ele>
        <time>2020-08-23T09:22:38Z</time>
      </trkpt>
      <trkpt lat="45.09948" lon="5.54232">
        <ele>1257.9</ele>
        <time>2020-08-23T09:22:39Z</time>
      </trkpt>
      <trkpt lat="45.09874" lon="5.5421">
        <ele>1265.8</ele>
        <time>2020-08-23T09:23:21Z</time>
      </trkpt>
      <trkpt lat="45.09873" lon="5.54209">
        <ele>1266</ele>
        <time>2020-08-23T09:23:22Z</time>
      </trkpt>
      <trkpt lat="45.09852" lon="5.54204">
        <ele>1268.4</ele>
        <time>2020-08-23T09:23:36Z</time>
      </trkpt>
      <trkpt lat="45.09851" lon="5.54203">
        <ele>1268.6</ele>
        <time>2020-08-23T09:23:37Z</time>
      </trkpt>
      <trkpt lat="45.09842" lon="5.54201">
        <ele>1269.6</ele>
        <time>2020-08-23T09:23:42Z</time>
      </trkpt>
      <trkpt lat="45.09841" lon="5.54201">
        <ele>1269.8</ele>
        <time>2020-08-23T09:23:43Z</time>
      </trkpt>
      <trkpt lat="45.09805" lon="5.54195">
        <ele>1276.9</ele>
        <time>2020-08-23T09:24:07Z</time>
      </trkpt>
      <trkpt lat="45.09804" lon="5.54195">
        <ele>1277.1</ele>
        <time>2020-08-23T09:24:08Z</time>
      </trkpt>
      <trkpt lat="45.09784" lon="5.54201">
        <ele>1281.1</ele>
        <time>2020-08-23T09:24:22Z</time>
      </trkpt>
      <trkpt lat="45.09779" lon="5.54203">
        <ele>1281.9</ele>
        <time>2020-08-23T09:24:25Z</time>
      </trkpt>
      <trkpt lat="45.09778" lon="5.54203">
        <ele>1282.3</ele>
        <time>2020-08-23T09:24:26Z</time>
      </trkpt>
      <trkpt lat="45.09758" lon="5.54209">
        <ele>1285.7</ele>
        <time>2020-08-23T09:24:41Z</time>
      </trkpt>
      <trkpt lat="45.09757" lon="5.54209">
        <ele>1286.1</ele>
        <time>2020-08-23T09:24:42Z</time>
      </trkpt>
      <trkpt lat="45.09751" lon="5.54211">
        <ele>1287.1</ele>
        <time>2020-08-23T09:24:46Z</time>
      </trkpt>
      <trkpt lat="45.09749" lon="5.54211">
        <ele>1287.3</ele>
        <time>2020-08-23T09:24:47Z</time>
      </trkpt>
      <trkpt lat="45.09728" lon="5.54211">
        <ele>1290.3</ele>
        <time>2020-08-23T09:25:01Z</time>
      </trkpt>
      <trkpt lat="45.09727" lon="5.5421">
        <ele>1290.5</ele>
        <time>2020-08-23T09:25:02Z</time>
      </trkpt>
      <trkpt lat="45.09723" lon="5.5421">
        <ele>1291</ele>
        <time>2020-08-23T09:25:04Z</time>
      </trkpt>
      <trkpt lat="45.09721" lon="5.5421">
        <ele>1291.3</ele>
        <time>2020-08-23T09:25:05Z</time>
      </trkpt>
      <trkpt lat="45.09709" lon="5.54208">
        <ele>1293.1</ele>
        <time>2020-08-23T09:25:12Z</time>
      </trkpt>
      <trkpt lat="45.09708" lon="5.54208">
        <ele>1293.3</ele>
        <time>2020-08-23T09:25:13Z</time>
      </trkpt>
      <trkpt lat="45.09707" lon="5.54208">
        <ele>1293.5</ele>
        <time>2020-08-23T09:25:14Z</time>
      </trkpt>
      <trkpt lat="45.09703" lon="5.54208">
        <ele>1293.9</ele>
        <time>2020-08-23T09:25:16Z</time>
      </trkpt>
      <trkpt lat="45.09701" lon="5.54208">
        <ele>1294.2</ele>
        <time>2020-08-23T09:25:17Z</time>
      </trkpt>
      <trkpt lat="45.097" lon="5.54208">
        <ele>1294.3</ele>
        <time>2020-08-23T09:25:18Z</time>
      </trkpt>
      <trkpt lat="45.09699" lon="5.54209">
        <ele>1294.5</ele>
        <time>2020-08-23T09:25:19Z</time>
      </trkpt>
      <trkpt lat="45.09698" lon="5.54209">
        <ele>1294.7</ele>
        <time>2020-08-23T09:25:20Z</time>
      </trkpt>
      <trkpt lat="45.09694" lon="5.54208">
        <ele>1295.3</ele>
        <time>2020-08-23T09:25:23Z</time>
      </trkpt>
      <trkpt lat="45.09692" lon="5.54208">
        <ele>1295.5</ele>
        <time>2020-08-23T09:25:24Z</time>
      </trkpt>
      <trkpt lat="45.09684" lon="5.54207">
        <ele>1296.7</ele>
        <time>2020-08-23T09:25:30Z</time>
      </trkpt>
      <trkpt lat="45.09683" lon="5.54207">
        <ele>1296.9</ele>
        <time>2020-08-23T09:25:31Z</time>
      </trkpt>
      <trkpt lat="45.09681" lon="5.54207">
        <ele>1297.2</ele>
        <time>2020-08-23T09:25:33Z</time>
      </trkpt>
      <trkpt lat="45.09679" lon="5.54207">
        <ele>1297.4</ele>
        <time>2020-08-23T09:25:34Z</time>
      </trkpt>
      <trkpt lat="45.09676" lon="5.54204">
        <ele>1298.1</ele>
        <time>2020-08-23T09:25:43Z</time>
      </trkpt>
      <trkpt lat="45.09676" lon="5.54204">
        <ele>1298.1</ele>
        <time>2020-08-23T09:25:44Z</time>
      </trkpt>
      <trkpt lat="45.09666" lon="5.54203">
        <ele>1299.6</ele>
        <time>2020-08-23T09:25:48Z</time>
      </trkpt>
      <trkpt lat="45.09665" lon="5.54203">
        <ele>1299.8</ele>
        <time>2020-08-23T09:25:49Z</time>
      </trkpt>
      <trkpt lat="45.09662" lon="5.54202">
        <ele>1300</ele>
        <time>2020-08-23T09:25:51Z</time>
      </trkpt>
      <trkpt lat="45.09661" lon="5.54202">
        <ele>1300.1</ele>
        <time>2020-08-23T09:25:52Z</time>
      </trkpt>
      <trkpt lat="45.09654" lon="5.54201">
        <ele>1300.7</ele>
        <time>2020-08-23T09:25:57Z</time>
      </trkpt>
      <trkpt lat="45.09653" lon="5.54201">
        <ele>1300.8</ele>
        <time>2020-08-23T09:25:58Z</time>
      </trkpt>
      <trkpt lat="45.09632" lon="5.54196">
        <ele>1303</ele>
        <time>2020-08-23T09:26:12Z</time>
      </trkpt>
      <trkpt lat="45.0963" lon="5.54196">
        <ele>1303.2</ele>
        <time>2020-08-23T09:26:13Z</time>
      </trkpt>
      <trkpt lat="45.09625" lon="5.54195">
        <ele>1303.7</ele>
        <time>2020-08-23T09:26:16Z</time>
      </trkpt>
      <trkpt lat="45.09624" lon="5.54194">
        <ele>1303.8</ele>
        <time>2020-08-23T09:26:17Z</time>
      </trkpt>
      <trkpt lat="45.0961" lon="5.54191">
        <ele>1305.2</ele>
        <time>2020-08-23T09:26:27Z</time>
      </trkpt>
      <trkpt lat="45.09609" lon="5.54191">
        <ele>1305.3</ele>
        <time>2020-08-23T09:26:28Z</time>
      </trkpt>
      <trkpt lat="45.09608" lon="5.54191">
        <ele>1305.4</ele>
        <time>2020-08-23T09:26:29Z</time>
      </trkpt>
      <trkpt lat="45.09607" lon="5.54191">
        <ele>1305.5</ele>
        <time>2020-08-23T09:26:30Z</time>
      </trkpt>
      <trkpt lat="45.09598" lon="5.54189">
        <ele>1306.4</ele>
        <time>2020-08-23T09:26:37Z</time>
      </trkpt>
      <trkpt lat="45.09596" lon="5.54189">
        <ele>1306.6</ele>
        <time>2020-08-23T09:26:38Z</time>
      </trkpt>
      <trkpt lat="45.09594" lon="5.54187">
        <ele>1307</ele>
        <time>2020-08-23T09:26:40Z</time>
      </trkpt>
      <trkpt lat="45.09592" lon="5.54187">
        <ele>1307.1</ele>
        <time>2020-08-23T09:26:41Z</time>
      </trkpt>
      <trkpt lat="45.09579" lon="5.54182">
        <ele>1309</ele>
        <time>2020-08-23T09:26:51Z</time>
      </trkpt>
      <trkpt lat="45.09578" lon="5.54181">
        <ele>1309.2</ele>
        <time>2020-08-23T09:26:52Z</time>
      </trkpt>
      <trkpt lat="45.09575" lon="5.5418">
        <ele>1309.5</ele>
        <time>2020-08-23T09:26:54Z</time>
      </trkpt>
      <trkpt lat="45.09573" lon="5.5418">
        <ele>1309.7</ele>
        <time>2020-08-23T09:26:55Z</time>
      </trkpt>
      <trkpt lat="45.09561" lon="5.54174">
        <ele>1311.7</ele>
        <time>2020-08-23T09:27:05Z</time>
      </trkpt>
      <trkpt lat="45.0956" lon="5.54173">
        <ele>1311.9</ele>
        <time>2020-08-23T09:27:06Z</time>
      </trkpt>
      <trkpt lat="45.09557" lon="5.54172">
        <ele>1312.3</ele>
        <time>2020-08-23T09:27:08Z</time>
      </trkpt>
      <trkpt lat="45.09556" lon="5.54171">
        <ele>1312.5</ele>
        <time>2020-08-23T09:27:09Z</time>
      </trkpt>
      <trkpt lat="45.09549" lon="5.54168">
        <ele>1313.6</ele>
        <time>2020-08-23T09:27:14Z</time>
      </trkpt>
      <trkpt lat="45.09547" lon="5.54168">
        <ele>1313.8</ele>
        <time>2020-08-23T09:27:15Z</time>
      </trkpt>
      <trkpt lat="45.09541" lon="5.54165">
        <ele>1314.8</ele>
        <time>2020-08-23T09:27:20Z</time>
      </trkpt>
      <trkpt lat="45.09539" lon="5.54164">
        <ele>1315.2</ele>
        <time>2020-08-23T09:27:22Z</time>
      </trkpt>
      <trkpt lat="45.09537" lon="5.54163">
        <ele>1315.3</ele>
        <time>2020-08-23T09:27:23Z</time>
      </trkpt>
      <trkpt lat="45.09536" lon="5.54163">
        <ele>1315.5</ele>
        <time>2020-08-23T09:27:24Z</time>
      </trkpt>
      <trkpt lat="45.09535" lon="5.54163">
        <ele>1315.7</ele>
        <time>2020-08-23T09:27:25Z</time>
      </trkpt>
      <trkpt lat="45.09529" lon="5.5416">
        <ele>1316.6</ele>
        <time>2020-08-23T09:27:30Z</time>
      </trkpt>
      <trkpt lat="45.09527" lon="5.54159">
        <ele>1316.8</ele>
        <time>2020-08-23T09:27:31Z</time>
      </trkpt>
      <trkpt lat="45.09526" lon="5.54159">
        <ele>1316.9</ele>
        <time>2020-08-23T09:27:32Z</time>
      </trkpt>
      <trkpt lat="45.09525" lon="5.54158">
        <ele>1317.1</ele>
        <time>2020-08-23T09:27:33Z</time>
      </trkpt>
      <trkpt lat="45.09512" lon="5.54153">
        <ele>1318.8</ele>
        <time>2020-08-23T09:27:43Z</time>
      </trkpt>
      <trkpt lat="45.09511" lon="5.54153">
        <ele>1318.9</ele>
        <time>2020-08-23T09:27:44Z</time>
      </trkpt>
      <trkpt lat="45.0951" lon="5.54153">
        <ele>1319.1</ele>
        <time>2020-08-23T09:27:45Z</time>
      </trkpt>
      <trkpt lat="45.09508" lon="5.54152">
        <ele>1319.3</ele>
        <time>2020-08-23T09:27:46Z</time>
      </trkpt>
      <trkpt lat="45.09501" lon="5.54148">
        <ele>1320.4</ele>
        <time>2020-08-23T09:27:52Z</time>
      </trkpt>
      <trkpt lat="45.095" lon="5.54147">
        <ele>1320.5</ele>
        <time>2020-08-23T09:27:53Z</time>
      </trkpt>
      <trkpt lat="45.09498" lon="5.54146">
        <ele>1320.9</ele>
        <time>2020-08-23T09:27:55Z</time>
      </trkpt>
      <trkpt lat="45.09497" lon="5.54145">
        <ele>1321</ele>
        <time>2020-08-23T09:27:56Z</time>
      </trkpt>
      <trkpt lat="45.0949" lon="5.54141">
        <ele>1322</ele>
        <time>2020-08-23T09:28:02Z</time>
      </trkpt>
      <trkpt lat="45.09489" lon="5.54141">
        <ele>1322.1</ele>
        <time>2020-08-23T09:28:03Z</time>
      </trkpt>
      <trkpt lat="45.09484" lon="5.54137">
        <ele>1323</ele>
        <time>2020-08-23T09:28:10Z</time>
      </trkpt>
      <trkpt lat="45.09482" lon="5.54135">
        <ele>1323.3</ele>
        <time>2020-08-23T09:28:12Z</time>
      </trkpt>
      <trkpt lat="45.09477" lon="5.5413">
        <ele>1324.3</ele>
        <time>2020-08-23T09:28:18Z</time>
      </trkpt>
      <trkpt lat="45.09476" lon="5.54129">
        <ele>1324.5</ele>
        <time>2020-08-23T09:28:19Z</time>
      </trkpt>
      <trkpt lat="45.09472" lon="5.54124">
        <ele>1325.3</ele>
        <time>2020-08-23T09:28:23Z</time>
      </trkpt>
      <trkpt lat="45.0947" lon="5.54121">
        <ele>1325.9</ele>
        <time>2020-08-23T09:28:26Z</time>
      </trkpt>
      <trkpt lat="45.0947" lon="5.54121">
        <ele>1325.9</ele>
        <time>2020-08-23T09:28:27Z</time>
      </trkpt>
      <trkpt lat="45.0947" lon="5.54121">
        <ele>1325.9</ele>
        <time>2020-08-23T09:28:28Z</time>
      </trkpt>
      <trkpt lat="45.0947" lon="5.54121">
        <ele>1325.9</ele>
        <time>2020-08-23T09:28:29Z</time>
      </trkpt>
      <trkpt lat="45.09463" lon="5.54114">
        <ele>1327</ele>
        <time>2020-08-23T09:28:34Z</time>
      </trkpt>
      <trkpt lat="45.0946" lon="5.54112">
        <ele>1327.5</ele>
        <time>2020-08-23T09:28:35Z</time>
      </trkpt>
      <trkpt lat="45.09459" lon="5.54111">
        <ele>1327.7</ele>
        <time>2020-08-23T09:28:36Z</time>
      </trkpt>
      <trkpt lat="45.09457" lon="5.54109">
        <ele>1327.9</ele>
        <time>2020-08-23T09:28:37Z</time>
      </trkpt>
      <trkpt lat="45.09448" lon="5.54102">
        <ele>1329.3</ele>
        <time>2020-08-23T09:28:44Z</time>
      </trkpt>
      <trkpt lat="45.09446" lon="5.54102">
        <ele>1329.5</ele>
        <time>2020-08-23T09:28:45Z</time>
      </trkpt>
      <trkpt lat="45.09444" lon="5.54101">
        <ele>1329.6</ele>
        <time>2020-08-23T09:28:46Z</time>
      </trkpt>
      <trkpt lat="45.09443" lon="5.541">
        <ele>1329.8</ele>
        <time>2020-08-23T09:28:47Z</time>
      </trkpt>
      <trkpt lat="45.09432" lon="5.541">
        <ele>1330.5</ele>
        <time>2020-08-23T09:28:55Z</time>
      </trkpt>
      <trkpt lat="45.0943" lon="5.541">
        <ele>1330.6</ele>
        <time>2020-08-23T09:28:56Z</time>
      </trkpt>
      <trkpt lat="45.09428" lon="5.541">
        <ele>1330.6</ele>
        <time>2020-08-23T09:28:57Z</time>
      </trkpt>
      <trkpt lat="45.09426" lon="5.541">
        <ele>1330.7</ele>
        <time>2020-08-23T09:28:58Z</time>
      </trkpt>
      <trkpt lat="45.09412" lon="5.54099">
        <ele>1331.6</ele>
        <time>2020-08-23T09:29:06Z</time>
      </trkpt>
      <trkpt lat="45.0941" lon="5.541">
        <ele>1331.6</ele>
        <time>2020-08-23T09:29:07Z</time>
      </trkpt>
      <trkpt lat="45.09408" lon="5.541">
        <ele>1331.7</ele>
        <time>2020-08-23T09:29:08Z</time>
      </trkpt>
      <trkpt lat="45.09407" lon="5.541">
        <ele>1331.8</ele>
        <time>2020-08-23T09:29:09Z</time>
      </trkpt>
      <trkpt lat="45.09395" lon="5.54101">
        <ele>1332.4</ele>
        <time>2020-08-23T09:29:15Z</time>
      </trkpt>
      <trkpt lat="45.09393" lon="5.54101">
        <ele>1332.6</ele>
        <time>2020-08-23T09:29:16Z</time>
      </trkpt>
      <trkpt lat="45.0939" lon="5.54101">
        <ele>1332.7</ele>
        <time>2020-08-23T09:29:17Z</time>
      </trkpt>
      <trkpt lat="45.09388" lon="5.54101">
        <ele>1332.8</ele>
        <time>2020-08-23T09:29:18Z</time>
      </trkpt>
      <trkpt lat="45.09375" lon="5.541">
        <ele>1333.7</ele>
        <time>2020-08-23T09:29:25Z</time>
      </trkpt>
      <trkpt lat="45.09373" lon="5.54101">
        <ele>1333.8</ele>
        <time>2020-08-23T09:29:26Z</time>
      </trkpt>
      <trkpt lat="45.09371" lon="5.54101">
        <ele>1333.9</ele>
        <time>2020-08-23T09:29:27Z</time>
      </trkpt>
      <trkpt lat="45.09369" lon="5.541">
        <ele>1334</ele>
        <time>2020-08-23T09:29:28Z</time>
      </trkpt>
      <trkpt lat="45.09366" lon="5.541">
        <ele>1334.2</ele>
        <time>2020-08-23T09:29:30Z</time>
      </trkpt>
      <trkpt lat="45.09362" lon="5.54106">
        <ele>1333.8</ele>
        <time>2020-08-23T09:29:35Z</time>
      </trkpt>
      <trkpt lat="45.09362" lon="5.54106">
        <ele>1333.8</ele>
        <time>2020-08-23T09:29:36Z</time>
      </trkpt>
      <trkpt lat="45.09362" lon="5.54106">
        <ele>1333.8</ele>
        <time>2020-08-23T09:29:37Z</time>
      </trkpt>
      <trkpt lat="45.09362" lon="5.54106">
        <ele>1333.8</ele>
        <time>2020-08-23T09:29:38Z</time>
      </trkpt>
      <trkpt lat="45.09362" lon="5.54106">
        <ele>1333.8</ele>
        <time>2020-08-23T09:29:43Z</time>
      </trkpt>
      <trkpt lat="45.09367" lon="5.54114">
        <ele>1332.7</ele>
        <time>2020-08-23T09:40:10Z</time>
      </trkpt>
      <trkpt lat="45.09369" lon="5.54118">
        <ele>1332.1</ele>
        <time>2020-08-23T09:40:12Z</time>
      </trkpt>
      <trkpt lat="45.09375" lon="5.54128">
        <ele>1330.7</ele>
        <time>2020-08-23T09:40:16Z</time>
      </trkpt>
      <trkpt lat="45.09376" lon="5.54132">
        <ele>1330.1</ele>
        <time>2020-08-23T09:40:17Z</time>
      </trkpt>
      <trkpt lat="45.09378" lon="5.54136">
        <ele>1329.6</ele>
        <time>2020-08-23T09:40:18Z</time>
      </trkpt>
      <trkpt lat="45.09406" lon="5.54166">
        <ele>1324.8</ele>
        <time>2020-08-23T09:40:27Z</time>
      </trkpt>
      <trkpt lat="45.09409" lon="5.54168">
        <ele>1324.2</ele>
        <time>2020-08-23T09:40:28Z</time>
      </trkpt>
      <trkpt lat="45.09413" lon="5.54171">
        <ele>1323.6</ele>
        <time>2020-08-23T09:40:29Z</time>
      </trkpt>
      <trkpt lat="45.09442" lon="5.54193">
        <ele>1318.3</ele>
        <time>2020-08-23T09:40:37Z</time>
      </trkpt>
      <trkpt lat="45.09445" lon="5.54196">
        <ele>1317.7</ele>
        <time>2020-08-23T09:40:38Z</time>
      </trkpt>
      <trkpt lat="45.09459" lon="5.542">
        <ele>1315.7</ele>
        <time>2020-08-23T09:40:41Z</time>
      </trkpt>
      <trkpt lat="45.09463" lon="5.54203">
        <ele>1314.9</ele>
        <time>2020-08-23T09:40:42Z</time>
      </trkpt>
      <trkpt lat="45.09475" lon="5.5421">
        <ele>1312.6</ele>
        <time>2020-08-23T09:40:45Z</time>
      </trkpt>
      <trkpt lat="45.09478" lon="5.54211">
        <ele>1312.2</ele>
        <time>2020-08-23T09:40:46Z</time>
      </trkpt>
      <trkpt lat="45.09483" lon="5.54214">
        <ele>1311.1</ele>
        <time>2020-08-23T09:40:48Z</time>
      </trkpt>
      <trkpt lat="45.09501" lon="5.54262">
        <ele>1300.2</ele>
        <time>2020-08-23T09:41:00Z</time>
      </trkpt>
      <trkpt lat="45.09502" lon="5.54265">
        <ele>1299.5</ele>
        <time>2020-08-23T09:41:01Z</time>
      </trkpt>
      <trkpt lat="45.09502" lon="5.54268">
        <ele>1298.8</ele>
        <time>2020-08-23T09:41:02Z</time>
      </trkpt>
      <trkpt lat="45.09534" lon="5.5429">
        <ele>1292.1</ele>
        <time>2020-08-23T09:41:11Z</time>
      </trkpt>
      <trkpt lat="45.09536" lon="5.54293">
        <ele>1291.4</ele>
        <time>2020-08-23T09:41:12Z</time>
      </trkpt>
      <trkpt lat="45.09548" lon="5.54307">
        <ele>1288</ele>
        <time>2020-08-23T09:41:17Z</time>
      </trkpt>
      <trkpt lat="45.0955" lon="5.5431">
        <ele>1287.3</ele>
        <time>2020-08-23T09:41:18Z</time>
      </trkpt>
      <trkpt lat="45.09565" lon="5.54319">
        <ele>1284.5</ele>
        <time>2020-08-23T09:41:23Z</time>
      </trkpt>
      <trkpt lat="45.09568" lon="5.54321">
        <ele>1284.1</ele>
        <time>2020-08-23T09:41:24Z</time>
      </trkpt>
      <trkpt lat="45.0957" lon="5.54324">
        <ele>1283.5</ele>
        <time>2020-08-23T09:41:25Z</time>
      </trkpt>
      <trkpt lat="45.09573" lon="5.54327">
        <ele>1282.7</ele>
        <time>2020-08-23T09:41:26Z</time>
      </trkpt>
      <trkpt lat="45.09607" lon="5.5436">
        <ele>1275.6</ele>
        <time>2020-08-23T09:41:35Z</time>
      </trkpt>
      <trkpt lat="45.09609" lon="5.54364">
        <ele>1274.6</ele>
        <time>2020-08-23T09:41:36Z</time>
      </trkpt>
      <trkpt lat="45.09617" lon="5.54377">
        <ele>1271.8</ele>
        <time>2020-08-23T09:41:39Z</time>
      </trkpt>
      <trkpt lat="45.09621" lon="5.54381">
        <ele>1270.9</ele>
        <time>2020-08-23T09:41:40Z</time>
      </trkpt>
      <trkpt lat="45.09625" lon="5.54387">
        <ele>1269.8</ele>
        <time>2020-08-23T09:41:41Z</time>
      </trkpt>
      <trkpt lat="45.09628" lon="5.54392">
        <ele>1268.6</ele>
        <time>2020-08-23T09:41:42Z</time>
      </trkpt>
      <trkpt lat="45.09641" lon="5.54415">
        <ele>1263.7</ele>
        <time>2020-08-23T09:41:51Z</time>
      </trkpt>
      <trkpt lat="45.09642" lon="5.54418">
        <ele>1263.1</ele>
        <time>2020-08-23T09:41:52Z</time>
      </trkpt>
      <trkpt lat="45.09642" lon="5.5442">
        <ele>1262.5</ele>
        <time>2020-08-23T09:41:55Z</time>
      </trkpt>
      <trkpt lat="45.09642" lon="5.5442">
        <ele>1262.5</ele>
        <time>2020-08-23T09:41:57Z</time>
      </trkpt>
      <trkpt lat="45.09643" lon="5.54426">
        <ele>1261.3</ele>
        <time>2020-08-23T09:42:21Z</time>
      </trkpt>
      <trkpt lat="45.09646" lon="5.54434">
        <ele>1259.3</ele>
        <time>2020-08-23T09:42:23Z</time>
      </trkpt>
      <trkpt lat="45.09647" lon="5.54438">
        <ele>1258.3</ele>
        <time>2020-08-23T09:42:24Z</time>
      </trkpt>
      <trkpt lat="45.09651" lon="5.54459">
        <ele>1253.6</ele>
        <time>2020-08-23T09:42:28Z</time>
      </trkpt>
      <trkpt lat="45.09653" lon="5.54464">
        <ele>1252.3</ele>
        <time>2020-08-23T09:42:29Z</time>
      </trkpt>
      <trkpt lat="45.09654" lon="5.5447">
        <ele>1251.1</ele>
        <time>2020-08-23T09:42:30Z</time>
      </trkpt>
      <trkpt lat="45.0966" lon="5.54503">
        <ele>1243.4</ele>
        <time>2020-08-23T09:42:37Z</time>
      </trkpt>
      <trkpt lat="45.09659" lon="5.54506">
        <ele>1242.7</ele>
        <time>2020-08-23T09:42:38Z</time>
      </trkpt>
      <trkpt lat="45.09661" lon="5.54518">
        <ele>1240.2</ele>
        <time>2020-08-23T09:42:41Z</time>
      </trkpt>
      <trkpt lat="45.09662" lon="5.54523">
        <ele>1238.9</ele>
        <time>2020-08-23T09:42:42Z</time>
      </trkpt>
      <trkpt lat="45.0966" lon="5.54545">
        <ele>1234.2</ele>
        <time>2020-08-23T09:42:46Z</time>
      </trkpt>
      <trkpt lat="45.09661" lon="5.5455">
        <ele>1233.1</ele>
        <time>2020-08-23T09:42:47Z</time>
      </trkpt>
      <trkpt lat="45.09662" lon="5.54555">
        <ele>1231.9</ele>
        <time>2020-08-23T09:42:48Z</time>
      </trkpt>
      <trkpt lat="45.09664" lon="5.54561">
        <ele>1230.7</ele>
        <time>2020-08-23T09:42:49Z</time>
      </trkpt>
      <trkpt lat="45.09665" lon="5.54567">
        <ele>1229.4</ele>
        <time>2020-08-23T09:42:50Z</time>
      </trkpt>
      <trkpt lat="45.09665" lon="5.54573">
        <ele>1228.1</ele>
        <time>2020-08-23T09:42:51Z</time>
      </trkpt>
      <trkpt lat="45.09664" lon="5.54597">
        <ele>1223.3</ele>
        <time>2020-08-23T09:42:56Z</time>
      </trkpt>
      <trkpt lat="45.09665" lon="5.546">
        <ele>1222.7</ele>
        <time>2020-08-23T09:42:57Z</time>
      </trkpt>
      <trkpt lat="45.09676" lon="5.54607">
        <ele>1220.9</ele>
        <time>2020-08-23T09:43:03Z</time>
      </trkpt>
      <trkpt lat="45.09677" lon="5.54608">
        <ele>1220.8</ele>
        <time>2020-08-23T09:43:04Z</time>
      </trkpt>
      <trkpt lat="45.09684" lon="5.54609">
        <ele>1220.3</ele>
        <time>2020-08-23T09:43:08Z</time>
      </trkpt>
      <trkpt lat="45.09685" lon="5.5461">
        <ele>1220</ele>
        <time>2020-08-23T09:43:09Z</time>
      </trkpt>
      <trkpt lat="45.09692" lon="5.54628">
        <ele>1216.4</ele>
        <time>2020-08-23T09:43:15Z</time>
      </trkpt>
      <trkpt lat="45.09694" lon="5.54631">
        <ele>1215.8</ele>
        <time>2020-08-23T09:43:16Z</time>
      </trkpt>
      <trkpt lat="45.09696" lon="5.54634">
        <ele>1215.2</ele>
        <time>2020-08-23T09:43:17Z</time>
      </trkpt>
      <trkpt lat="45.09702" lon="5.54642">
        <ele>1213.4</ele>
        <time>2020-08-23T09:43:20Z</time>
      </trkpt>
      <trkpt lat="45.09704" lon="5.54645">
        <ele>1212.9</ele>
        <time>2020-08-23T09:43:21Z</time>
      </trkpt>
      <trkpt lat="45.09707" lon="5.54654">
        <ele>1211.3</ele>
        <time>2020-08-23T09:43:24Z</time>
      </trkpt>
      <trkpt lat="45.09716" lon="5.5466">
        <ele>1209.9</ele>
        <time>2020-08-23T09:43:27Z</time>
      </trkpt>
      <trkpt lat="45.0972" lon="5.54662">
        <ele>1209.4</ele>
        <time>2020-08-23T09:43:28Z</time>
      </trkpt>
      <trkpt lat="45.09726" lon="5.5467">
        <ele>1207.7</ele>
        <time>2020-08-23T09:43:30Z</time>
      </trkpt>
      <trkpt lat="45.09729" lon="5.54675">
        <ele>1206.4</ele>
        <time>2020-08-23T09:43:31Z</time>
      </trkpt>
      <trkpt lat="45.09757" lon="5.54702">
        <ele>1198.1</ele>
        <time>2020-08-23T09:43:40Z</time>
      </trkpt>
      <trkpt lat="45.0976" lon="5.54706">
        <ele>1196.8</ele>
        <time>2020-08-23T09:43:41Z</time>
      </trkpt>
      <trkpt lat="45.09763" lon="5.54709">
        <ele>1195.7</ele>
        <time>2020-08-23T09:43:42Z</time>
      </trkpt>
      <trkpt lat="45.09764" lon="5.54712">
        <ele>1194.8</ele>
        <time>2020-08-23T09:43:43Z</time>
      </trkpt>
      <trkpt lat="45.09789" lon="5.54741">
        <ele>1185.4</ele>
        <time>2020-08-23T09:43:54Z</time>
      </trkpt>
      <trkpt lat="45.09789" lon="5.54746">
        <ele>1184.2</ele>
        <time>2020-08-23T09:43:55Z</time>
      </trkpt>
      <trkpt lat="45.09792" lon="5.54759">
        <ele>1180.5</ele>
        <time>2020-08-23T09:43:58Z</time>
      </trkpt>
      <trkpt lat="45.09793" lon="5.54763">
        <ele>1179.3</ele>
        <time>2020-08-23T09:43:59Z</time>
      </trkpt>
      <trkpt lat="45.09794" lon="5.54767">
        <ele>1178</ele>
        <time>2020-08-23T09:44:00Z</time>
      </trkpt>
      <trkpt lat="45.09791" lon="5.54775">
        <ele>1176.1</ele>
        <time>2020-08-23T09:44:03Z</time>
      </trkpt>
      <trkpt lat="45.09785" lon="5.54782">
        <ele>1174.4</ele>
        <time>2020-08-23T09:44:07Z</time>
      </trkpt>
      <trkpt lat="45.09784" lon="5.54783">
        <ele>1174.3</ele>
        <time>2020-08-23T09:44:08Z</time>
      </trkpt>
      <trkpt lat="45.0978" lon="5.54793">
        <ele>1172</ele>
        <time>2020-08-23T09:44:23Z</time>
      </trkpt>
      <trkpt lat="45.09776" lon="5.54796">
        <ele>1171.4</ele>
        <time>2020-08-23T09:44:24Z</time>
      </trkpt>
      <trkpt lat="45.09766" lon="5.5481">
        <ele>1168.7</ele>
        <time>2020-08-23T09:44:28Z</time>
      </trkpt>
      <trkpt lat="45.09763" lon="5.54811">
        <ele>1168.6</ele>
        <time>2020-08-23T09:44:29Z</time>
      </trkpt>
      <trkpt lat="45.09746" lon="5.54827">
        <ele>1165.8</ele>
        <time>2020-08-23T09:44:35Z</time>
      </trkpt>
      <trkpt lat="45.09742" lon="5.5483">
        <ele>1165.3</ele>
        <time>2020-08-23T09:44:36Z</time>
      </trkpt>
      <trkpt lat="45.09738" lon="5.54833">
        <ele>1164.6</ele>
        <time>2020-08-23T09:44:37Z</time>
      </trkpt>
      <trkpt lat="45.09735" lon="5.54837">
        <ele>1163.6</ele>
        <time>2020-08-23T09:44:38Z</time>
      </trkpt>
      <trkpt lat="45.09728" lon="5.54846">
        <ele>1161.7</ele>
        <time>2020-08-23T09:44:40Z</time>
      </trkpt>
      <trkpt lat="45.09722" lon="5.54855">
        <ele>1159.6</ele>
        <time>2020-08-23T09:44:42Z</time>
      </trkpt>
      <trkpt lat="45.09721" lon="5.54856">
        <ele>1159.2</ele>
        <time>2020-08-23T09:44:43Z</time>
      </trkpt>
      <trkpt lat="45.09721" lon="5.54857">
        <ele>1159.1</ele>
        <time>2020-08-23T09:44:44Z</time>
      </trkpt>
      <trkpt lat="45.09721" lon="5.54857">
        <ele>1159.1</ele>
        <time>2020-08-23T09:44:45Z</time>
      </trkpt>
      <trkpt lat="45.09721" lon="5.54871">
        <ele>1155.3</ele>
        <time>2020-08-23T09:44:52Z</time>
      </trkpt>
      <trkpt lat="45.09723" lon="5.54871">
        <ele>1155.1</ele>
        <time>2020-08-23T09:44:53Z</time>
      </trkpt>
      <trkpt lat="45.09734" lon="5.54877">
        <ele>1153.3</ele>
        <time>2020-08-23T09:44:59Z</time>
      </trkpt>
      <trkpt lat="45.09735" lon="5.54881">
        <ele>1152.3</ele>
        <time>2020-08-23T09:45:00Z</time>
      </trkpt>
      <trkpt lat="45.09734" lon="5.54886">
        <ele>1150.9</ele>
        <time>2020-08-23T09:45:01Z</time>
      </trkpt>
      <trkpt lat="45.09735" lon="5.54906">
        <ele>1145.9</ele>
        <time>2020-08-23T09:45:04Z</time>
      </trkpt>
      <trkpt lat="45.09735" lon="5.5491">
        <ele>1144.6</ele>
        <time>2020-08-23T09:45:05Z</time>
      </trkpt>
      <trkpt lat="45.09734" lon="5.54914">
        <ele>1143.6</ele>
        <time>2020-08-23T09:45:06Z</time>
      </trkpt>
      <trkpt lat="45.09732" lon="5.54918">
        <ele>1142.7</ele>
        <time>2020-08-23T09:45:07Z</time>
      </trkpt>
      <trkpt lat="45.09731" lon="5.54946">
        <ele>1135</ele>
        <time>2020-08-23T09:45:16Z</time>
      </trkpt>
      <trkpt lat="45.09732" lon="5.54948">
        <ele>1134.3</ele>
        <time>2020-08-23T09:45:17Z</time>
      </trkpt>
      <trkpt lat="45.09734" lon="5.54962">
        <ele>1130.3</ele>
        <time>2020-08-23T09:45:20Z</time>
      </trkpt>
      <trkpt lat="45.09735" lon="5.54967">
        <ele>1129.1</ele>
        <time>2020-08-23T09:45:21Z</time>
      </trkpt>
      <trkpt lat="45.09736" lon="5.54969">
        <ele>1128.5</ele>
        <time>2020-08-23T09:45:22Z</time>
      </trkpt>
      <trkpt lat="45.09738" lon="5.54969">
        <ele>1128.2</ele>
        <time>2020-08-23T09:45:23Z</time>
      </trkpt>
      <trkpt lat="45.09756" lon="5.54965">
        <ele>1128.4</ele>
        <time>2020-08-23T09:45:30Z</time>
      </trkpt>
      <trkpt lat="45.09759" lon="5.54969">
        <ele>1126.9</ele>
        <time>2020-08-23T09:45:31Z</time>
      </trkpt>
      <trkpt lat="45.0977" lon="5.54986">
        <ele>1121</ele>
        <time>2020-08-23T09:45:37Z</time>
      </trkpt>
      <trkpt lat="45.0977" lon="5.54987">
        <ele>1120.6</ele>
        <time>2020-08-23T09:45:38Z</time>
      </trkpt>
      <trkpt lat="45.09769" lon="5.54988">
        <ele>1120.6</ele>
        <time>2020-08-23T09:45:39Z</time>
      </trkpt>
      <trkpt lat="45.09767" lon="5.54989">
        <ele>1120.4</ele>
        <time>2020-08-23T09:45:40Z</time>
      </trkpt>
      <trkpt lat="45.09766" lon="5.54992">
        <ele>1119.7</ele>
        <time>2020-08-23T09:45:41Z</time>
      </trkpt>
      <trkpt lat="45.09764" lon="5.54997">
        <ele>1118.4</ele>
        <time>2020-08-23T09:45:42Z</time>
      </trkpt>
      <trkpt lat="45.09764" lon="5.55002">
        <ele>1117.2</ele>
        <time>2020-08-23T09:45:43Z</time>
      </trkpt>
      <trkpt lat="45.09765" lon="5.55007">
        <ele>1116.2</ele>
        <time>2020-08-23T09:45:44Z</time>
      </trkpt>
      <trkpt lat="45.09772" lon="5.55018">
        <ele>1113.2</ele>
        <time>2020-08-23T09:45:48Z</time>
      </trkpt>
      <trkpt lat="45.09774" lon="5.5502">
        <ele>1112.7</ele>
        <time>2020-08-23T09:45:49Z</time>
      </trkpt>
      <trkpt lat="45.09777" lon="5.55043">
        <ele>1107.6</ele>
        <time>2020-08-23T09:45:59Z</time>
      </trkpt>
      <trkpt lat="45.09776" lon="5.55047">
        <ele>1107</ele>
        <time>2020-08-23T09:46:00Z</time>
      </trkpt>
      <trkpt lat="45.09774" lon="5.55052">
        <ele>1106.1</ele>
        <time>2020-08-23T09:46:01Z</time>
      </trkpt>
      <trkpt lat="45.09773" lon="5.55115">
        <ele>1093.4</ele>
        <time>2020-08-23T09:46:16Z</time>
      </trkpt>
      <trkpt lat="45.09773" lon="5.5512">
        <ele>1092.4</ele>
        <time>2020-08-23T09:46:17Z</time>
      </trkpt>
      <trkpt lat="45.09772" lon="5.55129">
        <ele>1090.8</ele>
        <time>2020-08-23T09:46:19Z</time>
      </trkpt>
      <trkpt lat="45.09771" lon="5.55133">
        <ele>1090</ele>
        <time>2020-08-23T09:46:20Z</time>
      </trkpt>
      <trkpt lat="45.0977" lon="5.55138">
        <ele>1089.2</ele>
        <time>2020-08-23T09:46:21Z</time>
      </trkpt>
      <trkpt lat="45.09768" lon="5.55143">
        <ele>1088.5</ele>
        <time>2020-08-23T09:46:22Z</time>
      </trkpt>
      <trkpt lat="45.09772" lon="5.55161">
        <ele>1084.3</ele>
        <time>2020-08-23T09:46:28Z</time>
      </trkpt>
      <trkpt lat="45.09773" lon="5.55162">
        <ele>1083.8</ele>
        <time>2020-08-23T09:46:29Z</time>
      </trkpt>
      <trkpt lat="45.09771" lon="5.5518">
        <ele>1080.3</ele>
        <time>2020-08-23T09:46:33Z</time>
      </trkpt>
      <trkpt lat="45.09773" lon="5.55184">
        <ele>1079.1</ele>
        <time>2020-08-23T09:46:34Z</time>
      </trkpt>
      <trkpt lat="45.09787" lon="5.55206">
        <ele>1072.4</ele>
        <time>2020-08-23T09:46:43Z</time>
      </trkpt>
      <trkpt lat="45.09789" lon="5.55209">
        <ele>1071.4</ele>
        <time>2020-08-23T09:46:44Z</time>
      </trkpt>
      <trkpt lat="45.09792" lon="5.55212">
        <ele>1070.5</ele>
        <time>2020-08-23T09:46:45Z</time>
      </trkpt>
      <trkpt lat="45.09794" lon="5.55214">
        <ele>1069.6</ele>
        <time>2020-08-23T09:46:46Z</time>
      </trkpt>
      <trkpt lat="45.09796" lon="5.55217">
        <ele>1068.8</ele>
        <time>2020-08-23T09:46:47Z</time>
      </trkpt>
      <trkpt lat="45.09798" lon="5.55221">
        <ele>1067.8</ele>
        <time>2020-08-23T09:46:48Z</time>
      </trkpt>
      <trkpt lat="45.098" lon="5.55223">
        <ele>1066.9</ele>
        <time>2020-08-23T09:46:49Z</time>
      </trkpt>
      <trkpt lat="45.09801" lon="5.55226">
        <ele>1066.1</ele>
        <time>2020-08-23T09:46:50Z</time>
      </trkpt>
      <trkpt lat="45.09804" lon="5.55235">
        <ele>1063.9</ele>
        <time>2020-08-23T09:46:53Z</time>
      </trkpt>
      <trkpt lat="45.09798" lon="5.55249">
        <ele>1061.5</ele>
        <time>2020-08-23T09:46:59Z</time>
      </trkpt>
      <trkpt lat="45.09797" lon="5.55252">
        <ele>1060.9</ele>
        <time>2020-08-23T09:47:00Z</time>
      </trkpt>
      <trkpt lat="45.09797" lon="5.55255">
        <ele>1060.3</ele>
        <time>2020-08-23T09:47:01Z</time>
      </trkpt>
      <trkpt lat="45.09797" lon="5.55258">
        <ele>1059.6</ele>
        <time>2020-08-23T09:47:02Z</time>
      </trkpt>
      <trkpt lat="45.09798" lon="5.55261">
        <ele>1058.8</ele>
        <time>2020-08-23T09:47:03Z</time>
      </trkpt>
      <trkpt lat="45.09798" lon="5.55264">
        <ele>1058.1</ele>
        <time>2020-08-23T09:47:04Z</time>
      </trkpt>
      <trkpt lat="45.09794" lon="5.55278">
        <ele>1055.5</ele>
        <time>2020-08-23T09:47:09Z</time>
      </trkpt>
      <trkpt lat="45.09792" lon="5.55283">
        <ele>1054.8</ele>
        <time>2020-08-23T09:47:10Z</time>
      </trkpt>
      <trkpt lat="45.0979" lon="5.55289">
        <ele>1053.9</ele>
        <time>2020-08-23T09:47:11Z</time>
      </trkpt>
      <trkpt lat="45.09789" lon="5.55293">
        <ele>1053.2</ele>
        <time>2020-08-23T09:47:12Z</time>
      </trkpt>
      <trkpt lat="45.09789" lon="5.55296">
        <ele>1052.5</ele>
        <time>2020-08-23T09:47:13Z</time>
      </trkpt>
      <trkpt lat="45.0979" lon="5.55301">
        <ele>1051.2</ele>
        <time>2020-08-23T09:47:18Z</time>
      </trkpt>
      <trkpt lat="45.0979" lon="5.55301">
        <ele>1051.2</ele>
        <time>2020-08-23T09:47:19Z</time>
      </trkpt>
      <trkpt lat="45.0979" lon="5.55301">
        <ele>1051.2</ele>
        <time>2020-08-23T09:47:20Z</time>
      </trkpt>
      <trkpt lat="45.0979" lon="5.55301">
        <ele>1051.2</ele>
        <time>2020-08-23T09:47:21Z</time>
      </trkpt>
      <trkpt lat="45.0979" lon="5.55301">
        <ele>1051.2</ele>
        <time>2020-08-23T09:47:22Z</time>
      </trkpt>
      <trkpt lat="45.09789" lon="5.55305">
        <ele>1050.5</ele>
        <time>2020-08-23T09:47:51Z</time>
      </trkpt>
      <trkpt lat="45.09788" lon="5.55313">
        <ele>1048.9</ele>
        <time>2020-08-23T09:47:54Z</time>
      </trkpt>
      <trkpt lat="45.09787" lon="5.55316">
        <ele>1048.3</ele>
        <time>2020-08-23T09:47:55Z</time>
      </trkpt>
      <trkpt lat="45.09787" lon="5.55323">
        <ele>1047</ele>
        <time>2020-08-23T09:47:57Z</time>
      </trkpt>
      <trkpt lat="45.09786" lon="5.55327">
        <ele>1046.2</ele>
        <time>2020-08-23T09:47:58Z</time>
      </trkpt>
      <trkpt lat="45.09787" lon="5.55348">
        <ele>1041.2</ele>
        <time>2020-08-23T09:48:02Z</time>
      </trkpt>
      <trkpt lat="45.09787" lon="5.55354">
        <ele>1039.7</ele>
        <time>2020-08-23T09:48:03Z</time>
      </trkpt>
      <trkpt lat="45.09786" lon="5.5536">
        <ele>1038.1</ele>
        <time>2020-08-23T09:48:04Z</time>
      </trkpt>
      <trkpt lat="45.09787" lon="5.55367">
        <ele>1036.4</ele>
        <time>2020-08-23T09:48:05Z</time>
      </trkpt>
      <trkpt lat="45.09788" lon="5.55374">
        <ele>1034.5</ele>
        <time>2020-08-23T09:48:06Z</time>
      </trkpt>
      <trkpt lat="45.09789" lon="5.55382">
        <ele>1032.4</ele>
        <time>2020-08-23T09:48:07Z</time>
      </trkpt>
      <trkpt lat="45.09792" lon="5.5539">
        <ele>1030.2</ele>
        <time>2020-08-23T09:48:08Z</time>
      </trkpt>
      <trkpt lat="45.09794" lon="5.55397">
        <ele>1028.1</ele>
        <time>2020-08-23T09:48:09Z</time>
      </trkpt>
      <trkpt lat="45.09796" lon="5.55405">
        <ele>1026.1</ele>
        <time>2020-08-23T09:48:10Z</time>
      </trkpt>
      <trkpt lat="45.098" lon="5.55412">
        <ele>1024.2</ele>
        <time>2020-08-23T09:48:11Z</time>
      </trkpt>
      <trkpt lat="45.09803" lon="5.55419">
        <ele>1022.5</ele>
        <time>2020-08-23T09:48:12Z</time>
      </trkpt>
      <trkpt lat="45.09807" lon="5.55426">
        <ele>1021.4</ele>
        <time>2020-08-23T09:48:13Z</time>
      </trkpt>
      <trkpt lat="45.09811" lon="5.55432">
        <ele>1020.5</ele>
        <time>2020-08-23T09:48:14Z</time>
      </trkpt>
      <trkpt lat="45.09814" lon="5.55437">
        <ele>1019.7</ele>
        <time>2020-08-23T09:48:15Z</time>
      </trkpt>
      <trkpt lat="45.09819" lon="5.55441">
        <ele>1019.2</ele>
        <time>2020-08-23T09:48:16Z</time>
      </trkpt>
      <trkpt lat="45.09842" lon="5.55442">
        <ele>1020.2</ele>
        <time>2020-08-23T09:48:20Z</time>
      </trkpt>
      <trkpt lat="45.09846" lon="5.55445">
        <ele>1020.7</ele>
        <time>2020-08-23T09:48:21Z</time>
      </trkpt>
      <trkpt lat="45.09849" lon="5.55451">
        <ele>1020.8</ele>
        <time>2020-08-23T09:48:22Z</time>
      </trkpt>
      <trkpt lat="45.09853" lon="5.55458">
        <ele>1020.8</ele>
        <time>2020-08-23T09:48:23Z</time>
      </trkpt>
      <trkpt lat="45.09856" lon="5.55466">
        <ele>1020.4</ele>
        <time>2020-08-23T09:48:24Z</time>
      </trkpt>
      <trkpt lat="45.09858" lon="5.55474">
        <ele>1019.9</ele>
        <time>2020-08-23T09:48:25Z</time>
      </trkpt>
      <trkpt lat="45.09869" lon="5.55517">
        <ele>1017.3</ele>
        <time>2020-08-23T09:48:30Z</time>
      </trkpt>
      <trkpt lat="45.0987" lon="5.55526">
        <ele>1016.5</ele>
        <time>2020-08-23T09:48:31Z</time>
      </trkpt>
      <trkpt lat="45.0987" lon="5.55536">
        <ele>1015.6</ele>
        <time>2020-08-23T09:48:32Z</time>
      </trkpt>
      <trkpt lat="45.09869" lon="5.55545">
        <ele>1014.7</ele>
        <time>2020-08-23T09:48:33Z</time>
      </trkpt>
      <trkpt lat="45.09869" lon="5.55555">
        <ele>1013.8</ele>
        <time>2020-08-23T09:48:34Z</time>
      </trkpt>
      <trkpt lat="45.09869" lon="5.55603">
        <ele>1009.6</ele>
        <time>2020-08-23T09:48:39Z</time>
      </trkpt>
      <trkpt lat="45.09868" lon="5.55614">
        <ele>1008.8</ele>
        <time>2020-08-23T09:48:40Z</time>
      </trkpt>
      <trkpt lat="45.09867" lon="5.55624">
        <ele>1007.9</ele>
        <time>2020-08-23T09:48:41Z</time>
      </trkpt>
      <trkpt lat="45.09864" lon="5.55632">
        <ele>1007.1</ele>
        <time>2020-08-23T09:48:42Z</time>
      </trkpt>
      <trkpt lat="45.09864" lon="5.55632">
        <ele>1007.1</ele>
      </trkpt>
      <trkpt lat="45.09873" lon="5.5569">
        <ele>1001.2</ele>
      </trkpt>
      <trkpt lat="45.0983" lon="5.55745">
        <ele>994.3</ele>
      </trkpt>
      <trkpt lat="45.09876" lon="5.55805">
        <ele>986.2</ele>
      </trkpt>
      <trkpt lat="45.09943" lon="5.55861">
        <ele>985.9</ele>
      </trkpt>
      <trkpt lat="45.10049" lon="5.55999">
        <ele>987.8</ele>
      </trkpt>
      <trkpt lat="45.10049" lon="5.56054">
        <ele>984.6</ele>
      </trkpt>
      <trkpt lat="45.10076" lon="5.56209">
        <ele>983.1</ele>
      </trkpt>
      <trkpt lat="45.10094" lon="5.56303">
        <ele>985.4</ele>
      </trkpt>
      <trkpt lat="45.10248" lon="5.56441">
        <ele>988.9</ele>
      </trkpt>
      <trkpt lat="45.10454" lon="5.56629">
        <ele>990.7</ele>
      </trkpt>
      <trkpt lat="45.10697" lon="5.56896">
        <ele>985.9</ele>
      </trkpt>
      <trkpt lat="45.10945" lon="5.57192">
        <ele>991.2</ele>
      </trkpt>
      <trkpt lat="45.1123" lon="5.57492">
        <ele>990.2</ele>
      </trkpt>
      <trkpt lat="45.11421" lon="5.57608">
        <ele>993</ele>
      </trkpt>
      <trkpt lat="45.11805" lon="5.57874">
        <ele>993.5</ele>
      </trkpt>
      <trkpt lat="45.12029" lon="5.5802">
        <ele>995.2</ele>
      </trkpt>
      <trkpt lat="45.12505" lon="5.58183">
        <ele>1003.3</ele>
      </trkpt>
      <trkpt lat="45.12753" lon="5.58265">
        <ele>1005.9</ele>
      </trkpt>
      <trkpt lat="45.12926" lon="5.58307">
        <ele>1008.1</ele>
      </trkpt>
    </trkseg>
  </trk>
</gpx>